<?xml version="1.0" encoding="UTF-8" standalone="no" ?>
<gpx xmlns="http://www.topografix.com/GPX/1/1" xmlns:xsi="http://www.w3.org/2001/XMLSchema-instance" xsi:schemaLocation="http://www.topografix.com/GPX/1/1 http://www.topografix.com/GPX/1/1/gpx.xsd" version="1.1" creator="VisuGPX - https://www.visugpx.com">
  <metadata>
    <name>2017-10-23 Bike ride VTT-Amberieux-Saone O Quincieux O</name>
    <desc><![CDATA[2017-10-23 Bike ride VTT-Amberieux-Saone O Quincieux O]]></desc>
  </metadata>
  <wpt lat="45.92466" lon="4.73715">
    <ele>174</ele>
    <name><![CDATA[2017-10-23 10:53 (Start)]]></name>
  </wpt>
  <wpt lat="45.92463" lon="4.73715">
    <ele>174</ele>
    <name><![CDATA[2017-10-23 10:53 (End)]]></name>
    <desc><![CDATA[Created by Google My Tracks on Android  Name: 2017-10-23 10:53 Activity type: biking Description: - Total distance: 21.88 km (13.6 mi) Total time: 1:36:39 Moving time: 1:35:41 Average speed: 13.58 km/h (8.4 mi/h) Average moving speed: 13.72 km/h (8.5 mi/h) Max speed: 30.85 km/h (19.2 mi/h) Average pace: 4:25 min/km (7:06 min/mi) Average moving pace: 4:22 min/km (7:02 min/mi) Fastest pace: 1:57 min/km (3:08 min/mi) Max elevation: 239 m (784 ft) Min elevation: 207 m (679 ft) Elevation gain: 174 m (572 ft) Max grade: 7 % Min grade: -5 % Recorded: 23/10/2017 10:53]]></desc>
  </wpt>
  <trk>
    <name><![CDATA[2017-10-23 10:53]]></name>
    <trkseg>
      <trkpt lat="45.92466" lon="4.73715">
        <ele>174</ele>
        <time>2017-10-23T08:53:05.245Z</time>
      </trkpt>
      <trkpt lat="45.92466" lon="4.73715">
        <ele>174</ele>
        <time>2017-10-23T08:53:02.829Z</time>
      </trkpt>
      <trkpt lat="45.92463" lon="4.73709">
        <ele>174</ele>
        <time>2017-10-23T08:53:06.812Z</time>
      </trkpt>
      <trkpt lat="45.92456" lon="4.73708">
        <ele>174</ele>
        <time>2017-10-23T08:53:07.802Z</time>
      </trkpt>
      <trkpt lat="45.9246" lon="4.7371">
        <ele>174</ele>
        <time>2017-10-23T08:53:19Z</time>
      </trkpt>
      <trkpt lat="45.9246" lon="4.73709">
        <ele>174</ele>
        <time>2017-10-23T08:53:20Z</time>
      </trkpt>
      <trkpt lat="45.9246" lon="4.7371">
        <ele>174</ele>
        <time>2017-10-23T08:53:28Z</time>
      </trkpt>
      <trkpt lat="45.9246" lon="4.7371">
        <ele>174</ele>
        <time>2017-10-23T08:53:29Z</time>
      </trkpt>
      <trkpt lat="45.92465" lon="4.73701">
        <ele>174</ele>
        <time>2017-10-23T08:53:34Z</time>
      </trkpt>
      <trkpt lat="45.92465" lon="4.73698">
        <ele>174</ele>
        <time>2017-10-23T08:53:35Z</time>
      </trkpt>
      <trkpt lat="45.92466" lon="4.73686">
        <ele>174</ele>
        <time>2017-10-23T08:53:38Z</time>
      </trkpt>
      <trkpt lat="45.92466" lon="4.73682">
        <ele>174</ele>
        <time>2017-10-23T08:53:39Z</time>
      </trkpt>
      <trkpt lat="45.92466" lon="4.73673">
        <ele>174</ele>
        <time>2017-10-23T08:53:41Z</time>
      </trkpt>
      <trkpt lat="45.92467" lon="4.73669">
        <ele>174</ele>
        <time>2017-10-23T08:53:42Z</time>
      </trkpt>
      <trkpt lat="45.92469" lon="4.73657">
        <ele>174</ele>
        <time>2017-10-23T08:53:45Z</time>
      </trkpt>
      <trkpt lat="45.9247" lon="4.73653">
        <ele>174</ele>
        <time>2017-10-23T08:53:46Z</time>
      </trkpt>
      <trkpt lat="45.92474" lon="4.73642">
        <ele>174</ele>
        <time>2017-10-23T08:53:49Z</time>
      </trkpt>
      <trkpt lat="45.92476" lon="4.7364">
        <ele>174</ele>
        <time>2017-10-23T08:53:50Z</time>
      </trkpt>
      <trkpt lat="45.92483" lon="4.73638">
        <ele>174</ele>
        <time>2017-10-23T08:53:52Z</time>
      </trkpt>
      <trkpt lat="45.92487" lon="4.73638">
        <ele>174</ele>
        <time>2017-10-23T08:53:53Z</time>
      </trkpt>
      <trkpt lat="45.92495" lon="4.73639">
        <ele>174</ele>
        <time>2017-10-23T08:53:55Z</time>
      </trkpt>
      <trkpt lat="45.92499" lon="4.73639">
        <ele>174</ele>
        <time>2017-10-23T08:53:56Z</time>
      </trkpt>
      <trkpt lat="45.92507" lon="4.73638">
        <ele>174</ele>
        <time>2017-10-23T08:53:58Z</time>
      </trkpt>
      <trkpt lat="45.92511" lon="4.73637">
        <ele>174</ele>
        <time>2017-10-23T08:53:59Z</time>
      </trkpt>
      <trkpt lat="45.92519" lon="4.73638">
        <ele>173</ele>
        <time>2017-10-23T08:54:01Z</time>
      </trkpt>
      <trkpt lat="45.92523" lon="4.73638">
        <ele>173</ele>
        <time>2017-10-23T08:54:02Z</time>
      </trkpt>
      <trkpt lat="45.92532" lon="4.73638">
        <ele>173</ele>
        <time>2017-10-23T08:54:04Z</time>
      </trkpt>
      <trkpt lat="45.92536" lon="4.73636">
        <ele>173</ele>
        <time>2017-10-23T08:54:05Z</time>
      </trkpt>
      <trkpt lat="45.92541" lon="4.73634">
        <ele>173</ele>
        <time>2017-10-23T08:54:06Z</time>
      </trkpt>
      <trkpt lat="45.92545" lon="4.73633">
        <ele>173</ele>
        <time>2017-10-23T08:54:07Z</time>
      </trkpt>
      <trkpt lat="45.92549" lon="4.73632">
        <ele>173</ele>
        <time>2017-10-23T08:54:08Z</time>
      </trkpt>
      <trkpt lat="45.92554" lon="4.73631">
        <ele>173</ele>
        <time>2017-10-23T08:54:09Z</time>
      </trkpt>
      <trkpt lat="45.92562" lon="4.7363">
        <ele>173</ele>
        <time>2017-10-23T08:54:11Z</time>
      </trkpt>
      <trkpt lat="45.92567" lon="4.73629">
        <ele>173</ele>
        <time>2017-10-23T08:54:12Z</time>
      </trkpt>
      <trkpt lat="45.92575" lon="4.73626">
        <ele>173</ele>
        <time>2017-10-23T08:54:14Z</time>
      </trkpt>
      <trkpt lat="45.92579" lon="4.73625">
        <ele>173</ele>
        <time>2017-10-23T08:54:15Z</time>
      </trkpt>
      <trkpt lat="45.92584" lon="4.73625">
        <ele>172</ele>
        <time>2017-10-23T08:54:16Z</time>
      </trkpt>
      <trkpt lat="45.92588" lon="4.73624">
        <ele>173</ele>
        <time>2017-10-23T08:54:17Z</time>
      </trkpt>
      <trkpt lat="45.92597" lon="4.73623">
        <ele>173</ele>
        <time>2017-10-23T08:54:19Z</time>
      </trkpt>
      <trkpt lat="45.92603" lon="4.73623">
        <ele>173</ele>
        <time>2017-10-23T08:54:20Z</time>
      </trkpt>
      <trkpt lat="45.92608" lon="4.73625">
        <ele>173</ele>
        <time>2017-10-23T08:54:21Z</time>
      </trkpt>
      <trkpt lat="45.92613" lon="4.73627">
        <ele>173</ele>
        <time>2017-10-23T08:54:22Z</time>
      </trkpt>
      <trkpt lat="45.9262" lon="4.73634">
        <ele>173</ele>
        <time>2017-10-23T08:54:24Z</time>
      </trkpt>
      <trkpt lat="45.92623" lon="4.7364">
        <ele>173</ele>
        <time>2017-10-23T08:54:25Z</time>
      </trkpt>
      <trkpt lat="45.92626" lon="4.7365">
        <ele>173</ele>
        <time>2017-10-23T08:54:27Z</time>
      </trkpt>
      <trkpt lat="45.92628" lon="4.73655">
        <ele>173</ele>
        <time>2017-10-23T08:54:28Z</time>
      </trkpt>
      <trkpt lat="45.92633" lon="4.73666">
        <ele>173</ele>
        <time>2017-10-23T08:54:30Z</time>
      </trkpt>
      <trkpt lat="45.92635" lon="4.7367">
        <ele>173</ele>
        <time>2017-10-23T08:54:31Z</time>
      </trkpt>
      <trkpt lat="45.92638" lon="4.73675">
        <ele>173</ele>
        <time>2017-10-23T08:54:32Z</time>
      </trkpt>
      <trkpt lat="45.92642" lon="4.7368">
        <ele>173</ele>
        <time>2017-10-23T08:54:33Z</time>
      </trkpt>
      <trkpt lat="45.9265" lon="4.73686">
        <ele>173</ele>
        <time>2017-10-23T08:54:35Z</time>
      </trkpt>
      <trkpt lat="45.92653" lon="4.73689">
        <ele>173</ele>
        <time>2017-10-23T08:54:36Z</time>
      </trkpt>
      <trkpt lat="45.92658" lon="4.73693">
        <ele>173</ele>
        <time>2017-10-23T08:54:37Z</time>
      </trkpt>
      <trkpt lat="45.92662" lon="4.73696">
        <ele>173</ele>
        <time>2017-10-23T08:54:38Z</time>
      </trkpt>
      <trkpt lat="45.9267" lon="4.737">
        <ele>174</ele>
        <time>2017-10-23T08:54:40Z</time>
      </trkpt>
      <trkpt lat="45.92674" lon="4.73702">
        <ele>174</ele>
        <time>2017-10-23T08:54:41Z</time>
      </trkpt>
      <trkpt lat="45.92679" lon="4.73704">
        <ele>173</ele>
        <time>2017-10-23T08:54:42Z</time>
      </trkpt>
      <trkpt lat="45.92684" lon="4.73705">
        <ele>173</ele>
        <time>2017-10-23T08:54:43Z</time>
      </trkpt>
      <trkpt lat="45.92689" lon="4.73708">
        <ele>173</ele>
        <time>2017-10-23T08:54:44Z</time>
      </trkpt>
      <trkpt lat="45.92693" lon="4.7371">
        <ele>173</ele>
        <time>2017-10-23T08:54:45Z</time>
      </trkpt>
      <trkpt lat="45.927" lon="4.73714">
        <ele>173</ele>
        <time>2017-10-23T08:54:47Z</time>
      </trkpt>
      <trkpt lat="45.92705" lon="4.73714">
        <ele>173</ele>
        <time>2017-10-23T08:54:48Z</time>
      </trkpt>
      <trkpt lat="45.92713" lon="4.73715">
        <ele>173</ele>
        <time>2017-10-23T08:54:50Z</time>
      </trkpt>
      <trkpt lat="45.92716" lon="4.73716">
        <ele>173</ele>
        <time>2017-10-23T08:54:51Z</time>
      </trkpt>
      <trkpt lat="45.92721" lon="4.73715">
        <ele>173</ele>
        <time>2017-10-23T08:54:52Z</time>
      </trkpt>
      <trkpt lat="45.92726" lon="4.73717">
        <ele>173</ele>
        <time>2017-10-23T08:54:53Z</time>
      </trkpt>
      <trkpt lat="45.92734" lon="4.73719">
        <ele>173</ele>
        <time>2017-10-23T08:54:55Z</time>
      </trkpt>
      <trkpt lat="45.92738" lon="4.7372">
        <ele>173</ele>
        <time>2017-10-23T08:54:56Z</time>
      </trkpt>
      <trkpt lat="45.92745" lon="4.73723">
        <ele>173</ele>
        <time>2017-10-23T08:54:58Z</time>
      </trkpt>
      <trkpt lat="45.92749" lon="4.73725">
        <ele>173</ele>
        <time>2017-10-23T08:54:59Z</time>
      </trkpt>
      <trkpt lat="45.92757" lon="4.73728">
        <ele>172</ele>
        <time>2017-10-23T08:55:01Z</time>
      </trkpt>
      <trkpt lat="45.92761" lon="4.7373">
        <ele>172</ele>
        <time>2017-10-23T08:55:02Z</time>
      </trkpt>
      <trkpt lat="45.9277" lon="4.73733">
        <ele>172</ele>
        <time>2017-10-23T08:55:04Z</time>
      </trkpt>
      <trkpt lat="45.92773" lon="4.73734">
        <ele>172</ele>
        <time>2017-10-23T08:55:05Z</time>
      </trkpt>
      <trkpt lat="45.92779" lon="4.73739">
        <ele>172</ele>
        <time>2017-10-23T08:55:07Z</time>
      </trkpt>
      <trkpt lat="45.92781" lon="4.73741">
        <ele>172</ele>
        <time>2017-10-23T08:55:08Z</time>
      </trkpt>
      <trkpt lat="45.92784" lon="4.73748">
        <ele>172</ele>
        <time>2017-10-23T08:55:10Z</time>
      </trkpt>
      <trkpt lat="45.92787" lon="4.73751">
        <ele>173</ele>
        <time>2017-10-23T08:55:11Z</time>
      </trkpt>
      <trkpt lat="45.92793" lon="4.73756">
        <ele>173</ele>
        <time>2017-10-23T08:55:13Z</time>
      </trkpt>
      <trkpt lat="45.92797" lon="4.73758">
        <ele>173</ele>
        <time>2017-10-23T08:55:14Z</time>
      </trkpt>
      <trkpt lat="45.92804" lon="4.73764">
        <ele>173</ele>
        <time>2017-10-23T08:55:16Z</time>
      </trkpt>
      <trkpt lat="45.92808" lon="4.73766">
        <ele>173</ele>
        <time>2017-10-23T08:55:17Z</time>
      </trkpt>
      <trkpt lat="45.92815" lon="4.73771">
        <ele>173</ele>
        <time>2017-10-23T08:55:19Z</time>
      </trkpt>
      <trkpt lat="45.92819" lon="4.73773">
        <ele>173</ele>
        <time>2017-10-23T08:55:20Z</time>
      </trkpt>
      <trkpt lat="45.92823" lon="4.73776">
        <ele>173</ele>
        <time>2017-10-23T08:55:21Z</time>
      </trkpt>
      <trkpt lat="45.92827" lon="4.73779">
        <ele>173</ele>
        <time>2017-10-23T08:55:22Z</time>
      </trkpt>
      <trkpt lat="45.92835" lon="4.73784">
        <ele>173</ele>
        <time>2017-10-23T08:55:24Z</time>
      </trkpt>
      <trkpt lat="45.92839" lon="4.73786">
        <ele>173</ele>
        <time>2017-10-23T08:55:25Z</time>
      </trkpt>
      <trkpt lat="45.92843" lon="4.73789">
        <ele>173</ele>
        <time>2017-10-23T08:55:26Z</time>
      </trkpt>
      <trkpt lat="45.92848" lon="4.73792">
        <ele>173</ele>
        <time>2017-10-23T08:55:27Z</time>
      </trkpt>
      <trkpt lat="45.92853" lon="4.73802">
        <ele>173</ele>
        <time>2017-10-23T08:55:29Z</time>
      </trkpt>
      <trkpt lat="45.92855" lon="4.73806">
        <ele>173</ele>
        <time>2017-10-23T08:55:30Z</time>
      </trkpt>
      <trkpt lat="45.92857" lon="4.73811">
        <ele>173</ele>
        <time>2017-10-23T08:55:31Z</time>
      </trkpt>
      <trkpt lat="45.92859" lon="4.73818">
        <ele>173</ele>
        <time>2017-10-23T08:55:32Z</time>
      </trkpt>
      <trkpt lat="45.9286" lon="4.73824">
        <ele>173</ele>
        <time>2017-10-23T08:55:33Z</time>
      </trkpt>
      <trkpt lat="45.92862" lon="4.73831">
        <ele>173</ele>
        <time>2017-10-23T08:55:34Z</time>
      </trkpt>
      <trkpt lat="45.92863" lon="4.73837">
        <ele>173</ele>
        <time>2017-10-23T08:55:35Z</time>
      </trkpt>
      <trkpt lat="45.92865" lon="4.73843">
        <ele>173</ele>
        <time>2017-10-23T08:55:36Z</time>
      </trkpt>
      <trkpt lat="45.92867" lon="4.7385">
        <ele>173</ele>
        <time>2017-10-23T08:55:37Z</time>
      </trkpt>
      <trkpt lat="45.92868" lon="4.73856">
        <ele>173</ele>
        <time>2017-10-23T08:55:38Z</time>
      </trkpt>
      <trkpt lat="45.9287" lon="4.73863">
        <ele>173</ele>
        <time>2017-10-23T08:55:39Z</time>
      </trkpt>
      <trkpt lat="45.92871" lon="4.73869">
        <ele>173</ele>
        <time>2017-10-23T08:55:40Z</time>
      </trkpt>
      <trkpt lat="45.92873" lon="4.73875">
        <ele>173</ele>
        <time>2017-10-23T08:55:41Z</time>
      </trkpt>
      <trkpt lat="45.92875" lon="4.73882">
        <ele>173</ele>
        <time>2017-10-23T08:55:42Z</time>
      </trkpt>
      <trkpt lat="45.92876" lon="4.73888">
        <ele>173</ele>
        <time>2017-10-23T08:55:43Z</time>
      </trkpt>
      <trkpt lat="45.92877" lon="4.73895">
        <ele>173</ele>
        <time>2017-10-23T08:55:44Z</time>
      </trkpt>
      <trkpt lat="45.92878" lon="4.73907">
        <ele>173</ele>
        <time>2017-10-23T08:55:46Z</time>
      </trkpt>
      <trkpt lat="45.92879" lon="4.73914">
        <ele>173</ele>
        <time>2017-10-23T08:55:47Z</time>
      </trkpt>
      <trkpt lat="45.92881" lon="4.73925">
        <ele>172</ele>
        <time>2017-10-23T08:55:49Z</time>
      </trkpt>
      <trkpt lat="45.92881" lon="4.73932">
        <ele>172</ele>
        <time>2017-10-23T08:55:50Z</time>
      </trkpt>
      <trkpt lat="45.92881" lon="4.73938">
        <ele>172</ele>
        <time>2017-10-23T08:55:51Z</time>
      </trkpt>
      <trkpt lat="45.92881" lon="4.73945">
        <ele>172</ele>
        <time>2017-10-23T08:55:52Z</time>
      </trkpt>
      <trkpt lat="45.92882" lon="4.73956">
        <ele>172</ele>
        <time>2017-10-23T08:55:54Z</time>
      </trkpt>
      <trkpt lat="45.92881" lon="4.73963">
        <ele>172</ele>
        <time>2017-10-23T08:55:55Z</time>
      </trkpt>
      <trkpt lat="45.92882" lon="4.73976">
        <ele>172</ele>
        <time>2017-10-23T08:55:57Z</time>
      </trkpt>
      <trkpt lat="45.92881" lon="4.73982">
        <ele>172</ele>
        <time>2017-10-23T08:55:58Z</time>
      </trkpt>
      <trkpt lat="45.9288" lon="4.73994">
        <ele>172</ele>
        <time>2017-10-23T08:56:00Z</time>
      </trkpt>
      <trkpt lat="45.92879" lon="4.74">
        <ele>172</ele>
        <time>2017-10-23T08:56:01Z</time>
      </trkpt>
      <trkpt lat="45.92878" lon="4.74012">
        <ele>172</ele>
        <time>2017-10-23T08:56:03Z</time>
      </trkpt>
      <trkpt lat="45.92878" lon="4.74019">
        <ele>172</ele>
        <time>2017-10-23T08:56:04Z</time>
      </trkpt>
      <trkpt lat="45.92881" lon="4.7403">
        <ele>172</ele>
        <time>2017-10-23T08:56:06Z</time>
      </trkpt>
      <trkpt lat="45.92883" lon="4.74036">
        <ele>172</ele>
        <time>2017-10-23T08:56:07Z</time>
      </trkpt>
      <trkpt lat="45.92887" lon="4.74041">
        <ele>172</ele>
        <time>2017-10-23T08:56:08Z</time>
      </trkpt>
      <trkpt lat="45.92891" lon="4.74046">
        <ele>172</ele>
        <time>2017-10-23T08:56:09Z</time>
      </trkpt>
      <trkpt lat="45.92895" lon="4.74049">
        <ele>172</ele>
        <time>2017-10-23T08:56:10Z</time>
      </trkpt>
      <trkpt lat="45.929" lon="4.74052">
        <ele>172</ele>
        <time>2017-10-23T08:56:11Z</time>
      </trkpt>
      <trkpt lat="45.92907" lon="4.74058">
        <ele>172</ele>
        <time>2017-10-23T08:56:13Z</time>
      </trkpt>
      <trkpt lat="45.92911" lon="4.74063">
        <ele>173</ele>
        <time>2017-10-23T08:56:14Z</time>
      </trkpt>
      <trkpt lat="45.92914" lon="4.74074">
        <ele>173</ele>
        <time>2017-10-23T08:56:16Z</time>
      </trkpt>
      <trkpt lat="45.92914" lon="4.7408">
        <ele>173</ele>
        <time>2017-10-23T08:56:17Z</time>
      </trkpt>
      <trkpt lat="45.92912" lon="4.7409">
        <ele>173</ele>
        <time>2017-10-23T08:56:19Z</time>
      </trkpt>
      <trkpt lat="45.9291" lon="4.74094">
        <ele>172</ele>
        <time>2017-10-23T08:56:20Z</time>
      </trkpt>
      <trkpt lat="45.92906" lon="4.74101">
        <ele>172</ele>
        <time>2017-10-23T08:56:22Z</time>
      </trkpt>
      <trkpt lat="45.92904" lon="4.74104">
        <ele>172</ele>
        <time>2017-10-23T08:56:23Z</time>
      </trkpt>
      <trkpt lat="45.929" lon="4.74111">
        <ele>172</ele>
        <time>2017-10-23T08:56:25Z</time>
      </trkpt>
      <trkpt lat="45.92898" lon="4.74115">
        <ele>172</ele>
        <time>2017-10-23T08:56:26Z</time>
      </trkpt>
      <trkpt lat="45.92892" lon="4.74124">
        <ele>172</ele>
        <time>2017-10-23T08:56:29Z</time>
      </trkpt>
      <trkpt lat="45.9289" lon="4.74126">
        <ele>172</ele>
        <time>2017-10-23T08:56:30Z</time>
      </trkpt>
      <trkpt lat="45.92886" lon="4.74135">
        <ele>172</ele>
        <time>2017-10-23T08:56:33Z</time>
      </trkpt>
      <trkpt lat="45.92885" lon="4.74139">
        <ele>172</ele>
        <time>2017-10-23T08:56:34Z</time>
      </trkpt>
      <trkpt lat="45.92884" lon="4.7415">
        <ele>172</ele>
        <time>2017-10-23T08:56:37Z</time>
      </trkpt>
      <trkpt lat="45.92884" lon="4.74153">
        <ele>172</ele>
        <time>2017-10-23T08:56:38Z</time>
      </trkpt>
      <trkpt lat="45.92888" lon="4.74163">
        <ele>172</ele>
        <time>2017-10-23T08:56:41Z</time>
      </trkpt>
      <trkpt lat="45.9289" lon="4.74166">
        <ele>172</ele>
        <time>2017-10-23T08:56:42Z</time>
      </trkpt>
      <trkpt lat="45.92895" lon="4.74171">
        <ele>172</ele>
        <time>2017-10-23T08:56:44Z</time>
      </trkpt>
      <trkpt lat="45.92897" lon="4.74174">
        <ele>172</ele>
        <time>2017-10-23T08:56:45Z</time>
      </trkpt>
      <trkpt lat="45.92903" lon="4.74178">
        <ele>172</ele>
        <time>2017-10-23T08:56:47Z</time>
      </trkpt>
      <trkpt lat="45.92906" lon="4.74179">
        <ele>172</ele>
        <time>2017-10-23T08:56:48Z</time>
      </trkpt>
      <trkpt lat="45.92912" lon="4.74183">
        <ele>172</ele>
        <time>2017-10-23T08:56:50Z</time>
      </trkpt>
      <trkpt lat="45.92915" lon="4.74185">
        <ele>172</ele>
        <time>2017-10-23T08:56:51Z</time>
      </trkpt>
      <trkpt lat="45.92921" lon="4.74189">
        <ele>171</ele>
        <time>2017-10-23T08:56:53Z</time>
      </trkpt>
      <trkpt lat="45.92924" lon="4.74191">
        <ele>171</ele>
        <time>2017-10-23T08:56:54Z</time>
      </trkpt>
      <trkpt lat="45.9293" lon="4.74195">
        <ele>170</ele>
        <time>2017-10-23T08:56:56Z</time>
      </trkpt>
      <trkpt lat="45.92933" lon="4.74196">
        <ele>170</ele>
        <time>2017-10-23T08:56:57Z</time>
      </trkpt>
      <trkpt lat="45.92938" lon="4.74198">
        <ele>170</ele>
        <time>2017-10-23T08:56:59Z</time>
      </trkpt>
      <trkpt lat="45.92942" lon="4.74199">
        <ele>170</ele>
        <time>2017-10-23T08:57:00Z</time>
      </trkpt>
      <trkpt lat="45.92948" lon="4.74203">
        <ele>170</ele>
        <time>2017-10-23T08:57:02Z</time>
      </trkpt>
      <trkpt lat="45.92952" lon="4.74205">
        <ele>170</ele>
        <time>2017-10-23T08:57:03Z</time>
      </trkpt>
      <trkpt lat="45.92959" lon="4.74206">
        <ele>170</ele>
        <time>2017-10-23T08:57:05Z</time>
      </trkpt>
      <trkpt lat="45.92963" lon="4.74206">
        <ele>170</ele>
        <time>2017-10-23T08:57:06Z</time>
      </trkpt>
      <trkpt lat="45.9297" lon="4.74203">
        <ele>170</ele>
        <time>2017-10-23T08:57:08Z</time>
      </trkpt>
      <trkpt lat="45.92973" lon="4.742">
        <ele>170</ele>
        <time>2017-10-23T08:57:09Z</time>
      </trkpt>
      <trkpt lat="45.92975" lon="4.74193">
        <ele>170</ele>
        <time>2017-10-23T08:57:10Z</time>
      </trkpt>
      <trkpt lat="45.92977" lon="4.74187">
        <ele>170</ele>
        <time>2017-10-23T08:57:11Z</time>
      </trkpt>
      <trkpt lat="45.92979" lon="4.74181">
        <ele>170</ele>
        <time>2017-10-23T08:57:12Z</time>
      </trkpt>
      <trkpt lat="45.92981" lon="4.74174">
        <ele>169</ele>
        <time>2017-10-23T08:57:13Z</time>
      </trkpt>
      <trkpt lat="45.92983" lon="4.74166">
        <ele>170</ele>
        <time>2017-10-23T08:57:14Z</time>
      </trkpt>
      <trkpt lat="45.92985" lon="4.74159">
        <ele>170</ele>
        <time>2017-10-23T08:57:15Z</time>
      </trkpt>
      <trkpt lat="45.92988" lon="4.74149">
        <ele>170</ele>
        <time>2017-10-23T08:57:16Z</time>
      </trkpt>
      <trkpt lat="45.9299" lon="4.74141">
        <ele>171</ele>
        <time>2017-10-23T08:57:17Z</time>
      </trkpt>
      <trkpt lat="45.92993" lon="4.74132">
        <ele>171</ele>
        <time>2017-10-23T08:57:18Z</time>
      </trkpt>
      <trkpt lat="45.92995" lon="4.74122">
        <ele>171</ele>
        <time>2017-10-23T08:57:19Z</time>
      </trkpt>
      <trkpt lat="45.92997" lon="4.74112">
        <ele>171</ele>
        <time>2017-10-23T08:57:20Z</time>
      </trkpt>
      <trkpt lat="45.92997" lon="4.74101">
        <ele>171</ele>
        <time>2017-10-23T08:57:21Z</time>
      </trkpt>
      <trkpt lat="45.92998" lon="4.7409">
        <ele>171</ele>
        <time>2017-10-23T08:57:22Z</time>
      </trkpt>
      <trkpt lat="45.92999" lon="4.74079">
        <ele>171</ele>
        <time>2017-10-23T08:57:23Z</time>
      </trkpt>
      <trkpt lat="45.92999" lon="4.74067">
        <ele>171</ele>
        <time>2017-10-23T08:57:24Z</time>
      </trkpt>
      <trkpt lat="45.93" lon="4.74057">
        <ele>171</ele>
        <time>2017-10-23T08:57:25Z</time>
      </trkpt>
      <trkpt lat="45.92999" lon="4.74047">
        <ele>171</ele>
        <time>2017-10-23T08:57:26Z</time>
      </trkpt>
      <trkpt lat="45.93" lon="4.74037">
        <ele>170</ele>
        <time>2017-10-23T08:57:27Z</time>
      </trkpt>
      <trkpt lat="45.93002" lon="4.74026">
        <ele>170</ele>
        <time>2017-10-23T08:57:28Z</time>
      </trkpt>
      <trkpt lat="45.93004" lon="4.74018">
        <ele>170</ele>
        <time>2017-10-23T08:57:29Z</time>
      </trkpt>
      <trkpt lat="45.93008" lon="4.74009">
        <ele>170</ele>
        <time>2017-10-23T08:57:30Z</time>
      </trkpt>
      <trkpt lat="45.93012" lon="4.74003">
        <ele>170</ele>
        <time>2017-10-23T08:57:31Z</time>
      </trkpt>
      <trkpt lat="45.93017" lon="4.73997">
        <ele>169</ele>
        <time>2017-10-23T08:57:32Z</time>
      </trkpt>
      <trkpt lat="45.93023" lon="4.73995">
        <ele>169</ele>
        <time>2017-10-23T08:57:33Z</time>
      </trkpt>
      <trkpt lat="45.93028" lon="4.73995">
        <ele>169</ele>
        <time>2017-10-23T08:57:34Z</time>
      </trkpt>
      <trkpt lat="45.93034" lon="4.73998">
        <ele>169</ele>
        <time>2017-10-23T08:57:35Z</time>
      </trkpt>
      <trkpt lat="45.93039" lon="4.74">
        <ele>169</ele>
        <time>2017-10-23T08:57:36Z</time>
      </trkpt>
      <trkpt lat="45.93044" lon="4.74004">
        <ele>169</ele>
        <time>2017-10-23T08:57:37Z</time>
      </trkpt>
      <trkpt lat="45.93049" lon="4.74007">
        <ele>169</ele>
        <time>2017-10-23T08:57:38Z</time>
      </trkpt>
      <trkpt lat="45.93054" lon="4.74009">
        <ele>169</ele>
        <time>2017-10-23T08:57:39Z</time>
      </trkpt>
      <trkpt lat="45.93059" lon="4.7401">
        <ele>169</ele>
        <time>2017-10-23T08:57:40Z</time>
      </trkpt>
      <trkpt lat="45.93064" lon="4.7401">
        <ele>169</ele>
        <time>2017-10-23T08:57:41Z</time>
      </trkpt>
      <trkpt lat="45.93071" lon="4.74014">
        <ele>169</ele>
        <time>2017-10-23T08:57:43Z</time>
      </trkpt>
      <trkpt lat="45.93076" lon="4.74013">
        <ele>169</ele>
        <time>2017-10-23T08:57:44Z</time>
      </trkpt>
      <trkpt lat="45.93085" lon="4.74013">
        <ele>168</ele>
        <time>2017-10-23T08:57:46Z</time>
      </trkpt>
      <trkpt lat="45.93089" lon="4.74014">
        <ele>168</ele>
        <time>2017-10-23T08:57:47Z</time>
      </trkpt>
      <trkpt lat="45.93093" lon="4.74015">
        <ele>168</ele>
        <time>2017-10-23T08:57:48Z</time>
      </trkpt>
      <trkpt lat="45.93098" lon="4.74016">
        <ele>168</ele>
        <time>2017-10-23T08:57:49Z</time>
      </trkpt>
      <trkpt lat="45.93106" lon="4.7402">
        <ele>168</ele>
        <time>2017-10-23T08:57:51Z</time>
      </trkpt>
      <trkpt lat="45.9311" lon="4.74022">
        <ele>168</ele>
        <time>2017-10-23T08:57:52Z</time>
      </trkpt>
      <trkpt lat="45.93118" lon="4.74025">
        <ele>168</ele>
        <time>2017-10-23T08:57:54Z</time>
      </trkpt>
      <trkpt lat="45.93122" lon="4.74027">
        <ele>168</ele>
        <time>2017-10-23T08:57:55Z</time>
      </trkpt>
      <trkpt lat="45.93126" lon="4.7403">
        <ele>168</ele>
        <time>2017-10-23T08:57:56Z</time>
      </trkpt>
      <trkpt lat="45.93131" lon="4.74032">
        <ele>168</ele>
        <time>2017-10-23T08:57:57Z</time>
      </trkpt>
      <trkpt lat="45.93138" lon="4.74038">
        <ele>168</ele>
        <time>2017-10-23T08:57:59Z</time>
      </trkpt>
      <trkpt lat="45.93142" lon="4.74041">
        <ele>168</ele>
        <time>2017-10-23T08:58:00Z</time>
      </trkpt>
      <trkpt lat="45.93146" lon="4.74044">
        <ele>168</ele>
        <time>2017-10-23T08:58:01Z</time>
      </trkpt>
      <trkpt lat="45.9315" lon="4.74047">
        <ele>168</ele>
        <time>2017-10-23T08:58:02Z</time>
      </trkpt>
      <trkpt lat="45.93154" lon="4.74051">
        <ele>168</ele>
        <time>2017-10-23T08:58:03Z</time>
      </trkpt>
      <trkpt lat="45.93157" lon="4.74055">
        <ele>168</ele>
        <time>2017-10-23T08:58:04Z</time>
      </trkpt>
      <trkpt lat="45.93164" lon="4.74062">
        <ele>168</ele>
        <time>2017-10-23T08:58:06Z</time>
      </trkpt>
      <trkpt lat="45.93167" lon="4.74066">
        <ele>168</ele>
        <time>2017-10-23T08:58:07Z</time>
      </trkpt>
      <trkpt lat="45.93171" lon="4.74069">
        <ele>168</ele>
        <time>2017-10-23T08:58:08Z</time>
      </trkpt>
      <trkpt lat="45.93176" lon="4.74071">
        <ele>168</ele>
        <time>2017-10-23T08:58:09Z</time>
      </trkpt>
      <trkpt lat="45.9318" lon="4.74075">
        <ele>168</ele>
        <time>2017-10-23T08:58:10Z</time>
      </trkpt>
      <trkpt lat="45.93185" lon="4.74079">
        <ele>168</ele>
        <time>2017-10-23T08:58:11Z</time>
      </trkpt>
      <trkpt lat="45.93189" lon="4.74083">
        <ele>168</ele>
        <time>2017-10-23T08:58:12Z</time>
      </trkpt>
      <trkpt lat="45.93193" lon="4.74087">
        <ele>167</ele>
        <time>2017-10-23T08:58:13Z</time>
      </trkpt>
      <trkpt lat="45.93197" lon="4.74091">
        <ele>167</ele>
        <time>2017-10-23T08:58:14Z</time>
      </trkpt>
      <trkpt lat="45.93201" lon="4.74094">
        <ele>167</ele>
        <time>2017-10-23T08:58:15Z</time>
      </trkpt>
      <trkpt lat="45.93206" lon="4.74096">
        <ele>167</ele>
        <time>2017-10-23T08:58:16Z</time>
      </trkpt>
      <trkpt lat="45.93209" lon="4.741">
        <ele>167</ele>
        <time>2017-10-23T08:58:17Z</time>
      </trkpt>
      <trkpt lat="45.93213" lon="4.74104">
        <ele>167</ele>
        <time>2017-10-23T08:58:18Z</time>
      </trkpt>
      <trkpt lat="45.93217" lon="4.74107">
        <ele>167</ele>
        <time>2017-10-23T08:58:19Z</time>
      </trkpt>
      <trkpt lat="45.93224" lon="4.74114">
        <ele>167</ele>
        <time>2017-10-23T08:58:21Z</time>
      </trkpt>
      <trkpt lat="45.93228" lon="4.74114">
        <ele>167</ele>
        <time>2017-10-23T08:58:22Z</time>
      </trkpt>
      <trkpt lat="45.93236" lon="4.74114">
        <ele>167</ele>
        <time>2017-10-23T08:58:24Z</time>
      </trkpt>
      <trkpt lat="45.93239" lon="4.7411">
        <ele>167</ele>
        <time>2017-10-23T08:58:25Z</time>
      </trkpt>
      <trkpt lat="45.93246" lon="4.74102">
        <ele>167</ele>
        <time>2017-10-23T08:58:27Z</time>
      </trkpt>
      <trkpt lat="45.93248" lon="4.74097">
        <ele>167</ele>
        <time>2017-10-23T08:58:28Z</time>
      </trkpt>
      <trkpt lat="45.93252" lon="4.7409">
        <ele>167</ele>
        <time>2017-10-23T08:58:29Z</time>
      </trkpt>
      <trkpt lat="45.93255" lon="4.74083">
        <ele>167</ele>
        <time>2017-10-23T08:58:30Z</time>
      </trkpt>
      <trkpt lat="45.93261" lon="4.74074">
        <ele>167</ele>
        <time>2017-10-23T08:58:32Z</time>
      </trkpt>
      <trkpt lat="45.93264" lon="4.7407">
        <ele>167</ele>
        <time>2017-10-23T08:58:33Z</time>
      </trkpt>
      <trkpt lat="45.93268" lon="4.74059">
        <ele>168</ele>
        <time>2017-10-23T08:58:35Z</time>
      </trkpt>
      <trkpt lat="45.9327" lon="4.74054">
        <ele>168</ele>
        <time>2017-10-23T08:58:36Z</time>
      </trkpt>
      <trkpt lat="45.93274" lon="4.74045">
        <ele>168</ele>
        <time>2017-10-23T08:58:38Z</time>
      </trkpt>
      <trkpt lat="45.93277" lon="4.7404">
        <ele>168</ele>
        <time>2017-10-23T08:58:39Z</time>
      </trkpt>
      <trkpt lat="45.93281" lon="4.7403">
        <ele>168</ele>
        <time>2017-10-23T08:58:41Z</time>
      </trkpt>
      <trkpt lat="45.93283" lon="4.74025">
        <ele>168</ele>
        <time>2017-10-23T08:58:42Z</time>
      </trkpt>
      <trkpt lat="45.93289" lon="4.74018">
        <ele>168</ele>
        <time>2017-10-23T08:58:44Z</time>
      </trkpt>
      <trkpt lat="45.93291" lon="4.74014">
        <ele>168</ele>
        <time>2017-10-23T08:58:45Z</time>
      </trkpt>
      <trkpt lat="45.93296" lon="4.74004">
        <ele>168</ele>
        <time>2017-10-23T08:58:47Z</time>
      </trkpt>
      <trkpt lat="45.93298" lon="4.73998">
        <ele>168</ele>
        <time>2017-10-23T08:58:48Z</time>
      </trkpt>
      <trkpt lat="45.93303" lon="4.73989">
        <ele>168</ele>
        <time>2017-10-23T08:58:50Z</time>
      </trkpt>
      <trkpt lat="45.93306" lon="4.73984">
        <ele>168</ele>
        <time>2017-10-23T08:58:51Z</time>
      </trkpt>
      <trkpt lat="45.93309" lon="4.73979">
        <ele>168</ele>
        <time>2017-10-23T08:58:52Z</time>
      </trkpt>
      <trkpt lat="45.93313" lon="4.73973">
        <ele>168</ele>
        <time>2017-10-23T08:58:53Z</time>
      </trkpt>
      <trkpt lat="45.93317" lon="4.73964">
        <ele>168</ele>
        <time>2017-10-23T08:58:55Z</time>
      </trkpt>
      <trkpt lat="45.9332" lon="4.7396">
        <ele>168</ele>
        <time>2017-10-23T08:58:56Z</time>
      </trkpt>
      <trkpt lat="45.93325" lon="4.73949">
        <ele>168</ele>
        <time>2017-10-23T08:58:58Z</time>
      </trkpt>
      <trkpt lat="45.93327" lon="4.73945">
        <ele>168</ele>
        <time>2017-10-23T08:58:59Z</time>
      </trkpt>
      <trkpt lat="45.93333" lon="4.73936">
        <ele>168</ele>
        <time>2017-10-23T08:59:01Z</time>
      </trkpt>
      <trkpt lat="45.93335" lon="4.73932">
        <ele>168</ele>
        <time>2017-10-23T08:59:02Z</time>
      </trkpt>
      <trkpt lat="45.9334" lon="4.73924">
        <ele>168</ele>
        <time>2017-10-23T08:59:04Z</time>
      </trkpt>
      <trkpt lat="45.93342" lon="4.73921">
        <ele>168</ele>
        <time>2017-10-23T08:59:05Z</time>
      </trkpt>
      <trkpt lat="45.93348" lon="4.73913">
        <ele>168</ele>
        <time>2017-10-23T08:59:07Z</time>
      </trkpt>
      <trkpt lat="45.93351" lon="4.73908">
        <ele>168</ele>
        <time>2017-10-23T08:59:08Z</time>
      </trkpt>
      <trkpt lat="45.93356" lon="4.739">
        <ele>168</ele>
        <time>2017-10-23T08:59:10Z</time>
      </trkpt>
      <trkpt lat="45.93358" lon="4.73895">
        <ele>168</ele>
        <time>2017-10-23T08:59:11Z</time>
      </trkpt>
      <trkpt lat="45.93364" lon="4.73887">
        <ele>168</ele>
        <time>2017-10-23T08:59:13Z</time>
      </trkpt>
      <trkpt lat="45.93367" lon="4.73884">
        <ele>168</ele>
        <time>2017-10-23T08:59:14Z</time>
      </trkpt>
      <trkpt lat="45.93372" lon="4.73879">
        <ele>168</ele>
        <time>2017-10-23T08:59:16Z</time>
      </trkpt>
      <trkpt lat="45.93374" lon="4.73876">
        <ele>168</ele>
        <time>2017-10-23T08:59:17Z</time>
      </trkpt>
      <trkpt lat="45.9338" lon="4.7387">
        <ele>169</ele>
        <time>2017-10-23T08:59:19Z</time>
      </trkpt>
      <trkpt lat="45.93383" lon="4.73868">
        <ele>169</ele>
        <time>2017-10-23T08:59:20Z</time>
      </trkpt>
      <trkpt lat="45.9339" lon="4.73863">
        <ele>169</ele>
        <time>2017-10-23T08:59:22Z</time>
      </trkpt>
      <trkpt lat="45.93393" lon="4.7386">
        <ele>169</ele>
        <time>2017-10-23T08:59:23Z</time>
      </trkpt>
      <trkpt lat="45.93399" lon="4.73855">
        <ele>169</ele>
        <time>2017-10-23T08:59:25Z</time>
      </trkpt>
      <trkpt lat="45.93403" lon="4.73853">
        <ele>169</ele>
        <time>2017-10-23T08:59:26Z</time>
      </trkpt>
      <trkpt lat="45.9341" lon="4.73848">
        <ele>169</ele>
        <time>2017-10-23T08:59:28Z</time>
      </trkpt>
      <trkpt lat="45.93414" lon="4.73846">
        <ele>169</ele>
        <time>2017-10-23T08:59:29Z</time>
      </trkpt>
      <trkpt lat="45.93421" lon="4.73842">
        <ele>169</ele>
        <time>2017-10-23T08:59:31Z</time>
      </trkpt>
      <trkpt lat="45.93425" lon="4.7384">
        <ele>169</ele>
        <time>2017-10-23T08:59:32Z</time>
      </trkpt>
      <trkpt lat="45.93433" lon="4.73836">
        <ele>169</ele>
        <time>2017-10-23T08:59:34Z</time>
      </trkpt>
      <trkpt lat="45.93436" lon="4.73835">
        <ele>169</ele>
        <time>2017-10-23T08:59:35Z</time>
      </trkpt>
      <trkpt lat="45.93443" lon="4.73831">
        <ele>169</ele>
        <time>2017-10-23T08:59:37Z</time>
      </trkpt>
      <trkpt lat="45.93447" lon="4.7383">
        <ele>169</ele>
        <time>2017-10-23T08:59:38Z</time>
      </trkpt>
      <trkpt lat="45.93454" lon="4.73826">
        <ele>169</ele>
        <time>2017-10-23T08:59:40Z</time>
      </trkpt>
      <trkpt lat="45.93459" lon="4.73824">
        <ele>169</ele>
        <time>2017-10-23T08:59:41Z</time>
      </trkpt>
      <trkpt lat="45.93467" lon="4.7382">
        <ele>169</ele>
        <time>2017-10-23T08:59:43Z</time>
      </trkpt>
      <trkpt lat="45.9347" lon="4.73818">
        <ele>169</ele>
        <time>2017-10-23T08:59:44Z</time>
      </trkpt>
      <trkpt lat="45.93476" lon="4.73814">
        <ele>169</ele>
        <time>2017-10-23T08:59:46Z</time>
      </trkpt>
      <trkpt lat="45.93479" lon="4.73813">
        <ele>169</ele>
        <time>2017-10-23T08:59:47Z</time>
      </trkpt>
      <trkpt lat="45.93484" lon="4.73809">
        <ele>169</ele>
        <time>2017-10-23T08:59:49Z</time>
      </trkpt>
      <trkpt lat="45.93487" lon="4.73807">
        <ele>169</ele>
        <time>2017-10-23T08:59:50Z</time>
      </trkpt>
      <trkpt lat="45.93495" lon="4.73804">
        <ele>169</ele>
        <time>2017-10-23T08:59:52Z</time>
      </trkpt>
      <trkpt lat="45.93498" lon="4.73802">
        <ele>169</ele>
        <time>2017-10-23T08:59:53Z</time>
      </trkpt>
      <trkpt lat="45.93505" lon="4.73797">
        <ele>169</ele>
        <time>2017-10-23T08:59:55Z</time>
      </trkpt>
      <trkpt lat="45.93509" lon="4.73794">
        <ele>169</ele>
        <time>2017-10-23T08:59:56Z</time>
      </trkpt>
      <trkpt lat="45.93516" lon="4.73787">
        <ele>169</ele>
        <time>2017-10-23T08:59:58Z</time>
      </trkpt>
      <trkpt lat="45.93519" lon="4.73784">
        <ele>169</ele>
        <time>2017-10-23T08:59:59Z</time>
      </trkpt>
      <trkpt lat="45.93525" lon="4.73777">
        <ele>169</ele>
        <time>2017-10-23T09:00:01Z</time>
      </trkpt>
      <trkpt lat="45.93528" lon="4.73774">
        <ele>169</ele>
        <time>2017-10-23T09:00:02Z</time>
      </trkpt>
      <trkpt lat="45.93535" lon="4.73767">
        <ele>169</ele>
        <time>2017-10-23T09:00:04Z</time>
      </trkpt>
      <trkpt lat="45.93539" lon="4.73764">
        <ele>169</ele>
        <time>2017-10-23T09:00:05Z</time>
      </trkpt>
      <trkpt lat="45.93546" lon="4.73756">
        <ele>169</ele>
        <time>2017-10-23T09:00:07Z</time>
      </trkpt>
      <trkpt lat="45.93549" lon="4.73752">
        <ele>169</ele>
        <time>2017-10-23T09:00:08Z</time>
      </trkpt>
      <trkpt lat="45.93555" lon="4.73746">
        <ele>169</ele>
        <time>2017-10-23T09:00:10Z</time>
      </trkpt>
      <trkpt lat="45.93559" lon="4.73742">
        <ele>169</ele>
        <time>2017-10-23T09:00:11Z</time>
      </trkpt>
      <trkpt lat="45.93565" lon="4.73736">
        <ele>169</ele>
        <time>2017-10-23T09:00:13Z</time>
      </trkpt>
      <trkpt lat="45.93569" lon="4.73733">
        <ele>169</ele>
        <time>2017-10-23T09:00:14Z</time>
      </trkpt>
      <trkpt lat="45.93574" lon="4.73727">
        <ele>169</ele>
        <time>2017-10-23T09:00:16Z</time>
      </trkpt>
      <trkpt lat="45.93577" lon="4.73724">
        <ele>169</ele>
        <time>2017-10-23T09:00:17Z</time>
      </trkpt>
      <trkpt lat="45.93582" lon="4.73717">
        <ele>169</ele>
        <time>2017-10-23T09:00:19Z</time>
      </trkpt>
      <trkpt lat="45.93584" lon="4.73712">
        <ele>169</ele>
        <time>2017-10-23T09:00:20Z</time>
      </trkpt>
      <trkpt lat="45.93588" lon="4.73702">
        <ele>169</ele>
        <time>2017-10-23T09:00:22Z</time>
      </trkpt>
      <trkpt lat="45.9359" lon="4.73697">
        <ele>169</ele>
        <time>2017-10-23T09:00:23Z</time>
      </trkpt>
      <trkpt lat="45.93591" lon="4.73684">
        <ele>169</ele>
        <time>2017-10-23T09:00:25Z</time>
      </trkpt>
      <trkpt lat="45.9359" lon="4.73678">
        <ele>169</ele>
        <time>2017-10-23T09:00:26Z</time>
      </trkpt>
      <trkpt lat="45.9359" lon="4.73672">
        <ele>168</ele>
        <time>2017-10-23T09:00:27Z</time>
      </trkpt>
      <trkpt lat="45.93588" lon="4.73663">
        <ele>168</ele>
        <time>2017-10-23T09:00:28Z</time>
      </trkpt>
      <trkpt lat="45.93586" lon="4.73652">
        <ele>168</ele>
        <time>2017-10-23T09:00:30Z</time>
      </trkpt>
      <trkpt lat="45.93584" lon="4.73646">
        <ele>168</ele>
        <time>2017-10-23T09:00:31Z</time>
      </trkpt>
      <trkpt lat="45.93583" lon="4.73637">
        <ele>168</ele>
        <time>2017-10-23T09:00:33Z</time>
      </trkpt>
      <trkpt lat="45.93583" lon="4.73632">
        <ele>168</ele>
        <time>2017-10-23T09:00:34Z</time>
      </trkpt>
      <trkpt lat="45.93583" lon="4.73622">
        <ele>168</ele>
        <time>2017-10-23T09:00:36Z</time>
      </trkpt>
      <trkpt lat="45.93583" lon="4.73617">
        <ele>168</ele>
        <time>2017-10-23T09:00:37Z</time>
      </trkpt>
      <trkpt lat="45.93581" lon="4.73606">
        <ele>168</ele>
        <time>2017-10-23T09:00:39Z</time>
      </trkpt>
      <trkpt lat="45.9358" lon="4.736">
        <ele>168</ele>
        <time>2017-10-23T09:00:40Z</time>
      </trkpt>
      <trkpt lat="45.93579" lon="4.73588">
        <ele>168</ele>
        <time>2017-10-23T09:00:42Z</time>
      </trkpt>
      <trkpt lat="45.93578" lon="4.73582">
        <ele>168</ele>
        <time>2017-10-23T09:00:43Z</time>
      </trkpt>
      <trkpt lat="45.93577" lon="4.7357">
        <ele>168</ele>
        <time>2017-10-23T09:00:45Z</time>
      </trkpt>
      <trkpt lat="45.93577" lon="4.73564">
        <ele>168</ele>
        <time>2017-10-23T09:00:46Z</time>
      </trkpt>
      <trkpt lat="45.93575" lon="4.73552">
        <ele>168</ele>
        <time>2017-10-23T09:00:48Z</time>
      </trkpt>
      <trkpt lat="45.93574" lon="4.73545">
        <ele>168</ele>
        <time>2017-10-23T09:00:49Z</time>
      </trkpt>
      <trkpt lat="45.93571" lon="4.73533">
        <ele>169</ele>
        <time>2017-10-23T09:00:51Z</time>
      </trkpt>
      <trkpt lat="45.93569" lon="4.73528">
        <ele>169</ele>
        <time>2017-10-23T09:00:52Z</time>
      </trkpt>
      <trkpt lat="45.93567" lon="4.73516">
        <ele>168</ele>
        <time>2017-10-23T09:00:54Z</time>
      </trkpt>
      <trkpt lat="45.93565" lon="4.73512">
        <ele>168</ele>
        <time>2017-10-23T09:00:55Z</time>
      </trkpt>
      <trkpt lat="45.93563" lon="4.73503">
        <ele>168</ele>
        <time>2017-10-23T09:00:57Z</time>
      </trkpt>
      <trkpt lat="45.93562" lon="4.73499">
        <ele>169</ele>
        <time>2017-10-23T09:00:58Z</time>
      </trkpt>
      <trkpt lat="45.93559" lon="4.73489">
        <ele>169</ele>
        <time>2017-10-23T09:01:00Z</time>
      </trkpt>
      <trkpt lat="45.93557" lon="4.73483">
        <ele>169</ele>
        <time>2017-10-23T09:01:01Z</time>
      </trkpt>
      <trkpt lat="45.93555" lon="4.73473">
        <ele>169</ele>
        <time>2017-10-23T09:01:03Z</time>
      </trkpt>
      <trkpt lat="45.93553" lon="4.73468">
        <ele>169</ele>
        <time>2017-10-23T09:01:04Z</time>
      </trkpt>
      <trkpt lat="45.93549" lon="4.73457">
        <ele>169</ele>
        <time>2017-10-23T09:01:06Z</time>
      </trkpt>
      <trkpt lat="45.93548" lon="4.73452">
        <ele>169</ele>
        <time>2017-10-23T09:01:07Z</time>
      </trkpt>
      <trkpt lat="45.93546" lon="4.73443">
        <ele>169</ele>
        <time>2017-10-23T09:01:09Z</time>
      </trkpt>
      <trkpt lat="45.93544" lon="4.73438">
        <ele>169</ele>
        <time>2017-10-23T09:01:10Z</time>
      </trkpt>
      <trkpt lat="45.93542" lon="4.73427">
        <ele>169</ele>
        <time>2017-10-23T09:01:12Z</time>
      </trkpt>
      <trkpt lat="45.9354" lon="4.73422">
        <ele>169</ele>
        <time>2017-10-23T09:01:13Z</time>
      </trkpt>
      <trkpt lat="45.93539" lon="4.7341">
        <ele>169</ele>
        <time>2017-10-23T09:01:15Z</time>
      </trkpt>
      <trkpt lat="45.93538" lon="4.73403">
        <ele>169</ele>
        <time>2017-10-23T09:01:16Z</time>
      </trkpt>
      <trkpt lat="45.93537" lon="4.73391">
        <ele>169</ele>
        <time>2017-10-23T09:01:18Z</time>
      </trkpt>
      <trkpt lat="45.93535" lon="4.73385">
        <ele>169</ele>
        <time>2017-10-23T09:01:19Z</time>
      </trkpt>
      <trkpt lat="45.93533" lon="4.73374">
        <ele>169</ele>
        <time>2017-10-23T09:01:21Z</time>
      </trkpt>
      <trkpt lat="45.93532" lon="4.73369">
        <ele>169</ele>
        <time>2017-10-23T09:01:22Z</time>
      </trkpt>
      <trkpt lat="45.9353" lon="4.7336">
        <ele>169</ele>
        <time>2017-10-23T09:01:24Z</time>
      </trkpt>
      <trkpt lat="45.93529" lon="4.73356">
        <ele>169</ele>
        <time>2017-10-23T09:01:25Z</time>
      </trkpt>
      <trkpt lat="45.93527" lon="4.73345">
        <ele>169</ele>
        <time>2017-10-23T09:01:27Z</time>
      </trkpt>
      <trkpt lat="45.93526" lon="4.7334">
        <ele>169</ele>
        <time>2017-10-23T09:01:28Z</time>
      </trkpt>
      <trkpt lat="45.93524" lon="4.73328">
        <ele>169</ele>
        <time>2017-10-23T09:01:30Z</time>
      </trkpt>
      <trkpt lat="45.93523" lon="4.73322">
        <ele>169</ele>
        <time>2017-10-23T09:01:31Z</time>
      </trkpt>
      <trkpt lat="45.9352" lon="4.7331">
        <ele>169</ele>
        <time>2017-10-23T09:01:33Z</time>
      </trkpt>
      <trkpt lat="45.93519" lon="4.73304">
        <ele>169</ele>
        <time>2017-10-23T09:01:34Z</time>
      </trkpt>
      <trkpt lat="45.93518" lon="4.73291">
        <ele>169</ele>
        <time>2017-10-23T09:01:36Z</time>
      </trkpt>
      <trkpt lat="45.93517" lon="4.73285">
        <ele>169</ele>
        <time>2017-10-23T09:01:37Z</time>
      </trkpt>
      <trkpt lat="45.93515" lon="4.73274">
        <ele>169</ele>
        <time>2017-10-23T09:01:39Z</time>
      </trkpt>
      <trkpt lat="45.93514" lon="4.7327">
        <ele>169</ele>
        <time>2017-10-23T09:01:40Z</time>
      </trkpt>
      <trkpt lat="45.93513" lon="4.7326">
        <ele>169</ele>
        <time>2017-10-23T09:01:42Z</time>
      </trkpt>
      <trkpt lat="45.93512" lon="4.73255">
        <ele>169</ele>
        <time>2017-10-23T09:01:43Z</time>
      </trkpt>
      <trkpt lat="45.9351" lon="4.73244">
        <ele>169</ele>
        <time>2017-10-23T09:01:45Z</time>
      </trkpt>
      <trkpt lat="45.93509" lon="4.73238">
        <ele>169</ele>
        <time>2017-10-23T09:01:46Z</time>
      </trkpt>
      <trkpt lat="45.93508" lon="4.73227">
        <ele>169</ele>
        <time>2017-10-23T09:01:48Z</time>
      </trkpt>
      <trkpt lat="45.93506" lon="4.73221">
        <ele>169</ele>
        <time>2017-10-23T09:01:49Z</time>
      </trkpt>
      <trkpt lat="45.93504" lon="4.73209">
        <ele>169</ele>
        <time>2017-10-23T09:01:51Z</time>
      </trkpt>
      <trkpt lat="45.93503" lon="4.73204">
        <ele>169</ele>
        <time>2017-10-23T09:01:52Z</time>
      </trkpt>
      <trkpt lat="45.93501" lon="4.73195">
        <ele>169</ele>
        <time>2017-10-23T09:01:54Z</time>
      </trkpt>
      <trkpt lat="45.935" lon="4.7319">
        <ele>169</ele>
        <time>2017-10-23T09:01:55Z</time>
      </trkpt>
      <trkpt lat="45.93497" lon="4.7318">
        <ele>169</ele>
        <time>2017-10-23T09:01:57Z</time>
      </trkpt>
      <trkpt lat="45.93495" lon="4.73174">
        <ele>170</ele>
        <time>2017-10-23T09:01:58Z</time>
      </trkpt>
      <trkpt lat="45.93492" lon="4.73164">
        <ele>170</ele>
        <time>2017-10-23T09:02:00Z</time>
      </trkpt>
      <trkpt lat="45.93489" lon="4.73158">
        <ele>170</ele>
        <time>2017-10-23T09:02:01Z</time>
      </trkpt>
      <trkpt lat="45.93485" lon="4.73147">
        <ele>170</ele>
        <time>2017-10-23T09:02:03Z</time>
      </trkpt>
      <trkpt lat="45.93483" lon="4.73141">
        <ele>170</ele>
        <time>2017-10-23T09:02:04Z</time>
      </trkpt>
      <trkpt lat="45.93482" lon="4.73129">
        <ele>170</ele>
        <time>2017-10-23T09:02:06Z</time>
      </trkpt>
      <trkpt lat="45.93482" lon="4.73124">
        <ele>170</ele>
        <time>2017-10-23T09:02:07Z</time>
      </trkpt>
      <trkpt lat="45.93482" lon="4.73113">
        <ele>170</ele>
        <time>2017-10-23T09:02:09Z</time>
      </trkpt>
      <trkpt lat="45.93482" lon="4.73108">
        <ele>170</ele>
        <time>2017-10-23T09:02:10Z</time>
      </trkpt>
      <trkpt lat="45.93482" lon="4.73097">
        <ele>170</ele>
        <time>2017-10-23T09:02:12Z</time>
      </trkpt>
      <trkpt lat="45.93482" lon="4.73091">
        <ele>170</ele>
        <time>2017-10-23T09:02:13Z</time>
      </trkpt>
      <trkpt lat="45.93482" lon="4.73079">
        <ele>170</ele>
        <time>2017-10-23T09:02:15Z</time>
      </trkpt>
      <trkpt lat="45.93482" lon="4.73074">
        <ele>170</ele>
        <time>2017-10-23T09:02:16Z</time>
      </trkpt>
      <trkpt lat="45.93482" lon="4.73063">
        <ele>170</ele>
        <time>2017-10-23T09:02:18Z</time>
      </trkpt>
      <trkpt lat="45.93482" lon="4.73058">
        <ele>170</ele>
        <time>2017-10-23T09:02:19Z</time>
      </trkpt>
      <trkpt lat="45.93483" lon="4.73046">
        <ele>170</ele>
        <time>2017-10-23T09:02:21Z</time>
      </trkpt>
      <trkpt lat="45.93483" lon="4.7304">
        <ele>170</ele>
        <time>2017-10-23T09:02:22Z</time>
      </trkpt>
      <trkpt lat="45.93483" lon="4.73028">
        <ele>170</ele>
        <time>2017-10-23T09:02:24Z</time>
      </trkpt>
      <trkpt lat="45.93483" lon="4.73021">
        <ele>170</ele>
        <time>2017-10-23T09:02:25Z</time>
      </trkpt>
      <trkpt lat="45.93484" lon="4.73009">
        <ele>170</ele>
        <time>2017-10-23T09:02:27Z</time>
      </trkpt>
      <trkpt lat="45.93485" lon="4.73003">
        <ele>170</ele>
        <time>2017-10-23T09:02:28Z</time>
      </trkpt>
      <trkpt lat="45.93485" lon="4.72996">
        <ele>170</ele>
        <time>2017-10-23T09:02:29Z</time>
      </trkpt>
      <trkpt lat="45.93486" lon="4.72989">
        <ele>170</ele>
        <time>2017-10-23T09:02:30Z</time>
      </trkpt>
      <trkpt lat="45.93487" lon="4.72978">
        <ele>171</ele>
        <time>2017-10-23T09:02:32Z</time>
      </trkpt>
      <trkpt lat="45.93488" lon="4.72972">
        <ele>171</ele>
        <time>2017-10-23T09:02:33Z</time>
      </trkpt>
      <trkpt lat="45.93491" lon="4.72962">
        <ele>171</ele>
        <time>2017-10-23T09:02:35Z</time>
      </trkpt>
      <trkpt lat="45.93493" lon="4.72956">
        <ele>171</ele>
        <time>2017-10-23T09:02:36Z</time>
      </trkpt>
      <trkpt lat="45.93496" lon="4.72945">
        <ele>171</ele>
        <time>2017-10-23T09:02:39Z</time>
      </trkpt>
      <trkpt lat="45.93497" lon="4.72941">
        <ele>172</ele>
        <time>2017-10-23T09:02:40Z</time>
      </trkpt>
      <trkpt lat="45.93498" lon="4.72931">
        <ele>172</ele>
        <time>2017-10-23T09:02:43Z</time>
      </trkpt>
      <trkpt lat="45.935" lon="4.72926">
        <ele>172</ele>
        <time>2017-10-23T09:02:44Z</time>
      </trkpt>
      <trkpt lat="45.93502" lon="4.72917">
        <ele>172</ele>
        <time>2017-10-23T09:02:46Z</time>
      </trkpt>
      <trkpt lat="45.93505" lon="4.72913">
        <ele>172</ele>
        <time>2017-10-23T09:02:47Z</time>
      </trkpt>
      <trkpt lat="45.9351" lon="4.72906">
        <ele>172</ele>
        <time>2017-10-23T09:02:49Z</time>
      </trkpt>
      <trkpt lat="45.93514" lon="4.72903">
        <ele>172</ele>
        <time>2017-10-23T09:02:50Z</time>
      </trkpt>
      <trkpt lat="45.93521" lon="4.72897">
        <ele>172</ele>
        <time>2017-10-23T09:02:52Z</time>
      </trkpt>
      <trkpt lat="45.93526" lon="4.72893">
        <ele>172</ele>
        <time>2017-10-23T09:02:53Z</time>
      </trkpt>
      <trkpt lat="45.93533" lon="4.72885">
        <ele>172</ele>
        <time>2017-10-23T09:02:55Z</time>
      </trkpt>
      <trkpt lat="45.93536" lon="4.72881">
        <ele>172</ele>
        <time>2017-10-23T09:02:56Z</time>
      </trkpt>
      <trkpt lat="45.93542" lon="4.72875">
        <ele>172</ele>
        <time>2017-10-23T09:02:58Z</time>
      </trkpt>
      <trkpt lat="45.93545" lon="4.72872">
        <ele>172</ele>
        <time>2017-10-23T09:02:59Z</time>
      </trkpt>
      <trkpt lat="45.93551" lon="4.72866">
        <ele>172</ele>
        <time>2017-10-23T09:03:01Z</time>
      </trkpt>
      <trkpt lat="45.93555" lon="4.72863">
        <ele>172</ele>
        <time>2017-10-23T09:03:02Z</time>
      </trkpt>
      <trkpt lat="45.93561" lon="4.72857">
        <ele>172</ele>
        <time>2017-10-23T09:03:04Z</time>
      </trkpt>
      <trkpt lat="45.93565" lon="4.72853">
        <ele>172</ele>
        <time>2017-10-23T09:03:05Z</time>
      </trkpt>
      <trkpt lat="45.93572" lon="4.72847">
        <ele>172</ele>
        <time>2017-10-23T09:03:07Z</time>
      </trkpt>
      <trkpt lat="45.93576" lon="4.72843">
        <ele>172</ele>
        <time>2017-10-23T09:03:08Z</time>
      </trkpt>
      <trkpt lat="45.93583" lon="4.72837">
        <ele>172</ele>
        <time>2017-10-23T09:03:10Z</time>
      </trkpt>
      <trkpt lat="45.93587" lon="4.72834">
        <ele>172</ele>
        <time>2017-10-23T09:03:11Z</time>
      </trkpt>
      <trkpt lat="45.93594" lon="4.72829">
        <ele>173</ele>
        <time>2017-10-23T09:03:13Z</time>
      </trkpt>
      <trkpt lat="45.93597" lon="4.72827">
        <ele>173</ele>
        <time>2017-10-23T09:03:14Z</time>
      </trkpt>
      <trkpt lat="45.93603" lon="4.72822">
        <ele>173</ele>
        <time>2017-10-23T09:03:16Z</time>
      </trkpt>
      <trkpt lat="45.93607" lon="4.72819">
        <ele>173</ele>
        <time>2017-10-23T09:03:17Z</time>
      </trkpt>
      <trkpt lat="45.93614" lon="4.72814">
        <ele>173</ele>
        <time>2017-10-23T09:03:19Z</time>
      </trkpt>
      <trkpt lat="45.93618" lon="4.72811">
        <ele>173</ele>
        <time>2017-10-23T09:03:20Z</time>
      </trkpt>
      <trkpt lat="45.93626" lon="4.72806">
        <ele>173</ele>
        <time>2017-10-23T09:03:22Z</time>
      </trkpt>
      <trkpt lat="45.93629" lon="4.72803">
        <ele>173</ele>
        <time>2017-10-23T09:03:23Z</time>
      </trkpt>
      <trkpt lat="45.93635" lon="4.72799">
        <ele>173</ele>
        <time>2017-10-23T09:03:25Z</time>
      </trkpt>
      <trkpt lat="45.93638" lon="4.72797">
        <ele>173</ele>
        <time>2017-10-23T09:03:26Z</time>
      </trkpt>
      <trkpt lat="45.93645" lon="4.72793">
        <ele>173</ele>
        <time>2017-10-23T09:03:28Z</time>
      </trkpt>
      <trkpt lat="45.93648" lon="4.72791">
        <ele>173</ele>
        <time>2017-10-23T09:03:29Z</time>
      </trkpt>
      <trkpt lat="45.93654" lon="4.72787">
        <ele>173</ele>
        <time>2017-10-23T09:03:31Z</time>
      </trkpt>
      <trkpt lat="45.93657" lon="4.72784">
        <ele>173</ele>
        <time>2017-10-23T09:03:32Z</time>
      </trkpt>
      <trkpt lat="45.93663" lon="4.72779">
        <ele>174</ele>
        <time>2017-10-23T09:03:34Z</time>
      </trkpt>
      <trkpt lat="45.93667" lon="4.72776">
        <ele>174</ele>
        <time>2017-10-23T09:03:35Z</time>
      </trkpt>
      <trkpt lat="45.93673" lon="4.72771">
        <ele>173</ele>
        <time>2017-10-23T09:03:37Z</time>
      </trkpt>
      <trkpt lat="45.93676" lon="4.72768">
        <ele>173</ele>
        <time>2017-10-23T09:03:38Z</time>
      </trkpt>
      <trkpt lat="45.93679" lon="4.72763">
        <ele>173</ele>
        <time>2017-10-23T09:03:39Z</time>
      </trkpt>
      <trkpt lat="45.93682" lon="4.72758">
        <ele>173</ele>
        <time>2017-10-23T09:03:40Z</time>
      </trkpt>
      <trkpt lat="45.93688" lon="4.72754">
        <ele>172</ele>
        <time>2017-10-23T09:03:41Z</time>
      </trkpt>
      <trkpt lat="45.93692" lon="4.7275">
        <ele>172</ele>
        <time>2017-10-23T09:03:42Z</time>
      </trkpt>
      <trkpt lat="45.93696" lon="4.72747">
        <ele>173</ele>
        <time>2017-10-23T09:03:43Z</time>
      </trkpt>
      <trkpt lat="45.93701" lon="4.72744">
        <ele>173</ele>
        <time>2017-10-23T09:03:44Z</time>
      </trkpt>
      <trkpt lat="45.93705" lon="4.72741">
        <ele>173</ele>
        <time>2017-10-23T09:03:45Z</time>
      </trkpt>
      <trkpt lat="45.93709" lon="4.72737">
        <ele>173</ele>
        <time>2017-10-23T09:03:46Z</time>
      </trkpt>
      <trkpt lat="45.93716" lon="4.72731">
        <ele>173</ele>
        <time>2017-10-23T09:03:48Z</time>
      </trkpt>
      <trkpt lat="45.93719" lon="4.72728">
        <ele>173</ele>
        <time>2017-10-23T09:03:49Z</time>
      </trkpt>
      <trkpt lat="45.93726" lon="4.72722">
        <ele>173</ele>
        <time>2017-10-23T09:03:51Z</time>
      </trkpt>
      <trkpt lat="45.93729" lon="4.7272">
        <ele>173</ele>
        <time>2017-10-23T09:03:52Z</time>
      </trkpt>
      <trkpt lat="45.93736" lon="4.72713">
        <ele>173</ele>
        <time>2017-10-23T09:03:54Z</time>
      </trkpt>
      <trkpt lat="45.93739" lon="4.7271">
        <ele>173</ele>
        <time>2017-10-23T09:03:55Z</time>
      </trkpt>
      <trkpt lat="45.93746" lon="4.72703">
        <ele>173</ele>
        <time>2017-10-23T09:03:57Z</time>
      </trkpt>
      <trkpt lat="45.93749" lon="4.72699">
        <ele>173</ele>
        <time>2017-10-23T09:03:58Z</time>
      </trkpt>
      <trkpt lat="45.93756" lon="4.72691">
        <ele>172</ele>
        <time>2017-10-23T09:04:00Z</time>
      </trkpt>
      <trkpt lat="45.93759" lon="4.72688">
        <ele>172</ele>
        <time>2017-10-23T09:04:01Z</time>
      </trkpt>
      <trkpt lat="45.93765" lon="4.72681">
        <ele>173</ele>
        <time>2017-10-23T09:04:03Z</time>
      </trkpt>
      <trkpt lat="45.93768" lon="4.72677">
        <ele>173</ele>
        <time>2017-10-23T09:04:04Z</time>
      </trkpt>
      <trkpt lat="45.93774" lon="4.72669">
        <ele>172</ele>
        <time>2017-10-23T09:04:06Z</time>
      </trkpt>
      <trkpt lat="45.93778" lon="4.72665">
        <ele>173</ele>
        <time>2017-10-23T09:04:07Z</time>
      </trkpt>
      <trkpt lat="45.93784" lon="4.72658">
        <ele>173</ele>
        <time>2017-10-23T09:04:09Z</time>
      </trkpt>
      <trkpt lat="45.93787" lon="4.72653">
        <ele>173</ele>
        <time>2017-10-23T09:04:10Z</time>
      </trkpt>
      <trkpt lat="45.93793" lon="4.72642">
        <ele>173</ele>
        <time>2017-10-23T09:04:12Z</time>
      </trkpt>
      <trkpt lat="45.93796" lon="4.72639">
        <ele>173</ele>
        <time>2017-10-23T09:04:13Z</time>
      </trkpt>
      <trkpt lat="45.93802" lon="4.72631">
        <ele>173</ele>
        <time>2017-10-23T09:04:15Z</time>
      </trkpt>
      <trkpt lat="45.93804" lon="4.72628">
        <ele>173</ele>
        <time>2017-10-23T09:04:16Z</time>
      </trkpt>
      <trkpt lat="45.9381" lon="4.7262">
        <ele>173</ele>
        <time>2017-10-23T09:04:18Z</time>
      </trkpt>
      <trkpt lat="45.93812" lon="4.72615">
        <ele>173</ele>
        <time>2017-10-23T09:04:19Z</time>
      </trkpt>
      <trkpt lat="45.93815" lon="4.72606">
        <ele>173</ele>
        <time>2017-10-23T09:04:21Z</time>
      </trkpt>
      <trkpt lat="45.93815" lon="4.726">
        <ele>173</ele>
        <time>2017-10-23T09:04:22Z</time>
      </trkpt>
      <trkpt lat="45.93812" lon="4.72589">
        <ele>174</ele>
        <time>2017-10-23T09:04:24Z</time>
      </trkpt>
      <trkpt lat="45.9381" lon="4.72584">
        <ele>174</ele>
        <time>2017-10-23T09:04:25Z</time>
      </trkpt>
      <trkpt lat="45.93807" lon="4.72579">
        <ele>174</ele>
        <time>2017-10-23T09:04:26Z</time>
      </trkpt>
      <trkpt lat="45.93801" lon="4.72576">
        <ele>174</ele>
        <time>2017-10-23T09:04:27Z</time>
      </trkpt>
      <trkpt lat="45.938" lon="4.72569">
        <ele>174</ele>
        <time>2017-10-23T09:04:29Z</time>
      </trkpt>
      <trkpt lat="45.93794" lon="4.72568">
        <ele>174</ele>
        <time>2017-10-23T09:04:30Z</time>
      </trkpt>
      <trkpt lat="45.93787" lon="4.72561">
        <ele>174</ele>
        <time>2017-10-23T09:04:32Z</time>
      </trkpt>
      <trkpt lat="45.93783" lon="4.72558">
        <ele>173</ele>
        <time>2017-10-23T09:04:33Z</time>
      </trkpt>
      <trkpt lat="45.93775" lon="4.72553">
        <ele>173</ele>
        <time>2017-10-23T09:04:35Z</time>
      </trkpt>
      <trkpt lat="45.93774" lon="4.72548">
        <ele>173</ele>
        <time>2017-10-23T09:04:36Z</time>
      </trkpt>
      <trkpt lat="45.93767" lon="4.72544">
        <ele>173</ele>
        <time>2017-10-23T09:04:39Z</time>
      </trkpt>
      <trkpt lat="45.93765" lon="4.72544">
        <ele>173</ele>
        <time>2017-10-23T09:04:40Z</time>
      </trkpt>
      <trkpt lat="45.93758" lon="4.72539">
        <ele>173</ele>
        <time>2017-10-23T09:04:42Z</time>
      </trkpt>
      <trkpt lat="45.93755" lon="4.72536">
        <ele>173</ele>
        <time>2017-10-23T09:04:43Z</time>
      </trkpt>
      <trkpt lat="45.93749" lon="4.72529">
        <ele>172</ele>
        <time>2017-10-23T09:04:45Z</time>
      </trkpt>
      <trkpt lat="45.93745" lon="4.72525">
        <ele>172</ele>
        <time>2017-10-23T09:04:46Z</time>
      </trkpt>
      <trkpt lat="45.93742" lon="4.72521">
        <ele>171</ele>
        <time>2017-10-23T09:04:47Z</time>
      </trkpt>
      <trkpt lat="45.93738" lon="4.72517">
        <ele>171</ele>
        <time>2017-10-23T09:04:48Z</time>
      </trkpt>
      <trkpt lat="45.93731" lon="4.7251">
        <ele>171</ele>
        <time>2017-10-23T09:04:50Z</time>
      </trkpt>
      <trkpt lat="45.93727" lon="4.72507">
        <ele>171</ele>
        <time>2017-10-23T09:04:51Z</time>
      </trkpt>
      <trkpt lat="45.93719" lon="4.72501">
        <ele>171</ele>
        <time>2017-10-23T09:04:53Z</time>
      </trkpt>
      <trkpt lat="45.93716" lon="4.72498">
        <ele>171</ele>
        <time>2017-10-23T09:04:54Z</time>
      </trkpt>
      <trkpt lat="45.9371" lon="4.72491">
        <ele>171</ele>
        <time>2017-10-23T09:04:56Z</time>
      </trkpt>
      <trkpt lat="45.93706" lon="4.72488">
        <ele>171</ele>
        <time>2017-10-23T09:04:57Z</time>
      </trkpt>
      <trkpt lat="45.93703" lon="4.72484">
        <ele>171</ele>
        <time>2017-10-23T09:04:58Z</time>
      </trkpt>
      <trkpt lat="45.93699" lon="4.7248">
        <ele>171</ele>
        <time>2017-10-23T09:04:59Z</time>
      </trkpt>
      <trkpt lat="45.93692" lon="4.72473">
        <ele>171</ele>
        <time>2017-10-23T09:05:01Z</time>
      </trkpt>
      <trkpt lat="45.93688" lon="4.7247">
        <ele>171</ele>
        <time>2017-10-23T09:05:02Z</time>
      </trkpt>
      <trkpt lat="45.93681" lon="4.72463">
        <ele>171</ele>
        <time>2017-10-23T09:05:04Z</time>
      </trkpt>
      <trkpt lat="45.93677" lon="4.72459">
        <ele>171</ele>
        <time>2017-10-23T09:05:05Z</time>
      </trkpt>
      <trkpt lat="45.93671" lon="4.72453">
        <ele>171</ele>
        <time>2017-10-23T09:05:07Z</time>
      </trkpt>
      <trkpt lat="45.93668" lon="4.7245">
        <ele>171</ele>
        <time>2017-10-23T09:05:08Z</time>
      </trkpt>
      <trkpt lat="45.93663" lon="4.72442">
        <ele>172</ele>
        <time>2017-10-23T09:05:10Z</time>
      </trkpt>
      <trkpt lat="45.93661" lon="4.72438">
        <ele>172</ele>
        <time>2017-10-23T09:05:11Z</time>
      </trkpt>
      <trkpt lat="45.9366" lon="4.72432">
        <ele>172</ele>
        <time>2017-10-23T09:05:12Z</time>
      </trkpt>
      <trkpt lat="45.93656" lon="4.72426">
        <ele>172</ele>
        <time>2017-10-23T09:05:13Z</time>
      </trkpt>
      <trkpt lat="45.93653" lon="4.72421">
        <ele>172</ele>
        <time>2017-10-23T09:05:14Z</time>
      </trkpt>
      <trkpt lat="45.93649" lon="4.72417">
        <ele>172</ele>
        <time>2017-10-23T09:05:15Z</time>
      </trkpt>
      <trkpt lat="45.93644" lon="4.72409">
        <ele>172</ele>
        <time>2017-10-23T09:05:17Z</time>
      </trkpt>
      <trkpt lat="45.93641" lon="4.72406">
        <ele>172</ele>
        <time>2017-10-23T09:05:18Z</time>
      </trkpt>
      <trkpt lat="45.93635" lon="4.72398">
        <ele>172</ele>
        <time>2017-10-23T09:05:21Z</time>
      </trkpt>
      <trkpt lat="45.93633" lon="4.72396">
        <ele>172</ele>
        <time>2017-10-23T09:05:22Z</time>
      </trkpt>
      <trkpt lat="45.93627" lon="4.72388">
        <ele>172</ele>
        <time>2017-10-23T09:05:25Z</time>
      </trkpt>
      <trkpt lat="45.93624" lon="4.72384">
        <ele>172</ele>
        <time>2017-10-23T09:05:26Z</time>
      </trkpt>
      <trkpt lat="45.9362" lon="4.72378">
        <ele>172</ele>
        <time>2017-10-23T09:05:28Z</time>
      </trkpt>
      <trkpt lat="45.93617" lon="4.72375">
        <ele>172</ele>
        <time>2017-10-23T09:05:29Z</time>
      </trkpt>
      <trkpt lat="45.9361" lon="4.72368">
        <ele>172</ele>
        <time>2017-10-23T09:05:32Z</time>
      </trkpt>
      <trkpt lat="45.93608" lon="4.72366">
        <ele>172</ele>
        <time>2017-10-23T09:05:33Z</time>
      </trkpt>
      <trkpt lat="45.93602" lon="4.72358">
        <ele>172</ele>
        <time>2017-10-23T09:05:36Z</time>
      </trkpt>
      <trkpt lat="45.936" lon="4.72355">
        <ele>172</ele>
        <time>2017-10-23T09:05:37Z</time>
      </trkpt>
      <trkpt lat="45.93594" lon="4.72348">
        <ele>172</ele>
        <time>2017-10-23T09:05:40Z</time>
      </trkpt>
      <trkpt lat="45.93592" lon="4.72346">
        <ele>173</ele>
        <time>2017-10-23T09:05:41Z</time>
      </trkpt>
      <trkpt lat="45.93585" lon="4.72339">
        <ele>173</ele>
        <time>2017-10-23T09:05:44Z</time>
      </trkpt>
      <trkpt lat="45.93583" lon="4.72337">
        <ele>173</ele>
        <time>2017-10-23T09:05:45Z</time>
      </trkpt>
      <trkpt lat="45.93576" lon="4.72332">
        <ele>173</ele>
        <time>2017-10-23T09:05:48Z</time>
      </trkpt>
      <trkpt lat="45.93573" lon="4.7233">
        <ele>173</ele>
        <time>2017-10-23T09:05:49Z</time>
      </trkpt>
      <trkpt lat="45.93567" lon="4.72327">
        <ele>173</ele>
        <time>2017-10-23T09:05:51Z</time>
      </trkpt>
      <trkpt lat="45.93564" lon="4.72326">
        <ele>173</ele>
        <time>2017-10-23T09:05:52Z</time>
      </trkpt>
      <trkpt lat="45.93558" lon="4.72322">
        <ele>173</ele>
        <time>2017-10-23T09:05:54Z</time>
      </trkpt>
      <trkpt lat="45.93555" lon="4.7232">
        <ele>173</ele>
        <time>2017-10-23T09:05:55Z</time>
      </trkpt>
      <trkpt lat="45.93548" lon="4.72318">
        <ele>173</ele>
        <time>2017-10-23T09:05:57Z</time>
      </trkpt>
      <trkpt lat="45.93545" lon="4.72317">
        <ele>173</ele>
        <time>2017-10-23T09:05:58Z</time>
      </trkpt>
      <trkpt lat="45.93538" lon="4.72317">
        <ele>173</ele>
        <time>2017-10-23T09:06:00Z</time>
      </trkpt>
      <trkpt lat="45.93534" lon="4.72317">
        <ele>173</ele>
        <time>2017-10-23T09:06:01Z</time>
      </trkpt>
      <trkpt lat="45.93528" lon="4.7232">
        <ele>173</ele>
        <time>2017-10-23T09:06:03Z</time>
      </trkpt>
      <trkpt lat="45.93526" lon="4.72322">
        <ele>173</ele>
        <time>2017-10-23T09:06:04Z</time>
      </trkpt>
      <trkpt lat="45.93522" lon="4.7231">
        <ele>173</ele>
        <time>2017-10-23T09:06:18Z</time>
      </trkpt>
      <trkpt lat="45.93523" lon="4.72308">
        <ele>173</ele>
        <time>2017-10-23T09:06:19Z</time>
      </trkpt>
      <trkpt lat="45.93527" lon="4.72297">
        <ele>172</ele>
        <time>2017-10-23T09:06:22Z</time>
      </trkpt>
      <trkpt lat="45.93529" lon="4.72294">
        <ele>172</ele>
        <time>2017-10-23T09:06:23Z</time>
      </trkpt>
      <trkpt lat="45.93531" lon="4.72286">
        <ele>172</ele>
        <time>2017-10-23T09:06:25Z</time>
      </trkpt>
      <trkpt lat="45.93533" lon="4.72282">
        <ele>172</ele>
        <time>2017-10-23T09:06:26Z</time>
      </trkpt>
      <trkpt lat="45.93536" lon="4.72273">
        <ele>172</ele>
        <time>2017-10-23T09:06:28Z</time>
      </trkpt>
      <trkpt lat="45.93537" lon="4.7227">
        <ele>172</ele>
        <time>2017-10-23T09:06:29Z</time>
      </trkpt>
      <trkpt lat="45.93541" lon="4.72259">
        <ele>172</ele>
        <time>2017-10-23T09:06:32Z</time>
      </trkpt>
      <trkpt lat="45.93542" lon="4.72256">
        <ele>172</ele>
        <time>2017-10-23T09:06:33Z</time>
      </trkpt>
      <trkpt lat="45.93546" lon="4.72248">
        <ele>172</ele>
        <time>2017-10-23T09:06:36Z</time>
      </trkpt>
      <trkpt lat="45.93547" lon="4.72245">
        <ele>172</ele>
        <time>2017-10-23T09:06:37Z</time>
      </trkpt>
      <trkpt lat="45.93551" lon="4.72235">
        <ele>172</ele>
        <time>2017-10-23T09:06:40Z</time>
      </trkpt>
      <trkpt lat="45.93552" lon="4.72232">
        <ele>172</ele>
        <time>2017-10-23T09:06:41Z</time>
      </trkpt>
      <trkpt lat="45.93561" lon="4.72229">
        <ele>173</ele>
        <time>2017-10-23T09:06:44Z</time>
      </trkpt>
      <trkpt lat="45.93564" lon="4.7223">
        <ele>173</ele>
        <time>2017-10-23T09:06:45Z</time>
      </trkpt>
      <trkpt lat="45.93571" lon="4.72236">
        <ele>173</ele>
        <time>2017-10-23T09:06:48Z</time>
      </trkpt>
      <trkpt lat="45.93573" lon="4.72239">
        <ele>173</ele>
        <time>2017-10-23T09:06:49Z</time>
      </trkpt>
      <trkpt lat="45.93577" lon="4.72245">
        <ele>173</ele>
        <time>2017-10-23T09:06:51Z</time>
      </trkpt>
      <trkpt lat="45.9358" lon="4.72248">
        <ele>173</ele>
        <time>2017-10-23T09:06:52Z</time>
      </trkpt>
      <trkpt lat="45.93587" lon="4.72256">
        <ele>173</ele>
        <time>2017-10-23T09:06:55Z</time>
      </trkpt>
      <trkpt lat="45.93589" lon="4.72258">
        <ele>173</ele>
        <time>2017-10-23T09:06:56Z</time>
      </trkpt>
      <trkpt lat="45.93595" lon="4.72265">
        <ele>173</ele>
        <time>2017-10-23T09:06:58Z</time>
      </trkpt>
      <trkpt lat="45.93599" lon="4.72269">
        <ele>173</ele>
        <time>2017-10-23T09:06:59Z</time>
      </trkpt>
      <trkpt lat="45.93605" lon="4.72275">
        <ele>172</ele>
        <time>2017-10-23T09:07:01Z</time>
      </trkpt>
      <trkpt lat="45.93608" lon="4.72278">
        <ele>172</ele>
        <time>2017-10-23T09:07:02Z</time>
      </trkpt>
      <trkpt lat="45.93614" lon="4.72283">
        <ele>172</ele>
        <time>2017-10-23T09:07:04Z</time>
      </trkpt>
      <trkpt lat="45.93617" lon="4.72286">
        <ele>172</ele>
        <time>2017-10-23T09:07:05Z</time>
      </trkpt>
      <trkpt lat="45.93623" lon="4.72292">
        <ele>172</ele>
        <time>2017-10-23T09:07:07Z</time>
      </trkpt>
      <trkpt lat="45.93626" lon="4.72295">
        <ele>172</ele>
        <time>2017-10-23T09:07:08Z</time>
      </trkpt>
      <trkpt lat="45.93632" lon="4.72302">
        <ele>172</ele>
        <time>2017-10-23T09:07:10Z</time>
      </trkpt>
      <trkpt lat="45.93634" lon="4.72304">
        <ele>172</ele>
        <time>2017-10-23T09:07:11Z</time>
      </trkpt>
      <trkpt lat="45.93641" lon="4.7231">
        <ele>172</ele>
        <time>2017-10-23T09:07:13Z</time>
      </trkpt>
      <trkpt lat="45.93644" lon="4.72313">
        <ele>172</ele>
        <time>2017-10-23T09:07:14Z</time>
      </trkpt>
      <trkpt lat="45.93651" lon="4.72319">
        <ele>172</ele>
        <time>2017-10-23T09:07:16Z</time>
      </trkpt>
      <trkpt lat="45.93653" lon="4.72322">
        <ele>172</ele>
        <time>2017-10-23T09:07:17Z</time>
      </trkpt>
      <trkpt lat="45.93658" lon="4.72328">
        <ele>171</ele>
        <time>2017-10-23T09:07:19Z</time>
      </trkpt>
      <trkpt lat="45.93661" lon="4.72331">
        <ele>171</ele>
        <time>2017-10-23T09:07:20Z</time>
      </trkpt>
      <trkpt lat="45.93668" lon="4.72336">
        <ele>171</ele>
        <time>2017-10-23T09:07:22Z</time>
      </trkpt>
      <trkpt lat="45.93671" lon="4.72338">
        <ele>171</ele>
        <time>2017-10-23T09:07:23Z</time>
      </trkpt>
      <trkpt lat="45.93678" lon="4.72342">
        <ele>171</ele>
        <time>2017-10-23T09:07:26Z</time>
      </trkpt>
      <trkpt lat="45.9368" lon="4.72343">
        <ele>171</ele>
        <time>2017-10-23T09:07:27Z</time>
      </trkpt>
      <trkpt lat="45.93687" lon="4.72345">
        <ele>171</ele>
        <time>2017-10-23T09:07:29Z</time>
      </trkpt>
      <trkpt lat="45.9369" lon="4.72346">
        <ele>171</ele>
        <time>2017-10-23T09:07:30Z</time>
      </trkpt>
      <trkpt lat="45.93696" lon="4.72351">
        <ele>171</ele>
        <time>2017-10-23T09:07:33Z</time>
      </trkpt>
      <trkpt lat="45.93701" lon="4.72359">
        <ele>171</ele>
        <time>2017-10-23T09:07:34Z</time>
      </trkpt>
      <trkpt lat="45.93706" lon="4.72364">
        <ele>171</ele>
        <time>2017-10-23T09:07:35Z</time>
      </trkpt>
      <trkpt lat="45.93711" lon="4.7237">
        <ele>172</ele>
        <time>2017-10-23T09:07:36Z</time>
      </trkpt>
      <trkpt lat="45.93715" lon="4.72374">
        <ele>172</ele>
        <time>2017-10-23T09:07:37Z</time>
      </trkpt>
      <trkpt lat="45.93718" lon="4.72379">
        <ele>171</ele>
        <time>2017-10-23T09:07:38Z</time>
      </trkpt>
      <trkpt lat="45.93725" lon="4.72386">
        <ele>171</ele>
        <time>2017-10-23T09:07:40Z</time>
      </trkpt>
      <trkpt lat="45.93728" lon="4.7239">
        <ele>171</ele>
        <time>2017-10-23T09:07:41Z</time>
      </trkpt>
      <trkpt lat="45.93732" lon="4.72394">
        <ele>171</ele>
        <time>2017-10-23T09:07:42Z</time>
      </trkpt>
      <trkpt lat="45.93736" lon="4.72398">
        <ele>171</ele>
        <time>2017-10-23T09:07:43Z</time>
      </trkpt>
      <trkpt lat="45.9374" lon="4.72401">
        <ele>171</ele>
        <time>2017-10-23T09:07:44Z</time>
      </trkpt>
      <trkpt lat="45.93744" lon="4.72403">
        <ele>171</ele>
        <time>2017-10-23T09:07:45Z</time>
      </trkpt>
      <trkpt lat="45.93751" lon="4.7241">
        <ele>171</ele>
        <time>2017-10-23T09:07:47Z</time>
      </trkpt>
      <trkpt lat="45.93754" lon="4.72413">
        <ele>171</ele>
        <time>2017-10-23T09:07:48Z</time>
      </trkpt>
      <trkpt lat="45.93762" lon="4.72419">
        <ele>171</ele>
        <time>2017-10-23T09:07:50Z</time>
      </trkpt>
      <trkpt lat="45.93765" lon="4.72423">
        <ele>171</ele>
        <time>2017-10-23T09:07:51Z</time>
      </trkpt>
      <trkpt lat="45.93769" lon="4.72426">
        <ele>171</ele>
        <time>2017-10-23T09:07:52Z</time>
      </trkpt>
      <trkpt lat="45.93774" lon="4.7243">
        <ele>171</ele>
        <time>2017-10-23T09:07:53Z</time>
      </trkpt>
      <trkpt lat="45.93778" lon="4.72434">
        <ele>172</ele>
        <time>2017-10-23T09:07:54Z</time>
      </trkpt>
      <trkpt lat="45.93782" lon="4.72438">
        <ele>172</ele>
        <time>2017-10-23T09:07:55Z</time>
      </trkpt>
      <trkpt lat="45.93786" lon="4.72441">
        <ele>172</ele>
        <time>2017-10-23T09:07:56Z</time>
      </trkpt>
      <trkpt lat="45.93791" lon="4.72445">
        <ele>172</ele>
        <time>2017-10-23T09:07:57Z</time>
      </trkpt>
      <trkpt lat="45.93795" lon="4.7245">
        <ele>172</ele>
        <time>2017-10-23T09:07:58Z</time>
      </trkpt>
      <trkpt lat="45.93799" lon="4.72454">
        <ele>172</ele>
        <time>2017-10-23T09:07:59Z</time>
      </trkpt>
      <trkpt lat="45.93805" lon="4.72459">
        <ele>172</ele>
        <time>2017-10-23T09:08:00Z</time>
      </trkpt>
      <trkpt lat="45.93808" lon="4.72461">
        <ele>172</ele>
        <time>2017-10-23T09:08:01Z</time>
      </trkpt>
      <trkpt lat="45.93812" lon="4.72465">
        <ele>172</ele>
        <time>2017-10-23T09:08:02Z</time>
      </trkpt>
      <trkpt lat="45.93816" lon="4.7247">
        <ele>172</ele>
        <time>2017-10-23T09:08:03Z</time>
      </trkpt>
      <trkpt lat="45.93819" lon="4.72475">
        <ele>172</ele>
        <time>2017-10-23T09:08:04Z</time>
      </trkpt>
      <trkpt lat="45.93823" lon="4.72479">
        <ele>173</ele>
        <time>2017-10-23T09:08:05Z</time>
      </trkpt>
      <trkpt lat="45.93827" lon="4.72482">
        <ele>173</ele>
        <time>2017-10-23T09:08:06Z</time>
      </trkpt>
      <trkpt lat="45.9383" lon="4.72485">
        <ele>173</ele>
        <time>2017-10-23T09:08:07Z</time>
      </trkpt>
      <trkpt lat="45.93837" lon="4.72489">
        <ele>173</ele>
        <time>2017-10-23T09:08:11Z</time>
      </trkpt>
      <trkpt lat="45.9384" lon="4.72491">
        <ele>173</ele>
        <time>2017-10-23T09:08:12Z</time>
      </trkpt>
      <trkpt lat="45.93843" lon="4.72492">
        <ele>173</ele>
        <time>2017-10-23T09:08:13Z</time>
      </trkpt>
      <trkpt lat="45.93852" lon="4.72501">
        <ele>173</ele>
        <time>2017-10-23T09:08:14Z</time>
      </trkpt>
      <trkpt lat="45.93857" lon="4.72506">
        <ele>173</ele>
        <time>2017-10-23T09:08:15Z</time>
      </trkpt>
      <trkpt lat="45.93862" lon="4.72512">
        <ele>173</ele>
        <time>2017-10-23T09:08:16Z</time>
      </trkpt>
      <trkpt lat="45.93869" lon="4.72518">
        <ele>173</ele>
        <time>2017-10-23T09:08:18Z</time>
      </trkpt>
      <trkpt lat="45.93873" lon="4.72517">
        <ele>173</ele>
        <time>2017-10-23T09:08:19Z</time>
      </trkpt>
      <trkpt lat="45.9388" lon="4.72512">
        <ele>173</ele>
        <time>2017-10-23T09:08:21Z</time>
      </trkpt>
      <trkpt lat="45.93883" lon="4.72509">
        <ele>173</ele>
        <time>2017-10-23T09:08:22Z</time>
      </trkpt>
      <trkpt lat="45.9389" lon="4.725">
        <ele>173</ele>
        <time>2017-10-23T09:08:24Z</time>
      </trkpt>
      <trkpt lat="45.93893" lon="4.72496">
        <ele>172</ele>
        <time>2017-10-23T09:08:25Z</time>
      </trkpt>
      <trkpt lat="45.93899" lon="4.7249">
        <ele>172</ele>
        <time>2017-10-23T09:08:26Z</time>
      </trkpt>
      <trkpt lat="45.93902" lon="4.72485">
        <ele>172</ele>
        <time>2017-10-23T09:08:27Z</time>
      </trkpt>
      <trkpt lat="45.93906" lon="4.7248">
        <ele>172</ele>
        <time>2017-10-23T09:08:28Z</time>
      </trkpt>
      <trkpt lat="45.9391" lon="4.72475">
        <ele>172</ele>
        <time>2017-10-23T09:08:29Z</time>
      </trkpt>
      <trkpt lat="45.93914" lon="4.7247">
        <ele>172</ele>
        <time>2017-10-23T09:08:30Z</time>
      </trkpt>
      <trkpt lat="45.93918" lon="4.72465">
        <ele>171</ele>
        <time>2017-10-23T09:08:31Z</time>
      </trkpt>
      <trkpt lat="45.93922" lon="4.7246">
        <ele>171</ele>
        <time>2017-10-23T09:08:32Z</time>
      </trkpt>
      <trkpt lat="45.93926" lon="4.72455">
        <ele>171</ele>
        <time>2017-10-23T09:08:33Z</time>
      </trkpt>
      <trkpt lat="45.9393" lon="4.72451">
        <ele>171</ele>
        <time>2017-10-23T09:08:34Z</time>
      </trkpt>
      <trkpt lat="45.93934" lon="4.72447">
        <ele>171</ele>
        <time>2017-10-23T09:08:35Z</time>
      </trkpt>
      <trkpt lat="45.93938" lon="4.72442">
        <ele>171</ele>
        <time>2017-10-23T09:08:36Z</time>
      </trkpt>
      <trkpt lat="45.93941" lon="4.72438">
        <ele>171</ele>
        <time>2017-10-23T09:08:37Z</time>
      </trkpt>
      <trkpt lat="45.93948" lon="4.7243">
        <ele>171</ele>
        <time>2017-10-23T09:08:39Z</time>
      </trkpt>
      <trkpt lat="45.93951" lon="4.72425">
        <ele>171</ele>
        <time>2017-10-23T09:08:40Z</time>
      </trkpt>
      <trkpt lat="45.93954" lon="4.72421">
        <ele>171</ele>
        <time>2017-10-23T09:08:41Z</time>
      </trkpt>
      <trkpt lat="45.93958" lon="4.72416">
        <ele>171</ele>
        <time>2017-10-23T09:08:42Z</time>
      </trkpt>
      <trkpt lat="45.93965" lon="4.72408">
        <ele>171</ele>
        <time>2017-10-23T09:08:44Z</time>
      </trkpt>
      <trkpt lat="45.93968" lon="4.72404">
        <ele>171</ele>
        <time>2017-10-23T09:08:45Z</time>
      </trkpt>
      <trkpt lat="45.93972" lon="4.724">
        <ele>171</ele>
        <time>2017-10-23T09:08:46Z</time>
      </trkpt>
      <trkpt lat="45.93976" lon="4.72394">
        <ele>171</ele>
        <time>2017-10-23T09:08:47Z</time>
      </trkpt>
      <trkpt lat="45.9398" lon="4.72389">
        <ele>171</ele>
        <time>2017-10-23T09:08:48Z</time>
      </trkpt>
      <trkpt lat="45.93985" lon="4.72383">
        <ele>171</ele>
        <time>2017-10-23T09:08:49Z</time>
      </trkpt>
      <trkpt lat="45.93989" lon="4.72379">
        <ele>171</ele>
        <time>2017-10-23T09:08:50Z</time>
      </trkpt>
      <trkpt lat="45.93992" lon="4.72373">
        <ele>171</ele>
        <time>2017-10-23T09:08:51Z</time>
      </trkpt>
      <trkpt lat="45.93998" lon="4.72367">
        <ele>171</ele>
        <time>2017-10-23T09:08:52Z</time>
      </trkpt>
      <trkpt lat="45.94002" lon="4.72363">
        <ele>171</ele>
        <time>2017-10-23T09:08:53Z</time>
      </trkpt>
      <trkpt lat="45.94008" lon="4.72354">
        <ele>171</ele>
        <time>2017-10-23T09:08:55Z</time>
      </trkpt>
      <trkpt lat="45.94013" lon="4.72351">
        <ele>171</ele>
        <time>2017-10-23T09:08:56Z</time>
      </trkpt>
      <trkpt lat="45.94019" lon="4.72343">
        <ele>171</ele>
        <time>2017-10-23T09:08:58Z</time>
      </trkpt>
      <trkpt lat="45.94023" lon="4.72339">
        <ele>171</ele>
        <time>2017-10-23T09:08:59Z</time>
      </trkpt>
      <trkpt lat="45.94027" lon="4.72334">
        <ele>171</ele>
        <time>2017-10-23T09:09:00Z</time>
      </trkpt>
      <trkpt lat="45.9403" lon="4.72329">
        <ele>171</ele>
        <time>2017-10-23T09:09:01Z</time>
      </trkpt>
      <trkpt lat="45.94034" lon="4.72324">
        <ele>171</ele>
        <time>2017-10-23T09:09:02Z</time>
      </trkpt>
      <trkpt lat="45.94039" lon="4.72318">
        <ele>171</ele>
        <time>2017-10-23T09:09:03Z</time>
      </trkpt>
      <trkpt lat="45.94043" lon="4.72313">
        <ele>171</ele>
        <time>2017-10-23T09:09:04Z</time>
      </trkpt>
      <trkpt lat="45.94046" lon="4.72309">
        <ele>171</ele>
        <time>2017-10-23T09:09:05Z</time>
      </trkpt>
      <trkpt lat="45.9405" lon="4.72305">
        <ele>171</ele>
        <time>2017-10-23T09:09:06Z</time>
      </trkpt>
      <trkpt lat="45.94054" lon="4.72301">
        <ele>171</ele>
        <time>2017-10-23T09:09:07Z</time>
      </trkpt>
      <trkpt lat="45.94057" lon="4.72296">
        <ele>171</ele>
        <time>2017-10-23T09:09:08Z</time>
      </trkpt>
      <trkpt lat="45.94061" lon="4.72291">
        <ele>171</ele>
        <time>2017-10-23T09:09:09Z</time>
      </trkpt>
      <trkpt lat="45.94065" lon="4.72286">
        <ele>171</ele>
        <time>2017-10-23T09:09:10Z</time>
      </trkpt>
      <trkpt lat="45.94068" lon="4.72281">
        <ele>171</ele>
        <time>2017-10-23T09:09:11Z</time>
      </trkpt>
      <trkpt lat="45.94072" lon="4.72277">
        <ele>171</ele>
        <time>2017-10-23T09:09:12Z</time>
      </trkpt>
      <trkpt lat="45.94075" lon="4.72274">
        <ele>171</ele>
        <time>2017-10-23T09:09:13Z</time>
      </trkpt>
      <trkpt lat="45.94083" lon="4.7227">
        <ele>171</ele>
        <time>2017-10-23T09:09:15Z</time>
      </trkpt>
      <trkpt lat="45.94087" lon="4.72268">
        <ele>171</ele>
        <time>2017-10-23T09:09:16Z</time>
      </trkpt>
      <trkpt lat="45.94096" lon="4.72265">
        <ele>171</ele>
        <time>2017-10-23T09:09:18Z</time>
      </trkpt>
      <trkpt lat="45.94101" lon="4.72265">
        <ele>171</ele>
        <time>2017-10-23T09:09:19Z</time>
      </trkpt>
      <trkpt lat="45.94109" lon="4.72266">
        <ele>171</ele>
        <time>2017-10-23T09:09:21Z</time>
      </trkpt>
      <trkpt lat="45.94113" lon="4.72268">
        <ele>171</ele>
        <time>2017-10-23T09:09:22Z</time>
      </trkpt>
      <trkpt lat="45.9412" lon="4.72273">
        <ele>171</ele>
        <time>2017-10-23T09:09:24Z</time>
      </trkpt>
      <trkpt lat="45.94124" lon="4.72275">
        <ele>171</ele>
        <time>2017-10-23T09:09:25Z</time>
      </trkpt>
      <trkpt lat="45.94132" lon="4.72279">
        <ele>171</ele>
        <time>2017-10-23T09:09:27Z</time>
      </trkpt>
      <trkpt lat="45.94136" lon="4.72281">
        <ele>171</ele>
        <time>2017-10-23T09:09:28Z</time>
      </trkpt>
      <trkpt lat="45.9414" lon="4.72283">
        <ele>171</ele>
        <time>2017-10-23T09:09:29Z</time>
      </trkpt>
      <trkpt lat="45.94145" lon="4.72285">
        <ele>171</ele>
        <time>2017-10-23T09:09:30Z</time>
      </trkpt>
      <trkpt lat="45.9415" lon="4.72287">
        <ele>171</ele>
        <time>2017-10-23T09:09:31Z</time>
      </trkpt>
      <trkpt lat="45.94155" lon="4.72289">
        <ele>171</ele>
        <time>2017-10-23T09:09:32Z</time>
      </trkpt>
      <trkpt lat="45.9416" lon="4.7229">
        <ele>171</ele>
        <time>2017-10-23T09:09:33Z</time>
      </trkpt>
      <trkpt lat="45.94166" lon="4.72289">
        <ele>171</ele>
        <time>2017-10-23T09:09:34Z</time>
      </trkpt>
      <trkpt lat="45.94171" lon="4.72289">
        <ele>171</ele>
        <time>2017-10-23T09:09:35Z</time>
      </trkpt>
      <trkpt lat="45.94176" lon="4.72289">
        <ele>171</ele>
        <time>2017-10-23T09:09:36Z</time>
      </trkpt>
      <trkpt lat="45.9418" lon="4.7229">
        <ele>171</ele>
        <time>2017-10-23T09:09:37Z</time>
      </trkpt>
      <trkpt lat="45.94185" lon="4.72291">
        <ele>171</ele>
        <time>2017-10-23T09:09:38Z</time>
      </trkpt>
      <trkpt lat="45.94194" lon="4.72292">
        <ele>171</ele>
        <time>2017-10-23T09:09:40Z</time>
      </trkpt>
      <trkpt lat="45.94198" lon="4.72292">
        <ele>171</ele>
        <time>2017-10-23T09:09:41Z</time>
      </trkpt>
      <trkpt lat="45.94206" lon="4.72291">
        <ele>171</ele>
        <time>2017-10-23T09:09:43Z</time>
      </trkpt>
      <trkpt lat="45.94209" lon="4.72291">
        <ele>171</ele>
        <time>2017-10-23T09:09:44Z</time>
      </trkpt>
      <trkpt lat="45.94217" lon="4.7229">
        <ele>171</ele>
        <time>2017-10-23T09:09:46Z</time>
      </trkpt>
      <trkpt lat="45.94221" lon="4.7229">
        <ele>171</ele>
        <time>2017-10-23T09:09:47Z</time>
      </trkpt>
      <trkpt lat="45.9423" lon="4.72289">
        <ele>171</ele>
        <time>2017-10-23T09:09:49Z</time>
      </trkpt>
      <trkpt lat="45.94234" lon="4.72288">
        <ele>171</ele>
        <time>2017-10-23T09:09:50Z</time>
      </trkpt>
      <trkpt lat="45.94243" lon="4.72286">
        <ele>171</ele>
        <time>2017-10-23T09:09:52Z</time>
      </trkpt>
      <trkpt lat="45.94247" lon="4.72285">
        <ele>171</ele>
        <time>2017-10-23T09:09:53Z</time>
      </trkpt>
      <trkpt lat="45.94255" lon="4.72283">
        <ele>171</ele>
        <time>2017-10-23T09:09:55Z</time>
      </trkpt>
      <trkpt lat="45.94259" lon="4.72281">
        <ele>171</ele>
        <time>2017-10-23T09:09:56Z</time>
      </trkpt>
      <trkpt lat="45.94266" lon="4.72279">
        <ele>171</ele>
        <time>2017-10-23T09:09:58Z</time>
      </trkpt>
      <trkpt lat="45.94269" lon="4.72277">
        <ele>171</ele>
        <time>2017-10-23T09:09:59Z</time>
      </trkpt>
      <trkpt lat="45.94276" lon="4.72277">
        <ele>171</ele>
        <time>2017-10-23T09:10:01Z</time>
      </trkpt>
      <trkpt lat="45.94279" lon="4.72279">
        <ele>171</ele>
        <time>2017-10-23T09:10:02Z</time>
      </trkpt>
      <trkpt lat="45.94283" lon="4.72288">
        <ele>171</ele>
        <time>2017-10-23T09:10:04Z</time>
      </trkpt>
      <trkpt lat="45.94285" lon="4.72294">
        <ele>171</ele>
        <time>2017-10-23T09:10:05Z</time>
      </trkpt>
      <trkpt lat="45.94286" lon="4.72301">
        <ele>171</ele>
        <time>2017-10-23T09:10:06Z</time>
      </trkpt>
      <trkpt lat="45.94289" lon="4.72306">
        <ele>171</ele>
        <time>2017-10-23T09:10:07Z</time>
      </trkpt>
      <trkpt lat="45.94292" lon="4.72312">
        <ele>171</ele>
        <time>2017-10-23T09:10:08Z</time>
      </trkpt>
      <trkpt lat="45.94294" lon="4.72318">
        <ele>171</ele>
        <time>2017-10-23T09:10:09Z</time>
      </trkpt>
      <trkpt lat="45.94297" lon="4.72324">
        <ele>171</ele>
        <time>2017-10-23T09:10:10Z</time>
      </trkpt>
      <trkpt lat="45.94299" lon="4.7233">
        <ele>171</ele>
        <time>2017-10-23T09:10:11Z</time>
      </trkpt>
      <trkpt lat="45.94302" lon="4.72336">
        <ele>172</ele>
        <time>2017-10-23T09:10:12Z</time>
      </trkpt>
      <trkpt lat="45.94304" lon="4.72342">
        <ele>172</ele>
        <time>2017-10-23T09:10:13Z</time>
      </trkpt>
      <trkpt lat="45.94307" lon="4.72347">
        <ele>172</ele>
        <time>2017-10-23T09:10:14Z</time>
      </trkpt>
      <trkpt lat="45.94309" lon="4.72353">
        <ele>172</ele>
        <time>2017-10-23T09:10:15Z</time>
      </trkpt>
      <trkpt lat="45.94312" lon="4.7236">
        <ele>172</ele>
        <time>2017-10-23T09:10:16Z</time>
      </trkpt>
      <trkpt lat="45.94314" lon="4.72365">
        <ele>172</ele>
        <time>2017-10-23T09:10:17Z</time>
      </trkpt>
      <trkpt lat="45.94318" lon="4.72376">
        <ele>172</ele>
        <time>2017-10-23T09:10:19Z</time>
      </trkpt>
      <trkpt lat="45.94321" lon="4.7238">
        <ele>172</ele>
        <time>2017-10-23T09:10:20Z</time>
      </trkpt>
      <trkpt lat="45.94324" lon="4.72388">
        <ele>172</ele>
        <time>2017-10-23T09:10:22Z</time>
      </trkpt>
      <trkpt lat="45.94327" lon="4.72392">
        <ele>172</ele>
        <time>2017-10-23T09:10:23Z</time>
      </trkpt>
      <trkpt lat="45.94331" lon="4.72401">
        <ele>173</ele>
        <time>2017-10-23T09:10:25Z</time>
      </trkpt>
      <trkpt lat="45.94334" lon="4.72406">
        <ele>173</ele>
        <time>2017-10-23T09:10:26Z</time>
      </trkpt>
      <trkpt lat="45.94338" lon="4.72415">
        <ele>173</ele>
        <time>2017-10-23T09:10:28Z</time>
      </trkpt>
      <trkpt lat="45.9434" lon="4.7242">
        <ele>173</ele>
        <time>2017-10-23T09:10:29Z</time>
      </trkpt>
      <trkpt lat="45.94343" lon="4.72427">
        <ele>173</ele>
        <time>2017-10-23T09:10:30Z</time>
      </trkpt>
      <trkpt lat="45.94345" lon="4.72432">
        <ele>173</ele>
        <time>2017-10-23T09:10:31Z</time>
      </trkpt>
      <trkpt lat="45.94347" lon="4.72439">
        <ele>173</ele>
        <time>2017-10-23T09:10:32Z</time>
      </trkpt>
      <trkpt lat="45.9435" lon="4.72444">
        <ele>173</ele>
        <time>2017-10-23T09:10:33Z</time>
      </trkpt>
      <trkpt lat="45.94352" lon="4.72449">
        <ele>173</ele>
        <time>2017-10-23T09:10:34Z</time>
      </trkpt>
      <trkpt lat="45.94355" lon="4.72455">
        <ele>173</ele>
        <time>2017-10-23T09:10:35Z</time>
      </trkpt>
      <trkpt lat="45.9436" lon="4.72466">
        <ele>173</ele>
        <time>2017-10-23T09:10:37Z</time>
      </trkpt>
      <trkpt lat="45.94362" lon="4.72471">
        <ele>173</ele>
        <time>2017-10-23T09:10:38Z</time>
      </trkpt>
      <trkpt lat="45.94365" lon="4.72481">
        <ele>173</ele>
        <time>2017-10-23T09:10:40Z</time>
      </trkpt>
      <trkpt lat="45.94367" lon="4.72486">
        <ele>173</ele>
        <time>2017-10-23T09:10:41Z</time>
      </trkpt>
      <trkpt lat="45.94371" lon="4.72495">
        <ele>173</ele>
        <time>2017-10-23T09:10:43Z</time>
      </trkpt>
      <trkpt lat="45.94373" lon="4.725">
        <ele>173</ele>
        <time>2017-10-23T09:10:44Z</time>
      </trkpt>
      <trkpt lat="45.94376" lon="4.72505">
        <ele>174</ele>
        <time>2017-10-23T09:10:45Z</time>
      </trkpt>
      <trkpt lat="45.94377" lon="4.72512">
        <ele>174</ele>
        <time>2017-10-23T09:10:46Z</time>
      </trkpt>
      <trkpt lat="45.9438" lon="4.72523">
        <ele>174</ele>
        <time>2017-10-23T09:10:48Z</time>
      </trkpt>
      <trkpt lat="45.94382" lon="4.7253">
        <ele>174</ele>
        <time>2017-10-23T09:10:49Z</time>
      </trkpt>
      <trkpt lat="45.94383" lon="4.72537">
        <ele>174</ele>
        <time>2017-10-23T09:10:50Z</time>
      </trkpt>
      <trkpt lat="45.94385" lon="4.72543">
        <ele>173</ele>
        <time>2017-10-23T09:10:51Z</time>
      </trkpt>
      <trkpt lat="45.94386" lon="4.7255">
        <ele>173</ele>
        <time>2017-10-23T09:10:52Z</time>
      </trkpt>
      <trkpt lat="45.94388" lon="4.72558">
        <ele>173</ele>
        <time>2017-10-23T09:10:53Z</time>
      </trkpt>
      <trkpt lat="45.9439" lon="4.72564">
        <ele>173</ele>
        <time>2017-10-23T09:10:54Z</time>
      </trkpt>
      <trkpt lat="45.94392" lon="4.72571">
        <ele>173</ele>
        <time>2017-10-23T09:10:55Z</time>
      </trkpt>
      <trkpt lat="45.94393" lon="4.72578">
        <ele>173</ele>
        <time>2017-10-23T09:10:56Z</time>
      </trkpt>
      <trkpt lat="45.94394" lon="4.72585">
        <ele>173</ele>
        <time>2017-10-23T09:10:57Z</time>
      </trkpt>
      <trkpt lat="45.94396" lon="4.72596">
        <ele>173</ele>
        <time>2017-10-23T09:10:59Z</time>
      </trkpt>
      <trkpt lat="45.94397" lon="4.72603">
        <ele>173</ele>
        <time>2017-10-23T09:11:00Z</time>
      </trkpt>
      <trkpt lat="45.94399" lon="4.72612">
        <ele>173</ele>
        <time>2017-10-23T09:11:02Z</time>
      </trkpt>
      <trkpt lat="45.94399" lon="4.72617">
        <ele>173</ele>
        <time>2017-10-23T09:11:03Z</time>
      </trkpt>
      <trkpt lat="45.94399" lon="4.72627">
        <ele>174</ele>
        <time>2017-10-23T09:11:05Z</time>
      </trkpt>
      <trkpt lat="45.944" lon="4.72634">
        <ele>174</ele>
        <time>2017-10-23T09:11:06Z</time>
      </trkpt>
      <trkpt lat="45.94402" lon="4.72645">
        <ele>174</ele>
        <time>2017-10-23T09:11:08Z</time>
      </trkpt>
      <trkpt lat="45.94402" lon="4.72651">
        <ele>174</ele>
        <time>2017-10-23T09:11:09Z</time>
      </trkpt>
      <trkpt lat="45.94403" lon="4.72658">
        <ele>174</ele>
        <time>2017-10-23T09:11:10Z</time>
      </trkpt>
      <trkpt lat="45.94404" lon="4.72664">
        <ele>174</ele>
        <time>2017-10-23T09:11:11Z</time>
      </trkpt>
      <trkpt lat="45.94406" lon="4.72675">
        <ele>173</ele>
        <time>2017-10-23T09:11:13Z</time>
      </trkpt>
      <trkpt lat="45.94406" lon="4.72681">
        <ele>173</ele>
        <time>2017-10-23T09:11:14Z</time>
      </trkpt>
      <trkpt lat="45.94408" lon="4.72692">
        <ele>173</ele>
        <time>2017-10-23T09:11:16Z</time>
      </trkpt>
      <trkpt lat="45.94409" lon="4.72698">
        <ele>172</ele>
        <time>2017-10-23T09:11:17Z</time>
      </trkpt>
      <trkpt lat="45.9441" lon="4.7271">
        <ele>172</ele>
        <time>2017-10-23T09:11:19Z</time>
      </trkpt>
      <trkpt lat="45.94411" lon="4.72717">
        <ele>172</ele>
        <time>2017-10-23T09:11:20Z</time>
      </trkpt>
      <trkpt lat="45.94412" lon="4.72723">
        <ele>172</ele>
        <time>2017-10-23T09:11:21Z</time>
      </trkpt>
      <trkpt lat="45.94412" lon="4.7273">
        <ele>172</ele>
        <time>2017-10-23T09:11:22Z</time>
      </trkpt>
      <trkpt lat="45.94413" lon="4.72737">
        <ele>171</ele>
        <time>2017-10-23T09:11:23Z</time>
      </trkpt>
      <trkpt lat="45.94414" lon="4.72743">
        <ele>171</ele>
        <time>2017-10-23T09:11:24Z</time>
      </trkpt>
      <trkpt lat="45.94416" lon="4.72755">
        <ele>170</ele>
        <time>2017-10-23T09:11:26Z</time>
      </trkpt>
      <trkpt lat="45.94416" lon="4.72762">
        <ele>170</ele>
        <time>2017-10-23T09:11:27Z</time>
      </trkpt>
      <trkpt lat="45.94418" lon="4.72773">
        <ele>169</ele>
        <time>2017-10-23T09:11:29Z</time>
      </trkpt>
      <trkpt lat="45.94419" lon="4.7278">
        <ele>168</ele>
        <time>2017-10-23T09:11:30Z</time>
      </trkpt>
      <trkpt lat="45.9442" lon="4.7279">
        <ele>168</ele>
        <time>2017-10-23T09:11:32Z</time>
      </trkpt>
      <trkpt lat="45.94421" lon="4.72795">
        <ele>168</ele>
        <time>2017-10-23T09:11:33Z</time>
      </trkpt>
      <trkpt lat="45.94422" lon="4.72805">
        <ele>167</ele>
        <time>2017-10-23T09:11:35Z</time>
      </trkpt>
      <trkpt lat="45.94423" lon="4.7281">
        <ele>167</ele>
        <time>2017-10-23T09:11:36Z</time>
      </trkpt>
      <trkpt lat="45.94424" lon="4.72821">
        <ele>167</ele>
        <time>2017-10-23T09:11:38Z</time>
      </trkpt>
      <trkpt lat="45.94425" lon="4.72827">
        <ele>166</ele>
        <time>2017-10-23T09:11:39Z</time>
      </trkpt>
      <trkpt lat="45.94426" lon="4.72838">
        <ele>166</ele>
        <time>2017-10-23T09:11:41Z</time>
      </trkpt>
      <trkpt lat="45.94426" lon="4.72844">
        <ele>166</ele>
        <time>2017-10-23T09:11:42Z</time>
      </trkpt>
      <trkpt lat="45.94428" lon="4.72854">
        <ele>166</ele>
        <time>2017-10-23T09:11:44Z</time>
      </trkpt>
      <trkpt lat="45.94429" lon="4.72859">
        <ele>166</ele>
        <time>2017-10-23T09:11:45Z</time>
      </trkpt>
      <trkpt lat="45.9443" lon="4.72868">
        <ele>166</ele>
        <time>2017-10-23T09:11:47Z</time>
      </trkpt>
      <trkpt lat="45.94431" lon="4.72873">
        <ele>166</ele>
        <time>2017-10-23T09:11:48Z</time>
      </trkpt>
      <trkpt lat="45.94433" lon="4.72882">
        <ele>166</ele>
        <time>2017-10-23T09:11:50Z</time>
      </trkpt>
      <trkpt lat="45.94434" lon="4.72887">
        <ele>166</ele>
        <time>2017-10-23T09:11:51Z</time>
      </trkpt>
      <trkpt lat="45.94436" lon="4.72898">
        <ele>166</ele>
        <time>2017-10-23T09:11:53Z</time>
      </trkpt>
      <trkpt lat="45.94436" lon="4.72903">
        <ele>166</ele>
        <time>2017-10-23T09:11:54Z</time>
      </trkpt>
      <trkpt lat="45.94438" lon="4.72914">
        <ele>166</ele>
        <time>2017-10-23T09:11:56Z</time>
      </trkpt>
      <trkpt lat="45.94438" lon="4.7292">
        <ele>167</ele>
        <time>2017-10-23T09:11:57Z</time>
      </trkpt>
      <trkpt lat="45.9444" lon="4.7293">
        <ele>167</ele>
        <time>2017-10-23T09:11:59Z</time>
      </trkpt>
      <trkpt lat="45.94441" lon="4.72936">
        <ele>167</ele>
        <time>2017-10-23T09:12:00Z</time>
      </trkpt>
      <trkpt lat="45.94442" lon="4.72947">
        <ele>167</ele>
        <time>2017-10-23T09:12:02Z</time>
      </trkpt>
      <trkpt lat="45.94443" lon="4.72953">
        <ele>167</ele>
        <time>2017-10-23T09:12:03Z</time>
      </trkpt>
      <trkpt lat="45.94444" lon="4.72959">
        <ele>167</ele>
        <time>2017-10-23T09:12:04Z</time>
      </trkpt>
      <trkpt lat="45.94445" lon="4.72966">
        <ele>167</ele>
        <time>2017-10-23T09:12:05Z</time>
      </trkpt>
      <trkpt lat="45.94446" lon="4.72973">
        <ele>167</ele>
        <time>2017-10-23T09:12:06Z</time>
      </trkpt>
      <trkpt lat="45.94447" lon="4.7298">
        <ele>167</ele>
        <time>2017-10-23T09:12:07Z</time>
      </trkpt>
      <trkpt lat="45.94448" lon="4.72987">
        <ele>167</ele>
        <time>2017-10-23T09:12:08Z</time>
      </trkpt>
      <trkpt lat="45.94449" lon="4.72994">
        <ele>167</ele>
        <time>2017-10-23T09:12:09Z</time>
      </trkpt>
      <trkpt lat="45.9445" lon="4.73002">
        <ele>169</ele>
        <time>2017-10-23T09:12:10Z</time>
      </trkpt>
      <trkpt lat="45.94451" lon="4.73009">
        <ele>169</ele>
        <time>2017-10-23T09:12:11Z</time>
      </trkpt>
      <trkpt lat="45.94452" lon="4.73016">
        <ele>169</ele>
        <time>2017-10-23T09:12:12Z</time>
      </trkpt>
      <trkpt lat="45.94453" lon="4.73024">
        <ele>169</ele>
        <time>2017-10-23T09:12:13Z</time>
      </trkpt>
      <trkpt lat="45.94454" lon="4.73031">
        <ele>169</ele>
        <time>2017-10-23T09:12:14Z</time>
      </trkpt>
      <trkpt lat="45.94455" lon="4.7304">
        <ele>169</ele>
        <time>2017-10-23T09:12:15Z</time>
      </trkpt>
      <trkpt lat="45.94456" lon="4.73048">
        <ele>170</ele>
        <time>2017-10-23T09:12:16Z</time>
      </trkpt>
      <trkpt lat="45.94457" lon="4.73056">
        <ele>170</ele>
        <time>2017-10-23T09:12:17Z</time>
      </trkpt>
      <trkpt lat="45.94459" lon="4.73063">
        <ele>170</ele>
        <time>2017-10-23T09:12:18Z</time>
      </trkpt>
      <trkpt lat="45.94461" lon="4.7307">
        <ele>170</ele>
        <time>2017-10-23T09:12:19Z</time>
      </trkpt>
      <trkpt lat="45.94465" lon="4.73076">
        <ele>170</ele>
        <time>2017-10-23T09:12:20Z</time>
      </trkpt>
      <trkpt lat="45.94471" lon="4.73077">
        <ele>170</ele>
        <time>2017-10-23T09:12:21Z</time>
      </trkpt>
      <trkpt lat="45.94476" lon="4.73079">
        <ele>170</ele>
        <time>2017-10-23T09:12:22Z</time>
      </trkpt>
      <trkpt lat="45.94482" lon="4.73081">
        <ele>171</ele>
        <time>2017-10-23T09:12:23Z</time>
      </trkpt>
      <trkpt lat="45.94488" lon="4.73084">
        <ele>172</ele>
        <time>2017-10-23T09:12:24Z</time>
      </trkpt>
      <trkpt lat="45.94494" lon="4.73087">
        <ele>172</ele>
        <time>2017-10-23T09:12:25Z</time>
      </trkpt>
      <trkpt lat="45.945" lon="4.73089">
        <ele>172</ele>
        <time>2017-10-23T09:12:26Z</time>
      </trkpt>
      <trkpt lat="45.94505" lon="4.73093">
        <ele>172</ele>
        <time>2017-10-23T09:12:27Z</time>
      </trkpt>
      <trkpt lat="45.94511" lon="4.73097">
        <ele>172</ele>
        <time>2017-10-23T09:12:28Z</time>
      </trkpt>
      <trkpt lat="45.94516" lon="4.731">
        <ele>172</ele>
        <time>2017-10-23T09:12:29Z</time>
      </trkpt>
      <trkpt lat="45.94521" lon="4.73102">
        <ele>173</ele>
        <time>2017-10-23T09:12:30Z</time>
      </trkpt>
      <trkpt lat="45.94526" lon="4.73104">
        <ele>173</ele>
        <time>2017-10-23T09:12:31Z</time>
      </trkpt>
      <trkpt lat="45.94531" lon="4.73106">
        <ele>173</ele>
        <time>2017-10-23T09:12:32Z</time>
      </trkpt>
      <trkpt lat="45.94536" lon="4.73107">
        <ele>173</ele>
        <time>2017-10-23T09:12:33Z</time>
      </trkpt>
      <trkpt lat="45.94541" lon="4.73108">
        <ele>173</ele>
        <time>2017-10-23T09:12:34Z</time>
      </trkpt>
      <trkpt lat="45.94545" lon="4.73107">
        <ele>173</ele>
        <time>2017-10-23T09:12:35Z</time>
      </trkpt>
      <trkpt lat="45.94554" lon="4.7311">
        <ele>173</ele>
        <time>2017-10-23T09:12:38Z</time>
      </trkpt>
      <trkpt lat="45.94555" lon="4.73109">
        <ele>173</ele>
        <time>2017-10-23T09:12:39Z</time>
      </trkpt>
      <trkpt lat="45.94554" lon="4.73098">
        <ele>172</ele>
        <time>2017-10-23T09:12:41Z</time>
      </trkpt>
      <trkpt lat="45.94554" lon="4.73093">
        <ele>172</ele>
        <time>2017-10-23T09:12:42Z</time>
      </trkpt>
      <trkpt lat="45.94553" lon="4.73083">
        <ele>172</ele>
        <time>2017-10-23T09:12:44Z</time>
      </trkpt>
      <trkpt lat="45.94553" lon="4.73078">
        <ele>172</ele>
        <time>2017-10-23T09:12:45Z</time>
      </trkpt>
      <trkpt lat="45.94552" lon="4.73069">
        <ele>172</ele>
        <time>2017-10-23T09:12:47Z</time>
      </trkpt>
      <trkpt lat="45.94552" lon="4.73065">
        <ele>172</ele>
        <time>2017-10-23T09:12:48Z</time>
      </trkpt>
      <trkpt lat="45.94552" lon="4.73054">
        <ele>172</ele>
        <time>2017-10-23T09:12:51Z</time>
      </trkpt>
      <trkpt lat="45.94552" lon="4.7305">
        <ele>172</ele>
        <time>2017-10-23T09:12:52Z</time>
      </trkpt>
      <trkpt lat="45.94552" lon="4.73042">
        <ele>172</ele>
        <time>2017-10-23T09:12:54Z</time>
      </trkpt>
      <trkpt lat="45.94551" lon="4.73037">
        <ele>171</ele>
        <time>2017-10-23T09:12:55Z</time>
      </trkpt>
      <trkpt lat="45.94547" lon="4.73029">
        <ele>171</ele>
        <time>2017-10-23T09:12:57Z</time>
      </trkpt>
      <trkpt lat="45.94544" lon="4.73025">
        <ele>171</ele>
        <time>2017-10-23T09:12:58Z</time>
      </trkpt>
      <trkpt lat="45.94538" lon="4.73019">
        <ele>171</ele>
        <time>2017-10-23T09:13:00Z</time>
      </trkpt>
      <trkpt lat="45.94534" lon="4.73016">
        <ele>171</ele>
        <time>2017-10-23T09:13:01Z</time>
      </trkpt>
      <trkpt lat="45.94527" lon="4.73011">
        <ele>171</ele>
        <time>2017-10-23T09:13:03Z</time>
      </trkpt>
      <trkpt lat="45.94522" lon="4.7301">
        <ele>171</ele>
        <time>2017-10-23T09:13:04Z</time>
      </trkpt>
      <trkpt lat="45.94515" lon="4.73011">
        <ele>171</ele>
        <time>2017-10-23T09:13:06Z</time>
      </trkpt>
      <trkpt lat="45.94511" lon="4.73011">
        <ele>171</ele>
        <time>2017-10-23T09:13:07Z</time>
      </trkpt>
      <trkpt lat="45.94503" lon="4.73012">
        <ele>171</ele>
        <time>2017-10-23T09:13:09Z</time>
      </trkpt>
      <trkpt lat="45.94498" lon="4.73012">
        <ele>170</ele>
        <time>2017-10-23T09:13:10Z</time>
      </trkpt>
      <trkpt lat="45.94494" lon="4.73013">
        <ele>170</ele>
        <time>2017-10-23T09:13:11Z</time>
      </trkpt>
      <trkpt lat="45.94489" lon="4.73013">
        <ele>170</ele>
        <time>2017-10-23T09:13:12Z</time>
      </trkpt>
      <trkpt lat="45.9448" lon="4.73014">
        <ele>170</ele>
        <time>2017-10-23T09:13:14Z</time>
      </trkpt>
      <trkpt lat="45.94475" lon="4.73014">
        <ele>170</ele>
        <time>2017-10-23T09:13:15Z</time>
      </trkpt>
      <trkpt lat="45.94468" lon="4.73015">
        <ele>170</ele>
        <time>2017-10-23T09:13:17Z</time>
      </trkpt>
      <trkpt lat="45.94464" lon="4.73015">
        <ele>169</ele>
        <time>2017-10-23T09:13:18Z</time>
      </trkpt>
      <trkpt lat="45.94458" lon="4.73015">
        <ele>169</ele>
        <time>2017-10-23T09:13:20Z</time>
      </trkpt>
      <trkpt lat="45.94454" lon="4.73015">
        <ele>169</ele>
        <time>2017-10-23T09:13:21Z</time>
      </trkpt>
      <trkpt lat="45.94446" lon="4.73018">
        <ele>169</ele>
        <time>2017-10-23T09:13:23Z</time>
      </trkpt>
      <trkpt lat="45.94442" lon="4.73022">
        <ele>169</ele>
        <time>2017-10-23T09:13:24Z</time>
      </trkpt>
      <trkpt lat="45.94437" lon="4.7303">
        <ele>169</ele>
        <time>2017-10-23T09:13:26Z</time>
      </trkpt>
      <trkpt lat="45.94433" lon="4.73033">
        <ele>169</ele>
        <time>2017-10-23T09:13:27Z</time>
      </trkpt>
      <trkpt lat="45.94427" lon="4.73041">
        <ele>169</ele>
        <time>2017-10-23T09:13:29Z</time>
      </trkpt>
      <trkpt lat="45.94424" lon="4.73044">
        <ele>169</ele>
        <time>2017-10-23T09:13:30Z</time>
      </trkpt>
      <trkpt lat="45.94419" lon="4.73052">
        <ele>169</ele>
        <time>2017-10-23T09:13:32Z</time>
      </trkpt>
      <trkpt lat="45.94417" lon="4.73055">
        <ele>169</ele>
        <time>2017-10-23T09:13:33Z</time>
      </trkpt>
      <trkpt lat="45.94411" lon="4.73059">
        <ele>168</ele>
        <time>2017-10-23T09:13:35Z</time>
      </trkpt>
      <trkpt lat="45.94409" lon="4.73062">
        <ele>168</ele>
        <time>2017-10-23T09:13:36Z</time>
      </trkpt>
      <trkpt lat="45.94403" lon="4.73068">
        <ele>168</ele>
        <time>2017-10-23T09:13:38Z</time>
      </trkpt>
      <trkpt lat="45.944" lon="4.73071">
        <ele>168</ele>
        <time>2017-10-23T09:13:39Z</time>
      </trkpt>
      <trkpt lat="45.94396" lon="4.73074">
        <ele>168</ele>
        <time>2017-10-23T09:13:40Z</time>
      </trkpt>
      <trkpt lat="45.94391" lon="4.73077">
        <ele>167</ele>
        <time>2017-10-23T09:13:41Z</time>
      </trkpt>
      <trkpt lat="45.94384" lon="4.73083">
        <ele>169</ele>
        <time>2017-10-23T09:13:43Z</time>
      </trkpt>
      <trkpt lat="45.9438" lon="4.73087">
        <ele>169</ele>
        <time>2017-10-23T09:13:44Z</time>
      </trkpt>
      <trkpt lat="45.94374" lon="4.73093">
        <ele>169</ele>
        <time>2017-10-23T09:13:46Z</time>
      </trkpt>
      <trkpt lat="45.94371" lon="4.73097">
        <ele>169</ele>
        <time>2017-10-23T09:13:47Z</time>
      </trkpt>
      <trkpt lat="45.94365" lon="4.73102">
        <ele>169</ele>
        <time>2017-10-23T09:13:49Z</time>
      </trkpt>
      <trkpt lat="45.94361" lon="4.73105">
        <ele>169</ele>
        <time>2017-10-23T09:13:50Z</time>
      </trkpt>
      <trkpt lat="45.94354" lon="4.7311">
        <ele>169</ele>
        <time>2017-10-23T09:13:52Z</time>
      </trkpt>
      <trkpt lat="45.9435" lon="4.73113">
        <ele>169</ele>
        <time>2017-10-23T09:13:53Z</time>
      </trkpt>
      <trkpt lat="45.94343" lon="4.7312">
        <ele>169</ele>
        <time>2017-10-23T09:13:55Z</time>
      </trkpt>
      <trkpt lat="45.94339" lon="4.73123">
        <ele>169</ele>
        <time>2017-10-23T09:13:56Z</time>
      </trkpt>
      <trkpt lat="45.94334" lon="4.73128">
        <ele>169</ele>
        <time>2017-10-23T09:13:57Z</time>
      </trkpt>
      <trkpt lat="45.9433" lon="4.73131">
        <ele>168</ele>
        <time>2017-10-23T09:13:58Z</time>
      </trkpt>
      <trkpt lat="45.94323" lon="4.73138">
        <ele>168</ele>
        <time>2017-10-23T09:14:00Z</time>
      </trkpt>
      <trkpt lat="45.9432" lon="4.73141">
        <ele>168</ele>
        <time>2017-10-23T09:14:01Z</time>
      </trkpt>
      <trkpt lat="45.94314" lon="4.73146">
        <ele>168</ele>
        <time>2017-10-23T09:14:03Z</time>
      </trkpt>
      <trkpt lat="45.94311" lon="4.73147">
        <ele>168</ele>
        <time>2017-10-23T09:14:04Z</time>
      </trkpt>
      <trkpt lat="45.94304" lon="4.7315">
        <ele>168</ele>
        <time>2017-10-23T09:14:06Z</time>
      </trkpt>
      <trkpt lat="45.943" lon="4.73152">
        <ele>168</ele>
        <time>2017-10-23T09:14:07Z</time>
      </trkpt>
      <trkpt lat="45.94294" lon="4.73158">
        <ele>167</ele>
        <time>2017-10-23T09:14:09Z</time>
      </trkpt>
      <trkpt lat="45.94291" lon="4.73161">
        <ele>167</ele>
        <time>2017-10-23T09:14:10Z</time>
      </trkpt>
      <trkpt lat="45.94285" lon="4.73168">
        <ele>170</ele>
        <time>2017-10-23T09:14:12Z</time>
      </trkpt>
      <trkpt lat="45.94283" lon="4.73172">
        <ele>169</ele>
        <time>2017-10-23T09:14:13Z</time>
      </trkpt>
      <trkpt lat="45.94275" lon="4.73177">
        <ele>169</ele>
        <time>2017-10-23T09:14:17Z</time>
      </trkpt>
      <trkpt lat="45.94273" lon="4.73176">
        <ele>169</ele>
        <time>2017-10-23T09:14:18Z</time>
      </trkpt>
      <trkpt lat="45.94266" lon="4.73181">
        <ele>169</ele>
        <time>2017-10-23T09:14:21Z</time>
      </trkpt>
      <trkpt lat="45.94263" lon="4.73184">
        <ele>169</ele>
        <time>2017-10-23T09:14:22Z</time>
      </trkpt>
      <trkpt lat="45.94257" lon="4.73189">
        <ele>169</ele>
        <time>2017-10-23T09:14:24Z</time>
      </trkpt>
      <trkpt lat="45.94254" lon="4.73192">
        <ele>169</ele>
        <time>2017-10-23T09:14:25Z</time>
      </trkpt>
      <trkpt lat="45.94247" lon="4.73197">
        <ele>168</ele>
        <time>2017-10-23T09:14:27Z</time>
      </trkpt>
      <trkpt lat="45.94244" lon="4.732">
        <ele>168</ele>
        <time>2017-10-23T09:14:28Z</time>
      </trkpt>
      <trkpt lat="45.94236" lon="4.73206">
        <ele>169</ele>
        <time>2017-10-23T09:14:30Z</time>
      </trkpt>
      <trkpt lat="45.94233" lon="4.73209">
        <ele>169</ele>
        <time>2017-10-23T09:14:31Z</time>
      </trkpt>
      <trkpt lat="45.94225" lon="4.73215">
        <ele>169</ele>
        <time>2017-10-23T09:14:33Z</time>
      </trkpt>
      <trkpt lat="45.94221" lon="4.73218">
        <ele>169</ele>
        <time>2017-10-23T09:14:34Z</time>
      </trkpt>
      <trkpt lat="45.94218" lon="4.73222">
        <ele>169</ele>
        <time>2017-10-23T09:14:35Z</time>
      </trkpt>
      <trkpt lat="45.94213" lon="4.73225">
        <ele>169</ele>
        <time>2017-10-23T09:14:36Z</time>
      </trkpt>
      <trkpt lat="45.94206" lon="4.7323">
        <ele>169</ele>
        <time>2017-10-23T09:14:38Z</time>
      </trkpt>
      <trkpt lat="45.94203" lon="4.73233">
        <ele>169</ele>
        <time>2017-10-23T09:14:39Z</time>
      </trkpt>
      <trkpt lat="45.94195" lon="4.7324">
        <ele>169</ele>
        <time>2017-10-23T09:14:41Z</time>
      </trkpt>
      <trkpt lat="45.94192" lon="4.73244">
        <ele>169</ele>
        <time>2017-10-23T09:14:42Z</time>
      </trkpt>
      <trkpt lat="45.94185" lon="4.73251">
        <ele>172</ele>
        <time>2017-10-23T09:14:44Z</time>
      </trkpt>
      <trkpt lat="45.94181" lon="4.73255">
        <ele>171</ele>
        <time>2017-10-23T09:14:45Z</time>
      </trkpt>
      <trkpt lat="45.94175" lon="4.73261">
        <ele>171</ele>
        <time>2017-10-23T09:14:47Z</time>
      </trkpt>
      <trkpt lat="45.94172" lon="4.73264">
        <ele>171</ele>
        <time>2017-10-23T09:14:48Z</time>
      </trkpt>
      <trkpt lat="45.94165" lon="4.73271">
        <ele>170</ele>
        <time>2017-10-23T09:14:50Z</time>
      </trkpt>
      <trkpt lat="45.94161" lon="4.73275">
        <ele>170</ele>
        <time>2017-10-23T09:14:51Z</time>
      </trkpt>
      <trkpt lat="45.94155" lon="4.73284">
        <ele>170</ele>
        <time>2017-10-23T09:14:53Z</time>
      </trkpt>
      <trkpt lat="45.94151" lon="4.73288">
        <ele>170</ele>
        <time>2017-10-23T09:14:54Z</time>
      </trkpt>
      <trkpt lat="45.94145" lon="4.73296">
        <ele>170</ele>
        <time>2017-10-23T09:14:56Z</time>
      </trkpt>
      <trkpt lat="45.94143" lon="4.73299">
        <ele>170</ele>
        <time>2017-10-23T09:14:57Z</time>
      </trkpt>
      <trkpt lat="45.94137" lon="4.73307">
        <ele>171</ele>
        <time>2017-10-23T09:14:59Z</time>
      </trkpt>
      <trkpt lat="45.94135" lon="4.7331">
        <ele>171</ele>
        <time>2017-10-23T09:15:00Z</time>
      </trkpt>
      <trkpt lat="45.94131" lon="4.73317">
        <ele>171</ele>
        <time>2017-10-23T09:15:02Z</time>
      </trkpt>
      <trkpt lat="45.94128" lon="4.73321">
        <ele>171</ele>
        <time>2017-10-23T09:15:03Z</time>
      </trkpt>
      <trkpt lat="45.94122" lon="4.73328">
        <ele>171</ele>
        <time>2017-10-23T09:15:05Z</time>
      </trkpt>
      <trkpt lat="45.9412" lon="4.73332">
        <ele>171</ele>
        <time>2017-10-23T09:15:06Z</time>
      </trkpt>
      <trkpt lat="45.94114" lon="4.73341">
        <ele>173</ele>
        <time>2017-10-23T09:15:08Z</time>
      </trkpt>
      <trkpt lat="45.94111" lon="4.73345">
        <ele>173</ele>
        <time>2017-10-23T09:15:09Z</time>
      </trkpt>
      <trkpt lat="45.94105" lon="4.73352">
        <ele>173</ele>
        <time>2017-10-23T09:15:11Z</time>
      </trkpt>
      <trkpt lat="45.94101" lon="4.73357">
        <ele>173</ele>
        <time>2017-10-23T09:15:12Z</time>
      </trkpt>
      <trkpt lat="45.94095" lon="4.73366">
        <ele>173</ele>
        <time>2017-10-23T09:15:14Z</time>
      </trkpt>
      <trkpt lat="45.94093" lon="4.73369">
        <ele>173</ele>
        <time>2017-10-23T09:15:15Z</time>
      </trkpt>
      <trkpt lat="45.94088" lon="4.73376">
        <ele>173</ele>
        <time>2017-10-23T09:15:17Z</time>
      </trkpt>
      <trkpt lat="45.94086" lon="4.7338">
        <ele>174</ele>
        <time>2017-10-23T09:15:18Z</time>
      </trkpt>
      <trkpt lat="45.94083" lon="4.73389">
        <ele>171</ele>
        <time>2017-10-23T09:15:20Z</time>
      </trkpt>
      <trkpt lat="45.9408" lon="4.73393">
        <ele>171</ele>
        <time>2017-10-23T09:15:21Z</time>
      </trkpt>
      <trkpt lat="45.94075" lon="4.73402">
        <ele>172</ele>
        <time>2017-10-23T09:15:23Z</time>
      </trkpt>
      <trkpt lat="45.94073" lon="4.73406">
        <ele>172</ele>
        <time>2017-10-23T09:15:24Z</time>
      </trkpt>
      <trkpt lat="45.94067" lon="4.73415">
        <ele>172</ele>
        <time>2017-10-23T09:15:26Z</time>
      </trkpt>
      <trkpt lat="45.94064" lon="4.7342">
        <ele>172</ele>
        <time>2017-10-23T09:15:27Z</time>
      </trkpt>
      <trkpt lat="45.94061" lon="4.73425">
        <ele>172</ele>
        <time>2017-10-23T09:15:28Z</time>
      </trkpt>
      <trkpt lat="45.94058" lon="4.7343">
        <ele>172</ele>
        <time>2017-10-23T09:15:29Z</time>
      </trkpt>
      <trkpt lat="45.94052" lon="4.7344">
        <ele>172</ele>
        <time>2017-10-23T09:15:31Z</time>
      </trkpt>
      <trkpt lat="45.94049" lon="4.73446">
        <ele>171</ele>
        <time>2017-10-23T09:15:32Z</time>
      </trkpt>
      <trkpt lat="45.94044" lon="4.73455">
        <ele>171</ele>
        <time>2017-10-23T09:15:34Z</time>
      </trkpt>
      <trkpt lat="45.94041" lon="4.7346">
        <ele>171</ele>
        <time>2017-10-23T09:15:35Z</time>
      </trkpt>
      <trkpt lat="45.94037" lon="4.73468">
        <ele>171</ele>
        <time>2017-10-23T09:15:37Z</time>
      </trkpt>
      <trkpt lat="45.94035" lon="4.73471">
        <ele>171</ele>
        <time>2017-10-23T09:15:38Z</time>
      </trkpt>
      <trkpt lat="45.9403" lon="4.7348">
        <ele>171</ele>
        <time>2017-10-23T09:15:40Z</time>
      </trkpt>
      <trkpt lat="45.94029" lon="4.73484">
        <ele>171</ele>
        <time>2017-10-23T09:15:41Z</time>
      </trkpt>
      <trkpt lat="45.94024" lon="4.73492">
        <ele>170</ele>
        <time>2017-10-23T09:15:43Z</time>
      </trkpt>
      <trkpt lat="45.94022" lon="4.73496">
        <ele>170</ele>
        <time>2017-10-23T09:15:44Z</time>
      </trkpt>
      <trkpt lat="45.94017" lon="4.73506">
        <ele>170</ele>
        <time>2017-10-23T09:15:46Z</time>
      </trkpt>
      <trkpt lat="45.94014" lon="4.73511">
        <ele>170</ele>
        <time>2017-10-23T09:15:47Z</time>
      </trkpt>
      <trkpt lat="45.9401" lon="4.7352">
        <ele>171</ele>
        <time>2017-10-23T09:15:49Z</time>
      </trkpt>
      <trkpt lat="45.94008" lon="4.73525">
        <ele>171</ele>
        <time>2017-10-23T09:15:50Z</time>
      </trkpt>
      <trkpt lat="45.94004" lon="4.73532">
        <ele>171</ele>
        <time>2017-10-23T09:15:52Z</time>
      </trkpt>
      <trkpt lat="45.94003" lon="4.73536">
        <ele>171</ele>
        <time>2017-10-23T09:15:53Z</time>
      </trkpt>
      <trkpt lat="45.93999" lon="4.73544">
        <ele>168</ele>
        <time>2017-10-23T09:15:55Z</time>
      </trkpt>
      <trkpt lat="45.93998" lon="4.73548">
        <ele>168</ele>
        <time>2017-10-23T09:15:56Z</time>
      </trkpt>
      <trkpt lat="45.93994" lon="4.73557">
        <ele>168</ele>
        <time>2017-10-23T09:15:58Z</time>
      </trkpt>
      <trkpt lat="45.93992" lon="4.73562">
        <ele>168</ele>
        <time>2017-10-23T09:15:59Z</time>
      </trkpt>
      <trkpt lat="45.93988" lon="4.73573">
        <ele>168</ele>
        <time>2017-10-23T09:16:01Z</time>
      </trkpt>
      <trkpt lat="45.93986" lon="4.73579">
        <ele>168</ele>
        <time>2017-10-23T09:16:02Z</time>
      </trkpt>
      <trkpt lat="45.93983" lon="4.73589">
        <ele>169</ele>
        <time>2017-10-23T09:16:04Z</time>
      </trkpt>
      <trkpt lat="45.93981" lon="4.73595">
        <ele>169</ele>
        <time>2017-10-23T09:16:05Z</time>
      </trkpt>
      <trkpt lat="45.93978" lon="4.73606">
        <ele>169</ele>
        <time>2017-10-23T09:16:07Z</time>
      </trkpt>
      <trkpt lat="45.93977" lon="4.73611">
        <ele>170</ele>
        <time>2017-10-23T09:16:08Z</time>
      </trkpt>
      <trkpt lat="45.93975" lon="4.7362">
        <ele>170</ele>
        <time>2017-10-23T09:16:10Z</time>
      </trkpt>
      <trkpt lat="45.93974" lon="4.73626">
        <ele>170</ele>
        <time>2017-10-23T09:16:11Z</time>
      </trkpt>
      <trkpt lat="45.93972" lon="4.73636">
        <ele>170</ele>
        <time>2017-10-23T09:16:13Z</time>
      </trkpt>
      <trkpt lat="45.93971" lon="4.73642">
        <ele>170</ele>
        <time>2017-10-23T09:16:14Z</time>
      </trkpt>
      <trkpt lat="45.93969" lon="4.73653">
        <ele>171</ele>
        <time>2017-10-23T09:16:16Z</time>
      </trkpt>
      <trkpt lat="45.93968" lon="4.73659">
        <ele>171</ele>
        <time>2017-10-23T09:16:17Z</time>
      </trkpt>
      <trkpt lat="45.93965" lon="4.7367">
        <ele>172</ele>
        <time>2017-10-23T09:16:19Z</time>
      </trkpt>
      <trkpt lat="45.93964" lon="4.73675">
        <ele>172</ele>
        <time>2017-10-23T09:16:20Z</time>
      </trkpt>
      <trkpt lat="45.93962" lon="4.73684">
        <ele>172</ele>
        <time>2017-10-23T09:16:22Z</time>
      </trkpt>
      <trkpt lat="45.93961" lon="4.73689">
        <ele>172</ele>
        <time>2017-10-23T09:16:23Z</time>
      </trkpt>
      <trkpt lat="45.9396" lon="4.737">
        <ele>172</ele>
        <time>2017-10-23T09:16:25Z</time>
      </trkpt>
      <trkpt lat="45.93959" lon="4.73705">
        <ele>172</ele>
        <time>2017-10-23T09:16:26Z</time>
      </trkpt>
      <trkpt lat="45.93957" lon="4.73716">
        <ele>172</ele>
        <time>2017-10-23T09:16:28Z</time>
      </trkpt>
      <trkpt lat="45.93956" lon="4.73722">
        <ele>172</ele>
        <time>2017-10-23T09:16:29Z</time>
      </trkpt>
      <trkpt lat="45.93955" lon="4.73734">
        <ele>172</ele>
        <time>2017-10-23T09:16:31Z</time>
      </trkpt>
      <trkpt lat="45.93955" lon="4.7374">
        <ele>172</ele>
        <time>2017-10-23T09:16:32Z</time>
      </trkpt>
      <trkpt lat="45.93954" lon="4.73751">
        <ele>172</ele>
        <time>2017-10-23T09:16:34Z</time>
      </trkpt>
      <trkpt lat="45.93954" lon="4.73756">
        <ele>172</ele>
        <time>2017-10-23T09:16:35Z</time>
      </trkpt>
      <trkpt lat="45.93953" lon="4.73768">
        <ele>172</ele>
        <time>2017-10-23T09:16:37Z</time>
      </trkpt>
      <trkpt lat="45.93953" lon="4.73774">
        <ele>172</ele>
        <time>2017-10-23T09:16:38Z</time>
      </trkpt>
      <trkpt lat="45.93952" lon="4.73786">
        <ele>172</ele>
        <time>2017-10-23T09:16:40Z</time>
      </trkpt>
      <trkpt lat="45.93952" lon="4.73792">
        <ele>172</ele>
        <time>2017-10-23T09:16:41Z</time>
      </trkpt>
      <trkpt lat="45.9395" lon="4.73803">
        <ele>172</ele>
        <time>2017-10-23T09:16:43Z</time>
      </trkpt>
      <trkpt lat="45.9395" lon="4.73809">
        <ele>172</ele>
        <time>2017-10-23T09:16:44Z</time>
      </trkpt>
      <trkpt lat="45.93949" lon="4.73821">
        <ele>172</ele>
        <time>2017-10-23T09:16:46Z</time>
      </trkpt>
      <trkpt lat="45.93948" lon="4.73827">
        <ele>172</ele>
        <time>2017-10-23T09:16:47Z</time>
      </trkpt>
      <trkpt lat="45.93948" lon="4.73834">
        <ele>172</ele>
        <time>2017-10-23T09:16:48Z</time>
      </trkpt>
      <trkpt lat="45.93946" lon="4.7384">
        <ele>172</ele>
        <time>2017-10-23T09:16:49Z</time>
      </trkpt>
      <trkpt lat="45.93945" lon="4.7385">
        <ele>172</ele>
        <time>2017-10-23T09:16:51Z</time>
      </trkpt>
      <trkpt lat="45.93944" lon="4.73856">
        <ele>172</ele>
        <time>2017-10-23T09:16:52Z</time>
      </trkpt>
      <trkpt lat="45.93943" lon="4.73867">
        <ele>172</ele>
        <time>2017-10-23T09:16:54Z</time>
      </trkpt>
      <trkpt lat="45.93942" lon="4.73873">
        <ele>172</ele>
        <time>2017-10-23T09:16:55Z</time>
      </trkpt>
      <trkpt lat="45.93941" lon="4.73886">
        <ele>172</ele>
        <time>2017-10-23T09:16:57Z</time>
      </trkpt>
      <trkpt lat="45.93941" lon="4.73892">
        <ele>172</ele>
        <time>2017-10-23T09:16:58Z</time>
      </trkpt>
      <trkpt lat="45.93939" lon="4.73902">
        <ele>172</ele>
        <time>2017-10-23T09:17:00Z</time>
      </trkpt>
      <trkpt lat="45.93938" lon="4.73907">
        <ele>172</ele>
        <time>2017-10-23T09:17:01Z</time>
      </trkpt>
      <trkpt lat="45.93937" lon="4.73916">
        <ele>172</ele>
        <time>2017-10-23T09:17:03Z</time>
      </trkpt>
      <trkpt lat="45.93937" lon="4.7392">
        <ele>172</ele>
        <time>2017-10-23T09:17:04Z</time>
      </trkpt>
      <trkpt lat="45.93936" lon="4.73929">
        <ele>172</ele>
        <time>2017-10-23T09:17:06Z</time>
      </trkpt>
      <trkpt lat="45.93936" lon="4.73933">
        <ele>172</ele>
        <time>2017-10-23T09:17:07Z</time>
      </trkpt>
      <trkpt lat="45.93933" lon="4.73942">
        <ele>172</ele>
        <time>2017-10-23T09:17:09Z</time>
      </trkpt>
      <trkpt lat="45.93931" lon="4.73947">
        <ele>172</ele>
        <time>2017-10-23T09:17:10Z</time>
      </trkpt>
      <trkpt lat="45.93931" lon="4.73957">
        <ele>172</ele>
        <time>2017-10-23T09:17:12Z</time>
      </trkpt>
      <trkpt lat="45.93932" lon="4.73963">
        <ele>172</ele>
        <time>2017-10-23T09:17:13Z</time>
      </trkpt>
      <trkpt lat="45.93932" lon="4.73972">
        <ele>172</ele>
        <time>2017-10-23T09:17:15Z</time>
      </trkpt>
      <trkpt lat="45.93931" lon="4.73978">
        <ele>172</ele>
        <time>2017-10-23T09:17:16Z</time>
      </trkpt>
      <trkpt lat="45.93931" lon="4.73988">
        <ele>172</ele>
        <time>2017-10-23T09:17:18Z</time>
      </trkpt>
      <trkpt lat="45.93931" lon="4.73992">
        <ele>172</ele>
        <time>2017-10-23T09:17:19Z</time>
      </trkpt>
      <trkpt lat="45.9393" lon="4.74004">
        <ele>171</ele>
        <time>2017-10-23T09:17:22Z</time>
      </trkpt>
      <trkpt lat="45.93929" lon="4.74008">
        <ele>171</ele>
        <time>2017-10-23T09:17:23Z</time>
      </trkpt>
      <trkpt lat="45.93927" lon="4.74018">
        <ele>171</ele>
        <time>2017-10-23T09:17:25Z</time>
      </trkpt>
      <trkpt lat="45.93926" lon="4.74023">
        <ele>171</ele>
        <time>2017-10-23T09:17:26Z</time>
      </trkpt>
      <trkpt lat="45.93924" lon="4.74034">
        <ele>171</ele>
        <time>2017-10-23T09:17:28Z</time>
      </trkpt>
      <trkpt lat="45.93923" lon="4.7404">
        <ele>171</ele>
        <time>2017-10-23T09:17:29Z</time>
      </trkpt>
      <trkpt lat="45.93923" lon="4.74052">
        <ele>171</ele>
        <time>2017-10-23T09:17:31Z</time>
      </trkpt>
      <trkpt lat="45.93922" lon="4.74058">
        <ele>171</ele>
        <time>2017-10-23T09:17:32Z</time>
      </trkpt>
      <trkpt lat="45.93921" lon="4.74068">
        <ele>170</ele>
        <time>2017-10-23T09:17:34Z</time>
      </trkpt>
      <trkpt lat="45.9392" lon="4.74072">
        <ele>170</ele>
        <time>2017-10-23T09:17:35Z</time>
      </trkpt>
      <trkpt lat="45.93919" lon="4.74082">
        <ele>170</ele>
        <time>2017-10-23T09:17:37Z</time>
      </trkpt>
      <trkpt lat="45.93918" lon="4.74087">
        <ele>170</ele>
        <time>2017-10-23T09:17:38Z</time>
      </trkpt>
      <trkpt lat="45.93918" lon="4.74098">
        <ele>169</ele>
        <time>2017-10-23T09:17:40Z</time>
      </trkpt>
      <trkpt lat="45.93918" lon="4.74104">
        <ele>169</ele>
        <time>2017-10-23T09:17:41Z</time>
      </trkpt>
      <trkpt lat="45.93917" lon="4.74116">
        <ele>170</ele>
        <time>2017-10-23T09:17:43Z</time>
      </trkpt>
      <trkpt lat="45.93916" lon="4.74123">
        <ele>170</ele>
        <time>2017-10-23T09:17:44Z</time>
      </trkpt>
      <trkpt lat="45.93915" lon="4.74135">
        <ele>169</ele>
        <time>2017-10-23T09:17:46Z</time>
      </trkpt>
      <trkpt lat="45.93914" lon="4.7414">
        <ele>169</ele>
        <time>2017-10-23T09:17:47Z</time>
      </trkpt>
      <trkpt lat="45.93914" lon="4.7415">
        <ele>169</ele>
        <time>2017-10-23T09:17:49Z</time>
      </trkpt>
      <trkpt lat="45.93913" lon="4.74155">
        <ele>169</ele>
        <time>2017-10-23T09:17:50Z</time>
      </trkpt>
      <trkpt lat="45.93912" lon="4.74167">
        <ele>168</ele>
        <time>2017-10-23T09:17:52Z</time>
      </trkpt>
      <trkpt lat="45.93911" lon="4.74173">
        <ele>168</ele>
        <time>2017-10-23T09:17:53Z</time>
      </trkpt>
      <trkpt lat="45.9391" lon="4.74185">
        <ele>169</ele>
        <time>2017-10-23T09:17:55Z</time>
      </trkpt>
      <trkpt lat="45.9391" lon="4.74191">
        <ele>169</ele>
        <time>2017-10-23T09:17:56Z</time>
      </trkpt>
      <trkpt lat="45.93909" lon="4.74204">
        <ele>169</ele>
        <time>2017-10-23T09:17:58Z</time>
      </trkpt>
      <trkpt lat="45.93909" lon="4.74211">
        <ele>169</ele>
        <time>2017-10-23T09:17:59Z</time>
      </trkpt>
      <trkpt lat="45.93908" lon="4.74219">
        <ele>169</ele>
        <time>2017-10-23T09:18:00Z</time>
      </trkpt>
      <trkpt lat="45.93908" lon="4.74226">
        <ele>170</ele>
        <time>2017-10-23T09:18:01Z</time>
      </trkpt>
      <trkpt lat="45.93907" lon="4.74238">
        <ele>170</ele>
        <time>2017-10-23T09:18:03Z</time>
      </trkpt>
      <trkpt lat="45.93907" lon="4.74244">
        <ele>170</ele>
        <time>2017-10-23T09:18:04Z</time>
      </trkpt>
      <trkpt lat="45.93906" lon="4.74255">
        <ele>170</ele>
        <time>2017-10-23T09:18:06Z</time>
      </trkpt>
      <trkpt lat="45.93905" lon="4.7426">
        <ele>170</ele>
        <time>2017-10-23T09:18:07Z</time>
      </trkpt>
      <trkpt lat="45.93905" lon="4.74269">
        <ele>170</ele>
        <time>2017-10-23T09:18:09Z</time>
      </trkpt>
      <trkpt lat="45.93905" lon="4.74274">
        <ele>170</ele>
        <time>2017-10-23T09:18:10Z</time>
      </trkpt>
      <trkpt lat="45.93904" lon="4.74284">
        <ele>170</ele>
        <time>2017-10-23T09:18:12Z</time>
      </trkpt>
      <trkpt lat="45.93904" lon="4.7429">
        <ele>170</ele>
        <time>2017-10-23T09:18:13Z</time>
      </trkpt>
      <trkpt lat="45.93904" lon="4.74302">
        <ele>170</ele>
        <time>2017-10-23T09:18:15Z</time>
      </trkpt>
      <trkpt lat="45.93904" lon="4.74309">
        <ele>170</ele>
        <time>2017-10-23T09:18:16Z</time>
      </trkpt>
      <trkpt lat="45.93904" lon="4.7432">
        <ele>170</ele>
        <time>2017-10-23T09:18:18Z</time>
      </trkpt>
      <trkpt lat="45.93904" lon="4.74326">
        <ele>170</ele>
        <time>2017-10-23T09:18:19Z</time>
      </trkpt>
      <trkpt lat="45.93904" lon="4.74335">
        <ele>170</ele>
        <time>2017-10-23T09:18:21Z</time>
      </trkpt>
      <trkpt lat="45.93903" lon="4.7434">
        <ele>170</ele>
        <time>2017-10-23T09:18:22Z</time>
      </trkpt>
      <trkpt lat="45.93903" lon="4.74351">
        <ele>171</ele>
        <time>2017-10-23T09:18:24Z</time>
      </trkpt>
      <trkpt lat="45.93904" lon="4.74356">
        <ele>171</ele>
        <time>2017-10-23T09:18:25Z</time>
      </trkpt>
      <trkpt lat="45.93904" lon="4.74367">
        <ele>171</ele>
        <time>2017-10-23T09:18:27Z</time>
      </trkpt>
      <trkpt lat="45.93904" lon="4.74372">
        <ele>171</ele>
        <time>2017-10-23T09:18:28Z</time>
      </trkpt>
      <trkpt lat="45.93905" lon="4.74382">
        <ele>171</ele>
        <time>2017-10-23T09:18:30Z</time>
      </trkpt>
      <trkpt lat="45.93906" lon="4.74387">
        <ele>171</ele>
        <time>2017-10-23T09:18:31Z</time>
      </trkpt>
      <trkpt lat="45.93906" lon="4.74398">
        <ele>171</ele>
        <time>2017-10-23T09:18:33Z</time>
      </trkpt>
      <trkpt lat="45.93907" lon="4.74403">
        <ele>171</ele>
        <time>2017-10-23T09:18:34Z</time>
      </trkpt>
      <trkpt lat="45.93908" lon="4.74413">
        <ele>171</ele>
        <time>2017-10-23T09:18:36Z</time>
      </trkpt>
      <trkpt lat="45.93908" lon="4.74417">
        <ele>171</ele>
        <time>2017-10-23T09:18:37Z</time>
      </trkpt>
      <trkpt lat="45.93909" lon="4.74426">
        <ele>171</ele>
        <time>2017-10-23T09:18:39Z</time>
      </trkpt>
      <trkpt lat="45.93909" lon="4.74431">
        <ele>171</ele>
        <time>2017-10-23T09:18:40Z</time>
      </trkpt>
      <trkpt lat="45.9391" lon="4.74441">
        <ele>171</ele>
        <time>2017-10-23T09:18:42Z</time>
      </trkpt>
      <trkpt lat="45.93911" lon="4.74447">
        <ele>171</ele>
        <time>2017-10-23T09:18:43Z</time>
      </trkpt>
      <trkpt lat="45.93911" lon="4.74458">
        <ele>171</ele>
        <time>2017-10-23T09:18:45Z</time>
      </trkpt>
      <trkpt lat="45.93912" lon="4.74463">
        <ele>171</ele>
        <time>2017-10-23T09:18:46Z</time>
      </trkpt>
      <trkpt lat="45.93912" lon="4.74475">
        <ele>171</ele>
        <time>2017-10-23T09:18:48Z</time>
      </trkpt>
      <trkpt lat="45.93911" lon="4.7448">
        <ele>171</ele>
        <time>2017-10-23T09:18:49Z</time>
      </trkpt>
      <trkpt lat="45.9391" lon="4.7449">
        <ele>170</ele>
        <time>2017-10-23T09:18:51Z</time>
      </trkpt>
      <trkpt lat="45.9391" lon="4.74494">
        <ele>170</ele>
        <time>2017-10-23T09:18:52Z</time>
      </trkpt>
      <trkpt lat="45.93909" lon="4.74503">
        <ele>170</ele>
        <time>2017-10-23T09:18:54Z</time>
      </trkpt>
      <trkpt lat="45.93909" lon="4.74508">
        <ele>170</ele>
        <time>2017-10-23T09:18:55Z</time>
      </trkpt>
      <trkpt lat="45.93908" lon="4.74517">
        <ele>170</ele>
        <time>2017-10-23T09:18:57Z</time>
      </trkpt>
      <trkpt lat="45.93908" lon="4.74522">
        <ele>170</ele>
        <time>2017-10-23T09:18:58Z</time>
      </trkpt>
      <trkpt lat="45.93907" lon="4.74533">
        <ele>170</ele>
        <time>2017-10-23T09:19:00Z</time>
      </trkpt>
      <trkpt lat="45.93906" lon="4.74538">
        <ele>170</ele>
        <time>2017-10-23T09:19:01Z</time>
      </trkpt>
      <trkpt lat="45.93905" lon="4.74548">
        <ele>170</ele>
        <time>2017-10-23T09:19:03Z</time>
      </trkpt>
      <trkpt lat="45.93904" lon="4.74554">
        <ele>170</ele>
        <time>2017-10-23T09:19:04Z</time>
      </trkpt>
      <trkpt lat="45.93902" lon="4.74565">
        <ele>170</ele>
        <time>2017-10-23T09:19:06Z</time>
      </trkpt>
      <trkpt lat="45.93901" lon="4.74571">
        <ele>170</ele>
        <time>2017-10-23T09:19:07Z</time>
      </trkpt>
      <trkpt lat="45.93899" lon="4.74581">
        <ele>170</ele>
        <time>2017-10-23T09:19:09Z</time>
      </trkpt>
      <trkpt lat="45.93898" lon="4.74585">
        <ele>170</ele>
        <time>2017-10-23T09:19:10Z</time>
      </trkpt>
      <trkpt lat="45.93896" lon="4.74596">
        <ele>170</ele>
        <time>2017-10-23T09:19:13Z</time>
      </trkpt>
      <trkpt lat="45.93894" lon="4.746">
        <ele>170</ele>
        <time>2017-10-23T09:19:14Z</time>
      </trkpt>
      <trkpt lat="45.93891" lon="4.7461">
        <ele>170</ele>
        <time>2017-10-23T09:19:16Z</time>
      </trkpt>
      <trkpt lat="45.9389" lon="4.74616">
        <ele>170</ele>
        <time>2017-10-23T09:19:17Z</time>
      </trkpt>
      <trkpt lat="45.93886" lon="4.74627">
        <ele>170</ele>
        <time>2017-10-23T09:19:19Z</time>
      </trkpt>
      <trkpt lat="45.93884" lon="4.74633">
        <ele>170</ele>
        <time>2017-10-23T09:19:20Z</time>
      </trkpt>
      <trkpt lat="45.93882" lon="4.7464">
        <ele>170</ele>
        <time>2017-10-23T09:19:21Z</time>
      </trkpt>
      <trkpt lat="45.93881" lon="4.74647">
        <ele>170</ele>
        <time>2017-10-23T09:19:22Z</time>
      </trkpt>
      <trkpt lat="45.93877" lon="4.74659">
        <ele>170</ele>
        <time>2017-10-23T09:19:24Z</time>
      </trkpt>
      <trkpt lat="45.93876" lon="4.74664">
        <ele>170</ele>
        <time>2017-10-23T09:19:25Z</time>
      </trkpt>
      <trkpt lat="45.93873" lon="4.74673">
        <ele>170</ele>
        <time>2017-10-23T09:19:27Z</time>
      </trkpt>
      <trkpt lat="45.93871" lon="4.74677">
        <ele>170</ele>
        <time>2017-10-23T09:19:28Z</time>
      </trkpt>
      <trkpt lat="45.93868" lon="4.74688">
        <ele>170</ele>
        <time>2017-10-23T09:19:30Z</time>
      </trkpt>
      <trkpt lat="45.93866" lon="4.74692">
        <ele>170</ele>
        <time>2017-10-23T09:19:31Z</time>
      </trkpt>
      <trkpt lat="45.93862" lon="4.74703">
        <ele>169</ele>
        <time>2017-10-23T09:19:33Z</time>
      </trkpt>
      <trkpt lat="45.93859" lon="4.74709">
        <ele>169</ele>
        <time>2017-10-23T09:19:34Z</time>
      </trkpt>
      <trkpt lat="45.93857" lon="4.74715">
        <ele>169</ele>
        <time>2017-10-23T09:19:35Z</time>
      </trkpt>
      <trkpt lat="45.93854" lon="4.74721">
        <ele>169</ele>
        <time>2017-10-23T09:19:36Z</time>
      </trkpt>
      <trkpt lat="45.93852" lon="4.74727">
        <ele>169</ele>
        <time>2017-10-23T09:19:37Z</time>
      </trkpt>
      <trkpt lat="45.93849" lon="4.74732">
        <ele>169</ele>
        <time>2017-10-23T09:19:38Z</time>
      </trkpt>
      <trkpt lat="45.93844" lon="4.74742">
        <ele>169</ele>
        <time>2017-10-23T09:19:40Z</time>
      </trkpt>
      <trkpt lat="45.93842" lon="4.74746">
        <ele>168</ele>
        <time>2017-10-23T09:19:41Z</time>
      </trkpt>
      <trkpt lat="45.93839" lon="4.74755">
        <ele>168</ele>
        <time>2017-10-23T09:19:43Z</time>
      </trkpt>
      <trkpt lat="45.93836" lon="4.74757">
        <ele>168</ele>
        <time>2017-10-23T09:19:44Z</time>
      </trkpt>
      <trkpt lat="45.93832" lon="4.74764">
        <ele>168</ele>
        <time>2017-10-23T09:19:46Z</time>
      </trkpt>
      <trkpt lat="45.9383" lon="4.74768">
        <ele>168</ele>
        <time>2017-10-23T09:19:47Z</time>
      </trkpt>
      <trkpt lat="45.93826" lon="4.74778">
        <ele>167</ele>
        <time>2017-10-23T09:19:49Z</time>
      </trkpt>
      <trkpt lat="45.93823" lon="4.74782">
        <ele>167</ele>
        <time>2017-10-23T09:19:50Z</time>
      </trkpt>
      <trkpt lat="45.93818" lon="4.74792">
        <ele>167</ele>
        <time>2017-10-23T09:19:52Z</time>
      </trkpt>
      <trkpt lat="45.93815" lon="4.74797">
        <ele>167</ele>
        <time>2017-10-23T09:19:53Z</time>
      </trkpt>
      <trkpt lat="45.93811" lon="4.74806">
        <ele>167</ele>
        <time>2017-10-23T09:19:55Z</time>
      </trkpt>
      <trkpt lat="45.93809" lon="4.7481">
        <ele>167</ele>
        <time>2017-10-23T09:19:56Z</time>
      </trkpt>
      <trkpt lat="45.93804" lon="4.74819">
        <ele>167</ele>
        <time>2017-10-23T09:19:58Z</time>
      </trkpt>
      <trkpt lat="45.93801" lon="4.74824">
        <ele>167</ele>
        <time>2017-10-23T09:19:59Z</time>
      </trkpt>
      <trkpt lat="45.93796" lon="4.74833">
        <ele>167</ele>
        <time>2017-10-23T09:20:01Z</time>
      </trkpt>
      <trkpt lat="45.93794" lon="4.74838">
        <ele>168</ele>
        <time>2017-10-23T09:20:02Z</time>
      </trkpt>
      <trkpt lat="45.93791" lon="4.74843">
        <ele>168</ele>
        <time>2017-10-23T09:20:03Z</time>
      </trkpt>
      <trkpt lat="45.93787" lon="4.74848">
        <ele>168</ele>
        <time>2017-10-23T09:20:04Z</time>
      </trkpt>
      <trkpt lat="45.93782" lon="4.74856">
        <ele>168</ele>
        <time>2017-10-23T09:20:06Z</time>
      </trkpt>
      <trkpt lat="45.9378" lon="4.7486">
        <ele>168</ele>
        <time>2017-10-23T09:20:07Z</time>
      </trkpt>
      <trkpt lat="45.93776" lon="4.74868">
        <ele>168</ele>
        <time>2017-10-23T09:20:09Z</time>
      </trkpt>
      <trkpt lat="45.93775" lon="4.74873">
        <ele>168</ele>
        <time>2017-10-23T09:20:10Z</time>
      </trkpt>
      <trkpt lat="45.93771" lon="4.74881">
        <ele>169</ele>
        <time>2017-10-23T09:20:12Z</time>
      </trkpt>
      <trkpt lat="45.93769" lon="4.74886">
        <ele>169</ele>
        <time>2017-10-23T09:20:13Z</time>
      </trkpt>
      <trkpt lat="45.93764" lon="4.74895">
        <ele>169</ele>
        <time>2017-10-23T09:20:15Z</time>
      </trkpt>
      <trkpt lat="45.93761" lon="4.749">
        <ele>170</ele>
        <time>2017-10-23T09:20:16Z</time>
      </trkpt>
      <trkpt lat="45.93758" lon="4.74906">
        <ele>170</ele>
        <time>2017-10-23T09:20:17Z</time>
      </trkpt>
      <trkpt lat="45.93757" lon="4.74913">
        <ele>170</ele>
        <time>2017-10-23T09:20:18Z</time>
      </trkpt>
      <trkpt lat="45.93752" lon="4.74922">
        <ele>171</ele>
        <time>2017-10-23T09:20:20Z</time>
      </trkpt>
      <trkpt lat="45.9375" lon="4.74926">
        <ele>170</ele>
        <time>2017-10-23T09:20:21Z</time>
      </trkpt>
      <trkpt lat="45.93746" lon="4.74934">
        <ele>170</ele>
        <time>2017-10-23T09:20:23Z</time>
      </trkpt>
      <trkpt lat="45.93744" lon="4.74938">
        <ele>169</ele>
        <time>2017-10-23T09:20:24Z</time>
      </trkpt>
      <trkpt lat="45.9374" lon="4.74948">
        <ele>169</ele>
        <time>2017-10-23T09:20:26Z</time>
      </trkpt>
      <trkpt lat="45.93738" lon="4.74952">
        <ele>169</ele>
        <time>2017-10-23T09:20:27Z</time>
      </trkpt>
      <trkpt lat="45.93733" lon="4.74961">
        <ele>169</ele>
        <time>2017-10-23T09:20:29Z</time>
      </trkpt>
      <trkpt lat="45.9373" lon="4.74965">
        <ele>168</ele>
        <time>2017-10-23T09:20:30Z</time>
      </trkpt>
      <trkpt lat="45.93725" lon="4.74975">
        <ele>168</ele>
        <time>2017-10-23T09:20:32Z</time>
      </trkpt>
      <trkpt lat="45.93722" lon="4.74981">
        <ele>168</ele>
        <time>2017-10-23T09:20:33Z</time>
      </trkpt>
      <trkpt lat="45.93718" lon="4.74991">
        <ele>168</ele>
        <time>2017-10-23T09:20:35Z</time>
      </trkpt>
      <trkpt lat="45.93716" lon="4.74995">
        <ele>168</ele>
        <time>2017-10-23T09:20:36Z</time>
      </trkpt>
      <trkpt lat="45.93711" lon="4.75004">
        <ele>167</ele>
        <time>2017-10-23T09:20:38Z</time>
      </trkpt>
      <trkpt lat="45.93709" lon="4.75009">
        <ele>167</ele>
        <time>2017-10-23T09:20:39Z</time>
      </trkpt>
      <trkpt lat="45.93705" lon="4.75021">
        <ele>167</ele>
        <time>2017-10-23T09:20:41Z</time>
      </trkpt>
      <trkpt lat="45.93703" lon="4.75026">
        <ele>167</ele>
        <time>2017-10-23T09:20:42Z</time>
      </trkpt>
      <trkpt lat="45.93701" lon="4.75032">
        <ele>167</ele>
        <time>2017-10-23T09:20:43Z</time>
      </trkpt>
      <trkpt lat="45.93699" lon="4.75038">
        <ele>167</ele>
        <time>2017-10-23T09:20:44Z</time>
      </trkpt>
      <trkpt lat="45.93695" lon="4.75048">
        <ele>167</ele>
        <time>2017-10-23T09:20:46Z</time>
      </trkpt>
      <trkpt lat="45.93693" lon="4.75053">
        <ele>167</ele>
        <time>2017-10-23T09:20:47Z</time>
      </trkpt>
      <trkpt lat="45.93689" lon="4.75062">
        <ele>167</ele>
        <time>2017-10-23T09:20:49Z</time>
      </trkpt>
      <trkpt lat="45.93686" lon="4.75065">
        <ele>167</ele>
        <time>2017-10-23T09:20:50Z</time>
      </trkpt>
      <trkpt lat="45.93683" lon="4.75072">
        <ele>167</ele>
        <time>2017-10-23T09:20:52Z</time>
      </trkpt>
      <trkpt lat="45.93681" lon="4.75077">
        <ele>167</ele>
        <time>2017-10-23T09:20:53Z</time>
      </trkpt>
      <trkpt lat="45.93678" lon="4.75086">
        <ele>167</ele>
        <time>2017-10-23T09:20:55Z</time>
      </trkpt>
      <trkpt lat="45.93676" lon="4.75091">
        <ele>167</ele>
        <time>2017-10-23T09:20:56Z</time>
      </trkpt>
      <trkpt lat="45.93672" lon="4.75101">
        <ele>168</ele>
        <time>2017-10-23T09:20:58Z</time>
      </trkpt>
      <trkpt lat="45.9367" lon="4.75106">
        <ele>168</ele>
        <time>2017-10-23T09:20:59Z</time>
      </trkpt>
      <trkpt lat="45.93665" lon="4.75116">
        <ele>168</ele>
        <time>2017-10-23T09:21:01Z</time>
      </trkpt>
      <trkpt lat="45.93663" lon="4.7512">
        <ele>168</ele>
        <time>2017-10-23T09:21:02Z</time>
      </trkpt>
      <trkpt lat="45.93659" lon="4.75128">
        <ele>168</ele>
        <time>2017-10-23T09:21:04Z</time>
      </trkpt>
      <trkpt lat="45.93657" lon="4.75132">
        <ele>168</ele>
        <time>2017-10-23T09:21:05Z</time>
      </trkpt>
      <trkpt lat="45.93654" lon="4.75138">
        <ele>168</ele>
        <time>2017-10-23T09:21:07Z</time>
      </trkpt>
      <trkpt lat="45.93652" lon="4.75142">
        <ele>168</ele>
        <time>2017-10-23T09:21:08Z</time>
      </trkpt>
      <trkpt lat="45.93648" lon="4.75153">
        <ele>168</ele>
        <time>2017-10-23T09:21:10Z</time>
      </trkpt>
      <trkpt lat="45.93646" lon="4.75159">
        <ele>168</ele>
        <time>2017-10-23T09:21:11Z</time>
      </trkpt>
      <trkpt lat="45.93642" lon="4.7517">
        <ele>168</ele>
        <time>2017-10-23T09:21:13Z</time>
      </trkpt>
      <trkpt lat="45.93639" lon="4.75175">
        <ele>168</ele>
        <time>2017-10-23T09:21:14Z</time>
      </trkpt>
      <trkpt lat="45.93635" lon="4.75183">
        <ele>168</ele>
        <time>2017-10-23T09:21:16Z</time>
      </trkpt>
      <trkpt lat="45.93634" lon="4.75187">
        <ele>168</ele>
        <time>2017-10-23T09:21:17Z</time>
      </trkpt>
      <trkpt lat="45.93631" lon="4.75195">
        <ele>168</ele>
        <time>2017-10-23T09:21:19Z</time>
      </trkpt>
      <trkpt lat="45.9363" lon="4.75199">
        <ele>168</ele>
        <time>2017-10-23T09:21:20Z</time>
      </trkpt>
      <trkpt lat="45.93627" lon="4.75209">
        <ele>168</ele>
        <time>2017-10-23T09:21:22Z</time>
      </trkpt>
      <trkpt lat="45.93625" lon="4.75214">
        <ele>167</ele>
        <time>2017-10-23T09:21:23Z</time>
      </trkpt>
      <trkpt lat="45.93622" lon="4.75225">
        <ele>167</ele>
        <time>2017-10-23T09:21:25Z</time>
      </trkpt>
      <trkpt lat="45.93621" lon="4.7523">
        <ele>167</ele>
        <time>2017-10-23T09:21:26Z</time>
      </trkpt>
      <trkpt lat="45.93619" lon="4.7524">
        <ele>167</ele>
        <time>2017-10-23T09:21:28Z</time>
      </trkpt>
      <trkpt lat="45.93618" lon="4.75243">
        <ele>167</ele>
        <time>2017-10-23T09:21:29Z</time>
      </trkpt>
      <trkpt lat="45.93614" lon="4.75252">
        <ele>168</ele>
        <time>2017-10-23T09:21:32Z</time>
      </trkpt>
      <trkpt lat="45.93613" lon="4.75255">
        <ele>168</ele>
        <time>2017-10-23T09:21:33Z</time>
      </trkpt>
      <trkpt lat="45.9361" lon="4.75266">
        <ele>168</ele>
        <time>2017-10-23T09:21:36Z</time>
      </trkpt>
      <trkpt lat="45.93609" lon="4.7527">
        <ele>168</ele>
        <time>2017-10-23T09:21:37Z</time>
      </trkpt>
      <trkpt lat="45.93608" lon="4.75281">
        <ele>168</ele>
        <time>2017-10-23T09:21:39Z</time>
      </trkpt>
      <trkpt lat="45.93608" lon="4.75286">
        <ele>168</ele>
        <time>2017-10-23T09:21:40Z</time>
      </trkpt>
      <trkpt lat="45.93606" lon="4.75299">
        <ele>168</ele>
        <time>2017-10-23T09:21:42Z</time>
      </trkpt>
      <trkpt lat="45.93605" lon="4.75305">
        <ele>169</ele>
        <time>2017-10-23T09:21:43Z</time>
      </trkpt>
      <trkpt lat="45.93603" lon="4.75311">
        <ele>169</ele>
        <time>2017-10-23T09:21:44Z</time>
      </trkpt>
      <trkpt lat="45.93602" lon="4.7532">
        <ele>169</ele>
        <time>2017-10-23T09:21:45Z</time>
      </trkpt>
      <trkpt lat="45.936" lon="4.75327">
        <ele>169</ele>
        <time>2017-10-23T09:21:46Z</time>
      </trkpt>
      <trkpt lat="45.93597" lon="4.75333">
        <ele>169</ele>
        <time>2017-10-23T09:21:47Z</time>
      </trkpt>
      <trkpt lat="45.93597" lon="4.7534">
        <ele>170</ele>
        <time>2017-10-23T09:21:48Z</time>
      </trkpt>
      <trkpt lat="45.93594" lon="4.75347">
        <ele>169</ele>
        <time>2017-10-23T09:21:49Z</time>
      </trkpt>
      <trkpt lat="45.93592" lon="4.75353">
        <ele>169</ele>
        <time>2017-10-23T09:21:50Z</time>
      </trkpt>
      <trkpt lat="45.93591" lon="4.75359">
        <ele>169</ele>
        <time>2017-10-23T09:21:51Z</time>
      </trkpt>
      <trkpt lat="45.9359" lon="4.75366">
        <ele>169</ele>
        <time>2017-10-23T09:21:52Z</time>
      </trkpt>
      <trkpt lat="45.93589" lon="4.75372">
        <ele>169</ele>
        <time>2017-10-23T09:21:53Z</time>
      </trkpt>
      <trkpt lat="45.93588" lon="4.75379">
        <ele>169</ele>
        <time>2017-10-23T09:21:54Z</time>
      </trkpt>
      <trkpt lat="45.93587" lon="4.75387">
        <ele>169</ele>
        <time>2017-10-23T09:21:55Z</time>
      </trkpt>
      <trkpt lat="45.93586" lon="4.75394">
        <ele>169</ele>
        <time>2017-10-23T09:21:56Z</time>
      </trkpt>
      <trkpt lat="45.93585" lon="4.754">
        <ele>169</ele>
        <time>2017-10-23T09:21:57Z</time>
      </trkpt>
      <trkpt lat="45.93584" lon="4.75411">
        <ele>168</ele>
        <time>2017-10-23T09:21:59Z</time>
      </trkpt>
      <trkpt lat="45.93582" lon="4.75416">
        <ele>168</ele>
        <time>2017-10-23T09:22:00Z</time>
      </trkpt>
      <trkpt lat="45.93579" lon="4.75424">
        <ele>168</ele>
        <time>2017-10-23T09:22:02Z</time>
      </trkpt>
      <trkpt lat="45.93578" lon="4.75429">
        <ele>168</ele>
        <time>2017-10-23T09:22:03Z</time>
      </trkpt>
      <trkpt lat="45.93576" lon="4.75441">
        <ele>168</ele>
        <time>2017-10-23T09:22:05Z</time>
      </trkpt>
      <trkpt lat="45.93575" lon="4.75448">
        <ele>168</ele>
        <time>2017-10-23T09:22:06Z</time>
      </trkpt>
      <trkpt lat="45.93573" lon="4.75459">
        <ele>168</ele>
        <time>2017-10-23T09:22:08Z</time>
      </trkpt>
      <trkpt lat="45.93572" lon="4.75465">
        <ele>168</ele>
        <time>2017-10-23T09:22:09Z</time>
      </trkpt>
      <trkpt lat="45.9357" lon="4.75475">
        <ele>168</ele>
        <time>2017-10-23T09:22:11Z</time>
      </trkpt>
      <trkpt lat="45.93569" lon="4.75481">
        <ele>168</ele>
        <time>2017-10-23T09:22:12Z</time>
      </trkpt>
      <trkpt lat="45.93568" lon="4.75493">
        <ele>169</ele>
        <time>2017-10-23T09:22:14Z</time>
      </trkpt>
      <trkpt lat="45.93567" lon="4.75501">
        <ele>169</ele>
        <time>2017-10-23T09:22:15Z</time>
      </trkpt>
      <trkpt lat="45.93567" lon="4.75508">
        <ele>169</ele>
        <time>2017-10-23T09:22:16Z</time>
      </trkpt>
      <trkpt lat="45.93566" lon="4.75514">
        <ele>169</ele>
        <time>2017-10-23T09:22:17Z</time>
      </trkpt>
      <trkpt lat="45.93566" lon="4.75521">
        <ele>169</ele>
        <time>2017-10-23T09:22:18Z</time>
      </trkpt>
      <trkpt lat="45.93565" lon="4.75527">
        <ele>169</ele>
        <time>2017-10-23T09:22:19Z</time>
      </trkpt>
      <trkpt lat="45.93563" lon="4.75539">
        <ele>169</ele>
        <time>2017-10-23T09:22:21Z</time>
      </trkpt>
      <trkpt lat="45.93563" lon="4.75543">
        <ele>169</ele>
        <time>2017-10-23T09:22:22Z</time>
      </trkpt>
      <trkpt lat="45.9356" lon="4.75552">
        <ele>169</ele>
        <time>2017-10-23T09:22:24Z</time>
      </trkpt>
      <trkpt lat="45.9356" lon="4.75557">
        <ele>169</ele>
        <time>2017-10-23T09:22:25Z</time>
      </trkpt>
      <trkpt lat="45.93558" lon="4.75566">
        <ele>169</ele>
        <time>2017-10-23T09:22:27Z</time>
      </trkpt>
      <trkpt lat="45.93557" lon="4.75571">
        <ele>169</ele>
        <time>2017-10-23T09:22:28Z</time>
      </trkpt>
      <trkpt lat="45.93554" lon="4.75582">
        <ele>169</ele>
        <time>2017-10-23T09:22:30Z</time>
      </trkpt>
      <trkpt lat="45.93553" lon="4.75587">
        <ele>170</ele>
        <time>2017-10-23T09:22:31Z</time>
      </trkpt>
      <trkpt lat="45.93552" lon="4.75599">
        <ele>170</ele>
        <time>2017-10-23T09:22:33Z</time>
      </trkpt>
      <trkpt lat="45.93551" lon="4.75607">
        <ele>170</ele>
        <time>2017-10-23T09:22:34Z</time>
      </trkpt>
      <trkpt lat="45.9355" lon="4.75614">
        <ele>170</ele>
        <time>2017-10-23T09:22:35Z</time>
      </trkpt>
      <trkpt lat="45.93549" lon="4.7562">
        <ele>170</ele>
        <time>2017-10-23T09:22:36Z</time>
      </trkpt>
      <trkpt lat="45.93548" lon="4.75627">
        <ele>170</ele>
        <time>2017-10-23T09:22:37Z</time>
      </trkpt>
      <trkpt lat="45.93547" lon="4.75633">
        <ele>170</ele>
        <time>2017-10-23T09:22:38Z</time>
      </trkpt>
      <trkpt lat="45.93545" lon="4.75643">
        <ele>170</ele>
        <time>2017-10-23T09:22:40Z</time>
      </trkpt>
      <trkpt lat="45.93544" lon="4.75648">
        <ele>170</ele>
        <time>2017-10-23T09:22:41Z</time>
      </trkpt>
      <trkpt lat="45.93543" lon="4.75657">
        <ele>170</ele>
        <time>2017-10-23T09:22:43Z</time>
      </trkpt>
      <trkpt lat="45.93543" lon="4.75662">
        <ele>170</ele>
        <time>2017-10-23T09:22:44Z</time>
      </trkpt>
      <trkpt lat="45.93541" lon="4.75673">
        <ele>170</ele>
        <time>2017-10-23T09:22:46Z</time>
      </trkpt>
      <trkpt lat="45.9354" lon="4.75679">
        <ele>170</ele>
        <time>2017-10-23T09:22:47Z</time>
      </trkpt>
      <trkpt lat="45.93538" lon="4.75691">
        <ele>170</ele>
        <time>2017-10-23T09:22:49Z</time>
      </trkpt>
      <trkpt lat="45.93537" lon="4.75697">
        <ele>170</ele>
        <time>2017-10-23T09:22:50Z</time>
      </trkpt>
      <trkpt lat="45.93535" lon="4.75708">
        <ele>170</ele>
        <time>2017-10-23T09:22:52Z</time>
      </trkpt>
      <trkpt lat="45.93535" lon="4.75713">
        <ele>170</ele>
        <time>2017-10-23T09:22:53Z</time>
      </trkpt>
      <trkpt lat="45.93533" lon="4.75722">
        <ele>170</ele>
        <time>2017-10-23T09:22:55Z</time>
      </trkpt>
      <trkpt lat="45.93533" lon="4.75727">
        <ele>169</ele>
        <time>2017-10-23T09:22:56Z</time>
      </trkpt>
      <trkpt lat="45.93531" lon="4.75737">
        <ele>169</ele>
        <time>2017-10-23T09:22:58Z</time>
      </trkpt>
      <trkpt lat="45.9353" lon="4.75742">
        <ele>169</ele>
        <time>2017-10-23T09:22:59Z</time>
      </trkpt>
      <trkpt lat="45.93528" lon="4.75753">
        <ele>169</ele>
        <time>2017-10-23T09:23:01Z</time>
      </trkpt>
      <trkpt lat="45.93527" lon="4.75758">
        <ele>169</ele>
        <time>2017-10-23T09:23:02Z</time>
      </trkpt>
      <trkpt lat="45.93526" lon="4.7577">
        <ele>169</ele>
        <time>2017-10-23T09:23:04Z</time>
      </trkpt>
      <trkpt lat="45.93526" lon="4.75779">
        <ele>169</ele>
        <time>2017-10-23T09:23:05Z</time>
      </trkpt>
      <trkpt lat="45.93525" lon="4.75786">
        <ele>169</ele>
        <time>2017-10-23T09:23:06Z</time>
      </trkpt>
      <trkpt lat="45.93525" lon="4.75794">
        <ele>169</ele>
        <time>2017-10-23T09:23:07Z</time>
      </trkpt>
      <trkpt lat="45.93525" lon="4.75806">
        <ele>169</ele>
        <time>2017-10-23T09:23:09Z</time>
      </trkpt>
      <trkpt lat="45.93524" lon="4.75811">
        <ele>169</ele>
        <time>2017-10-23T09:23:10Z</time>
      </trkpt>
      <trkpt lat="45.93525" lon="4.75821">
        <ele>169</ele>
        <time>2017-10-23T09:23:12Z</time>
      </trkpt>
      <trkpt lat="45.93525" lon="4.75826">
        <ele>169</ele>
        <time>2017-10-23T09:23:13Z</time>
      </trkpt>
      <trkpt lat="45.93525" lon="4.75836">
        <ele>168</ele>
        <time>2017-10-23T09:23:15Z</time>
      </trkpt>
      <trkpt lat="45.93525" lon="4.75842">
        <ele>168</ele>
        <time>2017-10-23T09:23:16Z</time>
      </trkpt>
      <trkpt lat="45.93528" lon="4.75853">
        <ele>168</ele>
        <time>2017-10-23T09:23:18Z</time>
      </trkpt>
      <trkpt lat="45.93529" lon="4.75858">
        <ele>168</ele>
        <time>2017-10-23T09:23:19Z</time>
      </trkpt>
      <trkpt lat="45.93532" lon="4.75869">
        <ele>168</ele>
        <time>2017-10-23T09:23:21Z</time>
      </trkpt>
      <trkpt lat="45.93533" lon="4.75875">
        <ele>168</ele>
        <time>2017-10-23T09:23:22Z</time>
      </trkpt>
      <trkpt lat="45.93537" lon="4.75886">
        <ele>168</ele>
        <time>2017-10-23T09:23:24Z</time>
      </trkpt>
      <trkpt lat="45.93538" lon="4.75891">
        <ele>169</ele>
        <time>2017-10-23T09:23:25Z</time>
      </trkpt>
      <trkpt lat="45.93541" lon="4.759">
        <ele>169</ele>
        <time>2017-10-23T09:23:27Z</time>
      </trkpt>
      <trkpt lat="45.93543" lon="4.75904">
        <ele>169</ele>
        <time>2017-10-23T09:23:28Z</time>
      </trkpt>
      <trkpt lat="45.93544" lon="4.75914">
        <ele>169</ele>
        <time>2017-10-23T09:23:30Z</time>
      </trkpt>
      <trkpt lat="45.93545" lon="4.75917">
        <ele>168</ele>
        <time>2017-10-23T09:23:31Z</time>
      </trkpt>
      <trkpt lat="45.93548" lon="4.75927">
        <ele>169</ele>
        <time>2017-10-23T09:23:33Z</time>
      </trkpt>
      <trkpt lat="45.93549" lon="4.75932">
        <ele>169</ele>
        <time>2017-10-23T09:23:34Z</time>
      </trkpt>
      <trkpt lat="45.93553" lon="4.75943">
        <ele>169</ele>
        <time>2017-10-23T09:23:36Z</time>
      </trkpt>
      <trkpt lat="45.93555" lon="4.75949">
        <ele>169</ele>
        <time>2017-10-23T09:23:37Z</time>
      </trkpt>
      <trkpt lat="45.93557" lon="4.7596">
        <ele>169</ele>
        <time>2017-10-23T09:23:39Z</time>
      </trkpt>
      <trkpt lat="45.93559" lon="4.75965">
        <ele>169</ele>
        <time>2017-10-23T09:23:40Z</time>
      </trkpt>
      <trkpt lat="45.93562" lon="4.75972">
        <ele>169</ele>
        <time>2017-10-23T09:23:42Z</time>
      </trkpt>
      <trkpt lat="45.93564" lon="4.75976">
        <ele>169</ele>
        <time>2017-10-23T09:23:43Z</time>
      </trkpt>
      <trkpt lat="45.93568" lon="4.75985">
        <ele>170</ele>
        <time>2017-10-23T09:23:45Z</time>
      </trkpt>
      <trkpt lat="45.9357" lon="4.7599">
        <ele>170</ele>
        <time>2017-10-23T09:23:46Z</time>
      </trkpt>
      <trkpt lat="45.93575" lon="4.76001">
        <ele>171</ele>
        <time>2017-10-23T09:23:48Z</time>
      </trkpt>
      <trkpt lat="45.93577" lon="4.76007">
        <ele>171</ele>
        <time>2017-10-23T09:23:49Z</time>
      </trkpt>
      <trkpt lat="45.9358" lon="4.76012">
        <ele>171</ele>
        <time>2017-10-23T09:23:50Z</time>
      </trkpt>
      <trkpt lat="45.93581" lon="4.76018">
        <ele>170</ele>
        <time>2017-10-23T09:23:51Z</time>
      </trkpt>
      <trkpt lat="45.93585" lon="4.76028">
        <ele>170</ele>
        <time>2017-10-23T09:23:53Z</time>
      </trkpt>
      <trkpt lat="45.93586" lon="4.76034">
        <ele>170</ele>
        <time>2017-10-23T09:23:54Z</time>
      </trkpt>
      <trkpt lat="45.93589" lon="4.76042">
        <ele>170</ele>
        <time>2017-10-23T09:23:56Z</time>
      </trkpt>
      <trkpt lat="45.9359" lon="4.76046">
        <ele>170</ele>
        <time>2017-10-23T09:23:57Z</time>
      </trkpt>
      <trkpt lat="45.93594" lon="4.76055">
        <ele>170</ele>
        <time>2017-10-23T09:23:59Z</time>
      </trkpt>
      <trkpt lat="45.93595" lon="4.7606">
        <ele>170</ele>
        <time>2017-10-23T09:24:00Z</time>
      </trkpt>
      <trkpt lat="45.93599" lon="4.76069">
        <ele>170</ele>
        <time>2017-10-23T09:24:02Z</time>
      </trkpt>
      <trkpt lat="45.93601" lon="4.76074">
        <ele>170</ele>
        <time>2017-10-23T09:24:03Z</time>
      </trkpt>
      <trkpt lat="45.93603" lon="4.76083">
        <ele>170</ele>
        <time>2017-10-23T09:24:05Z</time>
      </trkpt>
      <trkpt lat="45.93605" lon="4.76087">
        <ele>170</ele>
        <time>2017-10-23T09:24:06Z</time>
      </trkpt>
      <trkpt lat="45.93608" lon="4.76096">
        <ele>170</ele>
        <time>2017-10-23T09:24:08Z</time>
      </trkpt>
      <trkpt lat="45.9361" lon="4.761">
        <ele>170</ele>
        <time>2017-10-23T09:24:09Z</time>
      </trkpt>
      <trkpt lat="45.93613" lon="4.7611">
        <ele>169</ele>
        <time>2017-10-23T09:24:11Z</time>
      </trkpt>
      <trkpt lat="45.93615" lon="4.76115">
        <ele>169</ele>
        <time>2017-10-23T09:24:12Z</time>
      </trkpt>
      <trkpt lat="45.93616" lon="4.7612">
        <ele>169</ele>
        <time>2017-10-23T09:24:13Z</time>
      </trkpt>
      <trkpt lat="45.93618" lon="4.76127">
        <ele>169</ele>
        <time>2017-10-23T09:24:14Z</time>
      </trkpt>
      <trkpt lat="45.9362" lon="4.76133">
        <ele>169</ele>
        <time>2017-10-23T09:24:15Z</time>
      </trkpt>
      <trkpt lat="45.93622" lon="4.7614">
        <ele>169</ele>
        <time>2017-10-23T09:24:16Z</time>
      </trkpt>
      <trkpt lat="45.93625" lon="4.76149">
        <ele>169</ele>
        <time>2017-10-23T09:24:18Z</time>
      </trkpt>
      <trkpt lat="45.93626" lon="4.76154">
        <ele>169</ele>
        <time>2017-10-23T09:24:19Z</time>
      </trkpt>
      <trkpt lat="45.9363" lon="4.76163">
        <ele>170</ele>
        <time>2017-10-23T09:24:21Z</time>
      </trkpt>
      <trkpt lat="45.93632" lon="4.76168">
        <ele>169</ele>
        <time>2017-10-23T09:24:22Z</time>
      </trkpt>
      <trkpt lat="45.93635" lon="4.76178">
        <ele>169</ele>
        <time>2017-10-23T09:24:24Z</time>
      </trkpt>
      <trkpt lat="45.93637" lon="4.76183">
        <ele>169</ele>
        <time>2017-10-23T09:24:25Z</time>
      </trkpt>
      <trkpt lat="45.9364" lon="4.76193">
        <ele>169</ele>
        <time>2017-10-23T09:24:27Z</time>
      </trkpt>
      <trkpt lat="45.93642" lon="4.76199">
        <ele>169</ele>
        <time>2017-10-23T09:24:28Z</time>
      </trkpt>
      <trkpt lat="45.93646" lon="4.7621">
        <ele>169</ele>
        <time>2017-10-23T09:24:30Z</time>
      </trkpt>
      <trkpt lat="45.93647" lon="4.76214">
        <ele>169</ele>
        <time>2017-10-23T09:24:31Z</time>
      </trkpt>
      <trkpt lat="45.93651" lon="4.76222">
        <ele>169</ele>
        <time>2017-10-23T09:24:33Z</time>
      </trkpt>
      <trkpt lat="45.93652" lon="4.76226">
        <ele>169</ele>
        <time>2017-10-23T09:24:34Z</time>
      </trkpt>
      <trkpt lat="45.93657" lon="4.76237">
        <ele>169</ele>
        <time>2017-10-23T09:24:37Z</time>
      </trkpt>
      <trkpt lat="45.93658" lon="4.76241">
        <ele>169</ele>
        <time>2017-10-23T09:24:38Z</time>
      </trkpt>
      <trkpt lat="45.93661" lon="4.76248">
        <ele>170</ele>
        <time>2017-10-23T09:24:40Z</time>
      </trkpt>
      <trkpt lat="45.93663" lon="4.76253">
        <ele>170</ele>
        <time>2017-10-23T09:24:41Z</time>
      </trkpt>
      <trkpt lat="45.93666" lon="4.76264">
        <ele>169</ele>
        <time>2017-10-23T09:24:43Z</time>
      </trkpt>
      <trkpt lat="45.93667" lon="4.76269">
        <ele>170</ele>
        <time>2017-10-23T09:24:44Z</time>
      </trkpt>
      <trkpt lat="45.9367" lon="4.76277">
        <ele>170</ele>
        <time>2017-10-23T09:24:46Z</time>
      </trkpt>
      <trkpt lat="45.93671" lon="4.76281">
        <ele>170</ele>
        <time>2017-10-23T09:24:47Z</time>
      </trkpt>
      <trkpt lat="45.93675" lon="4.76292">
        <ele>170</ele>
        <time>2017-10-23T09:24:50Z</time>
      </trkpt>
      <trkpt lat="45.93676" lon="4.76295">
        <ele>170</ele>
        <time>2017-10-23T09:24:51Z</time>
      </trkpt>
      <trkpt lat="45.93678" lon="4.76307">
        <ele>170</ele>
        <time>2017-10-23T09:24:54Z</time>
      </trkpt>
      <trkpt lat="45.93679" lon="4.76312">
        <ele>170</ele>
        <time>2017-10-23T09:24:55Z</time>
      </trkpt>
      <trkpt lat="45.93681" lon="4.76324">
        <ele>170</ele>
        <time>2017-10-23T09:24:59Z</time>
      </trkpt>
      <trkpt lat="45.93683" lon="4.76328">
        <ele>170</ele>
        <time>2017-10-23T09:25:00Z</time>
      </trkpt>
      <trkpt lat="45.93689" lon="4.76337">
        <ele>169</ele>
        <time>2017-10-23T09:25:02Z</time>
      </trkpt>
      <trkpt lat="45.93691" lon="4.76341">
        <ele>169</ele>
        <time>2017-10-23T09:25:03Z</time>
      </trkpt>
      <trkpt lat="45.93694" lon="4.76348">
        <ele>169</ele>
        <time>2017-10-23T09:25:05Z</time>
      </trkpt>
      <trkpt lat="45.93695" lon="4.76353">
        <ele>169</ele>
        <time>2017-10-23T09:25:06Z</time>
      </trkpt>
      <trkpt lat="45.93697" lon="4.76362">
        <ele>169</ele>
        <time>2017-10-23T09:25:08Z</time>
      </trkpt>
      <trkpt lat="45.93699" lon="4.76367">
        <ele>169</ele>
        <time>2017-10-23T09:25:09Z</time>
      </trkpt>
      <trkpt lat="45.93702" lon="4.76378">
        <ele>169</ele>
        <time>2017-10-23T09:25:11Z</time>
      </trkpt>
      <trkpt lat="45.93703" lon="4.76383">
        <ele>169</ele>
        <time>2017-10-23T09:25:12Z</time>
      </trkpt>
      <trkpt lat="45.93705" lon="4.76389">
        <ele>169</ele>
        <time>2017-10-23T09:25:13Z</time>
      </trkpt>
      <trkpt lat="45.93707" lon="4.76395">
        <ele>169</ele>
        <time>2017-10-23T09:25:14Z</time>
      </trkpt>
      <trkpt lat="45.9371" lon="4.76405">
        <ele>169</ele>
        <time>2017-10-23T09:25:16Z</time>
      </trkpt>
      <trkpt lat="45.93712" lon="4.76409">
        <ele>169</ele>
        <time>2017-10-23T09:25:17Z</time>
      </trkpt>
      <trkpt lat="45.93715" lon="4.76419">
        <ele>169</ele>
        <time>2017-10-23T09:25:19Z</time>
      </trkpt>
      <trkpt lat="45.93717" lon="4.76424">
        <ele>169</ele>
        <time>2017-10-23T09:25:20Z</time>
      </trkpt>
      <trkpt lat="45.93721" lon="4.76435">
        <ele>169</ele>
        <time>2017-10-23T09:25:22Z</time>
      </trkpt>
      <trkpt lat="45.93723" lon="4.7644">
        <ele>169</ele>
        <time>2017-10-23T09:25:23Z</time>
      </trkpt>
      <trkpt lat="45.93725" lon="4.76447">
        <ele>169</ele>
        <time>2017-10-23T09:25:24Z</time>
      </trkpt>
      <trkpt lat="45.93727" lon="4.76453">
        <ele>169</ele>
        <time>2017-10-23T09:25:25Z</time>
      </trkpt>
      <trkpt lat="45.9373" lon="4.76459">
        <ele>169</ele>
        <time>2017-10-23T09:25:26Z</time>
      </trkpt>
      <trkpt lat="45.93732" lon="4.76465">
        <ele>169</ele>
        <time>2017-10-23T09:25:27Z</time>
      </trkpt>
      <trkpt lat="45.93736" lon="4.76476">
        <ele>169</ele>
        <time>2017-10-23T09:25:29Z</time>
      </trkpt>
      <trkpt lat="45.93738" lon="4.76481">
        <ele>169</ele>
        <time>2017-10-23T09:25:30Z</time>
      </trkpt>
      <trkpt lat="45.93741" lon="4.7649">
        <ele>169</ele>
        <time>2017-10-23T09:25:32Z</time>
      </trkpt>
      <trkpt lat="45.93743" lon="4.76494">
        <ele>169</ele>
        <time>2017-10-23T09:25:33Z</time>
      </trkpt>
      <trkpt lat="45.93746" lon="4.76505">
        <ele>169</ele>
        <time>2017-10-23T09:25:36Z</time>
      </trkpt>
      <trkpt lat="45.93747" lon="4.76509">
        <ele>169</ele>
        <time>2017-10-23T09:25:37Z</time>
      </trkpt>
      <trkpt lat="45.9375" lon="4.76518">
        <ele>169</ele>
        <time>2017-10-23T09:25:39Z</time>
      </trkpt>
      <trkpt lat="45.93751" lon="4.76523">
        <ele>170</ele>
        <time>2017-10-23T09:25:40Z</time>
      </trkpt>
      <trkpt lat="45.93755" lon="4.76533">
        <ele>170</ele>
        <time>2017-10-23T09:25:42Z</time>
      </trkpt>
      <trkpt lat="45.93758" lon="4.76539">
        <ele>170</ele>
        <time>2017-10-23T09:25:43Z</time>
      </trkpt>
      <trkpt lat="45.93762" lon="4.7655">
        <ele>170</ele>
        <time>2017-10-23T09:25:45Z</time>
      </trkpt>
      <trkpt lat="45.93764" lon="4.76555">
        <ele>170</ele>
        <time>2017-10-23T09:25:46Z</time>
      </trkpt>
      <trkpt lat="45.93768" lon="4.76567">
        <ele>170</ele>
        <time>2017-10-23T09:25:48Z</time>
      </trkpt>
      <trkpt lat="45.9377" lon="4.76572">
        <ele>170</ele>
        <time>2017-10-23T09:25:49Z</time>
      </trkpt>
      <trkpt lat="45.93773" lon="4.76583">
        <ele>170</ele>
        <time>2017-10-23T09:25:51Z</time>
      </trkpt>
      <trkpt lat="45.93775" lon="4.76588">
        <ele>169</ele>
        <time>2017-10-23T09:25:52Z</time>
      </trkpt>
      <trkpt lat="45.93778" lon="4.76598">
        <ele>169</ele>
        <time>2017-10-23T09:25:54Z</time>
      </trkpt>
      <trkpt lat="45.9378" lon="4.76603">
        <ele>169</ele>
        <time>2017-10-23T09:25:55Z</time>
      </trkpt>
      <trkpt lat="45.93782" lon="4.7661">
        <ele>169</ele>
        <time>2017-10-23T09:25:56Z</time>
      </trkpt>
      <trkpt lat="45.93784" lon="4.76616">
        <ele>169</ele>
        <time>2017-10-23T09:25:57Z</time>
      </trkpt>
      <trkpt lat="45.93787" lon="4.76622">
        <ele>169</ele>
        <time>2017-10-23T09:25:58Z</time>
      </trkpt>
      <trkpt lat="45.9379" lon="4.76627">
        <ele>169</ele>
        <time>2017-10-23T09:25:59Z</time>
      </trkpt>
      <trkpt lat="45.93794" lon="4.76637">
        <ele>169</ele>
        <time>2017-10-23T09:26:01Z</time>
      </trkpt>
      <trkpt lat="45.93796" lon="4.76642">
        <ele>169</ele>
        <time>2017-10-23T09:26:02Z</time>
      </trkpt>
      <trkpt lat="45.93801" lon="4.7665">
        <ele>169</ele>
        <time>2017-10-23T09:26:04Z</time>
      </trkpt>
      <trkpt lat="45.93804" lon="4.76654">
        <ele>169</ele>
        <time>2017-10-23T09:26:05Z</time>
      </trkpt>
      <trkpt lat="45.93808" lon="4.76662">
        <ele>170</ele>
        <time>2017-10-23T09:26:07Z</time>
      </trkpt>
      <trkpt lat="45.9381" lon="4.76666">
        <ele>170</ele>
        <time>2017-10-23T09:26:08Z</time>
      </trkpt>
      <trkpt lat="45.93815" lon="4.76677">
        <ele>170</ele>
        <time>2017-10-23T09:26:10Z</time>
      </trkpt>
      <trkpt lat="45.93818" lon="4.76683">
        <ele>170</ele>
        <time>2017-10-23T09:26:11Z</time>
      </trkpt>
      <trkpt lat="45.9382" lon="4.76688">
        <ele>170</ele>
        <time>2017-10-23T09:26:12Z</time>
      </trkpt>
      <trkpt lat="45.93824" lon="4.76694">
        <ele>170</ele>
        <time>2017-10-23T09:26:13Z</time>
      </trkpt>
      <trkpt lat="45.93827" lon="4.76699">
        <ele>170</ele>
        <time>2017-10-23T09:26:14Z</time>
      </trkpt>
      <trkpt lat="45.9383" lon="4.76705">
        <ele>170</ele>
        <time>2017-10-23T09:26:15Z</time>
      </trkpt>
      <trkpt lat="45.93832" lon="4.7671">
        <ele>170</ele>
        <time>2017-10-23T09:26:16Z</time>
      </trkpt>
      <trkpt lat="45.93835" lon="4.76715">
        <ele>172</ele>
        <time>2017-10-23T09:26:17Z</time>
      </trkpt>
      <trkpt lat="45.93839" lon="4.76725">
        <ele>172</ele>
        <time>2017-10-23T09:26:19Z</time>
      </trkpt>
      <trkpt lat="45.93841" lon="4.76729">
        <ele>172</ele>
        <time>2017-10-23T09:26:20Z</time>
      </trkpt>
      <trkpt lat="45.93846" lon="4.76737">
        <ele>173</ele>
        <time>2017-10-23T09:26:22Z</time>
      </trkpt>
      <trkpt lat="45.93849" lon="4.7674">
        <ele>173</ele>
        <time>2017-10-23T09:26:23Z</time>
      </trkpt>
      <trkpt lat="45.93856" lon="4.76748">
        <ele>173</ele>
        <time>2017-10-23T09:26:26Z</time>
      </trkpt>
      <trkpt lat="45.93858" lon="4.76752">
        <ele>172</ele>
        <time>2017-10-23T09:26:27Z</time>
      </trkpt>
      <trkpt lat="45.93863" lon="4.76761">
        <ele>172</ele>
        <time>2017-10-23T09:26:29Z</time>
      </trkpt>
      <trkpt lat="45.93866" lon="4.76765">
        <ele>171</ele>
        <time>2017-10-23T09:26:30Z</time>
      </trkpt>
      <trkpt lat="45.93872" lon="4.76774">
        <ele>171</ele>
        <time>2017-10-23T09:26:32Z</time>
      </trkpt>
      <trkpt lat="45.93875" lon="4.76779">
        <ele>171</ele>
        <time>2017-10-23T09:26:33Z</time>
      </trkpt>
      <trkpt lat="45.93877" lon="4.76784">
        <ele>171</ele>
        <time>2017-10-23T09:26:34Z</time>
      </trkpt>
      <trkpt lat="45.93881" lon="4.76788">
        <ele>171</ele>
        <time>2017-10-23T09:26:35Z</time>
      </trkpt>
      <trkpt lat="45.93887" lon="4.76797">
        <ele>171</ele>
        <time>2017-10-23T09:26:37Z</time>
      </trkpt>
      <trkpt lat="45.9389" lon="4.76802">
        <ele>171</ele>
        <time>2017-10-23T09:26:38Z</time>
      </trkpt>
      <trkpt lat="45.93895" lon="4.76811">
        <ele>171</ele>
        <time>2017-10-23T09:26:40Z</time>
      </trkpt>
      <trkpt lat="45.93897" lon="4.76815">
        <ele>171</ele>
        <time>2017-10-23T09:26:41Z</time>
      </trkpt>
      <trkpt lat="45.93902" lon="4.76822">
        <ele>172</ele>
        <time>2017-10-23T09:26:43Z</time>
      </trkpt>
      <trkpt lat="45.93905" lon="4.76826">
        <ele>172</ele>
        <time>2017-10-23T09:26:44Z</time>
      </trkpt>
      <trkpt lat="45.93909" lon="4.76833">
        <ele>172</ele>
        <time>2017-10-23T09:26:46Z</time>
      </trkpt>
      <trkpt lat="45.93911" lon="4.76836">
        <ele>172</ele>
        <time>2017-10-23T09:26:47Z</time>
      </trkpt>
      <trkpt lat="45.93915" lon="4.76844">
        <ele>172</ele>
        <time>2017-10-23T09:26:49Z</time>
      </trkpt>
      <trkpt lat="45.93917" lon="4.76847">
        <ele>173</ele>
        <time>2017-10-23T09:26:50Z</time>
      </trkpt>
      <trkpt lat="45.93923" lon="4.76857">
        <ele>172</ele>
        <time>2017-10-23T09:26:53Z</time>
      </trkpt>
      <trkpt lat="45.93924" lon="4.7686">
        <ele>172</ele>
        <time>2017-10-23T09:26:54Z</time>
      </trkpt>
      <trkpt lat="45.93928" lon="4.76867">
        <ele>172</ele>
        <time>2017-10-23T09:26:56Z</time>
      </trkpt>
      <trkpt lat="45.9393" lon="4.7687">
        <ele>172</ele>
        <time>2017-10-23T09:26:57Z</time>
      </trkpt>
      <trkpt lat="45.93935" lon="4.76879">
        <ele>172</ele>
        <time>2017-10-23T09:27:00Z</time>
      </trkpt>
      <trkpt lat="45.93936" lon="4.76881">
        <ele>172</ele>
        <time>2017-10-23T09:27:01Z</time>
      </trkpt>
      <trkpt lat="45.93941" lon="4.76891">
        <ele>172</ele>
        <time>2017-10-23T09:27:05Z</time>
      </trkpt>
      <trkpt lat="45.93942" lon="4.76892">
        <ele>172</ele>
        <time>2017-10-23T09:27:06Z</time>
      </trkpt>
      <trkpt lat="45.93942" lon="4.76903">
        <ele>172</ele>
        <time>2017-10-23T09:36:30Z</time>
      </trkpt>
      <trkpt lat="45.93943" lon="4.76905">
        <ele>172</ele>
        <time>2017-10-23T09:36:31Z</time>
      </trkpt>
      <trkpt lat="45.93948" lon="4.76914">
        <ele>172</ele>
        <time>2017-10-23T09:36:34Z</time>
      </trkpt>
      <trkpt lat="45.93949" lon="4.76918">
        <ele>171</ele>
        <time>2017-10-23T09:36:35Z</time>
      </trkpt>
      <trkpt lat="45.93951" lon="4.76928">
        <ele>171</ele>
        <time>2017-10-23T09:36:37Z</time>
      </trkpt>
      <trkpt lat="45.93952" lon="4.76933">
        <ele>171</ele>
        <time>2017-10-23T09:36:38Z</time>
      </trkpt>
      <trkpt lat="45.93954" lon="4.76943">
        <ele>171</ele>
        <time>2017-10-23T09:36:40Z</time>
      </trkpt>
      <trkpt lat="45.93955" lon="4.76948">
        <ele>170</ele>
        <time>2017-10-23T09:36:41Z</time>
      </trkpt>
      <trkpt lat="45.93956" lon="4.76957">
        <ele>170</ele>
        <time>2017-10-23T09:36:43Z</time>
      </trkpt>
      <trkpt lat="45.93957" lon="4.76961">
        <ele>170</ele>
        <time>2017-10-23T09:36:44Z</time>
      </trkpt>
      <trkpt lat="45.93958" lon="4.76974">
        <ele>170</ele>
        <time>2017-10-23T09:36:47Z</time>
      </trkpt>
      <trkpt lat="45.93958" lon="4.76978">
        <ele>170</ele>
        <time>2017-10-23T09:36:48Z</time>
      </trkpt>
      <trkpt lat="45.93959" lon="4.76987">
        <ele>170</ele>
        <time>2017-10-23T09:36:50Z</time>
      </trkpt>
      <trkpt lat="45.9396" lon="4.76992">
        <ele>170</ele>
        <time>2017-10-23T09:36:51Z</time>
      </trkpt>
      <trkpt lat="45.93964" lon="4.77002">
        <ele>169</ele>
        <time>2017-10-23T09:36:53Z</time>
      </trkpt>
      <trkpt lat="45.93966" lon="4.77008">
        <ele>169</ele>
        <time>2017-10-23T09:36:54Z</time>
      </trkpt>
      <trkpt lat="45.93969" lon="4.77019">
        <ele>169</ele>
        <time>2017-10-23T09:36:56Z</time>
      </trkpt>
      <trkpt lat="45.93971" lon="4.77026">
        <ele>169</ele>
        <time>2017-10-23T09:36:57Z</time>
      </trkpt>
      <trkpt lat="45.93973" lon="4.77032">
        <ele>169</ele>
        <time>2017-10-23T09:36:58Z</time>
      </trkpt>
      <trkpt lat="45.93974" lon="4.77039">
        <ele>169</ele>
        <time>2017-10-23T09:36:59Z</time>
      </trkpt>
      <trkpt lat="45.93978" lon="4.7705">
        <ele>169</ele>
        <time>2017-10-23T09:37:01Z</time>
      </trkpt>
      <trkpt lat="45.9398" lon="4.77056">
        <ele>170</ele>
        <time>2017-10-23T09:37:02Z</time>
      </trkpt>
      <trkpt lat="45.93982" lon="4.77066">
        <ele>170</ele>
        <time>2017-10-23T09:37:04Z</time>
      </trkpt>
      <trkpt lat="45.93984" lon="4.77072">
        <ele>170</ele>
        <time>2017-10-23T09:37:05Z</time>
      </trkpt>
      <trkpt lat="45.93987" lon="4.77081">
        <ele>171</ele>
        <time>2017-10-23T09:37:07Z</time>
      </trkpt>
      <trkpt lat="45.93988" lon="4.77086">
        <ele>171</ele>
        <time>2017-10-23T09:37:08Z</time>
      </trkpt>
      <trkpt lat="45.9399" lon="4.77095">
        <ele>171</ele>
        <time>2017-10-23T09:37:10Z</time>
      </trkpt>
      <trkpt lat="45.93991" lon="4.771">
        <ele>170</ele>
        <time>2017-10-23T09:37:11Z</time>
      </trkpt>
      <trkpt lat="45.93994" lon="4.7711">
        <ele>170</ele>
        <time>2017-10-23T09:37:13Z</time>
      </trkpt>
      <trkpt lat="45.93995" lon="4.77115">
        <ele>170</ele>
        <time>2017-10-23T09:37:14Z</time>
      </trkpt>
      <trkpt lat="45.93998" lon="4.77125">
        <ele>170</ele>
        <time>2017-10-23T09:37:16Z</time>
      </trkpt>
      <trkpt lat="45.93999" lon="4.77131">
        <ele>170</ele>
        <time>2017-10-23T09:37:17Z</time>
      </trkpt>
      <trkpt lat="45.94001" lon="4.77143">
        <ele>173</ele>
        <time>2017-10-23T09:37:19Z</time>
      </trkpt>
      <trkpt lat="45.94001" lon="4.77149">
        <ele>173</ele>
        <time>2017-10-23T09:37:20Z</time>
      </trkpt>
      <trkpt lat="45.94002" lon="4.77161">
        <ele>173</ele>
        <time>2017-10-23T09:37:22Z</time>
      </trkpt>
      <trkpt lat="45.94003" lon="4.77167">
        <ele>172</ele>
        <time>2017-10-23T09:37:23Z</time>
      </trkpt>
      <trkpt lat="45.94003" lon="4.77177">
        <ele>173</ele>
        <time>2017-10-23T09:37:25Z</time>
      </trkpt>
      <trkpt lat="45.94003" lon="4.77182">
        <ele>173</ele>
        <time>2017-10-23T09:37:26Z</time>
      </trkpt>
      <trkpt lat="45.94003" lon="4.77192">
        <ele>174</ele>
        <time>2017-10-23T09:37:28Z</time>
      </trkpt>
      <trkpt lat="45.94003" lon="4.77196">
        <ele>174</ele>
        <time>2017-10-23T09:37:29Z</time>
      </trkpt>
      <trkpt lat="45.94003" lon="4.77208">
        <ele>174</ele>
        <time>2017-10-23T09:37:32Z</time>
      </trkpt>
      <trkpt lat="45.94003" lon="4.77212">
        <ele>174</ele>
        <time>2017-10-23T09:37:33Z</time>
      </trkpt>
      <trkpt lat="45.94002" lon="4.77225">
        <ele>173</ele>
        <time>2017-10-23T09:37:36Z</time>
      </trkpt>
      <trkpt lat="45.94002" lon="4.77228">
        <ele>173</ele>
        <time>2017-10-23T09:37:37Z</time>
      </trkpt>
      <trkpt lat="45.94008" lon="4.77234">
        <ele>173</ele>
        <time>2017-10-23T09:37:40Z</time>
      </trkpt>
      <trkpt lat="45.94011" lon="4.77232">
        <ele>173</ele>
        <time>2017-10-23T09:37:41Z</time>
      </trkpt>
      <trkpt lat="45.94013" lon="4.77222">
        <ele>174</ele>
        <time>2017-10-23T09:37:43Z</time>
      </trkpt>
      <trkpt lat="45.94012" lon="4.77219">
        <ele>174</ele>
        <time>2017-10-23T09:37:44Z</time>
      </trkpt>
      <trkpt lat="45.94013" lon="4.77207">
        <ele>174</ele>
        <time>2017-10-23T09:37:49Z</time>
      </trkpt>
      <trkpt lat="45.94014" lon="4.77206">
        <ele>174</ele>
        <time>2017-10-23T09:37:50Z</time>
      </trkpt>
      <trkpt lat="45.9402" lon="4.77214">
        <ele>174</ele>
        <time>2017-10-23T09:37:54Z</time>
      </trkpt>
      <trkpt lat="45.9402" lon="4.77217">
        <ele>174</ele>
        <time>2017-10-23T09:37:55Z</time>
      </trkpt>
      <trkpt lat="45.94019" lon="4.77229">
        <ele>174</ele>
        <time>2017-10-23T09:37:59Z</time>
      </trkpt>
      <trkpt lat="45.94019" lon="4.77232">
        <ele>174</ele>
        <time>2017-10-23T09:38:00Z</time>
      </trkpt>
      <trkpt lat="45.94018" lon="4.77243">
        <ele>173</ele>
        <time>2017-10-23T09:38:03Z</time>
      </trkpt>
      <trkpt lat="45.94017" lon="4.77246">
        <ele>173</ele>
        <time>2017-10-23T09:38:04Z</time>
      </trkpt>
      <trkpt lat="45.94015" lon="4.77257">
        <ele>173</ele>
        <time>2017-10-23T09:38:08Z</time>
      </trkpt>
      <trkpt lat="45.94013" lon="4.77258">
        <ele>173</ele>
        <time>2017-10-23T09:38:09Z</time>
      </trkpt>
      <trkpt lat="45.94006" lon="4.77258">
        <ele>172</ele>
        <time>2017-10-23T09:38:12Z</time>
      </trkpt>
      <trkpt lat="45.94004" lon="4.77257">
        <ele>172</ele>
        <time>2017-10-23T09:38:13Z</time>
      </trkpt>
      <trkpt lat="45.93997" lon="4.77253">
        <ele>170</ele>
        <time>2017-10-23T09:38:16Z</time>
      </trkpt>
      <trkpt lat="45.93994" lon="4.77252">
        <ele>170</ele>
        <time>2017-10-23T09:38:17Z</time>
      </trkpt>
      <trkpt lat="45.93986" lon="4.77249">
        <ele>169</ele>
        <time>2017-10-23T09:38:20Z</time>
      </trkpt>
      <trkpt lat="45.93984" lon="4.77248">
        <ele>169</ele>
        <time>2017-10-23T09:38:21Z</time>
      </trkpt>
      <trkpt lat="45.93975" lon="4.77247">
        <ele>169</ele>
        <time>2017-10-23T09:38:24Z</time>
      </trkpt>
      <trkpt lat="45.93973" lon="4.77247">
        <ele>169</ele>
        <time>2017-10-23T09:38:25Z</time>
      </trkpt>
      <trkpt lat="45.93965" lon="4.77245">
        <ele>169</ele>
        <time>2017-10-23T09:38:28Z</time>
      </trkpt>
      <trkpt lat="45.93962" lon="4.77244">
        <ele>168</ele>
        <time>2017-10-23T09:38:29Z</time>
      </trkpt>
      <trkpt lat="45.93956" lon="4.77242">
        <ele>168</ele>
        <time>2017-10-23T09:38:31Z</time>
      </trkpt>
      <trkpt lat="45.93953" lon="4.77241">
        <ele>168</ele>
        <time>2017-10-23T09:38:32Z</time>
      </trkpt>
      <trkpt lat="45.93945" lon="4.7724">
        <ele>168</ele>
        <time>2017-10-23T09:38:35Z</time>
      </trkpt>
      <trkpt lat="45.93942" lon="4.77239">
        <ele>168</ele>
        <time>2017-10-23T09:38:36Z</time>
      </trkpt>
      <trkpt lat="45.93936" lon="4.77238">
        <ele>167</ele>
        <time>2017-10-23T09:38:38Z</time>
      </trkpt>
      <trkpt lat="45.93932" lon="4.77237">
        <ele>167</ele>
        <time>2017-10-23T09:38:39Z</time>
      </trkpt>
      <trkpt lat="45.93926" lon="4.77234">
        <ele>167</ele>
        <time>2017-10-23T09:38:42Z</time>
      </trkpt>
      <trkpt lat="45.93923" lon="4.77234">
        <ele>167</ele>
        <time>2017-10-23T09:38:43Z</time>
      </trkpt>
      <trkpt lat="45.93914" lon="4.77232">
        <ele>167</ele>
        <time>2017-10-23T09:38:46Z</time>
      </trkpt>
      <trkpt lat="45.93912" lon="4.77231">
        <ele>167</ele>
        <time>2017-10-23T09:38:47Z</time>
      </trkpt>
      <trkpt lat="45.93903" lon="4.77228">
        <ele>167</ele>
        <time>2017-10-23T09:38:50Z</time>
      </trkpt>
      <trkpt lat="45.939" lon="4.77227">
        <ele>167</ele>
        <time>2017-10-23T09:38:51Z</time>
      </trkpt>
      <trkpt lat="45.93894" lon="4.77226">
        <ele>167</ele>
        <time>2017-10-23T09:38:53Z</time>
      </trkpt>
      <trkpt lat="45.9389" lon="4.77225">
        <ele>167</ele>
        <time>2017-10-23T09:38:54Z</time>
      </trkpt>
      <trkpt lat="45.93883" lon="4.77223">
        <ele>168</ele>
        <time>2017-10-23T09:38:56Z</time>
      </trkpt>
      <trkpt lat="45.9388" lon="4.77222">
        <ele>168</ele>
        <time>2017-10-23T09:38:57Z</time>
      </trkpt>
      <trkpt lat="45.93871" lon="4.7722">
        <ele>168</ele>
        <time>2017-10-23T09:38:59Z</time>
      </trkpt>
      <trkpt lat="45.93866" lon="4.77219">
        <ele>168</ele>
        <time>2017-10-23T09:39:00Z</time>
      </trkpt>
      <trkpt lat="45.93862" lon="4.77217">
        <ele>168</ele>
        <time>2017-10-23T09:39:01Z</time>
      </trkpt>
      <trkpt lat="45.93857" lon="4.77217">
        <ele>168</ele>
        <time>2017-10-23T09:39:02Z</time>
      </trkpt>
      <trkpt lat="45.93849" lon="4.77216">
        <ele>168</ele>
        <time>2017-10-23T09:39:04Z</time>
      </trkpt>
      <trkpt lat="45.93846" lon="4.77216">
        <ele>168</ele>
        <time>2017-10-23T09:39:05Z</time>
      </trkpt>
      <trkpt lat="45.93838" lon="4.77212">
        <ele>168</ele>
        <time>2017-10-23T09:39:09Z</time>
      </trkpt>
      <trkpt lat="45.93836" lon="4.7721">
        <ele>168</ele>
        <time>2017-10-23T09:39:10Z</time>
      </trkpt>
      <trkpt lat="45.9383" lon="4.77208">
        <ele>170</ele>
        <time>2017-10-23T09:39:12Z</time>
      </trkpt>
      <trkpt lat="45.93827" lon="4.77208">
        <ele>170</ele>
        <time>2017-10-23T09:39:13Z</time>
      </trkpt>
      <trkpt lat="45.9382" lon="4.77207">
        <ele>170</ele>
        <time>2017-10-23T09:39:15Z</time>
      </trkpt>
      <trkpt lat="45.93817" lon="4.77206">
        <ele>170</ele>
        <time>2017-10-23T09:39:16Z</time>
      </trkpt>
      <trkpt lat="45.9381" lon="4.77201">
        <ele>170</ele>
        <time>2017-10-23T09:39:18Z</time>
      </trkpt>
      <trkpt lat="45.93808" lon="4.77197">
        <ele>169</ele>
        <time>2017-10-23T09:39:19Z</time>
      </trkpt>
      <trkpt lat="45.93807" lon="4.77186">
        <ele>169</ele>
        <time>2017-10-23T09:39:21Z</time>
      </trkpt>
      <trkpt lat="45.93808" lon="4.77181">
        <ele>169</ele>
        <time>2017-10-23T09:39:22Z</time>
      </trkpt>
      <trkpt lat="45.9381" lon="4.7717">
        <ele>169</ele>
        <time>2017-10-23T09:39:24Z</time>
      </trkpt>
      <trkpt lat="45.93811" lon="4.77164">
        <ele>168</ele>
        <time>2017-10-23T09:39:25Z</time>
      </trkpt>
      <trkpt lat="45.9381" lon="4.77151">
        <ele>168</ele>
        <time>2017-10-23T09:39:27Z</time>
      </trkpt>
      <trkpt lat="45.9381" lon="4.77146">
        <ele>168</ele>
        <time>2017-10-23T09:39:28Z</time>
      </trkpt>
      <trkpt lat="45.93809" lon="4.77134">
        <ele>168</ele>
        <time>2017-10-23T09:39:30Z</time>
      </trkpt>
      <trkpt lat="45.93808" lon="4.77125">
        <ele>168</ele>
        <time>2017-10-23T09:39:31Z</time>
      </trkpt>
      <trkpt lat="45.93807" lon="4.77118">
        <ele>168</ele>
        <time>2017-10-23T09:39:32Z</time>
      </trkpt>
      <trkpt lat="45.93806" lon="4.77112">
        <ele>168</ele>
        <time>2017-10-23T09:39:33Z</time>
      </trkpt>
      <trkpt lat="45.93806" lon="4.77105">
        <ele>168</ele>
        <time>2017-10-23T09:39:34Z</time>
      </trkpt>
      <trkpt lat="45.93804" lon="4.77099">
        <ele>168</ele>
        <time>2017-10-23T09:39:35Z</time>
      </trkpt>
      <trkpt lat="45.93803" lon="4.77091">
        <ele>168</ele>
        <time>2017-10-23T09:39:36Z</time>
      </trkpt>
      <trkpt lat="45.93802" lon="4.77084">
        <ele>168</ele>
        <time>2017-10-23T09:39:37Z</time>
      </trkpt>
      <trkpt lat="45.93798" lon="4.77076">
        <ele>168</ele>
        <time>2017-10-23T09:39:38Z</time>
      </trkpt>
      <trkpt lat="45.93796" lon="4.77069">
        <ele>168</ele>
        <time>2017-10-23T09:39:39Z</time>
      </trkpt>
      <trkpt lat="45.93793" lon="4.77062">
        <ele>168</ele>
        <time>2017-10-23T09:39:40Z</time>
      </trkpt>
      <trkpt lat="45.93789" lon="4.77057">
        <ele>168</ele>
        <time>2017-10-23T09:39:41Z</time>
      </trkpt>
      <trkpt lat="45.93785" lon="4.77046">
        <ele>168</ele>
        <time>2017-10-23T09:39:43Z</time>
      </trkpt>
      <trkpt lat="45.93783" lon="4.77041">
        <ele>168</ele>
        <time>2017-10-23T09:39:44Z</time>
      </trkpt>
      <trkpt lat="45.93778" lon="4.77029">
        <ele>168</ele>
        <time>2017-10-23T09:39:46Z</time>
      </trkpt>
      <trkpt lat="45.93777" lon="4.77024">
        <ele>168</ele>
        <time>2017-10-23T09:39:47Z</time>
      </trkpt>
      <trkpt lat="45.93774" lon="4.77016">
        <ele>168</ele>
        <time>2017-10-23T09:39:49Z</time>
      </trkpt>
      <trkpt lat="45.93772" lon="4.77011">
        <ele>169</ele>
        <time>2017-10-23T09:39:50Z</time>
      </trkpt>
      <trkpt lat="45.93767" lon="4.77002">
        <ele>169</ele>
        <time>2017-10-23T09:39:52Z</time>
      </trkpt>
      <trkpt lat="45.93765" lon="4.76998">
        <ele>168</ele>
        <time>2017-10-23T09:39:53Z</time>
      </trkpt>
      <trkpt lat="45.93763" lon="4.76989">
        <ele>168</ele>
        <time>2017-10-23T09:39:55Z</time>
      </trkpt>
      <trkpt lat="45.93761" lon="4.76984">
        <ele>168</ele>
        <time>2017-10-23T09:39:56Z</time>
      </trkpt>
      <trkpt lat="45.93757" lon="4.76976">
        <ele>168</ele>
        <time>2017-10-23T09:39:58Z</time>
      </trkpt>
      <trkpt lat="45.93756" lon="4.76972">
        <ele>168</ele>
        <time>2017-10-23T09:39:59Z</time>
      </trkpt>
      <trkpt lat="45.93753" lon="4.76963">
        <ele>168</ele>
        <time>2017-10-23T09:40:01Z</time>
      </trkpt>
      <trkpt lat="45.93751" lon="4.76959">
        <ele>168</ele>
        <time>2017-10-23T09:40:02Z</time>
      </trkpt>
      <trkpt lat="45.93746" lon="4.76949">
        <ele>169</ele>
        <time>2017-10-23T09:40:04Z</time>
      </trkpt>
      <trkpt lat="45.93744" lon="4.76945">
        <ele>169</ele>
        <time>2017-10-23T09:40:05Z</time>
      </trkpt>
      <trkpt lat="45.93738" lon="4.76937">
        <ele>169</ele>
        <time>2017-10-23T09:40:07Z</time>
      </trkpt>
      <trkpt lat="45.93735" lon="4.76932">
        <ele>169</ele>
        <time>2017-10-23T09:40:08Z</time>
      </trkpt>
      <trkpt lat="45.9373" lon="4.76922">
        <ele>169</ele>
        <time>2017-10-23T09:40:10Z</time>
      </trkpt>
      <trkpt lat="45.93727" lon="4.76915">
        <ele>168</ele>
        <time>2017-10-23T09:40:11Z</time>
      </trkpt>
      <trkpt lat="45.93723" lon="4.76905">
        <ele>168</ele>
        <time>2017-10-23T09:40:13Z</time>
      </trkpt>
      <trkpt lat="45.93721" lon="4.769">
        <ele>168</ele>
        <time>2017-10-23T09:40:14Z</time>
      </trkpt>
      <trkpt lat="45.93717" lon="4.76892">
        <ele>168</ele>
        <time>2017-10-23T09:40:16Z</time>
      </trkpt>
      <trkpt lat="45.93715" lon="4.76886">
        <ele>167</ele>
        <time>2017-10-23T09:40:17Z</time>
      </trkpt>
      <trkpt lat="45.93712" lon="4.76881">
        <ele>167</ele>
        <time>2017-10-23T09:40:18Z</time>
      </trkpt>
      <trkpt lat="45.93709" lon="4.76875">
        <ele>167</ele>
        <time>2017-10-23T09:40:19Z</time>
      </trkpt>
      <trkpt lat="45.93706" lon="4.7687">
        <ele>167</ele>
        <time>2017-10-23T09:40:20Z</time>
      </trkpt>
      <trkpt lat="45.93703" lon="4.76864">
        <ele>167</ele>
        <time>2017-10-23T09:40:21Z</time>
      </trkpt>
      <trkpt lat="45.93701" lon="4.76858">
        <ele>167</ele>
        <time>2017-10-23T09:40:22Z</time>
      </trkpt>
      <trkpt lat="45.93699" lon="4.76852">
        <ele>167</ele>
        <time>2017-10-23T09:40:23Z</time>
      </trkpt>
      <trkpt lat="45.93693" lon="4.76842">
        <ele>167</ele>
        <time>2017-10-23T09:40:25Z</time>
      </trkpt>
      <trkpt lat="45.93691" lon="4.76836">
        <ele>167</ele>
        <time>2017-10-23T09:40:26Z</time>
      </trkpt>
      <trkpt lat="45.93686" lon="4.76828">
        <ele>166</ele>
        <time>2017-10-23T09:40:28Z</time>
      </trkpt>
      <trkpt lat="45.93683" lon="4.76824">
        <ele>166</ele>
        <time>2017-10-23T09:40:29Z</time>
      </trkpt>
      <trkpt lat="45.93681" lon="4.7682">
        <ele>166</ele>
        <time>2017-10-23T09:40:30Z</time>
      </trkpt>
      <trkpt lat="45.93677" lon="4.76815">
        <ele>166</ele>
        <time>2017-10-23T09:40:31Z</time>
      </trkpt>
      <trkpt lat="45.93671" lon="4.76809">
        <ele>166</ele>
        <time>2017-10-23T09:40:33Z</time>
      </trkpt>
      <trkpt lat="45.93668" lon="4.76805">
        <ele>166</ele>
        <time>2017-10-23T09:40:34Z</time>
      </trkpt>
      <trkpt lat="45.93662" lon="4.76797">
        <ele>167</ele>
        <time>2017-10-23T09:40:36Z</time>
      </trkpt>
      <trkpt lat="45.93658" lon="4.76791">
        <ele>167</ele>
        <time>2017-10-23T09:40:37Z</time>
      </trkpt>
      <trkpt lat="45.93653" lon="4.76782">
        <ele>167</ele>
        <time>2017-10-23T09:40:39Z</time>
      </trkpt>
      <trkpt lat="45.93651" lon="4.76778">
        <ele>167</ele>
        <time>2017-10-23T09:40:40Z</time>
      </trkpt>
      <trkpt lat="45.93648" lon="4.76774">
        <ele>167</ele>
        <time>2017-10-23T09:40:41Z</time>
      </trkpt>
      <trkpt lat="45.93645" lon="4.76768">
        <ele>167</ele>
        <time>2017-10-23T09:40:42Z</time>
      </trkpt>
      <trkpt lat="45.9364" lon="4.76761">
        <ele>168</ele>
        <time>2017-10-23T09:40:44Z</time>
      </trkpt>
      <trkpt lat="45.93638" lon="4.76757">
        <ele>168</ele>
        <time>2017-10-23T09:40:45Z</time>
      </trkpt>
      <trkpt lat="45.93633" lon="4.76747">
        <ele>168</ele>
        <time>2017-10-23T09:40:47Z</time>
      </trkpt>
      <trkpt lat="45.9363" lon="4.76743">
        <ele>168</ele>
        <time>2017-10-23T09:40:48Z</time>
      </trkpt>
      <trkpt lat="45.93627" lon="4.76738">
        <ele>168</ele>
        <time>2017-10-23T09:40:49Z</time>
      </trkpt>
      <trkpt lat="45.93624" lon="4.76732">
        <ele>169</ele>
        <time>2017-10-23T09:40:50Z</time>
      </trkpt>
      <trkpt lat="45.93619" lon="4.76723">
        <ele>169</ele>
        <time>2017-10-23T09:40:52Z</time>
      </trkpt>
      <trkpt lat="45.93616" lon="4.76719">
        <ele>169</ele>
        <time>2017-10-23T09:40:53Z</time>
      </trkpt>
      <trkpt lat="45.93612" lon="4.76712">
        <ele>169</ele>
        <time>2017-10-23T09:40:55Z</time>
      </trkpt>
      <trkpt lat="45.9361" lon="4.76708">
        <ele>169</ele>
        <time>2017-10-23T09:40:56Z</time>
      </trkpt>
      <trkpt lat="45.93605" lon="4.76699">
        <ele>169</ele>
        <time>2017-10-23T09:40:58Z</time>
      </trkpt>
      <trkpt lat="45.93602" lon="4.76695">
        <ele>169</ele>
        <time>2017-10-23T09:40:59Z</time>
      </trkpt>
      <trkpt lat="45.93596" lon="4.76687">
        <ele>170</ele>
        <time>2017-10-23T09:41:01Z</time>
      </trkpt>
      <trkpt lat="45.93594" lon="4.76683">
        <ele>170</ele>
        <time>2017-10-23T09:41:02Z</time>
      </trkpt>
      <trkpt lat="45.9359" lon="4.76676">
        <ele>170</ele>
        <time>2017-10-23T09:41:04Z</time>
      </trkpt>
      <trkpt lat="45.93588" lon="4.76672">
        <ele>170</ele>
        <time>2017-10-23T09:41:05Z</time>
      </trkpt>
      <trkpt lat="45.93584" lon="4.76664">
        <ele>171</ele>
        <time>2017-10-23T09:41:07Z</time>
      </trkpt>
      <trkpt lat="45.93583" lon="4.7666">
        <ele>171</ele>
        <time>2017-10-23T09:41:08Z</time>
      </trkpt>
      <trkpt lat="45.9358" lon="4.76652">
        <ele>170</ele>
        <time>2017-10-23T09:41:10Z</time>
      </trkpt>
      <trkpt lat="45.93578" lon="4.76648">
        <ele>170</ele>
        <time>2017-10-23T09:41:11Z</time>
      </trkpt>
      <trkpt lat="45.93573" lon="4.76638">
        <ele>170</ele>
        <time>2017-10-23T09:41:13Z</time>
      </trkpt>
      <trkpt lat="45.9357" lon="4.76634">
        <ele>170</ele>
        <time>2017-10-23T09:41:14Z</time>
      </trkpt>
      <trkpt lat="45.93567" lon="4.7663">
        <ele>169</ele>
        <time>2017-10-23T09:41:15Z</time>
      </trkpt>
      <trkpt lat="45.93563" lon="4.76624">
        <ele>169</ele>
        <time>2017-10-23T09:41:16Z</time>
      </trkpt>
      <trkpt lat="45.93558" lon="4.76616">
        <ele>169</ele>
        <time>2017-10-23T09:41:18Z</time>
      </trkpt>
      <trkpt lat="45.93554" lon="4.76612">
        <ele>169</ele>
        <time>2017-10-23T09:41:19Z</time>
      </trkpt>
      <trkpt lat="45.93551" lon="4.76609">
        <ele>169</ele>
        <time>2017-10-23T09:41:20Z</time>
      </trkpt>
      <trkpt lat="45.93547" lon="4.76602">
        <ele>169</ele>
        <time>2017-10-23T09:41:21Z</time>
      </trkpt>
      <trkpt lat="45.93541" lon="4.76593">
        <ele>169</ele>
        <time>2017-10-23T09:41:23Z</time>
      </trkpt>
      <trkpt lat="45.93539" lon="4.76589">
        <ele>169</ele>
        <time>2017-10-23T09:41:24Z</time>
      </trkpt>
      <trkpt lat="45.93532" lon="4.76582">
        <ele>168</ele>
        <time>2017-10-23T09:41:26Z</time>
      </trkpt>
      <trkpt lat="45.9353" lon="4.76579">
        <ele>168</ele>
        <time>2017-10-23T09:41:27Z</time>
      </trkpt>
      <trkpt lat="45.93525" lon="4.76574">
        <ele>168</ele>
        <time>2017-10-23T09:41:29Z</time>
      </trkpt>
      <trkpt lat="45.93521" lon="4.76571">
        <ele>168</ele>
        <time>2017-10-23T09:41:30Z</time>
      </trkpt>
      <trkpt lat="45.93515" lon="4.76566">
        <ele>168</ele>
        <time>2017-10-23T09:41:32Z</time>
      </trkpt>
      <trkpt lat="45.93512" lon="4.76563">
        <ele>168</ele>
        <time>2017-10-23T09:41:33Z</time>
      </trkpt>
      <trkpt lat="45.93506" lon="4.76555">
        <ele>168</ele>
        <time>2017-10-23T09:41:35Z</time>
      </trkpt>
      <trkpt lat="45.93503" lon="4.7655">
        <ele>168</ele>
        <time>2017-10-23T09:41:36Z</time>
      </trkpt>
      <trkpt lat="45.93499" lon="4.76545">
        <ele>168</ele>
        <time>2017-10-23T09:41:37Z</time>
      </trkpt>
      <trkpt lat="45.93495" lon="4.7654">
        <ele>168</ele>
        <time>2017-10-23T09:41:38Z</time>
      </trkpt>
      <trkpt lat="45.93488" lon="4.76532">
        <ele>168</ele>
        <time>2017-10-23T09:41:40Z</time>
      </trkpt>
      <trkpt lat="45.93485" lon="4.76529">
        <ele>168</ele>
        <time>2017-10-23T09:41:41Z</time>
      </trkpt>
      <trkpt lat="45.93482" lon="4.76521">
        <ele>168</ele>
        <time>2017-10-23T09:41:43Z</time>
      </trkpt>
      <trkpt lat="45.93479" lon="4.76519">
        <ele>168</ele>
        <time>2017-10-23T09:41:44Z</time>
      </trkpt>
      <trkpt lat="45.93471" lon="4.76513">
        <ele>168</ele>
        <time>2017-10-23T09:41:48Z</time>
      </trkpt>
      <trkpt lat="45.93469" lon="4.76511">
        <ele>168</ele>
        <time>2017-10-23T09:41:49Z</time>
      </trkpt>
      <trkpt lat="45.93464" lon="4.76505">
        <ele>168</ele>
        <time>2017-10-23T09:41:51Z</time>
      </trkpt>
      <trkpt lat="45.93461" lon="4.765">
        <ele>168</ele>
        <time>2017-10-23T09:41:52Z</time>
      </trkpt>
      <trkpt lat="45.93455" lon="4.76493">
        <ele>167</ele>
        <time>2017-10-23T09:41:54Z</time>
      </trkpt>
      <trkpt lat="45.93452" lon="4.76489">
        <ele>167</ele>
        <time>2017-10-23T09:41:55Z</time>
      </trkpt>
      <trkpt lat="45.93447" lon="4.76481">
        <ele>167</ele>
        <time>2017-10-23T09:41:57Z</time>
      </trkpt>
      <trkpt lat="45.93445" lon="4.76477">
        <ele>167</ele>
        <time>2017-10-23T09:41:58Z</time>
      </trkpt>
      <trkpt lat="45.9344" lon="4.76469">
        <ele>167</ele>
        <time>2017-10-23T09:42:00Z</time>
      </trkpt>
      <trkpt lat="45.93437" lon="4.76465">
        <ele>167</ele>
        <time>2017-10-23T09:42:01Z</time>
      </trkpt>
      <trkpt lat="45.93433" lon="4.76457">
        <ele>167</ele>
        <time>2017-10-23T09:42:03Z</time>
      </trkpt>
      <trkpt lat="45.9343" lon="4.76455">
        <ele>167</ele>
        <time>2017-10-23T09:42:04Z</time>
      </trkpt>
      <trkpt lat="45.93426" lon="4.7645">
        <ele>167</ele>
        <time>2017-10-23T09:42:05Z</time>
      </trkpt>
      <trkpt lat="45.93422" lon="4.76445">
        <ele>167</ele>
        <time>2017-10-23T09:42:06Z</time>
      </trkpt>
      <trkpt lat="45.93418" lon="4.7644">
        <ele>167</ele>
        <time>2017-10-23T09:42:07Z</time>
      </trkpt>
      <trkpt lat="45.93415" lon="4.76434">
        <ele>167</ele>
        <time>2017-10-23T09:42:08Z</time>
      </trkpt>
      <trkpt lat="45.9341" lon="4.76429">
        <ele>167</ele>
        <time>2017-10-23T09:42:09Z</time>
      </trkpt>
      <trkpt lat="45.93406" lon="4.76424">
        <ele>167</ele>
        <time>2017-10-23T09:42:10Z</time>
      </trkpt>
      <trkpt lat="45.93401" lon="4.76416">
        <ele>167</ele>
        <time>2017-10-23T09:42:12Z</time>
      </trkpt>
      <trkpt lat="45.93397" lon="4.76411">
        <ele>167</ele>
        <time>2017-10-23T09:42:13Z</time>
      </trkpt>
      <trkpt lat="45.93392" lon="4.76403">
        <ele>167</ele>
        <time>2017-10-23T09:42:15Z</time>
      </trkpt>
      <trkpt lat="45.93389" lon="4.76399">
        <ele>167</ele>
        <time>2017-10-23T09:42:16Z</time>
      </trkpt>
      <trkpt lat="45.93385" lon="4.76393">
        <ele>168</ele>
        <time>2017-10-23T09:42:18Z</time>
      </trkpt>
      <trkpt lat="45.93382" lon="4.7639">
        <ele>168</ele>
        <time>2017-10-23T09:42:19Z</time>
      </trkpt>
      <trkpt lat="45.93379" lon="4.76384">
        <ele>168</ele>
        <time>2017-10-23T09:42:21Z</time>
      </trkpt>
      <trkpt lat="45.93376" lon="4.76379">
        <ele>168</ele>
        <time>2017-10-23T09:42:22Z</time>
      </trkpt>
      <trkpt lat="45.93372" lon="4.76373">
        <ele>168</ele>
        <time>2017-10-23T09:42:23Z</time>
      </trkpt>
      <trkpt lat="45.93369" lon="4.76368">
        <ele>168</ele>
        <time>2017-10-23T09:42:24Z</time>
      </trkpt>
      <trkpt lat="45.93364" lon="4.76358">
        <ele>168</ele>
        <time>2017-10-23T09:42:26Z</time>
      </trkpt>
      <trkpt lat="45.93361" lon="4.76353">
        <ele>168</ele>
        <time>2017-10-23T09:42:27Z</time>
      </trkpt>
      <trkpt lat="45.93357" lon="4.76346">
        <ele>168</ele>
        <time>2017-10-23T09:42:29Z</time>
      </trkpt>
      <trkpt lat="45.93353" lon="4.76342">
        <ele>168</ele>
        <time>2017-10-23T09:42:30Z</time>
      </trkpt>
      <trkpt lat="45.93349" lon="4.76334">
        <ele>168</ele>
        <time>2017-10-23T09:42:32Z</time>
      </trkpt>
      <trkpt lat="45.93348" lon="4.76332">
        <ele>169</ele>
        <time>2017-10-23T09:42:33Z</time>
      </trkpt>
      <trkpt lat="45.93342" lon="4.76324">
        <ele>169</ele>
        <time>2017-10-23T09:42:35Z</time>
      </trkpt>
      <trkpt lat="45.93339" lon="4.76319">
        <ele>169</ele>
        <time>2017-10-23T09:42:36Z</time>
      </trkpt>
      <trkpt lat="45.93332" lon="4.76312">
        <ele>168</ele>
        <time>2017-10-23T09:42:38Z</time>
      </trkpt>
      <trkpt lat="45.93329" lon="4.76308">
        <ele>168</ele>
        <time>2017-10-23T09:42:39Z</time>
      </trkpt>
      <trkpt lat="45.93321" lon="4.76303">
        <ele>168</ele>
        <time>2017-10-23T09:42:41Z</time>
      </trkpt>
      <trkpt lat="45.93317" lon="4.76301">
        <ele>168</ele>
        <time>2017-10-23T09:42:42Z</time>
      </trkpt>
      <trkpt lat="45.93309" lon="4.76296">
        <ele>168</ele>
        <time>2017-10-23T09:42:44Z</time>
      </trkpt>
      <trkpt lat="45.93306" lon="4.76294">
        <ele>168</ele>
        <time>2017-10-23T09:42:45Z</time>
      </trkpt>
      <trkpt lat="45.93299" lon="4.76286">
        <ele>168</ele>
        <time>2017-10-23T09:42:47Z</time>
      </trkpt>
      <trkpt lat="45.93295" lon="4.76288">
        <ele>168</ele>
        <time>2017-10-23T09:42:48Z</time>
      </trkpt>
      <trkpt lat="45.93289" lon="4.76284">
        <ele>168</ele>
        <time>2017-10-23T09:42:50Z</time>
      </trkpt>
      <trkpt lat="45.93286" lon="4.76283">
        <ele>168</ele>
        <time>2017-10-23T09:42:51Z</time>
      </trkpt>
      <trkpt lat="45.93277" lon="4.76281">
        <ele>168</ele>
        <time>2017-10-23T09:42:53Z</time>
      </trkpt>
      <trkpt lat="45.93272" lon="4.76281">
        <ele>169</ele>
        <time>2017-10-23T09:42:54Z</time>
      </trkpt>
      <trkpt lat="45.93266" lon="4.7628">
        <ele>169</ele>
        <time>2017-10-23T09:42:56Z</time>
      </trkpt>
      <trkpt lat="45.93261" lon="4.76279">
        <ele>169</ele>
        <time>2017-10-23T09:42:57Z</time>
      </trkpt>
      <trkpt lat="45.93252" lon="4.7628">
        <ele>169</ele>
        <time>2017-10-23T09:43:01Z</time>
      </trkpt>
      <trkpt lat="45.93249" lon="4.7628">
        <ele>169</ele>
        <time>2017-10-23T09:43:02Z</time>
      </trkpt>
      <trkpt lat="45.93242" lon="4.76281">
        <ele>169</ele>
        <time>2017-10-23T09:43:04Z</time>
      </trkpt>
      <trkpt lat="45.93238" lon="4.76284">
        <ele>169</ele>
        <time>2017-10-23T09:43:05Z</time>
      </trkpt>
      <trkpt lat="45.93233" lon="4.76292">
        <ele>169</ele>
        <time>2017-10-23T09:43:07Z</time>
      </trkpt>
      <trkpt lat="45.93232" lon="4.76298">
        <ele>169</ele>
        <time>2017-10-23T09:43:08Z</time>
      </trkpt>
      <trkpt lat="45.9323" lon="4.76304">
        <ele>169</ele>
        <time>2017-10-23T09:43:09Z</time>
      </trkpt>
      <trkpt lat="45.93228" lon="4.76311">
        <ele>169</ele>
        <time>2017-10-23T09:43:10Z</time>
      </trkpt>
      <trkpt lat="45.93228" lon="4.7632">
        <ele>169</ele>
        <time>2017-10-23T09:43:11Z</time>
      </trkpt>
      <trkpt lat="45.93227" lon="4.76326">
        <ele>169</ele>
        <time>2017-10-23T09:43:12Z</time>
      </trkpt>
      <trkpt lat="45.93226" lon="4.76337">
        <ele>168</ele>
        <time>2017-10-23T09:43:14Z</time>
      </trkpt>
      <trkpt lat="45.93227" lon="4.76343">
        <ele>168</ele>
        <time>2017-10-23T09:43:15Z</time>
      </trkpt>
      <trkpt lat="45.93226" lon="4.76354">
        <ele>168</ele>
        <time>2017-10-23T09:43:17Z</time>
      </trkpt>
      <trkpt lat="45.93225" lon="4.7636">
        <ele>168</ele>
        <time>2017-10-23T09:43:18Z</time>
      </trkpt>
      <trkpt lat="45.93223" lon="4.76367">
        <ele>168</ele>
        <time>2017-10-23T09:43:19Z</time>
      </trkpt>
      <trkpt lat="45.93226" lon="4.76374">
        <ele>168</ele>
        <time>2017-10-23T09:43:20Z</time>
      </trkpt>
      <trkpt lat="45.93225" lon="4.76381">
        <ele>168</ele>
        <time>2017-10-23T09:43:21Z</time>
      </trkpt>
      <trkpt lat="45.93226" lon="4.7639">
        <ele>168</ele>
        <time>2017-10-23T09:43:22Z</time>
      </trkpt>
      <trkpt lat="45.93224" lon="4.76397">
        <ele>168</ele>
        <time>2017-10-23T09:43:23Z</time>
      </trkpt>
      <trkpt lat="45.93224" lon="4.76404">
        <ele>168</ele>
        <time>2017-10-23T09:43:24Z</time>
      </trkpt>
      <trkpt lat="45.93224" lon="4.76415">
        <ele>168</ele>
        <time>2017-10-23T09:43:26Z</time>
      </trkpt>
      <trkpt lat="45.93223" lon="4.76421">
        <ele>168</ele>
        <time>2017-10-23T09:43:27Z</time>
      </trkpt>
      <trkpt lat="45.93222" lon="4.76431">
        <ele>168</ele>
        <time>2017-10-23T09:43:29Z</time>
      </trkpt>
      <trkpt lat="45.93221" lon="4.76436">
        <ele>168</ele>
        <time>2017-10-23T09:43:30Z</time>
      </trkpt>
      <trkpt lat="45.9322" lon="4.76445">
        <ele>168</ele>
        <time>2017-10-23T09:43:32Z</time>
      </trkpt>
      <trkpt lat="45.93219" lon="4.7645">
        <ele>168</ele>
        <time>2017-10-23T09:43:33Z</time>
      </trkpt>
      <trkpt lat="45.93219" lon="4.76457">
        <ele>168</ele>
        <time>2017-10-23T09:43:34Z</time>
      </trkpt>
      <trkpt lat="45.93218" lon="4.76464">
        <ele>169</ele>
        <time>2017-10-23T09:43:35Z</time>
      </trkpt>
      <trkpt lat="45.93218" lon="4.76473">
        <ele>169</ele>
        <time>2017-10-23T09:43:36Z</time>
      </trkpt>
      <trkpt lat="45.93217" lon="4.7648">
        <ele>169</ele>
        <time>2017-10-23T09:43:37Z</time>
      </trkpt>
      <trkpt lat="45.93217" lon="4.76487">
        <ele>169</ele>
        <time>2017-10-23T09:43:38Z</time>
      </trkpt>
      <trkpt lat="45.93216" lon="4.76494">
        <ele>169</ele>
        <time>2017-10-23T09:43:39Z</time>
      </trkpt>
      <trkpt lat="45.93215" lon="4.76501">
        <ele>169</ele>
        <time>2017-10-23T09:43:40Z</time>
      </trkpt>
      <trkpt lat="45.93214" lon="4.76507">
        <ele>169</ele>
        <time>2017-10-23T09:43:41Z</time>
      </trkpt>
      <trkpt lat="45.93212" lon="4.76519">
        <ele>169</ele>
        <time>2017-10-23T09:43:43Z</time>
      </trkpt>
      <trkpt lat="45.93211" lon="4.76524">
        <ele>169</ele>
        <time>2017-10-23T09:43:44Z</time>
      </trkpt>
      <trkpt lat="45.9321" lon="4.76534">
        <ele>169</ele>
        <time>2017-10-23T09:43:46Z</time>
      </trkpt>
      <trkpt lat="45.93209" lon="4.76539">
        <ele>169</ele>
        <time>2017-10-23T09:43:47Z</time>
      </trkpt>
      <trkpt lat="45.93209" lon="4.76546">
        <ele>169</ele>
        <time>2017-10-23T09:43:48Z</time>
      </trkpt>
      <trkpt lat="45.93207" lon="4.76552">
        <ele>169</ele>
        <time>2017-10-23T09:43:49Z</time>
      </trkpt>
      <trkpt lat="45.93205" lon="4.76565">
        <ele>169</ele>
        <time>2017-10-23T09:43:51Z</time>
      </trkpt>
      <trkpt lat="45.93203" lon="4.76571">
        <ele>169</ele>
        <time>2017-10-23T09:43:52Z</time>
      </trkpt>
      <trkpt lat="45.932" lon="4.76578">
        <ele>169</ele>
        <time>2017-10-23T09:43:54Z</time>
      </trkpt>
      <trkpt lat="45.93198" lon="4.76582">
        <ele>169</ele>
        <time>2017-10-23T09:43:55Z</time>
      </trkpt>
      <trkpt lat="45.9319" lon="4.76587">
        <ele>170</ele>
        <time>2017-10-23T09:43:58Z</time>
      </trkpt>
      <trkpt lat="45.93187" lon="4.76586">
        <ele>171</ele>
        <time>2017-10-23T09:43:59Z</time>
      </trkpt>
      <trkpt lat="45.93182" lon="4.76582">
        <ele>170</ele>
        <time>2017-10-23T09:44:01Z</time>
      </trkpt>
      <trkpt lat="45.93179" lon="4.76579">
        <ele>170</ele>
        <time>2017-10-23T09:44:02Z</time>
      </trkpt>
      <trkpt lat="45.93172" lon="4.76571">
        <ele>170</ele>
        <time>2017-10-23T09:44:04Z</time>
      </trkpt>
      <trkpt lat="45.93168" lon="4.76567">
        <ele>170</ele>
        <time>2017-10-23T09:44:05Z</time>
      </trkpt>
      <trkpt lat="45.93164" lon="4.76563">
        <ele>170</ele>
        <time>2017-10-23T09:44:06Z</time>
      </trkpt>
      <trkpt lat="45.9316" lon="4.76559">
        <ele>170</ele>
        <time>2017-10-23T09:44:07Z</time>
      </trkpt>
      <trkpt lat="45.93153" lon="4.76551">
        <ele>170</ele>
        <time>2017-10-23T09:44:09Z</time>
      </trkpt>
      <trkpt lat="45.9315" lon="4.76548">
        <ele>170</ele>
        <time>2017-10-23T09:44:10Z</time>
      </trkpt>
      <trkpt lat="45.93143" lon="4.76542">
        <ele>170</ele>
        <time>2017-10-23T09:44:12Z</time>
      </trkpt>
      <trkpt lat="45.93141" lon="4.76539">
        <ele>170</ele>
        <time>2017-10-23T09:44:13Z</time>
      </trkpt>
      <trkpt lat="45.93134" lon="4.76533">
        <ele>170</ele>
        <time>2017-10-23T09:44:15Z</time>
      </trkpt>
      <trkpt lat="45.93131" lon="4.7653">
        <ele>170</ele>
        <time>2017-10-23T09:44:16Z</time>
      </trkpt>
      <trkpt lat="45.93126" lon="4.76526">
        <ele>170</ele>
        <time>2017-10-23T09:44:17Z</time>
      </trkpt>
      <trkpt lat="45.93122" lon="4.76522">
        <ele>170</ele>
        <time>2017-10-23T09:44:18Z</time>
      </trkpt>
      <trkpt lat="45.93118" lon="4.76518">
        <ele>170</ele>
        <time>2017-10-23T09:44:19Z</time>
      </trkpt>
      <trkpt lat="45.93114" lon="4.76514">
        <ele>170</ele>
        <time>2017-10-23T09:44:20Z</time>
      </trkpt>
      <trkpt lat="45.9311" lon="4.7651">
        <ele>170</ele>
        <time>2017-10-23T09:44:21Z</time>
      </trkpt>
      <trkpt lat="45.93106" lon="4.76506">
        <ele>170</ele>
        <time>2017-10-23T09:44:22Z</time>
      </trkpt>
      <trkpt lat="45.93099" lon="4.765">
        <ele>170</ele>
        <time>2017-10-23T09:44:24Z</time>
      </trkpt>
      <trkpt lat="45.93095" lon="4.76496">
        <ele>170</ele>
        <time>2017-10-23T09:44:25Z</time>
      </trkpt>
      <trkpt lat="45.93089" lon="4.7649">
        <ele>170</ele>
        <time>2017-10-23T09:44:27Z</time>
      </trkpt>
      <trkpt lat="45.93086" lon="4.76487">
        <ele>170</ele>
        <time>2017-10-23T09:44:28Z</time>
      </trkpt>
      <trkpt lat="45.93083" lon="4.76483">
        <ele>169</ele>
        <time>2017-10-23T09:44:29Z</time>
      </trkpt>
      <trkpt lat="45.93078" lon="4.76479">
        <ele>169</ele>
        <time>2017-10-23T09:44:30Z</time>
      </trkpt>
      <trkpt lat="45.93074" lon="4.76474">
        <ele>169</ele>
        <time>2017-10-23T09:44:31Z</time>
      </trkpt>
      <trkpt lat="45.9307" lon="4.76471">
        <ele>169</ele>
        <time>2017-10-23T09:44:32Z</time>
      </trkpt>
      <trkpt lat="45.93066" lon="4.76467">
        <ele>169</ele>
        <time>2017-10-23T09:44:33Z</time>
      </trkpt>
      <trkpt lat="45.93063" lon="4.76463">
        <ele>169</ele>
        <time>2017-10-23T09:44:34Z</time>
      </trkpt>
      <trkpt lat="45.93056" lon="4.76458">
        <ele>169</ele>
        <time>2017-10-23T09:44:36Z</time>
      </trkpt>
      <trkpt lat="45.93053" lon="4.76454">
        <ele>169</ele>
        <time>2017-10-23T09:44:37Z</time>
      </trkpt>
      <trkpt lat="45.93046" lon="4.76447">
        <ele>169</ele>
        <time>2017-10-23T09:44:39Z</time>
      </trkpt>
      <trkpt lat="45.93042" lon="4.76443">
        <ele>169</ele>
        <time>2017-10-23T09:44:40Z</time>
      </trkpt>
      <trkpt lat="45.93039" lon="4.76439">
        <ele>169</ele>
        <time>2017-10-23T09:44:41Z</time>
      </trkpt>
      <trkpt lat="45.93035" lon="4.76434">
        <ele>169</ele>
        <time>2017-10-23T09:44:42Z</time>
      </trkpt>
      <trkpt lat="45.93028" lon="4.76428">
        <ele>169</ele>
        <time>2017-10-23T09:44:44Z</time>
      </trkpt>
      <trkpt lat="45.93024" lon="4.76424">
        <ele>169</ele>
        <time>2017-10-23T09:44:45Z</time>
      </trkpt>
      <trkpt lat="45.93017" lon="4.76418">
        <ele>169</ele>
        <time>2017-10-23T09:44:47Z</time>
      </trkpt>
      <trkpt lat="45.93014" lon="4.76415">
        <ele>169</ele>
        <time>2017-10-23T09:44:48Z</time>
      </trkpt>
      <trkpt lat="45.93008" lon="4.76409">
        <ele>169</ele>
        <time>2017-10-23T09:44:50Z</time>
      </trkpt>
      <trkpt lat="45.93004" lon="4.76405">
        <ele>169</ele>
        <time>2017-10-23T09:44:51Z</time>
      </trkpt>
      <trkpt lat="45.92996" lon="4.76398">
        <ele>169</ele>
        <time>2017-10-23T09:44:53Z</time>
      </trkpt>
      <trkpt lat="45.92992" lon="4.76394">
        <ele>169</ele>
        <time>2017-10-23T09:44:54Z</time>
      </trkpt>
      <trkpt lat="45.92988" lon="4.7639">
        <ele>169</ele>
        <time>2017-10-23T09:44:55Z</time>
      </trkpt>
      <trkpt lat="45.92984" lon="4.76386">
        <ele>169</ele>
        <time>2017-10-23T09:44:56Z</time>
      </trkpt>
      <trkpt lat="45.9298" lon="4.76382">
        <ele>169</ele>
        <time>2017-10-23T09:44:57Z</time>
      </trkpt>
      <trkpt lat="45.92976" lon="4.76378">
        <ele>169</ele>
        <time>2017-10-23T09:44:58Z</time>
      </trkpt>
      <trkpt lat="45.92972" lon="4.76374">
        <ele>169</ele>
        <time>2017-10-23T09:44:59Z</time>
      </trkpt>
      <trkpt lat="45.92968" lon="4.7637">
        <ele>169</ele>
        <time>2017-10-23T09:45:00Z</time>
      </trkpt>
      <trkpt lat="45.92964" lon="4.76365">
        <ele>169</ele>
        <time>2017-10-23T09:45:01Z</time>
      </trkpt>
      <trkpt lat="45.9296" lon="4.76363">
        <ele>169</ele>
        <time>2017-10-23T09:45:02Z</time>
      </trkpt>
      <trkpt lat="45.92956" lon="4.76361">
        <ele>169</ele>
        <time>2017-10-23T09:45:03Z</time>
      </trkpt>
      <trkpt lat="45.9295" lon="4.76357">
        <ele>169</ele>
        <time>2017-10-23T09:45:04Z</time>
      </trkpt>
      <trkpt lat="45.92947" lon="4.76353">
        <ele>169</ele>
        <time>2017-10-23T09:45:05Z</time>
      </trkpt>
      <trkpt lat="45.92943" lon="4.76349">
        <ele>169</ele>
        <time>2017-10-23T09:45:06Z</time>
      </trkpt>
      <trkpt lat="45.92939" lon="4.76345">
        <ele>169</ele>
        <time>2017-10-23T09:45:07Z</time>
      </trkpt>
      <trkpt lat="45.92935" lon="4.7634">
        <ele>169</ele>
        <time>2017-10-23T09:45:08Z</time>
      </trkpt>
      <trkpt lat="45.9293" lon="4.76336">
        <ele>169</ele>
        <time>2017-10-23T09:45:09Z</time>
      </trkpt>
      <trkpt lat="45.92925" lon="4.76332">
        <ele>169</ele>
        <time>2017-10-23T09:45:10Z</time>
      </trkpt>
      <trkpt lat="45.92921" lon="4.76327">
        <ele>169</ele>
        <time>2017-10-23T09:45:11Z</time>
      </trkpt>
      <trkpt lat="45.92917" lon="4.76323">
        <ele>169</ele>
        <time>2017-10-23T09:45:12Z</time>
      </trkpt>
      <trkpt lat="45.92913" lon="4.76319">
        <ele>169</ele>
        <time>2017-10-23T09:45:13Z</time>
      </trkpt>
      <trkpt lat="45.9291" lon="4.76315">
        <ele>169</ele>
        <time>2017-10-23T09:45:14Z</time>
      </trkpt>
      <trkpt lat="45.92902" lon="4.76308">
        <ele>169</ele>
        <time>2017-10-23T09:45:16Z</time>
      </trkpt>
      <trkpt lat="45.92898" lon="4.76304">
        <ele>169</ele>
        <time>2017-10-23T09:45:17Z</time>
      </trkpt>
      <trkpt lat="45.92891" lon="4.76298">
        <ele>169</ele>
        <time>2017-10-23T09:45:19Z</time>
      </trkpt>
      <trkpt lat="45.92888" lon="4.76295">
        <ele>169</ele>
        <time>2017-10-23T09:45:20Z</time>
      </trkpt>
      <trkpt lat="45.92881" lon="4.76291">
        <ele>169</ele>
        <time>2017-10-23T09:45:22Z</time>
      </trkpt>
      <trkpt lat="45.92877" lon="4.76293">
        <ele>169</ele>
        <time>2017-10-23T09:45:23Z</time>
      </trkpt>
      <trkpt lat="45.92872" lon="4.76299">
        <ele>169</ele>
        <time>2017-10-23T09:45:25Z</time>
      </trkpt>
      <trkpt lat="45.92868" lon="4.76303">
        <ele>169</ele>
        <time>2017-10-23T09:45:26Z</time>
      </trkpt>
      <trkpt lat="45.92865" lon="4.76308">
        <ele>169</ele>
        <time>2017-10-23T09:45:27Z</time>
      </trkpt>
      <trkpt lat="45.9286" lon="4.76313">
        <ele>169</ele>
        <time>2017-10-23T09:45:28Z</time>
      </trkpt>
      <trkpt lat="45.92857" lon="4.76318">
        <ele>169</ele>
        <time>2017-10-23T09:45:29Z</time>
      </trkpt>
      <trkpt lat="45.92853" lon="4.76323">
        <ele>169</ele>
        <time>2017-10-23T09:45:30Z</time>
      </trkpt>
      <trkpt lat="45.92849" lon="4.76327">
        <ele>170</ele>
        <time>2017-10-23T09:45:31Z</time>
      </trkpt>
      <trkpt lat="45.92845" lon="4.76332">
        <ele>170</ele>
        <time>2017-10-23T09:45:32Z</time>
      </trkpt>
      <trkpt lat="45.9284" lon="4.76342">
        <ele>170</ele>
        <time>2017-10-23T09:45:34Z</time>
      </trkpt>
      <trkpt lat="45.92836" lon="4.76346">
        <ele>170</ele>
        <time>2017-10-23T09:45:35Z</time>
      </trkpt>
      <trkpt lat="45.9283" lon="4.76354">
        <ele>170</ele>
        <time>2017-10-23T09:45:37Z</time>
      </trkpt>
      <trkpt lat="45.92828" lon="4.76357">
        <ele>170</ele>
        <time>2017-10-23T09:45:38Z</time>
      </trkpt>
      <trkpt lat="45.92822" lon="4.76363">
        <ele>169</ele>
        <time>2017-10-23T09:45:40Z</time>
      </trkpt>
      <trkpt lat="45.92819" lon="4.76366">
        <ele>169</ele>
        <time>2017-10-23T09:45:41Z</time>
      </trkpt>
      <trkpt lat="45.92816" lon="4.7637">
        <ele>169</ele>
        <time>2017-10-23T09:45:42Z</time>
      </trkpt>
      <trkpt lat="45.92812" lon="4.76374">
        <ele>169</ele>
        <time>2017-10-23T09:45:43Z</time>
      </trkpt>
      <trkpt lat="45.92807" lon="4.76378">
        <ele>169</ele>
        <time>2017-10-23T09:45:44Z</time>
      </trkpt>
      <trkpt lat="45.92803" lon="4.7638">
        <ele>169</ele>
        <time>2017-10-23T09:45:45Z</time>
      </trkpt>
      <trkpt lat="45.92795" lon="4.7638">
        <ele>169</ele>
        <time>2017-10-23T09:45:47Z</time>
      </trkpt>
      <trkpt lat="45.92791" lon="4.76379">
        <ele>169</ele>
        <time>2017-10-23T09:45:48Z</time>
      </trkpt>
      <trkpt lat="45.92782" lon="4.76377">
        <ele>169</ele>
        <time>2017-10-23T09:45:50Z</time>
      </trkpt>
      <trkpt lat="45.92777" lon="4.76375">
        <ele>169</ele>
        <time>2017-10-23T09:45:51Z</time>
      </trkpt>
      <trkpt lat="45.92773" lon="4.76373">
        <ele>169</ele>
        <time>2017-10-23T09:45:52Z</time>
      </trkpt>
      <trkpt lat="45.92767" lon="4.76372">
        <ele>169</ele>
        <time>2017-10-23T09:45:53Z</time>
      </trkpt>
      <trkpt lat="45.92762" lon="4.76369">
        <ele>169</ele>
        <time>2017-10-23T09:45:54Z</time>
      </trkpt>
      <trkpt lat="45.92757" lon="4.76368">
        <ele>169</ele>
        <time>2017-10-23T09:45:55Z</time>
      </trkpt>
      <trkpt lat="45.92749" lon="4.76363">
        <ele>169</ele>
        <time>2017-10-23T09:45:57Z</time>
      </trkpt>
      <trkpt lat="45.92745" lon="4.76362">
        <ele>169</ele>
        <time>2017-10-23T09:45:58Z</time>
      </trkpt>
      <trkpt lat="45.92737" lon="4.76359">
        <ele>169</ele>
        <time>2017-10-23T09:46:00Z</time>
      </trkpt>
      <trkpt lat="45.92734" lon="4.76358">
        <ele>169</ele>
        <time>2017-10-23T09:46:01Z</time>
      </trkpt>
      <trkpt lat="45.92727" lon="4.76356">
        <ele>169</ele>
        <time>2017-10-23T09:46:03Z</time>
      </trkpt>
      <trkpt lat="45.92724" lon="4.76354">
        <ele>169</ele>
        <time>2017-10-23T09:46:04Z</time>
      </trkpt>
      <trkpt lat="45.92715" lon="4.76352">
        <ele>169</ele>
        <time>2017-10-23T09:46:06Z</time>
      </trkpt>
      <trkpt lat="45.9271" lon="4.7635">
        <ele>169</ele>
        <time>2017-10-23T09:46:07Z</time>
      </trkpt>
      <trkpt lat="45.92706" lon="4.76349">
        <ele>168</ele>
        <time>2017-10-23T09:46:08Z</time>
      </trkpt>
      <trkpt lat="45.92702" lon="4.76348">
        <ele>168</ele>
        <time>2017-10-23T09:46:09Z</time>
      </trkpt>
      <trkpt lat="45.92697" lon="4.76346">
        <ele>168</ele>
        <time>2017-10-23T09:46:10Z</time>
      </trkpt>
      <trkpt lat="45.92693" lon="4.76345">
        <ele>168</ele>
        <time>2017-10-23T09:46:11Z</time>
      </trkpt>
      <trkpt lat="45.92684" lon="4.76341">
        <ele>168</ele>
        <time>2017-10-23T09:46:13Z</time>
      </trkpt>
      <trkpt lat="45.92679" lon="4.7634">
        <ele>168</ele>
        <time>2017-10-23T09:46:14Z</time>
      </trkpt>
      <trkpt lat="45.92672" lon="4.76337">
        <ele>168</ele>
        <time>2017-10-23T09:46:16Z</time>
      </trkpt>
      <trkpt lat="45.92668" lon="4.76336">
        <ele>168</ele>
        <time>2017-10-23T09:46:17Z</time>
      </trkpt>
      <trkpt lat="45.92661" lon="4.76334">
        <ele>168</ele>
        <time>2017-10-23T09:46:19Z</time>
      </trkpt>
      <trkpt lat="45.92657" lon="4.76333">
        <ele>168</ele>
        <time>2017-10-23T09:46:20Z</time>
      </trkpt>
      <trkpt lat="45.9265" lon="4.76329">
        <ele>168</ele>
        <time>2017-10-23T09:46:22Z</time>
      </trkpt>
      <trkpt lat="45.92646" lon="4.76326">
        <ele>168</ele>
        <time>2017-10-23T09:46:23Z</time>
      </trkpt>
      <trkpt lat="45.92641" lon="4.76324">
        <ele>168</ele>
        <time>2017-10-23T09:46:24Z</time>
      </trkpt>
      <trkpt lat="45.92637" lon="4.76321">
        <ele>168</ele>
        <time>2017-10-23T09:46:25Z</time>
      </trkpt>
      <trkpt lat="45.92633" lon="4.76318">
        <ele>168</ele>
        <time>2017-10-23T09:46:26Z</time>
      </trkpt>
      <trkpt lat="45.92628" lon="4.76316">
        <ele>168</ele>
        <time>2017-10-23T09:46:27Z</time>
      </trkpt>
      <trkpt lat="45.9262" lon="4.76311">
        <ele>167</ele>
        <time>2017-10-23T09:46:29Z</time>
      </trkpt>
      <trkpt lat="45.92616" lon="4.76308">
        <ele>167</ele>
        <time>2017-10-23T09:46:30Z</time>
      </trkpt>
      <trkpt lat="45.92609" lon="4.76304">
        <ele>167</ele>
        <time>2017-10-23T09:46:32Z</time>
      </trkpt>
      <trkpt lat="45.92606" lon="4.76301">
        <ele>167</ele>
        <time>2017-10-23T09:46:33Z</time>
      </trkpt>
      <trkpt lat="45.92599" lon="4.76298">
        <ele>167</ele>
        <time>2017-10-23T09:46:35Z</time>
      </trkpt>
      <trkpt lat="45.92595" lon="4.76296">
        <ele>167</ele>
        <time>2017-10-23T09:46:36Z</time>
      </trkpt>
      <trkpt lat="45.92587" lon="4.76292">
        <ele>168</ele>
        <time>2017-10-23T09:46:38Z</time>
      </trkpt>
      <trkpt lat="45.92583" lon="4.76289">
        <ele>168</ele>
        <time>2017-10-23T09:46:39Z</time>
      </trkpt>
      <trkpt lat="45.92579" lon="4.76287">
        <ele>168</ele>
        <time>2017-10-23T09:46:40Z</time>
      </trkpt>
      <trkpt lat="45.92575" lon="4.76284">
        <ele>168</ele>
        <time>2017-10-23T09:46:41Z</time>
      </trkpt>
      <trkpt lat="45.92567" lon="4.76278">
        <ele>168</ele>
        <time>2017-10-23T09:46:43Z</time>
      </trkpt>
      <trkpt lat="45.92563" lon="4.76277">
        <ele>168</ele>
        <time>2017-10-23T09:46:44Z</time>
      </trkpt>
      <trkpt lat="45.92555" lon="4.76272">
        <ele>168</ele>
        <time>2017-10-23T09:46:46Z</time>
      </trkpt>
      <trkpt lat="45.92552" lon="4.7627">
        <ele>168</ele>
        <time>2017-10-23T09:46:47Z</time>
      </trkpt>
      <trkpt lat="45.92545" lon="4.76266">
        <ele>168</ele>
        <time>2017-10-23T09:46:49Z</time>
      </trkpt>
      <trkpt lat="45.92542" lon="4.76264">
        <ele>168</ele>
        <time>2017-10-23T09:46:50Z</time>
      </trkpt>
      <trkpt lat="45.92535" lon="4.76261">
        <ele>168</ele>
        <time>2017-10-23T09:46:52Z</time>
      </trkpt>
      <trkpt lat="45.92531" lon="4.76259">
        <ele>168</ele>
        <time>2017-10-23T09:46:53Z</time>
      </trkpt>
      <trkpt lat="45.92523" lon="4.76255">
        <ele>168</ele>
        <time>2017-10-23T09:46:55Z</time>
      </trkpt>
      <trkpt lat="45.92519" lon="4.76254">
        <ele>168</ele>
        <time>2017-10-23T09:46:56Z</time>
      </trkpt>
      <trkpt lat="45.9251" lon="4.76252">
        <ele>168</ele>
        <time>2017-10-23T09:46:58Z</time>
      </trkpt>
      <trkpt lat="45.92506" lon="4.76253">
        <ele>168</ele>
        <time>2017-10-23T09:46:59Z</time>
      </trkpt>
      <trkpt lat="45.92498" lon="4.76255">
        <ele>168</ele>
        <time>2017-10-23T09:47:01Z</time>
      </trkpt>
      <trkpt lat="45.92494" lon="4.76257">
        <ele>168</ele>
        <time>2017-10-23T09:47:02Z</time>
      </trkpt>
      <trkpt lat="45.92488" lon="4.76261">
        <ele>169</ele>
        <time>2017-10-23T09:47:04Z</time>
      </trkpt>
      <trkpt lat="45.92484" lon="4.76262">
        <ele>169</ele>
        <time>2017-10-23T09:47:05Z</time>
      </trkpt>
      <trkpt lat="45.92479" lon="4.76265">
        <ele>169</ele>
        <time>2017-10-23T09:47:07Z</time>
      </trkpt>
      <trkpt lat="45.92475" lon="4.76267">
        <ele>169</ele>
        <time>2017-10-23T09:47:08Z</time>
      </trkpt>
      <trkpt lat="45.92468" lon="4.76273">
        <ele>169</ele>
        <time>2017-10-23T09:47:10Z</time>
      </trkpt>
      <trkpt lat="45.92464" lon="4.76276">
        <ele>169</ele>
        <time>2017-10-23T09:47:11Z</time>
      </trkpt>
      <trkpt lat="45.92457" lon="4.76282">
        <ele>169</ele>
        <time>2017-10-23T09:47:13Z</time>
      </trkpt>
      <trkpt lat="45.92455" lon="4.76286">
        <ele>169</ele>
        <time>2017-10-23T09:47:14Z</time>
      </trkpt>
      <trkpt lat="45.9245" lon="4.76295">
        <ele>169</ele>
        <time>2017-10-23T09:47:16Z</time>
      </trkpt>
      <trkpt lat="45.92448" lon="4.76301">
        <ele>169</ele>
        <time>2017-10-23T09:47:17Z</time>
      </trkpt>
      <trkpt lat="45.92444" lon="4.76312">
        <ele>169</ele>
        <time>2017-10-23T09:47:19Z</time>
      </trkpt>
      <trkpt lat="45.92442" lon="4.76318">
        <ele>170</ele>
        <time>2017-10-23T09:47:20Z</time>
      </trkpt>
      <trkpt lat="45.92437" lon="4.76328">
        <ele>170</ele>
        <time>2017-10-23T09:47:22Z</time>
      </trkpt>
      <trkpt lat="45.92435" lon="4.76333">
        <ele>170</ele>
        <time>2017-10-23T09:47:23Z</time>
      </trkpt>
      <trkpt lat="45.9243" lon="4.76341">
        <ele>170</ele>
        <time>2017-10-23T09:47:25Z</time>
      </trkpt>
      <trkpt lat="45.92428" lon="4.76347">
        <ele>170</ele>
        <time>2017-10-23T09:47:26Z</time>
      </trkpt>
      <trkpt lat="45.92424" lon="4.76356">
        <ele>170</ele>
        <time>2017-10-23T09:47:28Z</time>
      </trkpt>
      <trkpt lat="45.92422" lon="4.76361">
        <ele>170</ele>
        <time>2017-10-23T09:47:29Z</time>
      </trkpt>
      <trkpt lat="45.92418" lon="4.7637">
        <ele>170</ele>
        <time>2017-10-23T09:47:31Z</time>
      </trkpt>
      <trkpt lat="45.92416" lon="4.76373">
        <ele>169</ele>
        <time>2017-10-23T09:47:32Z</time>
      </trkpt>
      <trkpt lat="45.92411" lon="4.76379">
        <ele>169</ele>
        <time>2017-10-23T09:47:34Z</time>
      </trkpt>
      <trkpt lat="45.92409" lon="4.76381">
        <ele>169</ele>
        <time>2017-10-23T09:47:35Z</time>
      </trkpt>
      <trkpt lat="45.92401" lon="4.7638">
        <ele>169</ele>
        <time>2017-10-23T09:47:37Z</time>
      </trkpt>
      <trkpt lat="45.92397" lon="4.76378">
        <ele>169</ele>
        <time>2017-10-23T09:47:38Z</time>
      </trkpt>
      <trkpt lat="45.92391" lon="4.76371">
        <ele>169</ele>
        <time>2017-10-23T09:47:40Z</time>
      </trkpt>
      <trkpt lat="45.92389" lon="4.76368">
        <ele>168</ele>
        <time>2017-10-23T09:47:41Z</time>
      </trkpt>
      <trkpt lat="45.92384" lon="4.76363">
        <ele>168</ele>
        <time>2017-10-23T09:47:43Z</time>
      </trkpt>
      <trkpt lat="45.92382" lon="4.7636">
        <ele>168</ele>
        <time>2017-10-23T09:47:44Z</time>
      </trkpt>
      <trkpt lat="45.92376" lon="4.76354">
        <ele>168</ele>
        <time>2017-10-23T09:47:46Z</time>
      </trkpt>
      <trkpt lat="45.92372" lon="4.7635">
        <ele>168</ele>
        <time>2017-10-23T09:47:47Z</time>
      </trkpt>
      <trkpt lat="45.92368" lon="4.76345">
        <ele>168</ele>
        <time>2017-10-23T09:47:48Z</time>
      </trkpt>
      <trkpt lat="45.92364" lon="4.76342">
        <ele>168</ele>
        <time>2017-10-23T09:47:49Z</time>
      </trkpt>
      <trkpt lat="45.92356" lon="4.76338">
        <ele>168</ele>
        <time>2017-10-23T09:47:52Z</time>
      </trkpt>
      <trkpt lat="45.92353" lon="4.76337">
        <ele>168</ele>
        <time>2017-10-23T09:47:53Z</time>
      </trkpt>
      <trkpt lat="45.92346" lon="4.76337">
        <ele>168</ele>
        <time>2017-10-23T09:47:55Z</time>
      </trkpt>
      <trkpt lat="45.92342" lon="4.76339">
        <ele>167</ele>
        <time>2017-10-23T09:47:56Z</time>
      </trkpt>
      <trkpt lat="45.9234" lon="4.76346">
        <ele>168</ele>
        <time>2017-10-23T09:47:57Z</time>
      </trkpt>
      <trkpt lat="45.92335" lon="4.76349">
        <ele>168</ele>
        <time>2017-10-23T09:47:58Z</time>
      </trkpt>
      <trkpt lat="45.92328" lon="4.76354">
        <ele>167</ele>
        <time>2017-10-23T09:48:00Z</time>
      </trkpt>
      <trkpt lat="45.92326" lon="4.76355">
        <ele>167</ele>
        <time>2017-10-23T09:48:01Z</time>
      </trkpt>
      <trkpt lat="45.92319" lon="4.76358">
        <ele>167</ele>
        <time>2017-10-23T09:48:03Z</time>
      </trkpt>
      <trkpt lat="45.92316" lon="4.76359">
        <ele>167</ele>
        <time>2017-10-23T09:48:04Z</time>
      </trkpt>
      <trkpt lat="45.92309" lon="4.76363">
        <ele>167</ele>
        <time>2017-10-23T09:48:06Z</time>
      </trkpt>
      <trkpt lat="45.92305" lon="4.76364">
        <ele>167</ele>
        <time>2017-10-23T09:48:07Z</time>
      </trkpt>
      <trkpt lat="45.923" lon="4.76366">
        <ele>167</ele>
        <time>2017-10-23T09:48:08Z</time>
      </trkpt>
      <trkpt lat="45.92296" lon="4.76368">
        <ele>167</ele>
        <time>2017-10-23T09:48:09Z</time>
      </trkpt>
      <trkpt lat="45.92288" lon="4.76371">
        <ele>167</ele>
        <time>2017-10-23T09:48:11Z</time>
      </trkpt>
      <trkpt lat="45.92284" lon="4.76372">
        <ele>167</ele>
        <time>2017-10-23T09:48:12Z</time>
      </trkpt>
      <trkpt lat="45.92278" lon="4.76375">
        <ele>167</ele>
        <time>2017-10-23T09:48:14Z</time>
      </trkpt>
      <trkpt lat="45.92275" lon="4.76376">
        <ele>167</ele>
        <time>2017-10-23T09:48:15Z</time>
      </trkpt>
      <trkpt lat="45.92268" lon="4.76379">
        <ele>167</ele>
        <time>2017-10-23T09:48:17Z</time>
      </trkpt>
      <trkpt lat="45.92264" lon="4.7638">
        <ele>167</ele>
        <time>2017-10-23T09:48:18Z</time>
      </trkpt>
      <trkpt lat="45.92259" lon="4.76383">
        <ele>167</ele>
        <time>2017-10-23T09:48:19Z</time>
      </trkpt>
      <trkpt lat="45.92254" lon="4.76383">
        <ele>167</ele>
        <time>2017-10-23T09:48:20Z</time>
      </trkpt>
      <trkpt lat="45.92245" lon="4.76384">
        <ele>168</ele>
        <time>2017-10-23T09:48:22Z</time>
      </trkpt>
      <trkpt lat="45.92241" lon="4.76385">
        <ele>168</ele>
        <time>2017-10-23T09:48:23Z</time>
      </trkpt>
      <trkpt lat="45.92233" lon="4.76383">
        <ele>168</ele>
        <time>2017-10-23T09:48:25Z</time>
      </trkpt>
      <trkpt lat="45.92228" lon="4.76382">
        <ele>168</ele>
        <time>2017-10-23T09:48:26Z</time>
      </trkpt>
      <trkpt lat="45.92224" lon="4.76381">
        <ele>168</ele>
        <time>2017-10-23T09:48:27Z</time>
      </trkpt>
      <trkpt lat="45.9222" lon="4.76378">
        <ele>168</ele>
        <time>2017-10-23T09:48:28Z</time>
      </trkpt>
      <trkpt lat="45.92215" lon="4.76376">
        <ele>168</ele>
        <time>2017-10-23T09:48:29Z</time>
      </trkpt>
      <trkpt lat="45.92211" lon="4.76372">
        <ele>168</ele>
        <time>2017-10-23T09:48:30Z</time>
      </trkpt>
      <trkpt lat="45.92204" lon="4.76367">
        <ele>168</ele>
        <time>2017-10-23T09:48:32Z</time>
      </trkpt>
      <trkpt lat="45.92201" lon="4.76366">
        <ele>168</ele>
        <time>2017-10-23T09:48:33Z</time>
      </trkpt>
      <trkpt lat="45.92195" lon="4.7636">
        <ele>168</ele>
        <time>2017-10-23T09:48:35Z</time>
      </trkpt>
      <trkpt lat="45.92192" lon="4.76359">
        <ele>168</ele>
        <time>2017-10-23T09:48:36Z</time>
      </trkpt>
      <trkpt lat="45.92185" lon="4.76354">
        <ele>168</ele>
        <time>2017-10-23T09:48:38Z</time>
      </trkpt>
      <trkpt lat="45.9218" lon="4.7635">
        <ele>168</ele>
        <time>2017-10-23T09:48:39Z</time>
      </trkpt>
      <trkpt lat="45.92172" lon="4.76346">
        <ele>169</ele>
        <time>2017-10-23T09:48:41Z</time>
      </trkpt>
      <trkpt lat="45.92168" lon="4.76343">
        <ele>169</ele>
        <time>2017-10-23T09:48:42Z</time>
      </trkpt>
      <trkpt lat="45.9216" lon="4.76339">
        <ele>169</ele>
        <time>2017-10-23T09:48:44Z</time>
      </trkpt>
      <trkpt lat="45.92157" lon="4.76337">
        <ele>169</ele>
        <time>2017-10-23T09:48:45Z</time>
      </trkpt>
      <trkpt lat="45.9215" lon="4.76332">
        <ele>169</ele>
        <time>2017-10-23T09:48:47Z</time>
      </trkpt>
      <trkpt lat="45.92147" lon="4.76331">
        <ele>169</ele>
        <time>2017-10-23T09:48:48Z</time>
      </trkpt>
      <trkpt lat="45.92141" lon="4.76327">
        <ele>169</ele>
        <time>2017-10-23T09:48:50Z</time>
      </trkpt>
      <trkpt lat="45.92138" lon="4.76325">
        <ele>169</ele>
        <time>2017-10-23T09:48:51Z</time>
      </trkpt>
      <trkpt lat="45.92131" lon="4.7632">
        <ele>169</ele>
        <time>2017-10-23T09:48:53Z</time>
      </trkpt>
      <trkpt lat="45.92126" lon="4.76317">
        <ele>169</ele>
        <time>2017-10-23T09:48:54Z</time>
      </trkpt>
      <trkpt lat="45.92122" lon="4.76314">
        <ele>169</ele>
        <time>2017-10-23T09:48:55Z</time>
      </trkpt>
      <trkpt lat="45.92118" lon="4.76311">
        <ele>169</ele>
        <time>2017-10-23T09:48:56Z</time>
      </trkpt>
      <trkpt lat="45.92113" lon="4.76308">
        <ele>169</ele>
        <time>2017-10-23T09:48:57Z</time>
      </trkpt>
      <trkpt lat="45.92109" lon="4.76306">
        <ele>169</ele>
        <time>2017-10-23T09:48:58Z</time>
      </trkpt>
      <trkpt lat="45.92101" lon="4.76302">
        <ele>169</ele>
        <time>2017-10-23T09:49:00Z</time>
      </trkpt>
      <trkpt lat="45.92098" lon="4.763">
        <ele>169</ele>
        <time>2017-10-23T09:49:01Z</time>
      </trkpt>
      <trkpt lat="45.92091" lon="4.76297">
        <ele>169</ele>
        <time>2017-10-23T09:49:03Z</time>
      </trkpt>
      <trkpt lat="45.92088" lon="4.76294">
        <ele>169</ele>
        <time>2017-10-23T09:49:04Z</time>
      </trkpt>
      <trkpt lat="45.9208" lon="4.7629">
        <ele>169</ele>
        <time>2017-10-23T09:49:06Z</time>
      </trkpt>
      <trkpt lat="45.92077" lon="4.76287">
        <ele>169</ele>
        <time>2017-10-23T09:49:07Z</time>
      </trkpt>
      <trkpt lat="45.92069" lon="4.76282">
        <ele>169</ele>
        <time>2017-10-23T09:49:09Z</time>
      </trkpt>
      <trkpt lat="45.92065" lon="4.7628">
        <ele>169</ele>
        <time>2017-10-23T09:49:10Z</time>
      </trkpt>
      <trkpt lat="45.9206" lon="4.76278">
        <ele>169</ele>
        <time>2017-10-23T09:49:11Z</time>
      </trkpt>
      <trkpt lat="45.92056" lon="4.76275">
        <ele>169</ele>
        <time>2017-10-23T09:49:12Z</time>
      </trkpt>
      <trkpt lat="45.92049" lon="4.76271">
        <ele>169</ele>
        <time>2017-10-23T09:49:14Z</time>
      </trkpt>
      <trkpt lat="45.92046" lon="4.76269">
        <ele>169</ele>
        <time>2017-10-23T09:49:15Z</time>
      </trkpt>
      <trkpt lat="45.92039" lon="4.76265">
        <ele>169</ele>
        <time>2017-10-23T09:49:17Z</time>
      </trkpt>
      <trkpt lat="45.92035" lon="4.76263">
        <ele>169</ele>
        <time>2017-10-23T09:49:18Z</time>
      </trkpt>
      <trkpt lat="45.92029" lon="4.7626">
        <ele>169</ele>
        <time>2017-10-23T09:49:20Z</time>
      </trkpt>
      <trkpt lat="45.92025" lon="4.76257">
        <ele>169</ele>
        <time>2017-10-23T09:49:21Z</time>
      </trkpt>
      <trkpt lat="45.92018" lon="4.76252">
        <ele>169</ele>
        <time>2017-10-23T09:49:23Z</time>
      </trkpt>
      <trkpt lat="45.92014" lon="4.7625">
        <ele>169</ele>
        <time>2017-10-23T09:49:24Z</time>
      </trkpt>
      <trkpt lat="45.92008" lon="4.76246">
        <ele>170</ele>
        <time>2017-10-23T09:49:26Z</time>
      </trkpt>
      <trkpt lat="45.92004" lon="4.76244">
        <ele>170</ele>
        <time>2017-10-23T09:49:27Z</time>
      </trkpt>
      <trkpt lat="45.91995" lon="4.76239">
        <ele>170</ele>
        <time>2017-10-23T09:49:29Z</time>
      </trkpt>
      <trkpt lat="45.91991" lon="4.76236">
        <ele>170</ele>
        <time>2017-10-23T09:49:30Z</time>
      </trkpt>
      <trkpt lat="45.91987" lon="4.76234">
        <ele>170</ele>
        <time>2017-10-23T09:49:31Z</time>
      </trkpt>
      <trkpt lat="45.91982" lon="4.76232">
        <ele>171</ele>
        <time>2017-10-23T09:49:32Z</time>
      </trkpt>
      <trkpt lat="45.91975" lon="4.76227">
        <ele>171</ele>
        <time>2017-10-23T09:49:34Z</time>
      </trkpt>
      <trkpt lat="45.91971" lon="4.76226">
        <ele>171</ele>
        <time>2017-10-23T09:49:35Z</time>
      </trkpt>
      <trkpt lat="45.91963" lon="4.7622">
        <ele>171</ele>
        <time>2017-10-23T09:49:38Z</time>
      </trkpt>
      <trkpt lat="45.9196" lon="4.76219">
        <ele>171</ele>
        <time>2017-10-23T09:49:39Z</time>
      </trkpt>
      <trkpt lat="45.91954" lon="4.76216">
        <ele>171</ele>
        <time>2017-10-23T09:49:41Z</time>
      </trkpt>
      <trkpt lat="45.9195" lon="4.76214">
        <ele>171</ele>
        <time>2017-10-23T09:49:42Z</time>
      </trkpt>
      <trkpt lat="45.91944" lon="4.7621">
        <ele>171</ele>
        <time>2017-10-23T09:49:44Z</time>
      </trkpt>
      <trkpt lat="45.9194" lon="4.76208">
        <ele>171</ele>
        <time>2017-10-23T09:49:45Z</time>
      </trkpt>
      <trkpt lat="45.91934" lon="4.76204">
        <ele>171</ele>
        <time>2017-10-23T09:49:47Z</time>
      </trkpt>
      <trkpt lat="45.91931" lon="4.76202">
        <ele>171</ele>
        <time>2017-10-23T09:49:48Z</time>
      </trkpt>
      <trkpt lat="45.91923" lon="4.76199">
        <ele>171</ele>
        <time>2017-10-23T09:49:50Z</time>
      </trkpt>
      <trkpt lat="45.9192" lon="4.76197">
        <ele>171</ele>
        <time>2017-10-23T09:49:51Z</time>
      </trkpt>
      <trkpt lat="45.91912" lon="4.76193">
        <ele>172</ele>
        <time>2017-10-23T09:49:53Z</time>
      </trkpt>
      <trkpt lat="45.91908" lon="4.7619">
        <ele>172</ele>
        <time>2017-10-23T09:49:54Z</time>
      </trkpt>
      <trkpt lat="45.91901" lon="4.76186">
        <ele>172</ele>
        <time>2017-10-23T09:49:56Z</time>
      </trkpt>
      <trkpt lat="45.91897" lon="4.76184">
        <ele>172</ele>
        <time>2017-10-23T09:49:57Z</time>
      </trkpt>
      <trkpt lat="45.9189" lon="4.7618">
        <ele>172</ele>
        <time>2017-10-23T09:49:59Z</time>
      </trkpt>
      <trkpt lat="45.91886" lon="4.76178">
        <ele>172</ele>
        <time>2017-10-23T09:50:00Z</time>
      </trkpt>
      <trkpt lat="45.9188" lon="4.76174">
        <ele>172</ele>
        <time>2017-10-23T09:50:02Z</time>
      </trkpt>
      <trkpt lat="45.91877" lon="4.76172">
        <ele>172</ele>
        <time>2017-10-23T09:50:03Z</time>
      </trkpt>
      <trkpt lat="45.91871" lon="4.76169">
        <ele>172</ele>
        <time>2017-10-23T09:50:05Z</time>
      </trkpt>
      <trkpt lat="45.91868" lon="4.76168">
        <ele>172</ele>
        <time>2017-10-23T09:50:06Z</time>
      </trkpt>
      <trkpt lat="45.91859" lon="4.76169">
        <ele>172</ele>
        <time>2017-10-23T09:50:09Z</time>
      </trkpt>
      <trkpt lat="45.91856" lon="4.76172">
        <ele>172</ele>
        <time>2017-10-23T09:50:10Z</time>
      </trkpt>
      <trkpt lat="45.91851" lon="4.7618">
        <ele>172</ele>
        <time>2017-10-23T09:50:12Z</time>
      </trkpt>
      <trkpt lat="45.91849" lon="4.76185">
        <ele>172</ele>
        <time>2017-10-23T09:50:13Z</time>
      </trkpt>
      <trkpt lat="45.91845" lon="4.76195">
        <ele>172</ele>
        <time>2017-10-23T09:50:15Z</time>
      </trkpt>
      <trkpt lat="45.91844" lon="4.76201">
        <ele>172</ele>
        <time>2017-10-23T09:50:16Z</time>
      </trkpt>
      <trkpt lat="45.91842" lon="4.76212">
        <ele>172</ele>
        <time>2017-10-23T09:50:18Z</time>
      </trkpt>
      <trkpt lat="45.91841" lon="4.76217">
        <ele>172</ele>
        <time>2017-10-23T09:50:19Z</time>
      </trkpt>
      <trkpt lat="45.91839" lon="4.76226">
        <ele>172</ele>
        <time>2017-10-23T09:50:21Z</time>
      </trkpt>
      <trkpt lat="45.91838" lon="4.76231">
        <ele>172</ele>
        <time>2017-10-23T09:50:22Z</time>
      </trkpt>
      <trkpt lat="45.91836" lon="4.7624">
        <ele>173</ele>
        <time>2017-10-23T09:50:24Z</time>
      </trkpt>
      <trkpt lat="45.91835" lon="4.76245">
        <ele>173</ele>
        <time>2017-10-23T09:50:25Z</time>
      </trkpt>
      <trkpt lat="45.91832" lon="4.76257">
        <ele>173</ele>
        <time>2017-10-23T09:50:27Z</time>
      </trkpt>
      <trkpt lat="45.91831" lon="4.76262">
        <ele>174</ele>
        <time>2017-10-23T09:50:28Z</time>
      </trkpt>
      <trkpt lat="45.91828" lon="4.76273">
        <ele>174</ele>
        <time>2017-10-23T09:50:30Z</time>
      </trkpt>
      <trkpt lat="45.91827" lon="4.76277">
        <ele>174</ele>
        <time>2017-10-23T09:50:31Z</time>
      </trkpt>
      <trkpt lat="45.91824" lon="4.76286">
        <ele>174</ele>
        <time>2017-10-23T09:50:33Z</time>
      </trkpt>
      <trkpt lat="45.91823" lon="4.76291">
        <ele>174</ele>
        <time>2017-10-23T09:50:34Z</time>
      </trkpt>
      <trkpt lat="45.9182" lon="4.76301">
        <ele>174</ele>
        <time>2017-10-23T09:50:36Z</time>
      </trkpt>
      <trkpt lat="45.91819" lon="4.76305">
        <ele>174</ele>
        <time>2017-10-23T09:50:37Z</time>
      </trkpt>
      <trkpt lat="45.91816" lon="4.76317">
        <ele>174</ele>
        <time>2017-10-23T09:50:40Z</time>
      </trkpt>
      <trkpt lat="45.91816" lon="4.76321">
        <ele>174</ele>
        <time>2017-10-23T09:50:41Z</time>
      </trkpt>
      <trkpt lat="45.91809" lon="4.76326">
        <ele>174</ele>
        <time>2017-10-23T09:50:45Z</time>
      </trkpt>
      <trkpt lat="45.91807" lon="4.76326">
        <ele>174</ele>
        <time>2017-10-23T09:50:46Z</time>
      </trkpt>
      <trkpt lat="45.918" lon="4.76324">
        <ele>174</ele>
        <time>2017-10-23T09:50:49Z</time>
      </trkpt>
      <trkpt lat="45.91798" lon="4.76323">
        <ele>175</ele>
        <time>2017-10-23T09:50:50Z</time>
      </trkpt>
      <trkpt lat="45.9179" lon="4.76321">
        <ele>175</ele>
        <time>2017-10-23T09:51:01Z</time>
      </trkpt>
      <trkpt lat="45.91788" lon="4.76321">
        <ele>175</ele>
        <time>2017-10-23T09:51:02Z</time>
      </trkpt>
      <trkpt lat="45.91779" lon="4.76319">
        <ele>175</ele>
        <time>2017-10-23T09:51:06Z</time>
      </trkpt>
      <trkpt lat="45.91778" lon="4.76319">
        <ele>175</ele>
        <time>2017-10-23T09:51:07Z</time>
      </trkpt>
      <trkpt lat="45.91769" lon="4.76317">
        <ele>175</ele>
        <time>2017-10-23T09:51:12Z</time>
      </trkpt>
      <trkpt lat="45.91767" lon="4.76317">
        <ele>175</ele>
        <time>2017-10-23T09:51:13Z</time>
      </trkpt>
      <trkpt lat="45.91758" lon="4.76315">
        <ele>175</ele>
        <time>2017-10-23T09:51:17Z</time>
      </trkpt>
      <trkpt lat="45.91756" lon="4.76315">
        <ele>175</ele>
        <time>2017-10-23T09:51:18Z</time>
      </trkpt>
      <trkpt lat="45.91748" lon="4.76318">
        <ele>177</ele>
        <time>2017-10-23T09:51:22Z</time>
      </trkpt>
      <trkpt lat="45.91746" lon="4.76319">
        <ele>177</ele>
        <time>2017-10-23T09:51:23Z</time>
      </trkpt>
      <trkpt lat="45.91738" lon="4.76323">
        <ele>177</ele>
        <time>2017-10-23T09:51:27Z</time>
      </trkpt>
      <trkpt lat="45.91736" lon="4.76324">
        <ele>177</ele>
        <time>2017-10-23T09:51:28Z</time>
      </trkpt>
      <trkpt lat="45.91728" lon="4.76327">
        <ele>177</ele>
        <time>2017-10-23T09:51:32Z</time>
      </trkpt>
      <trkpt lat="45.91726" lon="4.76328">
        <ele>177</ele>
        <time>2017-10-23T09:51:33Z</time>
      </trkpt>
      <trkpt lat="45.91718" lon="4.76333">
        <ele>177</ele>
        <time>2017-10-23T09:51:38Z</time>
      </trkpt>
      <trkpt lat="45.91716" lon="4.76333">
        <ele>177</ele>
        <time>2017-10-23T09:51:39Z</time>
      </trkpt>
      <trkpt lat="45.91709" lon="4.76337">
        <ele>177</ele>
        <time>2017-10-23T09:51:44Z</time>
      </trkpt>
      <trkpt lat="45.91707" lon="4.76338">
        <ele>177</ele>
        <time>2017-10-23T09:51:45Z</time>
      </trkpt>
      <trkpt lat="45.91699" lon="4.7634">
        <ele>177</ele>
        <time>2017-10-23T09:51:49Z</time>
      </trkpt>
      <trkpt lat="45.91696" lon="4.76341">
        <ele>177</ele>
        <time>2017-10-23T09:51:50Z</time>
      </trkpt>
      <trkpt lat="45.91687" lon="4.76344">
        <ele>177</ele>
        <time>2017-10-23T09:51:54Z</time>
      </trkpt>
      <trkpt lat="45.91685" lon="4.76344">
        <ele>177</ele>
        <time>2017-10-23T09:51:55Z</time>
      </trkpt>
      <trkpt lat="45.91678" lon="4.76344">
        <ele>177</ele>
        <time>2017-10-23T09:51:58Z</time>
      </trkpt>
      <trkpt lat="45.91675" lon="4.76344">
        <ele>177</ele>
        <time>2017-10-23T09:51:59Z</time>
      </trkpt>
      <trkpt lat="45.91668" lon="4.76342">
        <ele>177</ele>
        <time>2017-10-23T09:52:02Z</time>
      </trkpt>
      <trkpt lat="45.91666" lon="4.76342">
        <ele>177</ele>
        <time>2017-10-23T09:52:03Z</time>
      </trkpt>
      <trkpt lat="45.91657" lon="4.7634">
        <ele>177</ele>
        <time>2017-10-23T09:52:08Z</time>
      </trkpt>
      <trkpt lat="45.91655" lon="4.76339">
        <ele>177</ele>
        <time>2017-10-23T09:52:09Z</time>
      </trkpt>
      <trkpt lat="45.91646" lon="4.76337">
        <ele>177</ele>
        <time>2017-10-23T09:52:13Z</time>
      </trkpt>
      <trkpt lat="45.91644" lon="4.76336">
        <ele>177</ele>
        <time>2017-10-23T09:52:14Z</time>
      </trkpt>
      <trkpt lat="45.91635" lon="4.76337">
        <ele>176</ele>
        <time>2017-10-23T09:52:18Z</time>
      </trkpt>
      <trkpt lat="45.91633" lon="4.76336">
        <ele>176</ele>
        <time>2017-10-23T09:52:19Z</time>
      </trkpt>
      <trkpt lat="45.91625" lon="4.76331">
        <ele>177</ele>
        <time>2017-10-23T09:52:23Z</time>
      </trkpt>
      <trkpt lat="45.91623" lon="4.7633">
        <ele>177</ele>
        <time>2017-10-23T09:52:24Z</time>
      </trkpt>
      <trkpt lat="45.91615" lon="4.76328">
        <ele>177</ele>
        <time>2017-10-23T09:52:28Z</time>
      </trkpt>
      <trkpt lat="45.91613" lon="4.76327">
        <ele>176</ele>
        <time>2017-10-23T09:52:29Z</time>
      </trkpt>
      <trkpt lat="45.91605" lon="4.76324">
        <ele>176</ele>
        <time>2017-10-23T09:52:33Z</time>
      </trkpt>
      <trkpt lat="45.91603" lon="4.76324">
        <ele>176</ele>
        <time>2017-10-23T09:52:34Z</time>
      </trkpt>
      <trkpt lat="45.91594" lon="4.76322">
        <ele>176</ele>
        <time>2017-10-23T09:52:38Z</time>
      </trkpt>
      <trkpt lat="45.91592" lon="4.76321">
        <ele>176</ele>
        <time>2017-10-23T09:52:39Z</time>
      </trkpt>
      <trkpt lat="45.91584" lon="4.76319">
        <ele>176</ele>
        <time>2017-10-23T09:52:43Z</time>
      </trkpt>
      <trkpt lat="45.91582" lon="4.76318">
        <ele>176</ele>
        <time>2017-10-23T09:52:44Z</time>
      </trkpt>
      <trkpt lat="45.91574" lon="4.76315">
        <ele>176</ele>
        <time>2017-10-23T09:52:48Z</time>
      </trkpt>
      <trkpt lat="45.91572" lon="4.76315">
        <ele>176</ele>
        <time>2017-10-23T09:52:49Z</time>
      </trkpt>
      <trkpt lat="45.91564" lon="4.76314">
        <ele>176</ele>
        <time>2017-10-23T09:52:53Z</time>
      </trkpt>
      <trkpt lat="45.91562" lon="4.76313">
        <ele>176</ele>
        <time>2017-10-23T09:52:54Z</time>
      </trkpt>
      <trkpt lat="45.91555" lon="4.76311">
        <ele>177</ele>
        <time>2017-10-23T09:52:58Z</time>
      </trkpt>
      <trkpt lat="45.91553" lon="4.76311">
        <ele>177</ele>
        <time>2017-10-23T09:52:59Z</time>
      </trkpt>
      <trkpt lat="45.91544" lon="4.7631">
        <ele>177</ele>
        <time>2017-10-23T09:53:03Z</time>
      </trkpt>
      <trkpt lat="45.91542" lon="4.7631">
        <ele>177</ele>
        <time>2017-10-23T09:53:04Z</time>
      </trkpt>
      <trkpt lat="45.91534" lon="4.76315">
        <ele>177</ele>
        <time>2017-10-23T09:53:08Z</time>
      </trkpt>
      <trkpt lat="45.91532" lon="4.76317">
        <ele>177</ele>
        <time>2017-10-23T09:53:09Z</time>
      </trkpt>
      <trkpt lat="45.91527" lon="4.76327">
        <ele>177</ele>
        <time>2017-10-23T09:53:13Z</time>
      </trkpt>
      <trkpt lat="45.91525" lon="4.7633">
        <ele>177</ele>
        <time>2017-10-23T09:53:14Z</time>
      </trkpt>
      <trkpt lat="45.91519" lon="4.76339">
        <ele>176</ele>
        <time>2017-10-23T09:53:17Z</time>
      </trkpt>
      <trkpt lat="45.91518" lon="4.76342">
        <ele>176</ele>
        <time>2017-10-23T09:53:18Z</time>
      </trkpt>
      <trkpt lat="45.91514" lon="4.7635">
        <ele>176</ele>
        <time>2017-10-23T09:53:22Z</time>
      </trkpt>
      <trkpt lat="45.91512" lon="4.76353">
        <ele>176</ele>
        <time>2017-10-23T09:53:23Z</time>
      </trkpt>
      <trkpt lat="45.91508" lon="4.76361">
        <ele>176</ele>
        <time>2017-10-23T09:53:25Z</time>
      </trkpt>
      <trkpt lat="45.91506" lon="4.76366">
        <ele>176</ele>
        <time>2017-10-23T09:53:26Z</time>
      </trkpt>
      <trkpt lat="45.91502" lon="4.76374">
        <ele>176</ele>
        <time>2017-10-23T09:53:28Z</time>
      </trkpt>
      <trkpt lat="45.915" lon="4.76378">
        <ele>177</ele>
        <time>2017-10-23T09:53:29Z</time>
      </trkpt>
      <trkpt lat="45.91496" lon="4.76385">
        <ele>177</ele>
        <time>2017-10-23T09:53:31Z</time>
      </trkpt>
      <trkpt lat="45.91494" lon="4.76389">
        <ele>177</ele>
        <time>2017-10-23T09:53:32Z</time>
      </trkpt>
      <trkpt lat="45.9149" lon="4.76397">
        <ele>176</ele>
        <time>2017-10-23T09:53:34Z</time>
      </trkpt>
      <trkpt lat="45.91488" lon="4.76401">
        <ele>176</ele>
        <time>2017-10-23T09:53:35Z</time>
      </trkpt>
      <trkpt lat="45.91483" lon="4.7641">
        <ele>176</ele>
        <time>2017-10-23T09:53:37Z</time>
      </trkpt>
      <trkpt lat="45.91481" lon="4.76414">
        <ele>176</ele>
        <time>2017-10-23T09:53:38Z</time>
      </trkpt>
      <trkpt lat="45.91476" lon="4.76422">
        <ele>176</ele>
        <time>2017-10-23T09:53:40Z</time>
      </trkpt>
      <trkpt lat="45.91474" lon="4.76426">
        <ele>176</ele>
        <time>2017-10-23T09:53:41Z</time>
      </trkpt>
      <trkpt lat="45.91471" lon="4.76433">
        <ele>176</ele>
        <time>2017-10-23T09:53:43Z</time>
      </trkpt>
      <trkpt lat="45.91469" lon="4.76436">
        <ele>176</ele>
        <time>2017-10-23T09:53:44Z</time>
      </trkpt>
      <trkpt lat="45.91463" lon="4.76445">
        <ele>177</ele>
        <time>2017-10-23T09:53:46Z</time>
      </trkpt>
      <trkpt lat="45.9146" lon="4.76451">
        <ele>177</ele>
        <time>2017-10-23T09:53:47Z</time>
      </trkpt>
      <trkpt lat="45.91455" lon="4.7646">
        <ele>177</ele>
        <time>2017-10-23T09:53:49Z</time>
      </trkpt>
      <trkpt lat="45.91453" lon="4.76464">
        <ele>177</ele>
        <time>2017-10-23T09:53:50Z</time>
      </trkpt>
      <trkpt lat="45.91448" lon="4.76472">
        <ele>177</ele>
        <time>2017-10-23T09:53:52Z</time>
      </trkpt>
      <trkpt lat="45.91446" lon="4.76475">
        <ele>177</ele>
        <time>2017-10-23T09:53:53Z</time>
      </trkpt>
      <trkpt lat="45.91442" lon="4.76482">
        <ele>177</ele>
        <time>2017-10-23T09:53:55Z</time>
      </trkpt>
      <trkpt lat="45.91441" lon="4.76486">
        <ele>177</ele>
        <time>2017-10-23T09:53:56Z</time>
      </trkpt>
      <trkpt lat="45.91436" lon="4.76495">
        <ele>177</ele>
        <time>2017-10-23T09:53:58Z</time>
      </trkpt>
      <trkpt lat="45.91433" lon="4.765">
        <ele>177</ele>
        <time>2017-10-23T09:53:59Z</time>
      </trkpt>
      <trkpt lat="45.91428" lon="4.7651">
        <ele>177</ele>
        <time>2017-10-23T09:54:01Z</time>
      </trkpt>
      <trkpt lat="45.91426" lon="4.76515">
        <ele>177</ele>
        <time>2017-10-23T09:54:02Z</time>
      </trkpt>
      <trkpt lat="45.91421" lon="4.76523">
        <ele>177</ele>
        <time>2017-10-23T09:54:04Z</time>
      </trkpt>
      <trkpt lat="45.91418" lon="4.76529">
        <ele>177</ele>
        <time>2017-10-23T09:54:05Z</time>
      </trkpt>
      <trkpt lat="45.91415" lon="4.76534">
        <ele>177</ele>
        <time>2017-10-23T09:54:06Z</time>
      </trkpt>
      <trkpt lat="45.91412" lon="4.7654">
        <ele>177</ele>
        <time>2017-10-23T09:54:07Z</time>
      </trkpt>
      <trkpt lat="45.91407" lon="4.7655">
        <ele>177</ele>
        <time>2017-10-23T09:54:09Z</time>
      </trkpt>
      <trkpt lat="45.91405" lon="4.76555">
        <ele>177</ele>
        <time>2017-10-23T09:54:10Z</time>
      </trkpt>
      <trkpt lat="45.91399" lon="4.76564">
        <ele>177</ele>
        <time>2017-10-23T09:54:12Z</time>
      </trkpt>
      <trkpt lat="45.91397" lon="4.76568">
        <ele>177</ele>
        <time>2017-10-23T09:54:13Z</time>
      </trkpt>
      <trkpt lat="45.91393" lon="4.76576">
        <ele>177</ele>
        <time>2017-10-23T09:54:15Z</time>
      </trkpt>
      <trkpt lat="45.91391" lon="4.7658">
        <ele>177</ele>
        <time>2017-10-23T09:54:16Z</time>
      </trkpt>
      <trkpt lat="45.91387" lon="4.76588">
        <ele>176</ele>
        <time>2017-10-23T09:54:18Z</time>
      </trkpt>
      <trkpt lat="45.91384" lon="4.76593">
        <ele>176</ele>
        <time>2017-10-23T09:54:19Z</time>
      </trkpt>
      <trkpt lat="45.9138" lon="4.76598">
        <ele>176</ele>
        <time>2017-10-23T09:54:20Z</time>
      </trkpt>
      <trkpt lat="45.91377" lon="4.76603">
        <ele>176</ele>
        <time>2017-10-23T09:54:21Z</time>
      </trkpt>
      <trkpt lat="45.91374" lon="4.76609">
        <ele>176</ele>
        <time>2017-10-23T09:54:22Z</time>
      </trkpt>
      <trkpt lat="45.91372" lon="4.76614">
        <ele>176</ele>
        <time>2017-10-23T09:54:23Z</time>
      </trkpt>
      <trkpt lat="45.91369" lon="4.76619">
        <ele>176</ele>
        <time>2017-10-23T09:54:24Z</time>
      </trkpt>
      <trkpt lat="45.91366" lon="4.76625">
        <ele>176</ele>
        <time>2017-10-23T09:54:25Z</time>
      </trkpt>
      <trkpt lat="45.91362" lon="4.76635">
        <ele>176</ele>
        <time>2017-10-23T09:54:27Z</time>
      </trkpt>
      <trkpt lat="45.91359" lon="4.76639">
        <ele>176</ele>
        <time>2017-10-23T09:54:28Z</time>
      </trkpt>
      <trkpt lat="45.91355" lon="4.76648">
        <ele>176</ele>
        <time>2017-10-23T09:54:30Z</time>
      </trkpt>
      <trkpt lat="45.91353" lon="4.76652">
        <ele>176</ele>
        <time>2017-10-23T09:54:31Z</time>
      </trkpt>
      <trkpt lat="45.91348" lon="4.76662">
        <ele>176</ele>
        <time>2017-10-23T09:54:33Z</time>
      </trkpt>
      <trkpt lat="45.91345" lon="4.76666">
        <ele>176</ele>
        <time>2017-10-23T09:54:34Z</time>
      </trkpt>
      <trkpt lat="45.9134" lon="4.76675">
        <ele>176</ele>
        <time>2017-10-23T09:54:36Z</time>
      </trkpt>
      <trkpt lat="45.91337" lon="4.7668">
        <ele>176</ele>
        <time>2017-10-23T09:54:37Z</time>
      </trkpt>
      <trkpt lat="45.91332" lon="4.76689">
        <ele>176</ele>
        <time>2017-10-23T09:54:39Z</time>
      </trkpt>
      <trkpt lat="45.91331" lon="4.76694">
        <ele>176</ele>
        <time>2017-10-23T09:54:40Z</time>
      </trkpt>
      <trkpt lat="45.91329" lon="4.76701">
        <ele>176</ele>
        <time>2017-10-23T09:54:41Z</time>
      </trkpt>
      <trkpt lat="45.91329" lon="4.76707">
        <ele>176</ele>
        <time>2017-10-23T09:54:42Z</time>
      </trkpt>
      <trkpt lat="45.91328" lon="4.76718">
        <ele>176</ele>
        <time>2017-10-23T09:54:44Z</time>
      </trkpt>
      <trkpt lat="45.91327" lon="4.76724">
        <ele>176</ele>
        <time>2017-10-23T09:54:45Z</time>
      </trkpt>
      <trkpt lat="45.91327" lon="4.76736">
        <ele>176</ele>
        <time>2017-10-23T09:54:47Z</time>
      </trkpt>
      <trkpt lat="45.91327" lon="4.76742">
        <ele>176</ele>
        <time>2017-10-23T09:54:48Z</time>
      </trkpt>
      <trkpt lat="45.91326" lon="4.76749">
        <ele>176</ele>
        <time>2017-10-23T09:54:49Z</time>
      </trkpt>
      <trkpt lat="45.91325" lon="4.76756">
        <ele>176</ele>
        <time>2017-10-23T09:54:50Z</time>
      </trkpt>
      <trkpt lat="45.91325" lon="4.76763">
        <ele>176</ele>
        <time>2017-10-23T09:54:51Z</time>
      </trkpt>
      <trkpt lat="45.91325" lon="4.76769">
        <ele>176</ele>
        <time>2017-10-23T09:54:52Z</time>
      </trkpt>
      <trkpt lat="45.91324" lon="4.76782">
        <ele>175</ele>
        <time>2017-10-23T09:54:54Z</time>
      </trkpt>
      <trkpt lat="45.91324" lon="4.76788">
        <ele>175</ele>
        <time>2017-10-23T09:54:55Z</time>
      </trkpt>
      <trkpt lat="45.91323" lon="4.76801">
        <ele>175</ele>
        <time>2017-10-23T09:54:57Z</time>
      </trkpt>
      <trkpt lat="45.91322" lon="4.76807">
        <ele>175</ele>
        <time>2017-10-23T09:54:58Z</time>
      </trkpt>
      <trkpt lat="45.91322" lon="4.76814">
        <ele>175</ele>
        <time>2017-10-23T09:54:59Z</time>
      </trkpt>
      <trkpt lat="45.91322" lon="4.76821">
        <ele>175</ele>
        <time>2017-10-23T09:55:00Z</time>
      </trkpt>
      <trkpt lat="45.91321" lon="4.76828">
        <ele>175</ele>
        <time>2017-10-23T09:55:01Z</time>
      </trkpt>
      <trkpt lat="45.91321" lon="4.76835">
        <ele>174</ele>
        <time>2017-10-23T09:55:02Z</time>
      </trkpt>
      <trkpt lat="45.9132" lon="4.76847">
        <ele>175</ele>
        <time>2017-10-23T09:55:04Z</time>
      </trkpt>
      <trkpt lat="45.9132" lon="4.76853">
        <ele>175</ele>
        <time>2017-10-23T09:55:05Z</time>
      </trkpt>
      <trkpt lat="45.91319" lon="4.7686">
        <ele>175</ele>
        <time>2017-10-23T09:55:06Z</time>
      </trkpt>
      <trkpt lat="45.91318" lon="4.76866">
        <ele>175</ele>
        <time>2017-10-23T09:55:07Z</time>
      </trkpt>
      <trkpt lat="45.91319" lon="4.76877">
        <ele>175</ele>
        <time>2017-10-23T09:55:09Z</time>
      </trkpt>
      <trkpt lat="45.91318" lon="4.76884">
        <ele>175</ele>
        <time>2017-10-23T09:55:10Z</time>
      </trkpt>
      <trkpt lat="45.91318" lon="4.76891">
        <ele>175</ele>
        <time>2017-10-23T09:55:11Z</time>
      </trkpt>
      <trkpt lat="45.91318" lon="4.76898">
        <ele>175</ele>
        <time>2017-10-23T09:55:12Z</time>
      </trkpt>
      <trkpt lat="45.91318" lon="4.76907">
        <ele>175</ele>
        <time>2017-10-23T09:55:13Z</time>
      </trkpt>
      <trkpt lat="45.91318" lon="4.76915">
        <ele>175</ele>
        <time>2017-10-23T09:55:14Z</time>
      </trkpt>
      <trkpt lat="45.91319" lon="4.76923">
        <ele>175</ele>
        <time>2017-10-23T09:55:15Z</time>
      </trkpt>
      <trkpt lat="45.91318" lon="4.76931">
        <ele>175</ele>
        <time>2017-10-23T09:55:16Z</time>
      </trkpt>
      <trkpt lat="45.91317" lon="4.7694">
        <ele>175</ele>
        <time>2017-10-23T09:55:17Z</time>
      </trkpt>
      <trkpt lat="45.91317" lon="4.76948">
        <ele>175</ele>
        <time>2017-10-23T09:55:18Z</time>
      </trkpt>
      <trkpt lat="45.91317" lon="4.76955">
        <ele>175</ele>
        <time>2017-10-23T09:55:19Z</time>
      </trkpt>
      <trkpt lat="45.91318" lon="4.76963">
        <ele>175</ele>
        <time>2017-10-23T09:55:20Z</time>
      </trkpt>
      <trkpt lat="45.91318" lon="4.76976">
        <ele>175</ele>
        <time>2017-10-23T09:55:22Z</time>
      </trkpt>
      <trkpt lat="45.91319" lon="4.76982">
        <ele>175</ele>
        <time>2017-10-23T09:55:23Z</time>
      </trkpt>
      <trkpt lat="45.91321" lon="4.76993">
        <ele>176</ele>
        <time>2017-10-23T09:55:25Z</time>
      </trkpt>
      <trkpt lat="45.91322" lon="4.76998">
        <ele>176</ele>
        <time>2017-10-23T09:55:26Z</time>
      </trkpt>
      <trkpt lat="45.91324" lon="4.77008">
        <ele>176</ele>
        <time>2017-10-23T09:55:28Z</time>
      </trkpt>
      <trkpt lat="45.91325" lon="4.77013">
        <ele>176</ele>
        <time>2017-10-23T09:55:29Z</time>
      </trkpt>
      <trkpt lat="45.91328" lon="4.77025">
        <ele>176</ele>
        <time>2017-10-23T09:55:31Z</time>
      </trkpt>
      <trkpt lat="45.9133" lon="4.77031">
        <ele>176</ele>
        <time>2017-10-23T09:55:32Z</time>
      </trkpt>
      <trkpt lat="45.91331" lon="4.77037">
        <ele>176</ele>
        <time>2017-10-23T09:55:33Z</time>
      </trkpt>
      <trkpt lat="45.91334" lon="4.77046">
        <ele>176</ele>
        <time>2017-10-23T09:55:34Z</time>
      </trkpt>
      <trkpt lat="45.91336" lon="4.77054">
        <ele>176</ele>
        <time>2017-10-23T09:55:35Z</time>
      </trkpt>
      <trkpt lat="45.91338" lon="4.77062">
        <ele>176</ele>
        <time>2017-10-23T09:55:36Z</time>
      </trkpt>
      <trkpt lat="45.9134" lon="4.77068">
        <ele>177</ele>
        <time>2017-10-23T09:55:37Z</time>
      </trkpt>
      <trkpt lat="45.91342" lon="4.77076">
        <ele>177</ele>
        <time>2017-10-23T09:55:38Z</time>
      </trkpt>
      <trkpt lat="45.91343" lon="4.77083">
        <ele>177</ele>
        <time>2017-10-23T09:55:39Z</time>
      </trkpt>
      <trkpt lat="45.91343" lon="4.77089">
        <ele>177</ele>
        <time>2017-10-23T09:55:40Z</time>
      </trkpt>
      <trkpt lat="45.91347" lon="4.771">
        <ele>177</ele>
        <time>2017-10-23T09:55:42Z</time>
      </trkpt>
      <trkpt lat="45.91348" lon="4.77106">
        <ele>177</ele>
        <time>2017-10-23T09:55:43Z</time>
      </trkpt>
      <trkpt lat="45.9135" lon="4.77117">
        <ele>177</ele>
        <time>2017-10-23T09:55:45Z</time>
      </trkpt>
      <trkpt lat="45.91351" lon="4.77123">
        <ele>177</ele>
        <time>2017-10-23T09:55:46Z</time>
      </trkpt>
      <trkpt lat="45.91353" lon="4.7713">
        <ele>177</ele>
        <time>2017-10-23T09:55:47Z</time>
      </trkpt>
      <trkpt lat="45.91354" lon="4.77136">
        <ele>177</ele>
        <time>2017-10-23T09:55:48Z</time>
      </trkpt>
      <trkpt lat="45.91355" lon="4.77149">
        <ele>177</ele>
        <time>2017-10-23T09:55:50Z</time>
      </trkpt>
      <trkpt lat="45.91357" lon="4.77155">
        <ele>177</ele>
        <time>2017-10-23T09:55:51Z</time>
      </trkpt>
      <trkpt lat="45.91358" lon="4.77161">
        <ele>177</ele>
        <time>2017-10-23T09:55:52Z</time>
      </trkpt>
      <trkpt lat="45.9136" lon="4.77168">
        <ele>176</ele>
        <time>2017-10-23T09:55:53Z</time>
      </trkpt>
      <trkpt lat="45.91362" lon="4.7718">
        <ele>176</ele>
        <time>2017-10-23T09:55:55Z</time>
      </trkpt>
      <trkpt lat="45.91364" lon="4.77186">
        <ele>176</ele>
        <time>2017-10-23T09:55:56Z</time>
      </trkpt>
      <trkpt lat="45.91365" lon="4.77192">
        <ele>176</ele>
        <time>2017-10-23T09:55:57Z</time>
      </trkpt>
      <trkpt lat="45.91367" lon="4.77198">
        <ele>176</ele>
        <time>2017-10-23T09:55:58Z</time>
      </trkpt>
      <trkpt lat="45.91368" lon="4.77205">
        <ele>176</ele>
        <time>2017-10-23T09:55:59Z</time>
      </trkpt>
      <trkpt lat="45.91368" lon="4.77213">
        <ele>176</ele>
        <time>2017-10-23T09:56:00Z</time>
      </trkpt>
      <trkpt lat="45.91369" lon="4.7722">
        <ele>176</ele>
        <time>2017-10-23T09:56:01Z</time>
      </trkpt>
      <trkpt lat="45.91371" lon="4.77226">
        <ele>176</ele>
        <time>2017-10-23T09:56:02Z</time>
      </trkpt>
      <trkpt lat="45.91372" lon="4.77234">
        <ele>176</ele>
        <time>2017-10-23T09:56:03Z</time>
      </trkpt>
      <trkpt lat="45.91375" lon="4.77241">
        <ele>176</ele>
        <time>2017-10-23T09:56:04Z</time>
      </trkpt>
      <trkpt lat="45.91376" lon="4.77253">
        <ele>175</ele>
        <time>2017-10-23T09:56:06Z</time>
      </trkpt>
      <trkpt lat="45.91377" lon="4.77262">
        <ele>175</ele>
        <time>2017-10-23T09:56:07Z</time>
      </trkpt>
      <trkpt lat="45.9138" lon="4.77267">
        <ele>175</ele>
        <time>2017-10-23T09:56:08Z</time>
      </trkpt>
      <trkpt lat="45.91381" lon="4.77275">
        <ele>175</ele>
        <time>2017-10-23T09:56:09Z</time>
      </trkpt>
      <trkpt lat="45.91381" lon="4.77286">
        <ele>175</ele>
        <time>2017-10-23T09:56:11Z</time>
      </trkpt>
      <trkpt lat="45.91382" lon="4.77293">
        <ele>175</ele>
        <time>2017-10-23T09:56:12Z</time>
      </trkpt>
      <trkpt lat="45.91382" lon="4.77306">
        <ele>175</ele>
        <time>2017-10-23T09:56:14Z</time>
      </trkpt>
      <trkpt lat="45.91382" lon="4.77312">
        <ele>175</ele>
        <time>2017-10-23T09:56:15Z</time>
      </trkpt>
      <trkpt lat="45.91382" lon="4.77324">
        <ele>175</ele>
        <time>2017-10-23T09:56:17Z</time>
      </trkpt>
      <trkpt lat="45.91382" lon="4.7733">
        <ele>175</ele>
        <time>2017-10-23T09:56:18Z</time>
      </trkpt>
      <trkpt lat="45.91382" lon="4.77341">
        <ele>175</ele>
        <time>2017-10-23T09:56:20Z</time>
      </trkpt>
      <trkpt lat="45.91382" lon="4.77346">
        <ele>175</ele>
        <time>2017-10-23T09:56:21Z</time>
      </trkpt>
      <trkpt lat="45.91383" lon="4.77358">
        <ele>174</ele>
        <time>2017-10-23T09:56:23Z</time>
      </trkpt>
      <trkpt lat="45.91384" lon="4.77365">
        <ele>174</ele>
        <time>2017-10-23T09:56:24Z</time>
      </trkpt>
      <trkpt lat="45.91384" lon="4.77373">
        <ele>174</ele>
        <time>2017-10-23T09:56:25Z</time>
      </trkpt>
      <trkpt lat="45.91384" lon="4.77381">
        <ele>174</ele>
        <time>2017-10-23T09:56:26Z</time>
      </trkpt>
      <trkpt lat="45.91384" lon="4.77387">
        <ele>174</ele>
        <time>2017-10-23T09:56:27Z</time>
      </trkpt>
      <trkpt lat="45.91383" lon="4.77394">
        <ele>174</ele>
        <time>2017-10-23T09:56:28Z</time>
      </trkpt>
      <trkpt lat="45.91384" lon="4.77407">
        <ele>174</ele>
        <time>2017-10-23T09:56:30Z</time>
      </trkpt>
      <trkpt lat="45.91383" lon="4.77412">
        <ele>174</ele>
        <time>2017-10-23T09:56:31Z</time>
      </trkpt>
      <trkpt lat="45.91383" lon="4.77425">
        <ele>174</ele>
        <time>2017-10-23T09:56:33Z</time>
      </trkpt>
      <trkpt lat="45.91385" lon="4.7743">
        <ele>174</ele>
        <time>2017-10-23T09:56:34Z</time>
      </trkpt>
      <trkpt lat="45.91385" lon="4.77441">
        <ele>174</ele>
        <time>2017-10-23T09:56:36Z</time>
      </trkpt>
      <trkpt lat="45.91385" lon="4.77448">
        <ele>174</ele>
        <time>2017-10-23T09:56:37Z</time>
      </trkpt>
      <trkpt lat="45.91385" lon="4.77454">
        <ele>174</ele>
        <time>2017-10-23T09:56:38Z</time>
      </trkpt>
      <trkpt lat="45.91385" lon="4.77461">
        <ele>174</ele>
        <time>2017-10-23T09:56:39Z</time>
      </trkpt>
      <trkpt lat="45.91386" lon="4.77468">
        <ele>174</ele>
        <time>2017-10-23T09:56:40Z</time>
      </trkpt>
      <trkpt lat="45.91386" lon="4.77476">
        <ele>174</ele>
        <time>2017-10-23T09:56:41Z</time>
      </trkpt>
      <trkpt lat="45.91387" lon="4.77485">
        <ele>174</ele>
        <time>2017-10-23T09:56:42Z</time>
      </trkpt>
      <trkpt lat="45.91388" lon="4.77493">
        <ele>174</ele>
        <time>2017-10-23T09:56:43Z</time>
      </trkpt>
      <trkpt lat="45.91388" lon="4.775">
        <ele>174</ele>
        <time>2017-10-23T09:56:44Z</time>
      </trkpt>
      <trkpt lat="45.91388" lon="4.77507">
        <ele>174</ele>
        <time>2017-10-23T09:56:45Z</time>
      </trkpt>
      <trkpt lat="45.91389" lon="4.77513">
        <ele>174</ele>
        <time>2017-10-23T09:56:46Z</time>
      </trkpt>
      <trkpt lat="45.91389" lon="4.7752">
        <ele>174</ele>
        <time>2017-10-23T09:56:47Z</time>
      </trkpt>
      <trkpt lat="45.9139" lon="4.77528">
        <ele>174</ele>
        <time>2017-10-23T09:56:48Z</time>
      </trkpt>
      <trkpt lat="45.91391" lon="4.77535">
        <ele>174</ele>
        <time>2017-10-23T09:56:49Z</time>
      </trkpt>
      <trkpt lat="45.91392" lon="4.77543">
        <ele>174</ele>
        <time>2017-10-23T09:56:50Z</time>
      </trkpt>
      <trkpt lat="45.91393" lon="4.77551">
        <ele>174</ele>
        <time>2017-10-23T09:56:51Z</time>
      </trkpt>
      <trkpt lat="45.91393" lon="4.77557">
        <ele>174</ele>
        <time>2017-10-23T09:56:52Z</time>
      </trkpt>
      <trkpt lat="45.91393" lon="4.77564">
        <ele>174</ele>
        <time>2017-10-23T09:56:53Z</time>
      </trkpt>
      <trkpt lat="45.91395" lon="4.77575">
        <ele>174</ele>
        <time>2017-10-23T09:56:55Z</time>
      </trkpt>
      <trkpt lat="45.91395" lon="4.7758">
        <ele>174</ele>
        <time>2017-10-23T09:56:56Z</time>
      </trkpt>
      <trkpt lat="45.91395" lon="4.77586">
        <ele>174</ele>
        <time>2017-10-23T09:56:57Z</time>
      </trkpt>
      <trkpt lat="45.91398" lon="4.77593">
        <ele>174</ele>
        <time>2017-10-23T09:56:58Z</time>
      </trkpt>
      <trkpt lat="45.91397" lon="4.77605">
        <ele>174</ele>
        <time>2017-10-23T09:57:00Z</time>
      </trkpt>
      <trkpt lat="45.91398" lon="4.7761">
        <ele>174</ele>
        <time>2017-10-23T09:57:01Z</time>
      </trkpt>
      <trkpt lat="45.91399" lon="4.77617">
        <ele>175</ele>
        <time>2017-10-23T09:57:02Z</time>
      </trkpt>
      <trkpt lat="45.914" lon="4.77623">
        <ele>175</ele>
        <time>2017-10-23T09:57:03Z</time>
      </trkpt>
      <trkpt lat="45.91398" lon="4.77633">
        <ele>175</ele>
        <time>2017-10-23T09:57:06Z</time>
      </trkpt>
      <trkpt lat="45.91399" lon="4.77639">
        <ele>175</ele>
        <time>2017-10-23T09:57:07Z</time>
      </trkpt>
      <trkpt lat="45.91402" lon="4.77648">
        <ele>175</ele>
        <time>2017-10-23T09:57:09Z</time>
      </trkpt>
      <trkpt lat="45.91403" lon="4.77652">
        <ele>175</ele>
        <time>2017-10-23T09:57:10Z</time>
      </trkpt>
      <trkpt lat="45.91405" lon="4.77661">
        <ele>175</ele>
        <time>2017-10-23T09:57:12Z</time>
      </trkpt>
      <trkpt lat="45.91405" lon="4.77665">
        <ele>175</ele>
        <time>2017-10-23T09:57:13Z</time>
      </trkpt>
      <trkpt lat="45.91407" lon="4.77674">
        <ele>176</ele>
        <time>2017-10-23T09:57:15Z</time>
      </trkpt>
      <trkpt lat="45.91409" lon="4.77678">
        <ele>176</ele>
        <time>2017-10-23T09:57:16Z</time>
      </trkpt>
      <trkpt lat="45.91412" lon="4.77688">
        <ele>176</ele>
        <time>2017-10-23T09:57:18Z</time>
      </trkpt>
      <trkpt lat="45.91413" lon="4.77692">
        <ele>176</ele>
        <time>2017-10-23T09:57:19Z</time>
      </trkpt>
      <trkpt lat="45.91415" lon="4.77701">
        <ele>176</ele>
        <time>2017-10-23T09:57:21Z</time>
      </trkpt>
      <trkpt lat="45.91415" lon="4.77705">
        <ele>176</ele>
        <time>2017-10-23T09:57:22Z</time>
      </trkpt>
      <trkpt lat="45.91409" lon="4.77714">
        <ele>177</ele>
        <time>2017-10-23T09:57:25Z</time>
      </trkpt>
      <trkpt lat="45.91407" lon="4.77717">
        <ele>177</ele>
        <time>2017-10-23T09:57:26Z</time>
      </trkpt>
      <trkpt lat="45.914" lon="4.7772">
        <ele>177</ele>
        <time>2017-10-23T09:57:28Z</time>
      </trkpt>
      <trkpt lat="45.91396" lon="4.7772">
        <ele>177</ele>
        <time>2017-10-23T09:57:29Z</time>
      </trkpt>
      <trkpt lat="45.91389" lon="4.77719">
        <ele>177</ele>
        <time>2017-10-23T09:57:31Z</time>
      </trkpt>
      <trkpt lat="45.91386" lon="4.7772">
        <ele>177</ele>
        <time>2017-10-23T09:57:32Z</time>
      </trkpt>
      <trkpt lat="45.91379" lon="4.77725">
        <ele>177</ele>
        <time>2017-10-23T09:57:37Z</time>
      </trkpt>
      <trkpt lat="45.91377" lon="4.77725">
        <ele>177</ele>
        <time>2017-10-23T09:57:38Z</time>
      </trkpt>
      <trkpt lat="45.91371" lon="4.7772">
        <ele>176</ele>
        <time>2017-10-23T09:57:40Z</time>
      </trkpt>
      <trkpt lat="45.91367" lon="4.77719">
        <ele>176</ele>
        <time>2017-10-23T09:57:41Z</time>
      </trkpt>
      <trkpt lat="45.91361" lon="4.77719">
        <ele>176</ele>
        <time>2017-10-23T09:57:42Z</time>
      </trkpt>
      <trkpt lat="45.91356" lon="4.77718">
        <ele>176</ele>
        <time>2017-10-23T09:57:43Z</time>
      </trkpt>
      <trkpt lat="45.91351" lon="4.77718">
        <ele>176</ele>
        <time>2017-10-23T09:57:44Z</time>
      </trkpt>
      <trkpt lat="45.91346" lon="4.77718">
        <ele>176</ele>
        <time>2017-10-23T09:57:45Z</time>
      </trkpt>
      <trkpt lat="45.91337" lon="4.77718">
        <ele>176</ele>
        <time>2017-10-23T09:57:47Z</time>
      </trkpt>
      <trkpt lat="45.91332" lon="4.77717">
        <ele>176</ele>
        <time>2017-10-23T09:57:48Z</time>
      </trkpt>
      <trkpt lat="45.91325" lon="4.77714">
        <ele>176</ele>
        <time>2017-10-23T09:57:50Z</time>
      </trkpt>
      <trkpt lat="45.91321" lon="4.77713">
        <ele>176</ele>
        <time>2017-10-23T09:57:51Z</time>
      </trkpt>
      <trkpt lat="45.91315" lon="4.7771">
        <ele>176</ele>
        <time>2017-10-23T09:57:53Z</time>
      </trkpt>
      <trkpt lat="45.91311" lon="4.77709">
        <ele>176</ele>
        <time>2017-10-23T09:57:54Z</time>
      </trkpt>
      <trkpt lat="45.91305" lon="4.77705">
        <ele>176</ele>
        <time>2017-10-23T09:57:56Z</time>
      </trkpt>
      <trkpt lat="45.91302" lon="4.77703">
        <ele>176</ele>
        <time>2017-10-23T09:57:57Z</time>
      </trkpt>
      <trkpt lat="45.91298" lon="4.77702">
        <ele>176</ele>
        <time>2017-10-23T09:57:58Z</time>
      </trkpt>
      <trkpt lat="45.91293" lon="4.77701">
        <ele>176</ele>
        <time>2017-10-23T09:57:59Z</time>
      </trkpt>
      <trkpt lat="45.91288" lon="4.77698">
        <ele>176</ele>
        <time>2017-10-23T09:58:00Z</time>
      </trkpt>
      <trkpt lat="45.91284" lon="4.77697">
        <ele>176</ele>
        <time>2017-10-23T09:58:01Z</time>
      </trkpt>
      <trkpt lat="45.9128" lon="4.77694">
        <ele>176</ele>
        <time>2017-10-23T09:58:02Z</time>
      </trkpt>
      <trkpt lat="45.91275" lon="4.7769">
        <ele>176</ele>
        <time>2017-10-23T09:58:03Z</time>
      </trkpt>
      <trkpt lat="45.9127" lon="4.77687">
        <ele>176</ele>
        <time>2017-10-23T09:58:04Z</time>
      </trkpt>
      <trkpt lat="45.91266" lon="4.77684">
        <ele>176</ele>
        <time>2017-10-23T09:58:05Z</time>
      </trkpt>
      <trkpt lat="45.91257" lon="4.7768">
        <ele>175</ele>
        <time>2017-10-23T09:58:07Z</time>
      </trkpt>
      <trkpt lat="45.91253" lon="4.77679">
        <ele>175</ele>
        <time>2017-10-23T09:58:08Z</time>
      </trkpt>
      <trkpt lat="45.91244" lon="4.7768">
        <ele>176</ele>
        <time>2017-10-23T09:58:10Z</time>
      </trkpt>
      <trkpt lat="45.9124" lon="4.77682">
        <ele>176</ele>
        <time>2017-10-23T09:58:11Z</time>
      </trkpt>
      <trkpt lat="45.91236" lon="4.77683">
        <ele>176</ele>
        <time>2017-10-23T09:58:12Z</time>
      </trkpt>
      <trkpt lat="45.91231" lon="4.77684">
        <ele>176</ele>
        <time>2017-10-23T09:58:13Z</time>
      </trkpt>
      <trkpt lat="45.91223" lon="4.77687">
        <ele>176</ele>
        <time>2017-10-23T09:58:15Z</time>
      </trkpt>
      <trkpt lat="45.91219" lon="4.77688">
        <ele>176</ele>
        <time>2017-10-23T09:58:16Z</time>
      </trkpt>
      <trkpt lat="45.91214" lon="4.7769">
        <ele>176</ele>
        <time>2017-10-23T09:58:17Z</time>
      </trkpt>
      <trkpt lat="45.9121" lon="4.77691">
        <ele>176</ele>
        <time>2017-10-23T09:58:18Z</time>
      </trkpt>
      <trkpt lat="45.91205" lon="4.77692">
        <ele>176</ele>
        <time>2017-10-23T09:58:19Z</time>
      </trkpt>
      <trkpt lat="45.912" lon="4.77693">
        <ele>176</ele>
        <time>2017-10-23T09:58:20Z</time>
      </trkpt>
      <trkpt lat="45.91193" lon="4.77696">
        <ele>176</ele>
        <time>2017-10-23T09:58:22Z</time>
      </trkpt>
      <trkpt lat="45.91189" lon="4.77697">
        <ele>176</ele>
        <time>2017-10-23T09:58:23Z</time>
      </trkpt>
      <trkpt lat="45.91183" lon="4.77699">
        <ele>176</ele>
        <time>2017-10-23T09:58:25Z</time>
      </trkpt>
      <trkpt lat="45.9118" lon="4.77699">
        <ele>176</ele>
        <time>2017-10-23T09:58:26Z</time>
      </trkpt>
      <trkpt lat="45.91173" lon="4.77702">
        <ele>176</ele>
        <time>2017-10-23T09:58:28Z</time>
      </trkpt>
      <trkpt lat="45.91169" lon="4.77704">
        <ele>176</ele>
        <time>2017-10-23T09:58:29Z</time>
      </trkpt>
      <trkpt lat="45.91161" lon="4.77707">
        <ele>177</ele>
        <time>2017-10-23T09:58:31Z</time>
      </trkpt>
      <trkpt lat="45.91157" lon="4.77709">
        <ele>177</ele>
        <time>2017-10-23T09:58:32Z</time>
      </trkpt>
      <trkpt lat="45.9115" lon="4.77713">
        <ele>177</ele>
        <time>2017-10-23T09:58:34Z</time>
      </trkpt>
      <trkpt lat="45.91146" lon="4.77715">
        <ele>177</ele>
        <time>2017-10-23T09:58:35Z</time>
      </trkpt>
      <trkpt lat="45.91138" lon="4.77718">
        <ele>177</ele>
        <time>2017-10-23T09:58:37Z</time>
      </trkpt>
      <trkpt lat="45.91134" lon="4.77719">
        <ele>177</ele>
        <time>2017-10-23T09:58:38Z</time>
      </trkpt>
      <trkpt lat="45.91125" lon="4.77721">
        <ele>177</ele>
        <time>2017-10-23T09:58:40Z</time>
      </trkpt>
      <trkpt lat="45.91121" lon="4.77722">
        <ele>177</ele>
        <time>2017-10-23T09:58:41Z</time>
      </trkpt>
      <trkpt lat="45.91113" lon="4.77727">
        <ele>178</ele>
        <time>2017-10-23T09:58:43Z</time>
      </trkpt>
      <trkpt lat="45.9111" lon="4.7773">
        <ele>178</ele>
        <time>2017-10-23T09:58:44Z</time>
      </trkpt>
      <trkpt lat="45.91103" lon="4.77735">
        <ele>178</ele>
        <time>2017-10-23T09:58:46Z</time>
      </trkpt>
      <trkpt lat="45.911" lon="4.77736">
        <ele>178</ele>
        <time>2017-10-23T09:58:47Z</time>
      </trkpt>
      <trkpt lat="45.91093" lon="4.77741">
        <ele>178</ele>
        <time>2017-10-23T09:58:49Z</time>
      </trkpt>
      <trkpt lat="45.91089" lon="4.77742">
        <ele>178</ele>
        <time>2017-10-23T09:58:50Z</time>
      </trkpt>
      <trkpt lat="45.91084" lon="4.77745">
        <ele>179</ele>
        <time>2017-10-23T09:58:51Z</time>
      </trkpt>
      <trkpt lat="45.91079" lon="4.77748">
        <ele>179</ele>
        <time>2017-10-23T09:58:52Z</time>
      </trkpt>
      <trkpt lat="45.91075" lon="4.77752">
        <ele>179</ele>
        <time>2017-10-23T09:58:53Z</time>
      </trkpt>
      <trkpt lat="45.91071" lon="4.77754">
        <ele>179</ele>
        <time>2017-10-23T09:58:54Z</time>
      </trkpt>
      <trkpt lat="45.91064" lon="4.77758">
        <ele>178</ele>
        <time>2017-10-23T09:58:56Z</time>
      </trkpt>
      <trkpt lat="45.9106" lon="4.7776">
        <ele>178</ele>
        <time>2017-10-23T09:58:57Z</time>
      </trkpt>
      <trkpt lat="45.91055" lon="4.77762">
        <ele>178</ele>
        <time>2017-10-23T09:58:58Z</time>
      </trkpt>
      <trkpt lat="45.91051" lon="4.77765">
        <ele>178</ele>
        <time>2017-10-23T09:58:59Z</time>
      </trkpt>
      <trkpt lat="45.91047" lon="4.77767">
        <ele>178</ele>
        <time>2017-10-23T09:59:00Z</time>
      </trkpt>
      <trkpt lat="45.91042" lon="4.77769">
        <ele>178</ele>
        <time>2017-10-23T09:59:01Z</time>
      </trkpt>
      <trkpt lat="45.91038" lon="4.77771">
        <ele>178</ele>
        <time>2017-10-23T09:59:02Z</time>
      </trkpt>
      <trkpt lat="45.91033" lon="4.77772">
        <ele>178</ele>
        <time>2017-10-23T09:59:03Z</time>
      </trkpt>
      <trkpt lat="45.91028" lon="4.77774">
        <ele>178</ele>
        <time>2017-10-23T09:59:04Z</time>
      </trkpt>
      <trkpt lat="45.91024" lon="4.77775">
        <ele>178</ele>
        <time>2017-10-23T09:59:05Z</time>
      </trkpt>
      <trkpt lat="45.91015" lon="4.77777">
        <ele>178</ele>
        <time>2017-10-23T09:59:07Z</time>
      </trkpt>
      <trkpt lat="45.91012" lon="4.77778">
        <ele>178</ele>
        <time>2017-10-23T09:59:08Z</time>
      </trkpt>
      <trkpt lat="45.91004" lon="4.7778">
        <ele>178</ele>
        <time>2017-10-23T09:59:10Z</time>
      </trkpt>
      <trkpt lat="45.90999" lon="4.77781">
        <ele>177</ele>
        <time>2017-10-23T09:59:11Z</time>
      </trkpt>
      <trkpt lat="45.90994" lon="4.77782">
        <ele>177</ele>
        <time>2017-10-23T09:59:12Z</time>
      </trkpt>
      <trkpt lat="45.9099" lon="4.77783">
        <ele>177</ele>
        <time>2017-10-23T09:59:13Z</time>
      </trkpt>
      <trkpt lat="45.90982" lon="4.77785">
        <ele>177</ele>
        <time>2017-10-23T09:59:15Z</time>
      </trkpt>
      <trkpt lat="45.90978" lon="4.77785">
        <ele>177</ele>
        <time>2017-10-23T09:59:16Z</time>
      </trkpt>
      <trkpt lat="45.90969" lon="4.77786">
        <ele>177</ele>
        <time>2017-10-23T09:59:18Z</time>
      </trkpt>
      <trkpt lat="45.90965" lon="4.77785">
        <ele>177</ele>
        <time>2017-10-23T09:59:19Z</time>
      </trkpt>
      <trkpt lat="45.90957" lon="4.77781">
        <ele>177</ele>
        <time>2017-10-23T09:59:21Z</time>
      </trkpt>
      <trkpt lat="45.90953" lon="4.77777">
        <ele>177</ele>
        <time>2017-10-23T09:59:22Z</time>
      </trkpt>
      <trkpt lat="45.90946" lon="4.77773">
        <ele>177</ele>
        <time>2017-10-23T09:59:24Z</time>
      </trkpt>
      <trkpt lat="45.90942" lon="4.77771">
        <ele>177</ele>
        <time>2017-10-23T09:59:25Z</time>
      </trkpt>
      <trkpt lat="45.90935" lon="4.77769">
        <ele>177</ele>
        <time>2017-10-23T09:59:27Z</time>
      </trkpt>
      <trkpt lat="45.90931" lon="4.77769">
        <ele>177</ele>
        <time>2017-10-23T09:59:28Z</time>
      </trkpt>
      <trkpt lat="45.90923" lon="4.77765">
        <ele>177</ele>
        <time>2017-10-23T09:59:30Z</time>
      </trkpt>
      <trkpt lat="45.9092" lon="4.77761">
        <ele>176</ele>
        <time>2017-10-23T09:59:31Z</time>
      </trkpt>
      <trkpt lat="45.90915" lon="4.77753">
        <ele>176</ele>
        <time>2017-10-23T09:59:33Z</time>
      </trkpt>
      <trkpt lat="45.90912" lon="4.77748">
        <ele>176</ele>
        <time>2017-10-23T09:59:34Z</time>
      </trkpt>
      <trkpt lat="45.90907" lon="4.7774">
        <ele>177</ele>
        <time>2017-10-23T09:59:36Z</time>
      </trkpt>
      <trkpt lat="45.90904" lon="4.77737">
        <ele>177</ele>
        <time>2017-10-23T09:59:37Z</time>
      </trkpt>
      <trkpt lat="45.90898" lon="4.7773">
        <ele>177</ele>
        <time>2017-10-23T09:59:39Z</time>
      </trkpt>
      <trkpt lat="45.90896" lon="4.77728">
        <ele>177</ele>
        <time>2017-10-23T09:59:40Z</time>
      </trkpt>
      <trkpt lat="45.9089" lon="4.77722">
        <ele>177</ele>
        <time>2017-10-23T09:59:42Z</time>
      </trkpt>
      <trkpt lat="45.90887" lon="4.77719">
        <ele>177</ele>
        <time>2017-10-23T09:59:43Z</time>
      </trkpt>
      <trkpt lat="45.90882" lon="4.77712">
        <ele>177</ele>
        <time>2017-10-23T09:59:45Z</time>
      </trkpt>
      <trkpt lat="45.90879" lon="4.77709">
        <ele>177</ele>
        <time>2017-10-23T09:59:46Z</time>
      </trkpt>
      <trkpt lat="45.90872" lon="4.77702">
        <ele>178</ele>
        <time>2017-10-23T09:59:48Z</time>
      </trkpt>
      <trkpt lat="45.90869" lon="4.77698">
        <ele>178</ele>
        <time>2017-10-23T09:59:49Z</time>
      </trkpt>
      <trkpt lat="45.90863" lon="4.77692">
        <ele>178</ele>
        <time>2017-10-23T09:59:51Z</time>
      </trkpt>
      <trkpt lat="45.9086" lon="4.7769">
        <ele>178</ele>
        <time>2017-10-23T09:59:52Z</time>
      </trkpt>
      <trkpt lat="45.90855" lon="4.77686">
        <ele>178</ele>
        <time>2017-10-23T09:59:54Z</time>
      </trkpt>
      <trkpt lat="45.90852" lon="4.77685">
        <ele>178</ele>
        <time>2017-10-23T09:59:55Z</time>
      </trkpt>
      <trkpt lat="45.90846" lon="4.77681">
        <ele>178</ele>
        <time>2017-10-23T09:59:57Z</time>
      </trkpt>
      <trkpt lat="45.90843" lon="4.77679">
        <ele>178</ele>
        <time>2017-10-23T09:59:58Z</time>
      </trkpt>
      <trkpt lat="45.90836" lon="4.77676">
        <ele>179</ele>
        <time>2017-10-23T10:00:00Z</time>
      </trkpt>
      <trkpt lat="45.90833" lon="4.77674">
        <ele>179</ele>
        <time>2017-10-23T10:00:01Z</time>
      </trkpt>
      <trkpt lat="45.90827" lon="4.77672">
        <ele>179</ele>
        <time>2017-10-23T10:00:03Z</time>
      </trkpt>
      <trkpt lat="45.90824" lon="4.77672">
        <ele>179</ele>
        <time>2017-10-23T10:00:04Z</time>
      </trkpt>
      <trkpt lat="45.90818" lon="4.7767">
        <ele>179</ele>
        <time>2017-10-23T10:00:06Z</time>
      </trkpt>
      <trkpt lat="45.90815" lon="4.77669">
        <ele>179</ele>
        <time>2017-10-23T10:00:07Z</time>
      </trkpt>
      <trkpt lat="45.90808" lon="4.77668">
        <ele>179</ele>
        <time>2017-10-23T10:00:09Z</time>
      </trkpt>
      <trkpt lat="45.90804" lon="4.77666">
        <ele>179</ele>
        <time>2017-10-23T10:00:10Z</time>
      </trkpt>
      <trkpt lat="45.90797" lon="4.77663">
        <ele>179</ele>
        <time>2017-10-23T10:00:12Z</time>
      </trkpt>
      <trkpt lat="45.90793" lon="4.77662">
        <ele>179</ele>
        <time>2017-10-23T10:00:13Z</time>
      </trkpt>
      <trkpt lat="45.90787" lon="4.77661">
        <ele>179</ele>
        <time>2017-10-23T10:00:15Z</time>
      </trkpt>
      <trkpt lat="45.90784" lon="4.7766">
        <ele>179</ele>
        <time>2017-10-23T10:00:16Z</time>
      </trkpt>
      <trkpt lat="45.90777" lon="4.77658">
        <ele>180</ele>
        <time>2017-10-23T10:00:19Z</time>
      </trkpt>
      <trkpt lat="45.90775" lon="4.77657">
        <ele>180</ele>
        <time>2017-10-23T10:00:20Z</time>
      </trkpt>
      <trkpt lat="45.90767" lon="4.77653">
        <ele>180</ele>
        <time>2017-10-23T10:00:23Z</time>
      </trkpt>
      <trkpt lat="45.90764" lon="4.77652">
        <ele>180</ele>
        <time>2017-10-23T10:00:24Z</time>
      </trkpt>
      <trkpt lat="45.90759" lon="4.77647">
        <ele>180</ele>
        <time>2017-10-23T10:00:26Z</time>
      </trkpt>
      <trkpt lat="45.90757" lon="4.77643">
        <ele>180</ele>
        <time>2017-10-23T10:00:27Z</time>
      </trkpt>
      <trkpt lat="45.90757" lon="4.77633">
        <ele>179</ele>
        <time>2017-10-23T10:00:29Z</time>
      </trkpt>
      <trkpt lat="45.90759" lon="4.77628">
        <ele>179</ele>
        <time>2017-10-23T10:00:30Z</time>
      </trkpt>
      <trkpt lat="45.90764" lon="4.77621">
        <ele>179</ele>
        <time>2017-10-23T10:00:32Z</time>
      </trkpt>
      <trkpt lat="45.90767" lon="4.77617">
        <ele>179</ele>
        <time>2017-10-23T10:00:33Z</time>
      </trkpt>
      <trkpt lat="45.90773" lon="4.77609">
        <ele>179</ele>
        <time>2017-10-23T10:00:35Z</time>
      </trkpt>
      <trkpt lat="45.90776" lon="4.77605">
        <ele>179</ele>
        <time>2017-10-23T10:00:36Z</time>
      </trkpt>
      <trkpt lat="45.90781" lon="4.77597">
        <ele>179</ele>
        <time>2017-10-23T10:00:38Z</time>
      </trkpt>
      <trkpt lat="45.90785" lon="4.77593">
        <ele>179</ele>
        <time>2017-10-23T10:00:39Z</time>
      </trkpt>
      <trkpt lat="45.90788" lon="4.77588">
        <ele>179</ele>
        <time>2017-10-23T10:00:40Z</time>
      </trkpt>
      <trkpt lat="45.90791" lon="4.77583">
        <ele>178</ele>
        <time>2017-10-23T10:00:41Z</time>
      </trkpt>
      <trkpt lat="45.90795" lon="4.77578">
        <ele>178</ele>
        <time>2017-10-23T10:00:42Z</time>
      </trkpt>
      <trkpt lat="45.90798" lon="4.77573">
        <ele>178</ele>
        <time>2017-10-23T10:00:43Z</time>
      </trkpt>
      <trkpt lat="45.90801" lon="4.77569">
        <ele>178</ele>
        <time>2017-10-23T10:00:44Z</time>
      </trkpt>
      <trkpt lat="45.90806" lon="4.77565">
        <ele>178</ele>
        <time>2017-10-23T10:00:45Z</time>
      </trkpt>
      <trkpt lat="45.90809" lon="4.7756">
        <ele>178</ele>
        <time>2017-10-23T10:00:46Z</time>
      </trkpt>
      <trkpt lat="45.90813" lon="4.77555">
        <ele>178</ele>
        <time>2017-10-23T10:00:47Z</time>
      </trkpt>
      <trkpt lat="45.90817" lon="4.77551">
        <ele>178</ele>
        <time>2017-10-23T10:00:48Z</time>
      </trkpt>
      <trkpt lat="45.90821" lon="4.77546">
        <ele>178</ele>
        <time>2017-10-23T10:00:49Z</time>
      </trkpt>
      <trkpt lat="45.90825" lon="4.77541">
        <ele>178</ele>
        <time>2017-10-23T10:00:50Z</time>
      </trkpt>
      <trkpt lat="45.90829" lon="4.77536">
        <ele>178</ele>
        <time>2017-10-23T10:00:51Z</time>
      </trkpt>
      <trkpt lat="45.90832" lon="4.7753">
        <ele>178</ele>
        <time>2017-10-23T10:00:52Z</time>
      </trkpt>
      <trkpt lat="45.90835" lon="4.77525">
        <ele>178</ele>
        <time>2017-10-23T10:00:53Z</time>
      </trkpt>
      <trkpt lat="45.90838" lon="4.7752">
        <ele>178</ele>
        <time>2017-10-23T10:00:54Z</time>
      </trkpt>
      <trkpt lat="45.90841" lon="4.77516">
        <ele>178</ele>
        <time>2017-10-23T10:00:55Z</time>
      </trkpt>
      <trkpt lat="45.90845" lon="4.77511">
        <ele>179</ele>
        <time>2017-10-23T10:00:56Z</time>
      </trkpt>
      <trkpt lat="45.90848" lon="4.77505">
        <ele>179</ele>
        <time>2017-10-23T10:00:57Z</time>
      </trkpt>
      <trkpt lat="45.90851" lon="4.775">
        <ele>178</ele>
        <time>2017-10-23T10:00:58Z</time>
      </trkpt>
      <trkpt lat="45.90855" lon="4.77495">
        <ele>178</ele>
        <time>2017-10-23T10:00:59Z</time>
      </trkpt>
      <trkpt lat="45.90858" lon="4.77488">
        <ele>178</ele>
        <time>2017-10-23T10:01:00Z</time>
      </trkpt>
      <trkpt lat="45.90862" lon="4.77482">
        <ele>178</ele>
        <time>2017-10-23T10:01:01Z</time>
      </trkpt>
      <trkpt lat="45.90865" lon="4.77477">
        <ele>178</ele>
        <time>2017-10-23T10:01:02Z</time>
      </trkpt>
      <trkpt lat="45.90869" lon="4.77471">
        <ele>178</ele>
        <time>2017-10-23T10:01:03Z</time>
      </trkpt>
      <trkpt lat="45.90872" lon="4.77466">
        <ele>178</ele>
        <time>2017-10-23T10:01:04Z</time>
      </trkpt>
      <trkpt lat="45.90875" lon="4.7746">
        <ele>178</ele>
        <time>2017-10-23T10:01:05Z</time>
      </trkpt>
      <trkpt lat="45.90878" lon="4.77454">
        <ele>178</ele>
        <time>2017-10-23T10:01:06Z</time>
      </trkpt>
      <trkpt lat="45.90881" lon="4.77448">
        <ele>178</ele>
        <time>2017-10-23T10:01:07Z</time>
      </trkpt>
      <trkpt lat="45.90884" lon="4.77442">
        <ele>177</ele>
        <time>2017-10-23T10:01:08Z</time>
      </trkpt>
      <trkpt lat="45.90887" lon="4.77435">
        <ele>177</ele>
        <time>2017-10-23T10:01:09Z</time>
      </trkpt>
      <trkpt lat="45.90891" lon="4.7743">
        <ele>177</ele>
        <time>2017-10-23T10:01:10Z</time>
      </trkpt>
      <trkpt lat="45.90894" lon="4.77425">
        <ele>177</ele>
        <time>2017-10-23T10:01:11Z</time>
      </trkpt>
      <trkpt lat="45.90899" lon="4.77415">
        <ele>177</ele>
        <time>2017-10-23T10:01:13Z</time>
      </trkpt>
      <trkpt lat="45.90902" lon="4.77411">
        <ele>177</ele>
        <time>2017-10-23T10:01:14Z</time>
      </trkpt>
      <trkpt lat="45.90907" lon="4.77401">
        <ele>177</ele>
        <time>2017-10-23T10:01:16Z</time>
      </trkpt>
      <trkpt lat="45.9091" lon="4.77396">
        <ele>177</ele>
        <time>2017-10-23T10:01:17Z</time>
      </trkpt>
      <trkpt lat="45.90915" lon="4.77387">
        <ele>177</ele>
        <time>2017-10-23T10:01:19Z</time>
      </trkpt>
      <trkpt lat="45.90917" lon="4.77381">
        <ele>176</ele>
        <time>2017-10-23T10:01:20Z</time>
      </trkpt>
      <trkpt lat="45.90922" lon="4.77372">
        <ele>177</ele>
        <time>2017-10-23T10:01:22Z</time>
      </trkpt>
      <trkpt lat="45.90924" lon="4.77367">
        <ele>177</ele>
        <time>2017-10-23T10:01:23Z</time>
      </trkpt>
      <trkpt lat="45.90929" lon="4.77357">
        <ele>177</ele>
        <time>2017-10-23T10:01:25Z</time>
      </trkpt>
      <trkpt lat="45.90932" lon="4.77353">
        <ele>177</ele>
        <time>2017-10-23T10:01:26Z</time>
      </trkpt>
      <trkpt lat="45.90937" lon="4.77344">
        <ele>177</ele>
        <time>2017-10-23T10:01:28Z</time>
      </trkpt>
      <trkpt lat="45.90939" lon="4.7734">
        <ele>177</ele>
        <time>2017-10-23T10:01:29Z</time>
      </trkpt>
      <trkpt lat="45.90945" lon="4.77331">
        <ele>178</ele>
        <time>2017-10-23T10:01:31Z</time>
      </trkpt>
      <trkpt lat="45.90948" lon="4.77326">
        <ele>178</ele>
        <time>2017-10-23T10:01:32Z</time>
      </trkpt>
      <trkpt lat="45.90951" lon="4.77321">
        <ele>178</ele>
        <time>2017-10-23T10:01:33Z</time>
      </trkpt>
      <trkpt lat="45.90955" lon="4.77315">
        <ele>178</ele>
        <time>2017-10-23T10:01:34Z</time>
      </trkpt>
      <trkpt lat="45.90957" lon="4.77309">
        <ele>178</ele>
        <time>2017-10-23T10:01:35Z</time>
      </trkpt>
      <trkpt lat="45.90961" lon="4.77304">
        <ele>178</ele>
        <time>2017-10-23T10:01:36Z</time>
      </trkpt>
      <trkpt lat="45.90964" lon="4.77298">
        <ele>178</ele>
        <time>2017-10-23T10:01:37Z</time>
      </trkpt>
      <trkpt lat="45.90967" lon="4.77292">
        <ele>178</ele>
        <time>2017-10-23T10:01:38Z</time>
      </trkpt>
      <trkpt lat="45.9097" lon="4.77285">
        <ele>178</ele>
        <time>2017-10-23T10:01:39Z</time>
      </trkpt>
      <trkpt lat="45.90972" lon="4.77279">
        <ele>178</ele>
        <time>2017-10-23T10:01:40Z</time>
      </trkpt>
      <trkpt lat="45.90974" lon="4.77272">
        <ele>178</ele>
        <time>2017-10-23T10:01:41Z</time>
      </trkpt>
      <trkpt lat="45.90976" lon="4.77266">
        <ele>178</ele>
        <time>2017-10-23T10:01:42Z</time>
      </trkpt>
      <trkpt lat="45.90978" lon="4.77259">
        <ele>178</ele>
        <time>2017-10-23T10:01:43Z</time>
      </trkpt>
      <trkpt lat="45.90978" lon="4.77253">
        <ele>178</ele>
        <time>2017-10-23T10:01:44Z</time>
      </trkpt>
      <trkpt lat="45.90975" lon="4.77242">
        <ele>178</ele>
        <time>2017-10-23T10:01:46Z</time>
      </trkpt>
      <trkpt lat="45.90973" lon="4.77237">
        <ele>177</ele>
        <time>2017-10-23T10:01:47Z</time>
      </trkpt>
      <trkpt lat="45.90968" lon="4.77228">
        <ele>177</ele>
        <time>2017-10-23T10:01:49Z</time>
      </trkpt>
      <trkpt lat="45.90965" lon="4.77223">
        <ele>177</ele>
        <time>2017-10-23T10:01:50Z</time>
      </trkpt>
      <trkpt lat="45.90962" lon="4.77218">
        <ele>177</ele>
        <time>2017-10-23T10:01:51Z</time>
      </trkpt>
      <trkpt lat="45.90959" lon="4.77212">
        <ele>177</ele>
        <time>2017-10-23T10:01:52Z</time>
      </trkpt>
      <trkpt lat="45.90956" lon="4.77206">
        <ele>177</ele>
        <time>2017-10-23T10:01:53Z</time>
      </trkpt>
      <trkpt lat="45.90953" lon="4.77201">
        <ele>177</ele>
        <time>2017-10-23T10:01:54Z</time>
      </trkpt>
      <trkpt lat="45.90949" lon="4.77196">
        <ele>176</ele>
        <time>2017-10-23T10:01:55Z</time>
      </trkpt>
      <trkpt lat="45.90947" lon="4.77191">
        <ele>176</ele>
        <time>2017-10-23T10:01:56Z</time>
      </trkpt>
      <trkpt lat="45.90944" lon="4.77186">
        <ele>176</ele>
        <time>2017-10-23T10:01:57Z</time>
      </trkpt>
      <trkpt lat="45.9094" lon="4.77182">
        <ele>176</ele>
        <time>2017-10-23T10:01:58Z</time>
      </trkpt>
      <trkpt lat="45.90935" lon="4.77173">
        <ele>176</ele>
        <time>2017-10-23T10:02:00Z</time>
      </trkpt>
      <trkpt lat="45.90932" lon="4.7717">
        <ele>176</ele>
        <time>2017-10-23T10:02:01Z</time>
      </trkpt>
      <trkpt lat="45.90928" lon="4.77161">
        <ele>176</ele>
        <time>2017-10-23T10:02:03Z</time>
      </trkpt>
      <trkpt lat="45.90925" lon="4.77158">
        <ele>176</ele>
        <time>2017-10-23T10:02:04Z</time>
      </trkpt>
      <trkpt lat="45.90918" lon="4.77149">
        <ele>176</ele>
        <time>2017-10-23T10:02:06Z</time>
      </trkpt>
      <trkpt lat="45.90915" lon="4.77145">
        <ele>176</ele>
        <time>2017-10-23T10:02:07Z</time>
      </trkpt>
      <trkpt lat="45.90912" lon="4.7714">
        <ele>176</ele>
        <time>2017-10-23T10:02:08Z</time>
      </trkpt>
      <trkpt lat="45.90908" lon="4.77136">
        <ele>176</ele>
        <time>2017-10-23T10:02:09Z</time>
      </trkpt>
      <trkpt lat="45.90905" lon="4.77131">
        <ele>176</ele>
        <time>2017-10-23T10:02:10Z</time>
      </trkpt>
      <trkpt lat="45.90902" lon="4.77126">
        <ele>176</ele>
        <time>2017-10-23T10:02:11Z</time>
      </trkpt>
      <trkpt lat="45.90898" lon="4.77122">
        <ele>176</ele>
        <time>2017-10-23T10:02:12Z</time>
      </trkpt>
      <trkpt lat="45.90894" lon="4.77117">
        <ele>176</ele>
        <time>2017-10-23T10:02:13Z</time>
      </trkpt>
      <trkpt lat="45.90891" lon="4.77113">
        <ele>176</ele>
        <time>2017-10-23T10:02:14Z</time>
      </trkpt>
      <trkpt lat="45.90887" lon="4.77108">
        <ele>176</ele>
        <time>2017-10-23T10:02:15Z</time>
      </trkpt>
      <trkpt lat="45.90881" lon="4.771">
        <ele>176</ele>
        <time>2017-10-23T10:02:17Z</time>
      </trkpt>
      <trkpt lat="45.90877" lon="4.77096">
        <ele>176</ele>
        <time>2017-10-23T10:02:18Z</time>
      </trkpt>
      <trkpt lat="45.90871" lon="4.7709">
        <ele>176</ele>
        <time>2017-10-23T10:02:20Z</time>
      </trkpt>
      <trkpt lat="45.90868" lon="4.77087">
        <ele>176</ele>
        <time>2017-10-23T10:02:21Z</time>
      </trkpt>
      <trkpt lat="45.90862" lon="4.77082">
        <ele>177</ele>
        <time>2017-10-23T10:02:23Z</time>
      </trkpt>
      <trkpt lat="45.9086" lon="4.77079">
        <ele>177</ele>
        <time>2017-10-23T10:02:24Z</time>
      </trkpt>
      <trkpt lat="45.90854" lon="4.77072">
        <ele>177</ele>
        <time>2017-10-23T10:02:26Z</time>
      </trkpt>
      <trkpt lat="45.9085" lon="4.77069">
        <ele>177</ele>
        <time>2017-10-23T10:02:27Z</time>
      </trkpt>
      <trkpt lat="45.90843" lon="4.77062">
        <ele>177</ele>
        <time>2017-10-23T10:02:29Z</time>
      </trkpt>
      <trkpt lat="45.90839" lon="4.77058">
        <ele>177</ele>
        <time>2017-10-23T10:02:30Z</time>
      </trkpt>
      <trkpt lat="45.90835" lon="4.77054">
        <ele>177</ele>
        <time>2017-10-23T10:02:31Z</time>
      </trkpt>
      <trkpt lat="45.90831" lon="4.77051">
        <ele>177</ele>
        <time>2017-10-23T10:02:32Z</time>
      </trkpt>
      <trkpt lat="45.90824" lon="4.77044">
        <ele>177</ele>
        <time>2017-10-23T10:02:34Z</time>
      </trkpt>
      <trkpt lat="45.90822" lon="4.7704">
        <ele>177</ele>
        <time>2017-10-23T10:02:35Z</time>
      </trkpt>
      <trkpt lat="45.90816" lon="4.77035">
        <ele>177</ele>
        <time>2017-10-23T10:02:37Z</time>
      </trkpt>
      <trkpt lat="45.90813" lon="4.77031">
        <ele>177</ele>
        <time>2017-10-23T10:02:38Z</time>
      </trkpt>
      <trkpt lat="45.90808" lon="4.77026">
        <ele>177</ele>
        <time>2017-10-23T10:02:40Z</time>
      </trkpt>
      <trkpt lat="45.90805" lon="4.77024">
        <ele>177</ele>
        <time>2017-10-23T10:02:41Z</time>
      </trkpt>
      <trkpt lat="45.90799" lon="4.77018">
        <ele>177</ele>
        <time>2017-10-23T10:02:43Z</time>
      </trkpt>
      <trkpt lat="45.90795" lon="4.77014">
        <ele>177</ele>
        <time>2017-10-23T10:02:44Z</time>
      </trkpt>
      <trkpt lat="45.90789" lon="4.77008">
        <ele>178</ele>
        <time>2017-10-23T10:02:46Z</time>
      </trkpt>
      <trkpt lat="45.90785" lon="4.77004">
        <ele>178</ele>
        <time>2017-10-23T10:02:47Z</time>
      </trkpt>
      <trkpt lat="45.90778" lon="4.76997">
        <ele>178</ele>
        <time>2017-10-23T10:02:49Z</time>
      </trkpt>
      <trkpt lat="45.90774" lon="4.76994">
        <ele>178</ele>
        <time>2017-10-23T10:02:50Z</time>
      </trkpt>
      <trkpt lat="45.90767" lon="4.76988">
        <ele>178</ele>
        <time>2017-10-23T10:02:52Z</time>
      </trkpt>
      <trkpt lat="45.90763" lon="4.76985">
        <ele>178</ele>
        <time>2017-10-23T10:02:53Z</time>
      </trkpt>
      <trkpt lat="45.90756" lon="4.7698">
        <ele>178</ele>
        <time>2017-10-23T10:02:55Z</time>
      </trkpt>
      <trkpt lat="45.90753" lon="4.76978">
        <ele>178</ele>
        <time>2017-10-23T10:02:56Z</time>
      </trkpt>
      <trkpt lat="45.90746" lon="4.76973">
        <ele>179</ele>
        <time>2017-10-23T10:02:58Z</time>
      </trkpt>
      <trkpt lat="45.90743" lon="4.76971">
        <ele>179</ele>
        <time>2017-10-23T10:02:59Z</time>
      </trkpt>
      <trkpt lat="45.90737" lon="4.76967">
        <ele>179</ele>
        <time>2017-10-23T10:03:01Z</time>
      </trkpt>
      <trkpt lat="45.90734" lon="4.76965">
        <ele>179</ele>
        <time>2017-10-23T10:03:02Z</time>
      </trkpt>
      <trkpt lat="45.90728" lon="4.76963">
        <ele>179</ele>
        <time>2017-10-23T10:03:04Z</time>
      </trkpt>
      <trkpt lat="45.90725" lon="4.76962">
        <ele>179</ele>
        <time>2017-10-23T10:03:05Z</time>
      </trkpt>
      <trkpt lat="45.90719" lon="4.76959">
        <ele>179</ele>
        <time>2017-10-23T10:03:07Z</time>
      </trkpt>
      <trkpt lat="45.90716" lon="4.76957">
        <ele>179</ele>
        <time>2017-10-23T10:03:08Z</time>
      </trkpt>
      <trkpt lat="45.90709" lon="4.76953">
        <ele>179</ele>
        <time>2017-10-23T10:03:10Z</time>
      </trkpt>
      <trkpt lat="45.90706" lon="4.76952">
        <ele>179</ele>
        <time>2017-10-23T10:03:11Z</time>
      </trkpt>
      <trkpt lat="45.90698" lon="4.76948">
        <ele>179</ele>
        <time>2017-10-23T10:03:13Z</time>
      </trkpt>
      <trkpt lat="45.90695" lon="4.76946">
        <ele>179</ele>
        <time>2017-10-23T10:03:14Z</time>
      </trkpt>
      <trkpt lat="45.90687" lon="4.76942">
        <ele>179</ele>
        <time>2017-10-23T10:03:16Z</time>
      </trkpt>
      <trkpt lat="45.90684" lon="4.7694">
        <ele>179</ele>
        <time>2017-10-23T10:03:17Z</time>
      </trkpt>
      <trkpt lat="45.90676" lon="4.76937">
        <ele>179</ele>
        <time>2017-10-23T10:03:19Z</time>
      </trkpt>
      <trkpt lat="45.90673" lon="4.76935">
        <ele>179</ele>
        <time>2017-10-23T10:03:20Z</time>
      </trkpt>
      <trkpt lat="45.90665" lon="4.76931">
        <ele>179</ele>
        <time>2017-10-23T10:03:23Z</time>
      </trkpt>
      <trkpt lat="45.90663" lon="4.7693">
        <ele>179</ele>
        <time>2017-10-23T10:03:24Z</time>
      </trkpt>
      <trkpt lat="45.90657" lon="4.76928">
        <ele>179</ele>
        <time>2017-10-23T10:03:26Z</time>
      </trkpt>
      <trkpt lat="45.90653" lon="4.76927">
        <ele>179</ele>
        <time>2017-10-23T10:03:27Z</time>
      </trkpt>
      <trkpt lat="45.90647" lon="4.76926">
        <ele>179</ele>
        <time>2017-10-23T10:03:29Z</time>
      </trkpt>
      <trkpt lat="45.90644" lon="4.76925">
        <ele>179</ele>
        <time>2017-10-23T10:03:30Z</time>
      </trkpt>
      <trkpt lat="45.90636" lon="4.76923">
        <ele>180</ele>
        <time>2017-10-23T10:03:32Z</time>
      </trkpt>
      <trkpt lat="45.90632" lon="4.76922">
        <ele>180</ele>
        <time>2017-10-23T10:03:33Z</time>
      </trkpt>
      <trkpt lat="45.90626" lon="4.76921">
        <ele>180</ele>
        <time>2017-10-23T10:03:35Z</time>
      </trkpt>
      <trkpt lat="45.90623" lon="4.7692">
        <ele>180</ele>
        <time>2017-10-23T10:03:36Z</time>
      </trkpt>
      <trkpt lat="45.90617" lon="4.76918">
        <ele>180</ele>
        <time>2017-10-23T10:03:38Z</time>
      </trkpt>
      <trkpt lat="45.90614" lon="4.76917">
        <ele>180</ele>
        <time>2017-10-23T10:03:39Z</time>
      </trkpt>
      <trkpt lat="45.90607" lon="4.76915">
        <ele>179</ele>
        <time>2017-10-23T10:03:41Z</time>
      </trkpt>
      <trkpt lat="45.90603" lon="4.76914">
        <ele>179</ele>
        <time>2017-10-23T10:03:42Z</time>
      </trkpt>
      <trkpt lat="45.90597" lon="4.76912">
        <ele>180</ele>
        <time>2017-10-23T10:03:44Z</time>
      </trkpt>
      <trkpt lat="45.90593" lon="4.76911">
        <ele>180</ele>
        <time>2017-10-23T10:03:45Z</time>
      </trkpt>
      <trkpt lat="45.90586" lon="4.76909">
        <ele>180</ele>
        <time>2017-10-23T10:03:47Z</time>
      </trkpt>
      <trkpt lat="45.90582" lon="4.76908">
        <ele>180</ele>
        <time>2017-10-23T10:03:48Z</time>
      </trkpt>
      <trkpt lat="45.90575" lon="4.76906">
        <ele>180</ele>
        <time>2017-10-23T10:03:50Z</time>
      </trkpt>
      <trkpt lat="45.9057" lon="4.76905">
        <ele>180</ele>
        <time>2017-10-23T10:03:51Z</time>
      </trkpt>
      <trkpt lat="45.90562" lon="4.76902">
        <ele>180</ele>
        <time>2017-10-23T10:03:53Z</time>
      </trkpt>
      <trkpt lat="45.90557" lon="4.76901">
        <ele>180</ele>
        <time>2017-10-23T10:03:54Z</time>
      </trkpt>
      <trkpt lat="45.90549" lon="4.76899">
        <ele>180</ele>
        <time>2017-10-23T10:03:56Z</time>
      </trkpt>
      <trkpt lat="45.90545" lon="4.76898">
        <ele>180</ele>
        <time>2017-10-23T10:03:57Z</time>
      </trkpt>
      <trkpt lat="45.90539" lon="4.76896">
        <ele>180</ele>
        <time>2017-10-23T10:03:59Z</time>
      </trkpt>
      <trkpt lat="45.90536" lon="4.76894">
        <ele>180</ele>
        <time>2017-10-23T10:04:00Z</time>
      </trkpt>
      <trkpt lat="45.90529" lon="4.76891">
        <ele>180</ele>
        <time>2017-10-23T10:04:03Z</time>
      </trkpt>
      <trkpt lat="45.90525" lon="4.76889">
        <ele>180</ele>
        <time>2017-10-23T10:04:04Z</time>
      </trkpt>
      <trkpt lat="45.90519" lon="4.76888">
        <ele>180</ele>
        <time>2017-10-23T10:04:06Z</time>
      </trkpt>
      <trkpt lat="45.90516" lon="4.76887">
        <ele>180</ele>
        <time>2017-10-23T10:04:07Z</time>
      </trkpt>
      <trkpt lat="45.90508" lon="4.76885">
        <ele>180</ele>
        <time>2017-10-23T10:04:09Z</time>
      </trkpt>
      <trkpt lat="45.90505" lon="4.76884">
        <ele>180</ele>
        <time>2017-10-23T10:04:10Z</time>
      </trkpt>
      <trkpt lat="45.90497" lon="4.76881">
        <ele>181</ele>
        <time>2017-10-23T10:04:12Z</time>
      </trkpt>
      <trkpt lat="45.90493" lon="4.7688">
        <ele>181</ele>
        <time>2017-10-23T10:04:13Z</time>
      </trkpt>
      <trkpt lat="45.90485" lon="4.76878">
        <ele>181</ele>
        <time>2017-10-23T10:04:15Z</time>
      </trkpt>
      <trkpt lat="45.90481" lon="4.76876">
        <ele>181</ele>
        <time>2017-10-23T10:04:16Z</time>
      </trkpt>
      <trkpt lat="45.90473" lon="4.76875">
        <ele>181</ele>
        <time>2017-10-23T10:04:18Z</time>
      </trkpt>
      <trkpt lat="45.9047" lon="4.76874">
        <ele>181</ele>
        <time>2017-10-23T10:04:19Z</time>
      </trkpt>
      <trkpt lat="45.90462" lon="4.76871">
        <ele>181</ele>
        <time>2017-10-23T10:04:22Z</time>
      </trkpt>
      <trkpt lat="45.90459" lon="4.7687">
        <ele>181</ele>
        <time>2017-10-23T10:04:23Z</time>
      </trkpt>
      <trkpt lat="45.90453" lon="4.76869">
        <ele>181</ele>
        <time>2017-10-23T10:04:25Z</time>
      </trkpt>
      <trkpt lat="45.90449" lon="4.76869">
        <ele>181</ele>
        <time>2017-10-23T10:04:26Z</time>
      </trkpt>
      <trkpt lat="45.90442" lon="4.76868">
        <ele>181</ele>
        <time>2017-10-23T10:04:28Z</time>
      </trkpt>
      <trkpt lat="45.90438" lon="4.76867">
        <ele>181</ele>
        <time>2017-10-23T10:04:29Z</time>
      </trkpt>
      <trkpt lat="45.90431" lon="4.76867">
        <ele>181</ele>
        <time>2017-10-23T10:04:31Z</time>
      </trkpt>
      <trkpt lat="45.90427" lon="4.76866">
        <ele>181</ele>
        <time>2017-10-23T10:04:32Z</time>
      </trkpt>
      <trkpt lat="45.90421" lon="4.76866">
        <ele>181</ele>
        <time>2017-10-23T10:04:34Z</time>
      </trkpt>
      <trkpt lat="45.90418" lon="4.76865">
        <ele>181</ele>
        <time>2017-10-23T10:04:35Z</time>
      </trkpt>
      <trkpt lat="45.90411" lon="4.76865">
        <ele>182</ele>
        <time>2017-10-23T10:04:38Z</time>
      </trkpt>
      <trkpt lat="45.90408" lon="4.76864">
        <ele>182</ele>
        <time>2017-10-23T10:04:39Z</time>
      </trkpt>
      <trkpt lat="45.90402" lon="4.76863">
        <ele>182</ele>
        <time>2017-10-23T10:04:41Z</time>
      </trkpt>
      <trkpt lat="45.90399" lon="4.76863">
        <ele>182</ele>
        <time>2017-10-23T10:04:42Z</time>
      </trkpt>
      <trkpt lat="45.90392" lon="4.76863">
        <ele>182</ele>
        <time>2017-10-23T10:04:44Z</time>
      </trkpt>
      <trkpt lat="45.90389" lon="4.76863">
        <ele>182</ele>
        <time>2017-10-23T10:04:45Z</time>
      </trkpt>
      <trkpt lat="45.90382" lon="4.76863">
        <ele>182</ele>
        <time>2017-10-23T10:04:47Z</time>
      </trkpt>
      <trkpt lat="45.90378" lon="4.76863">
        <ele>182</ele>
        <time>2017-10-23T10:04:48Z</time>
      </trkpt>
      <trkpt lat="45.9037" lon="4.76863">
        <ele>182</ele>
        <time>2017-10-23T10:04:50Z</time>
      </trkpt>
      <trkpt lat="45.90366" lon="4.76863">
        <ele>182</ele>
        <time>2017-10-23T10:04:51Z</time>
      </trkpt>
      <trkpt lat="45.90357" lon="4.76862">
        <ele>182</ele>
        <time>2017-10-23T10:04:54Z</time>
      </trkpt>
      <trkpt lat="45.90355" lon="4.76862">
        <ele>182</ele>
        <time>2017-10-23T10:04:55Z</time>
      </trkpt>
      <trkpt lat="45.90346" lon="4.76861">
        <ele>182</ele>
        <time>2017-10-23T10:04:58Z</time>
      </trkpt>
      <trkpt lat="45.90343" lon="4.76859">
        <ele>182</ele>
        <time>2017-10-23T10:04:59Z</time>
      </trkpt>
      <trkpt lat="45.90338" lon="4.76854">
        <ele>182</ele>
        <time>2017-10-23T10:05:01Z</time>
      </trkpt>
      <trkpt lat="45.90336" lon="4.7685">
        <ele>182</ele>
        <time>2017-10-23T10:05:02Z</time>
      </trkpt>
      <trkpt lat="45.90334" lon="4.7684">
        <ele>182</ele>
        <time>2017-10-23T10:05:04Z</time>
      </trkpt>
      <trkpt lat="45.90334" lon="4.76834">
        <ele>182</ele>
        <time>2017-10-23T10:05:05Z</time>
      </trkpt>
      <trkpt lat="45.90336" lon="4.76825">
        <ele>182</ele>
        <time>2017-10-23T10:05:07Z</time>
      </trkpt>
      <trkpt lat="45.90336" lon="4.7682">
        <ele>182</ele>
        <time>2017-10-23T10:05:08Z</time>
      </trkpt>
      <trkpt lat="45.90337" lon="4.76809">
        <ele>182</ele>
        <time>2017-10-23T10:05:10Z</time>
      </trkpt>
      <trkpt lat="45.90338" lon="4.76802">
        <ele>182</ele>
        <time>2017-10-23T10:05:11Z</time>
      </trkpt>
      <trkpt lat="45.90338" lon="4.76795">
        <ele>182</ele>
        <time>2017-10-23T10:05:12Z</time>
      </trkpt>
      <trkpt lat="45.90339" lon="4.76788">
        <ele>182</ele>
        <time>2017-10-23T10:05:13Z</time>
      </trkpt>
      <trkpt lat="45.90339" lon="4.76782">
        <ele>182</ele>
        <time>2017-10-23T10:05:14Z</time>
      </trkpt>
      <trkpt lat="45.90339" lon="4.76775">
        <ele>182</ele>
        <time>2017-10-23T10:05:15Z</time>
      </trkpt>
      <trkpt lat="45.90339" lon="4.76763">
        <ele>182</ele>
        <time>2017-10-23T10:05:17Z</time>
      </trkpt>
      <trkpt lat="45.9034" lon="4.76757">
        <ele>183</ele>
        <time>2017-10-23T10:05:18Z</time>
      </trkpt>
      <trkpt lat="45.9034" lon="4.76747">
        <ele>183</ele>
        <time>2017-10-23T10:05:20Z</time>
      </trkpt>
      <trkpt lat="45.90339" lon="4.76743">
        <ele>183</ele>
        <time>2017-10-23T10:05:21Z</time>
      </trkpt>
      <trkpt lat="45.90338" lon="4.76732">
        <ele>183</ele>
        <time>2017-10-23T10:05:24Z</time>
      </trkpt>
      <trkpt lat="45.90338" lon="4.76727">
        <ele>183</ele>
        <time>2017-10-23T10:05:25Z</time>
      </trkpt>
      <trkpt lat="45.90338" lon="4.76718">
        <ele>183</ele>
        <time>2017-10-23T10:05:27Z</time>
      </trkpt>
      <trkpt lat="45.90338" lon="4.76714">
        <ele>183</ele>
        <time>2017-10-23T10:05:28Z</time>
      </trkpt>
      <trkpt lat="45.90338" lon="4.76703">
        <ele>183</ele>
        <time>2017-10-23T10:05:30Z</time>
      </trkpt>
      <trkpt lat="45.90337" lon="4.76698">
        <ele>183</ele>
        <time>2017-10-23T10:05:31Z</time>
      </trkpt>
      <trkpt lat="45.90337" lon="4.76688">
        <ele>183</ele>
        <time>2017-10-23T10:05:33Z</time>
      </trkpt>
      <trkpt lat="45.90337" lon="4.76682">
        <ele>183</ele>
        <time>2017-10-23T10:05:34Z</time>
      </trkpt>
      <trkpt lat="45.90338" lon="4.76671">
        <ele>184</ele>
        <time>2017-10-23T10:05:36Z</time>
      </trkpt>
      <trkpt lat="45.90338" lon="4.76666">
        <ele>184</ele>
        <time>2017-10-23T10:05:37Z</time>
      </trkpt>
      <trkpt lat="45.90338" lon="4.76655">
        <ele>184</ele>
        <time>2017-10-23T10:05:39Z</time>
      </trkpt>
      <trkpt lat="45.90338" lon="4.76649">
        <ele>184</ele>
        <time>2017-10-23T10:05:40Z</time>
      </trkpt>
      <trkpt lat="45.90338" lon="4.76639">
        <ele>184</ele>
        <time>2017-10-23T10:05:42Z</time>
      </trkpt>
      <trkpt lat="45.90338" lon="4.76634">
        <ele>184</ele>
        <time>2017-10-23T10:05:43Z</time>
      </trkpt>
      <trkpt lat="45.90338" lon="4.76624">
        <ele>184</ele>
        <time>2017-10-23T10:05:45Z</time>
      </trkpt>
      <trkpt lat="45.90338" lon="4.76619">
        <ele>184</ele>
        <time>2017-10-23T10:05:46Z</time>
      </trkpt>
      <trkpt lat="45.90338" lon="4.76607">
        <ele>184</ele>
        <time>2017-10-23T10:05:49Z</time>
      </trkpt>
      <trkpt lat="45.90338" lon="4.76602">
        <ele>184</ele>
        <time>2017-10-23T10:05:50Z</time>
      </trkpt>
      <trkpt lat="45.90339" lon="4.76591">
        <ele>184</ele>
        <time>2017-10-23T10:05:53Z</time>
      </trkpt>
      <trkpt lat="45.90339" lon="4.76586">
        <ele>185</ele>
        <time>2017-10-23T10:05:54Z</time>
      </trkpt>
      <trkpt lat="45.90338" lon="4.76574">
        <ele>185</ele>
        <time>2017-10-23T10:05:57Z</time>
      </trkpt>
      <trkpt lat="45.90338" lon="4.7657">
        <ele>185</ele>
        <time>2017-10-23T10:05:58Z</time>
      </trkpt>
      <trkpt lat="45.90338" lon="4.76557">
        <ele>185</ele>
        <time>2017-10-23T10:06:01Z</time>
      </trkpt>
      <trkpt lat="45.90338" lon="4.76553">
        <ele>185</ele>
        <time>2017-10-23T10:06:02Z</time>
      </trkpt>
      <trkpt lat="45.90338" lon="4.7654">
        <ele>186</ele>
        <time>2017-10-23T10:06:05Z</time>
      </trkpt>
      <trkpt lat="45.90338" lon="4.76535">
        <ele>186</ele>
        <time>2017-10-23T10:06:06Z</time>
      </trkpt>
      <trkpt lat="45.90339" lon="4.76526">
        <ele>186</ele>
        <time>2017-10-23T10:06:08Z</time>
      </trkpt>
      <trkpt lat="45.9034" lon="4.76522">
        <ele>186</ele>
        <time>2017-10-23T10:06:09Z</time>
      </trkpt>
      <trkpt lat="45.90343" lon="4.76512">
        <ele>187</ele>
        <time>2017-10-23T10:06:11Z</time>
      </trkpt>
      <trkpt lat="45.90345" lon="4.76508">
        <ele>187</ele>
        <time>2017-10-23T10:06:12Z</time>
      </trkpt>
      <trkpt lat="45.90349" lon="4.765">
        <ele>188</ele>
        <time>2017-10-23T10:06:14Z</time>
      </trkpt>
      <trkpt lat="45.90352" lon="4.76497">
        <ele>188</ele>
        <time>2017-10-23T10:06:15Z</time>
      </trkpt>
      <trkpt lat="45.90356" lon="4.76491">
        <ele>188</ele>
        <time>2017-10-23T10:06:17Z</time>
      </trkpt>
      <trkpt lat="45.90359" lon="4.76489">
        <ele>188</ele>
        <time>2017-10-23T10:06:18Z</time>
      </trkpt>
      <trkpt lat="45.90365" lon="4.76483">
        <ele>188</ele>
        <time>2017-10-23T10:06:20Z</time>
      </trkpt>
      <trkpt lat="45.90368" lon="4.7648">
        <ele>188</ele>
        <time>2017-10-23T10:06:21Z</time>
      </trkpt>
      <trkpt lat="45.90374" lon="4.76476">
        <ele>188</ele>
        <time>2017-10-23T10:06:23Z</time>
      </trkpt>
      <trkpt lat="45.90377" lon="4.76475">
        <ele>188</ele>
        <time>2017-10-23T10:06:24Z</time>
      </trkpt>
      <trkpt lat="45.90386" lon="4.76475">
        <ele>188</ele>
        <time>2017-10-23T10:06:27Z</time>
      </trkpt>
      <trkpt lat="45.90388" lon="4.76475">
        <ele>188</ele>
        <time>2017-10-23T10:06:28Z</time>
      </trkpt>
      <trkpt lat="45.90394" lon="4.76476">
        <ele>188</ele>
        <time>2017-10-23T10:06:30Z</time>
      </trkpt>
      <trkpt lat="45.90397" lon="4.76477">
        <ele>188</ele>
        <time>2017-10-23T10:06:31Z</time>
      </trkpt>
      <trkpt lat="45.90404" lon="4.76477">
        <ele>188</ele>
        <time>2017-10-23T10:06:33Z</time>
      </trkpt>
      <trkpt lat="45.90408" lon="4.76476">
        <ele>187</ele>
        <time>2017-10-23T10:06:34Z</time>
      </trkpt>
      <trkpt lat="45.90414" lon="4.76472">
        <ele>188</ele>
        <time>2017-10-23T10:06:36Z</time>
      </trkpt>
      <trkpt lat="45.90416" lon="4.7647">
        <ele>188</ele>
        <time>2017-10-23T10:06:37Z</time>
      </trkpt>
      <trkpt lat="45.9042" lon="4.76464">
        <ele>186</ele>
        <time>2017-10-23T10:06:39Z</time>
      </trkpt>
      <trkpt lat="45.90422" lon="4.7646">
        <ele>186</ele>
        <time>2017-10-23T10:06:40Z</time>
      </trkpt>
      <trkpt lat="45.90425" lon="4.76451">
        <ele>186</ele>
        <time>2017-10-23T10:06:42Z</time>
      </trkpt>
      <trkpt lat="45.90426" lon="4.76446">
        <ele>186</ele>
        <time>2017-10-23T10:06:43Z</time>
      </trkpt>
      <trkpt lat="45.9043" lon="4.76436">
        <ele>187</ele>
        <time>2017-10-23T10:06:45Z</time>
      </trkpt>
      <trkpt lat="45.90432" lon="4.7643">
        <ele>187</ele>
        <time>2017-10-23T10:06:46Z</time>
      </trkpt>
      <trkpt lat="45.90434" lon="4.76424">
        <ele>187</ele>
        <time>2017-10-23T10:06:47Z</time>
      </trkpt>
      <trkpt lat="45.90436" lon="4.76418">
        <ele>187</ele>
        <time>2017-10-23T10:06:48Z</time>
      </trkpt>
      <trkpt lat="45.90438" lon="4.76412">
        <ele>187</ele>
        <time>2017-10-23T10:06:49Z</time>
      </trkpt>
      <trkpt lat="45.90441" lon="4.76406">
        <ele>187</ele>
        <time>2017-10-23T10:06:50Z</time>
      </trkpt>
      <trkpt lat="45.90445" lon="4.76395">
        <ele>187</ele>
        <time>2017-10-23T10:06:52Z</time>
      </trkpt>
      <trkpt lat="45.90447" lon="4.7639">
        <ele>187</ele>
        <time>2017-10-23T10:06:53Z</time>
      </trkpt>
      <trkpt lat="45.9045" lon="4.7638">
        <ele>186</ele>
        <time>2017-10-23T10:06:55Z</time>
      </trkpt>
      <trkpt lat="45.90452" lon="4.76376">
        <ele>186</ele>
        <time>2017-10-23T10:06:56Z</time>
      </trkpt>
      <trkpt lat="45.90455" lon="4.76366">
        <ele>186</ele>
        <time>2017-10-23T10:06:58Z</time>
      </trkpt>
      <trkpt lat="45.90456" lon="4.76363">
        <ele>186</ele>
        <time>2017-10-23T10:06:59Z</time>
      </trkpt>
      <trkpt lat="45.90458" lon="4.76354">
        <ele>186</ele>
        <time>2017-10-23T10:07:01Z</time>
      </trkpt>
      <trkpt lat="45.90459" lon="4.7635">
        <ele>186</ele>
        <time>2017-10-23T10:07:02Z</time>
      </trkpt>
      <trkpt lat="45.90462" lon="4.76341">
        <ele>186</ele>
        <time>2017-10-23T10:07:04Z</time>
      </trkpt>
      <trkpt lat="45.90463" lon="4.76337">
        <ele>186</ele>
        <time>2017-10-23T10:07:05Z</time>
      </trkpt>
      <trkpt lat="45.90466" lon="4.76328">
        <ele>186</ele>
        <time>2017-10-23T10:07:07Z</time>
      </trkpt>
      <trkpt lat="45.90467" lon="4.76323">
        <ele>186</ele>
        <time>2017-10-23T10:07:08Z</time>
      </trkpt>
      <trkpt lat="45.9047" lon="4.76312">
        <ele>186</ele>
        <time>2017-10-23T10:07:10Z</time>
      </trkpt>
      <trkpt lat="45.90472" lon="4.76307">
        <ele>186</ele>
        <time>2017-10-23T10:07:11Z</time>
      </trkpt>
      <trkpt lat="45.90475" lon="4.76296">
        <ele>186</ele>
        <time>2017-10-23T10:07:13Z</time>
      </trkpt>
      <trkpt lat="45.90476" lon="4.76291">
        <ele>186</ele>
        <time>2017-10-23T10:07:14Z</time>
      </trkpt>
      <trkpt lat="45.90479" lon="4.76281">
        <ele>186</ele>
        <time>2017-10-23T10:07:16Z</time>
      </trkpt>
      <trkpt lat="45.90481" lon="4.76276">
        <ele>186</ele>
        <time>2017-10-23T10:07:17Z</time>
      </trkpt>
      <trkpt lat="45.90484" lon="4.76267">
        <ele>186</ele>
        <time>2017-10-23T10:07:19Z</time>
      </trkpt>
      <trkpt lat="45.90485" lon="4.76262">
        <ele>185</ele>
        <time>2017-10-23T10:07:20Z</time>
      </trkpt>
      <trkpt lat="45.90487" lon="4.76253">
        <ele>185</ele>
        <time>2017-10-23T10:07:22Z</time>
      </trkpt>
      <trkpt lat="45.90488" lon="4.76248">
        <ele>185</ele>
        <time>2017-10-23T10:07:23Z</time>
      </trkpt>
      <trkpt lat="45.90485" lon="4.76237">
        <ele>185</ele>
        <time>2017-10-23T10:07:26Z</time>
      </trkpt>
      <trkpt lat="45.90482" lon="4.76234">
        <ele>185</ele>
        <time>2017-10-23T10:07:27Z</time>
      </trkpt>
      <trkpt lat="45.90475" lon="4.7623">
        <ele>185</ele>
        <time>2017-10-23T10:07:29Z</time>
      </trkpt>
      <trkpt lat="45.90471" lon="4.76228">
        <ele>185</ele>
        <time>2017-10-23T10:07:30Z</time>
      </trkpt>
      <trkpt lat="45.90463" lon="4.76224">
        <ele>185</ele>
        <time>2017-10-23T10:07:32Z</time>
      </trkpt>
      <trkpt lat="45.90458" lon="4.76221">
        <ele>186</ele>
        <time>2017-10-23T10:07:33Z</time>
      </trkpt>
      <trkpt lat="45.90453" lon="4.76219">
        <ele>186</ele>
        <time>2017-10-23T10:07:34Z</time>
      </trkpt>
      <trkpt lat="45.90449" lon="4.76216">
        <ele>186</ele>
        <time>2017-10-23T10:07:35Z</time>
      </trkpt>
      <trkpt lat="45.90442" lon="4.7621">
        <ele>186</ele>
        <time>2017-10-23T10:07:37Z</time>
      </trkpt>
      <trkpt lat="45.90438" lon="4.76207">
        <ele>186</ele>
        <time>2017-10-23T10:07:38Z</time>
      </trkpt>
      <trkpt lat="45.9043" lon="4.76202">
        <ele>186</ele>
        <time>2017-10-23T10:07:40Z</time>
      </trkpt>
      <trkpt lat="45.90427" lon="4.76201">
        <ele>186</ele>
        <time>2017-10-23T10:07:41Z</time>
      </trkpt>
      <trkpt lat="45.90421" lon="4.76194">
        <ele>186</ele>
        <time>2017-10-23T10:07:43Z</time>
      </trkpt>
      <trkpt lat="45.90419" lon="4.7619">
        <ele>186</ele>
        <time>2017-10-23T10:07:44Z</time>
      </trkpt>
      <trkpt lat="45.90419" lon="4.7618">
        <ele>186</ele>
        <time>2017-10-23T10:07:46Z</time>
      </trkpt>
      <trkpt lat="45.90422" lon="4.76175">
        <ele>186</ele>
        <time>2017-10-23T10:07:47Z</time>
      </trkpt>
      <trkpt lat="45.90428" lon="4.76167">
        <ele>186</ele>
        <time>2017-10-23T10:07:49Z</time>
      </trkpt>
      <trkpt lat="45.90431" lon="4.76164">
        <ele>186</ele>
        <time>2017-10-23T10:07:50Z</time>
      </trkpt>
      <trkpt lat="45.90438" lon="4.76157">
        <ele>186</ele>
        <time>2017-10-23T10:07:52Z</time>
      </trkpt>
      <trkpt lat="45.90442" lon="4.76153">
        <ele>186</ele>
        <time>2017-10-23T10:07:53Z</time>
      </trkpt>
      <trkpt lat="45.90448" lon="4.76147">
        <ele>186</ele>
        <time>2017-10-23T10:07:55Z</time>
      </trkpt>
      <trkpt lat="45.90451" lon="4.76144">
        <ele>186</ele>
        <time>2017-10-23T10:07:56Z</time>
      </trkpt>
      <trkpt lat="45.90457" lon="4.76135">
        <ele>186</ele>
        <time>2017-10-23T10:07:58Z</time>
      </trkpt>
      <trkpt lat="45.9046" lon="4.7613">
        <ele>185</ele>
        <time>2017-10-23T10:07:59Z</time>
      </trkpt>
      <trkpt lat="45.90464" lon="4.76125">
        <ele>185</ele>
        <time>2017-10-23T10:08:00Z</time>
      </trkpt>
      <trkpt lat="45.90468" lon="4.7612">
        <ele>185</ele>
        <time>2017-10-23T10:08:01Z</time>
      </trkpt>
      <trkpt lat="45.90472" lon="4.76114">
        <ele>185</ele>
        <time>2017-10-23T10:08:02Z</time>
      </trkpt>
      <trkpt lat="45.90475" lon="4.76109">
        <ele>185</ele>
        <time>2017-10-23T10:08:03Z</time>
      </trkpt>
      <trkpt lat="45.90478" lon="4.76105">
        <ele>185</ele>
        <time>2017-10-23T10:08:04Z</time>
      </trkpt>
      <trkpt lat="45.90481" lon="4.761">
        <ele>185</ele>
        <time>2017-10-23T10:08:05Z</time>
      </trkpt>
      <trkpt lat="45.90487" lon="4.76091">
        <ele>185</ele>
        <time>2017-10-23T10:08:07Z</time>
      </trkpt>
      <trkpt lat="45.9049" lon="4.76086">
        <ele>185</ele>
        <time>2017-10-23T10:08:08Z</time>
      </trkpt>
      <trkpt lat="45.90495" lon="4.76076">
        <ele>185</ele>
        <time>2017-10-23T10:08:10Z</time>
      </trkpt>
      <trkpt lat="45.90498" lon="4.7607">
        <ele>185</ele>
        <time>2017-10-23T10:08:11Z</time>
      </trkpt>
      <trkpt lat="45.90502" lon="4.76059">
        <ele>185</ele>
        <time>2017-10-23T10:08:13Z</time>
      </trkpt>
      <trkpt lat="45.90504" lon="4.76054">
        <ele>185</ele>
        <time>2017-10-23T10:08:14Z</time>
      </trkpt>
      <trkpt lat="45.90507" lon="4.76043">
        <ele>185</ele>
        <time>2017-10-23T10:08:16Z</time>
      </trkpt>
      <trkpt lat="45.90508" lon="4.76038">
        <ele>185</ele>
        <time>2017-10-23T10:08:17Z</time>
      </trkpt>
      <trkpt lat="45.9051" lon="4.76026">
        <ele>186</ele>
        <time>2017-10-23T10:08:19Z</time>
      </trkpt>
      <trkpt lat="45.90512" lon="4.76019">
        <ele>186</ele>
        <time>2017-10-23T10:08:20Z</time>
      </trkpt>
      <trkpt lat="45.90514" lon="4.76012">
        <ele>186</ele>
        <time>2017-10-23T10:08:21Z</time>
      </trkpt>
      <trkpt lat="45.90515" lon="4.76005">
        <ele>186</ele>
        <time>2017-10-23T10:08:22Z</time>
      </trkpt>
      <trkpt lat="45.90517" lon="4.75992">
        <ele>186</ele>
        <time>2017-10-23T10:08:24Z</time>
      </trkpt>
      <trkpt lat="45.90518" lon="4.75985">
        <ele>186</ele>
        <time>2017-10-23T10:08:25Z</time>
      </trkpt>
      <trkpt lat="45.9052" lon="4.75979">
        <ele>186</ele>
        <time>2017-10-23T10:08:26Z</time>
      </trkpt>
      <trkpt lat="45.90522" lon="4.75973">
        <ele>186</ele>
        <time>2017-10-23T10:08:27Z</time>
      </trkpt>
      <trkpt lat="45.90525" lon="4.75968">
        <ele>186</ele>
        <time>2017-10-23T10:08:28Z</time>
      </trkpt>
      <trkpt lat="45.90529" lon="4.75963">
        <ele>186</ele>
        <time>2017-10-23T10:08:29Z</time>
      </trkpt>
      <trkpt lat="45.90535" lon="4.75957">
        <ele>186</ele>
        <time>2017-10-23T10:08:31Z</time>
      </trkpt>
      <trkpt lat="45.90539" lon="4.75954">
        <ele>186</ele>
        <time>2017-10-23T10:08:32Z</time>
      </trkpt>
      <trkpt lat="45.90546" lon="4.75951">
        <ele>186</ele>
        <time>2017-10-23T10:08:34Z</time>
      </trkpt>
      <trkpt lat="45.9055" lon="4.75952">
        <ele>186</ele>
        <time>2017-10-23T10:08:35Z</time>
      </trkpt>
      <trkpt lat="45.90557" lon="4.75958">
        <ele>186</ele>
        <time>2017-10-23T10:08:37Z</time>
      </trkpt>
      <trkpt lat="45.90562" lon="4.75962">
        <ele>186</ele>
        <time>2017-10-23T10:08:38Z</time>
      </trkpt>
      <trkpt lat="45.90566" lon="4.75965">
        <ele>186</ele>
        <time>2017-10-23T10:08:39Z</time>
      </trkpt>
      <trkpt lat="45.9057" lon="4.75969">
        <ele>186</ele>
        <time>2017-10-23T10:08:40Z</time>
      </trkpt>
      <trkpt lat="45.90577" lon="4.75976">
        <ele>186</ele>
        <time>2017-10-23T10:08:42Z</time>
      </trkpt>
      <trkpt lat="45.90581" lon="4.75979">
        <ele>186</ele>
        <time>2017-10-23T10:08:43Z</time>
      </trkpt>
      <trkpt lat="45.90588" lon="4.75984">
        <ele>186</ele>
        <time>2017-10-23T10:08:45Z</time>
      </trkpt>
      <trkpt lat="45.90592" lon="4.75986">
        <ele>186</ele>
        <time>2017-10-23T10:08:46Z</time>
      </trkpt>
      <trkpt lat="45.90599" lon="4.75985">
        <ele>186</ele>
        <time>2017-10-23T10:08:48Z</time>
      </trkpt>
      <trkpt lat="45.90601" lon="4.75982">
        <ele>186</ele>
        <time>2017-10-23T10:08:49Z</time>
      </trkpt>
      <trkpt lat="45.90607" lon="4.75975">
        <ele>186</ele>
        <time>2017-10-23T10:08:51Z</time>
      </trkpt>
      <trkpt lat="45.9061" lon="4.75971">
        <ele>186</ele>
        <time>2017-10-23T10:08:52Z</time>
      </trkpt>
      <trkpt lat="45.90613" lon="4.75966">
        <ele>186</ele>
        <time>2017-10-23T10:08:53Z</time>
      </trkpt>
      <trkpt lat="45.90616" lon="4.75961">
        <ele>186</ele>
        <time>2017-10-23T10:08:54Z</time>
      </trkpt>
      <trkpt lat="45.90621" lon="4.75951">
        <ele>186</ele>
        <time>2017-10-23T10:08:56Z</time>
      </trkpt>
      <trkpt lat="45.90624" lon="4.75946">
        <ele>186</ele>
        <time>2017-10-23T10:08:57Z</time>
      </trkpt>
      <trkpt lat="45.9063" lon="4.75937">
        <ele>186</ele>
        <time>2017-10-23T10:08:59Z</time>
      </trkpt>
      <trkpt lat="45.90633" lon="4.75933">
        <ele>186</ele>
        <time>2017-10-23T10:09:00Z</time>
      </trkpt>
      <trkpt lat="45.90639" lon="4.75923">
        <ele>186</ele>
        <time>2017-10-23T10:09:02Z</time>
      </trkpt>
      <trkpt lat="45.90642" lon="4.75919">
        <ele>187</ele>
        <time>2017-10-23T10:09:03Z</time>
      </trkpt>
      <trkpt lat="45.90648" lon="4.7591">
        <ele>187</ele>
        <time>2017-10-23T10:09:05Z</time>
      </trkpt>
      <trkpt lat="45.9065" lon="4.75905">
        <ele>187</ele>
        <time>2017-10-23T10:09:06Z</time>
      </trkpt>
      <trkpt lat="45.90656" lon="4.75895">
        <ele>187</ele>
        <time>2017-10-23T10:09:08Z</time>
      </trkpt>
      <trkpt lat="45.90659" lon="4.7589">
        <ele>187</ele>
        <time>2017-10-23T10:09:09Z</time>
      </trkpt>
      <trkpt lat="45.90662" lon="4.75885">
        <ele>187</ele>
        <time>2017-10-23T10:09:10Z</time>
      </trkpt>
      <trkpt lat="45.90666" lon="4.75882">
        <ele>187</ele>
        <time>2017-10-23T10:09:11Z</time>
      </trkpt>
      <trkpt lat="45.90669" lon="4.75878">
        <ele>187</ele>
        <time>2017-10-23T10:09:12Z</time>
      </trkpt>
      <trkpt lat="45.90673" lon="4.75873">
        <ele>187</ele>
        <time>2017-10-23T10:09:13Z</time>
      </trkpt>
      <trkpt lat="45.90677" lon="4.75869">
        <ele>187</ele>
        <time>2017-10-23T10:09:14Z</time>
      </trkpt>
      <trkpt lat="45.90681" lon="4.75867">
        <ele>187</ele>
        <time>2017-10-23T10:09:15Z</time>
      </trkpt>
      <trkpt lat="45.90686" lon="4.75866">
        <ele>187</ele>
        <time>2017-10-23T10:09:16Z</time>
      </trkpt>
      <trkpt lat="45.90691" lon="4.75865">
        <ele>187</ele>
        <time>2017-10-23T10:09:17Z</time>
      </trkpt>
      <trkpt lat="45.907" lon="4.75862">
        <ele>187</ele>
        <time>2017-10-23T10:09:19Z</time>
      </trkpt>
      <trkpt lat="45.90704" lon="4.75861">
        <ele>187</ele>
        <time>2017-10-23T10:09:20Z</time>
      </trkpt>
      <trkpt lat="45.90712" lon="4.7586">
        <ele>187</ele>
        <time>2017-10-23T10:09:22Z</time>
      </trkpt>
      <trkpt lat="45.90717" lon="4.7586">
        <ele>186</ele>
        <time>2017-10-23T10:09:23Z</time>
      </trkpt>
      <trkpt lat="45.90725" lon="4.75858">
        <ele>186</ele>
        <time>2017-10-23T10:09:25Z</time>
      </trkpt>
      <trkpt lat="45.9073" lon="4.75858">
        <ele>186</ele>
        <time>2017-10-23T10:09:26Z</time>
      </trkpt>
      <trkpt lat="45.90738" lon="4.75858">
        <ele>186</ele>
        <time>2017-10-23T10:09:28Z</time>
      </trkpt>
      <trkpt lat="45.90742" lon="4.75858">
        <ele>186</ele>
        <time>2017-10-23T10:09:29Z</time>
      </trkpt>
      <trkpt lat="45.90747" lon="4.75859">
        <ele>186</ele>
        <time>2017-10-23T10:09:30Z</time>
      </trkpt>
      <trkpt lat="45.90751" lon="4.75861">
        <ele>186</ele>
        <time>2017-10-23T10:09:31Z</time>
      </trkpt>
      <trkpt lat="45.90759" lon="4.75861">
        <ele>185</ele>
        <time>2017-10-23T10:09:33Z</time>
      </trkpt>
      <trkpt lat="45.90763" lon="4.75861">
        <ele>185</ele>
        <time>2017-10-23T10:09:34Z</time>
      </trkpt>
      <trkpt lat="45.90771" lon="4.75862">
        <ele>185</ele>
        <time>2017-10-23T10:09:36Z</time>
      </trkpt>
      <trkpt lat="45.90775" lon="4.75863">
        <ele>185</ele>
        <time>2017-10-23T10:09:37Z</time>
      </trkpt>
      <trkpt lat="45.9078" lon="4.75864">
        <ele>185</ele>
        <time>2017-10-23T10:09:38Z</time>
      </trkpt>
      <trkpt lat="45.90785" lon="4.75864">
        <ele>185</ele>
        <time>2017-10-23T10:09:39Z</time>
      </trkpt>
      <trkpt lat="45.9079" lon="4.75864">
        <ele>185</ele>
        <time>2017-10-23T10:09:40Z</time>
      </trkpt>
      <trkpt lat="45.90795" lon="4.75865">
        <ele>185</ele>
        <time>2017-10-23T10:09:41Z</time>
      </trkpt>
      <trkpt lat="45.90799" lon="4.75866">
        <ele>185</ele>
        <time>2017-10-23T10:09:42Z</time>
      </trkpt>
      <trkpt lat="45.90804" lon="4.75866">
        <ele>185</ele>
        <time>2017-10-23T10:09:43Z</time>
      </trkpt>
      <trkpt lat="45.90808" lon="4.75867">
        <ele>185</ele>
        <time>2017-10-23T10:09:44Z</time>
      </trkpt>
      <trkpt lat="45.90814" lon="4.75867">
        <ele>185</ele>
        <time>2017-10-23T10:09:45Z</time>
      </trkpt>
      <trkpt lat="45.90819" lon="4.75867">
        <ele>185</ele>
        <time>2017-10-23T10:09:46Z</time>
      </trkpt>
      <trkpt lat="45.90823" lon="4.75867">
        <ele>185</ele>
        <time>2017-10-23T10:09:47Z</time>
      </trkpt>
      <trkpt lat="45.90832" lon="4.75868">
        <ele>185</ele>
        <time>2017-10-23T10:09:49Z</time>
      </trkpt>
      <trkpt lat="45.90835" lon="4.75868">
        <ele>184</ele>
        <time>2017-10-23T10:09:50Z</time>
      </trkpt>
      <trkpt lat="45.90843" lon="4.75869">
        <ele>184</ele>
        <time>2017-10-23T10:09:52Z</time>
      </trkpt>
      <trkpt lat="45.90846" lon="4.75868">
        <ele>184</ele>
        <time>2017-10-23T10:09:53Z</time>
      </trkpt>
      <trkpt lat="45.90853" lon="4.75869">
        <ele>184</ele>
        <time>2017-10-23T10:09:55Z</time>
      </trkpt>
      <trkpt lat="45.90857" lon="4.7587">
        <ele>184</ele>
        <time>2017-10-23T10:09:56Z</time>
      </trkpt>
      <trkpt lat="45.90866" lon="4.75868">
        <ele>184</ele>
        <time>2017-10-23T10:09:58Z</time>
      </trkpt>
      <trkpt lat="45.9087" lon="4.75868">
        <ele>184</ele>
        <time>2017-10-23T10:09:59Z</time>
      </trkpt>
      <trkpt lat="45.90877" lon="4.75869">
        <ele>184</ele>
        <time>2017-10-23T10:10:01Z</time>
      </trkpt>
      <trkpt lat="45.90881" lon="4.75869">
        <ele>184</ele>
        <time>2017-10-23T10:10:02Z</time>
      </trkpt>
      <trkpt lat="45.90887" lon="4.75863">
        <ele>184</ele>
        <time>2017-10-23T10:10:04Z</time>
      </trkpt>
      <trkpt lat="45.9089" lon="4.75859">
        <ele>184</ele>
        <time>2017-10-23T10:10:05Z</time>
      </trkpt>
      <trkpt lat="45.90889" lon="4.7585">
        <ele>184</ele>
        <time>2017-10-23T10:10:07Z</time>
      </trkpt>
      <trkpt lat="45.90889" lon="4.75845">
        <ele>184</ele>
        <time>2017-10-23T10:10:08Z</time>
      </trkpt>
      <trkpt lat="45.90889" lon="4.75835">
        <ele>184</ele>
        <time>2017-10-23T10:10:10Z</time>
      </trkpt>
      <trkpt lat="45.9089" lon="4.7583">
        <ele>184</ele>
        <time>2017-10-23T10:10:11Z</time>
      </trkpt>
      <trkpt lat="45.9089" lon="4.75821">
        <ele>184</ele>
        <time>2017-10-23T10:10:13Z</time>
      </trkpt>
      <trkpt lat="45.90891" lon="4.75816">
        <ele>184</ele>
        <time>2017-10-23T10:10:14Z</time>
      </trkpt>
      <trkpt lat="45.90891" lon="4.75807">
        <ele>184</ele>
        <time>2017-10-23T10:10:16Z</time>
      </trkpt>
      <trkpt lat="45.90891" lon="4.75803">
        <ele>184</ele>
        <time>2017-10-23T10:10:17Z</time>
      </trkpt>
      <trkpt lat="45.90892" lon="4.75794">
        <ele>184</ele>
        <time>2017-10-23T10:10:19Z</time>
      </trkpt>
      <trkpt lat="45.90892" lon="4.75789">
        <ele>185</ele>
        <time>2017-10-23T10:10:20Z</time>
      </trkpt>
      <trkpt lat="45.90892" lon="4.75779">
        <ele>185</ele>
        <time>2017-10-23T10:10:22Z</time>
      </trkpt>
      <trkpt lat="45.90892" lon="4.75774">
        <ele>185</ele>
        <time>2017-10-23T10:10:23Z</time>
      </trkpt>
      <trkpt lat="45.90892" lon="4.75765">
        <ele>185</ele>
        <time>2017-10-23T10:10:25Z</time>
      </trkpt>
      <trkpt lat="45.90892" lon="4.7576">
        <ele>185</ele>
        <time>2017-10-23T10:10:26Z</time>
      </trkpt>
      <trkpt lat="45.90893" lon="4.7575">
        <ele>185</ele>
        <time>2017-10-23T10:10:28Z</time>
      </trkpt>
      <trkpt lat="45.90893" lon="4.75745">
        <ele>185</ele>
        <time>2017-10-23T10:10:29Z</time>
      </trkpt>
      <trkpt lat="45.90894" lon="4.75733">
        <ele>185</ele>
        <time>2017-10-23T10:10:31Z</time>
      </trkpt>
      <trkpt lat="45.90894" lon="4.75728">
        <ele>185</ele>
        <time>2017-10-23T10:10:32Z</time>
      </trkpt>
      <trkpt lat="45.90895" lon="4.75717">
        <ele>185</ele>
        <time>2017-10-23T10:10:35Z</time>
      </trkpt>
      <trkpt lat="45.90895" lon="4.75712">
        <ele>184</ele>
        <time>2017-10-23T10:10:36Z</time>
      </trkpt>
      <trkpt lat="45.90896" lon="4.75704">
        <ele>184</ele>
        <time>2017-10-23T10:10:38Z</time>
      </trkpt>
      <trkpt lat="45.90896" lon="4.757">
        <ele>184</ele>
        <time>2017-10-23T10:10:39Z</time>
      </trkpt>
      <trkpt lat="45.90897" lon="4.75691">
        <ele>184</ele>
        <time>2017-10-23T10:10:41Z</time>
      </trkpt>
      <trkpt lat="45.90897" lon="4.75686">
        <ele>184</ele>
        <time>2017-10-23T10:10:42Z</time>
      </trkpt>
      <trkpt lat="45.90898" lon="4.75674">
        <ele>184</ele>
        <time>2017-10-23T10:10:44Z</time>
      </trkpt>
      <trkpt lat="45.90898" lon="4.75668">
        <ele>184</ele>
        <time>2017-10-23T10:10:45Z</time>
      </trkpt>
      <trkpt lat="45.90898" lon="4.75659">
        <ele>184</ele>
        <time>2017-10-23T10:10:47Z</time>
      </trkpt>
      <trkpt lat="45.90898" lon="4.75654">
        <ele>184</ele>
        <time>2017-10-23T10:10:48Z</time>
      </trkpt>
      <trkpt lat="45.90898" lon="4.75643">
        <ele>185</ele>
        <time>2017-10-23T10:10:51Z</time>
      </trkpt>
      <trkpt lat="45.90898" lon="4.7564">
        <ele>185</ele>
        <time>2017-10-23T10:10:52Z</time>
      </trkpt>
      <trkpt lat="45.90897" lon="4.7563">
        <ele>185</ele>
        <time>2017-10-23T10:10:55Z</time>
      </trkpt>
      <trkpt lat="45.90897" lon="4.75626">
        <ele>185</ele>
        <time>2017-10-23T10:10:56Z</time>
      </trkpt>
      <trkpt lat="45.90897" lon="4.75617">
        <ele>185</ele>
        <time>2017-10-23T10:10:58Z</time>
      </trkpt>
      <trkpt lat="45.90898" lon="4.75613">
        <ele>185</ele>
        <time>2017-10-23T10:10:59Z</time>
      </trkpt>
      <trkpt lat="45.90898" lon="4.756">
        <ele>185</ele>
        <time>2017-10-23T10:11:02Z</time>
      </trkpt>
      <trkpt lat="45.90899" lon="4.75596">
        <ele>185</ele>
        <time>2017-10-23T10:11:03Z</time>
      </trkpt>
      <trkpt lat="45.909" lon="4.75584">
        <ele>185</ele>
        <time>2017-10-23T10:11:06Z</time>
      </trkpt>
      <trkpt lat="45.909" lon="4.75579">
        <ele>186</ele>
        <time>2017-10-23T10:11:07Z</time>
      </trkpt>
      <trkpt lat="45.90901" lon="4.7557">
        <ele>186</ele>
        <time>2017-10-23T10:11:09Z</time>
      </trkpt>
      <trkpt lat="45.90901" lon="4.75565">
        <ele>186</ele>
        <time>2017-10-23T10:11:10Z</time>
      </trkpt>
      <trkpt lat="45.90902" lon="4.75555">
        <ele>186</ele>
        <time>2017-10-23T10:11:12Z</time>
      </trkpt>
      <trkpt lat="45.90902" lon="4.75551">
        <ele>186</ele>
        <time>2017-10-23T10:11:13Z</time>
      </trkpt>
      <trkpt lat="45.90903" lon="4.75541">
        <ele>186</ele>
        <time>2017-10-23T10:11:15Z</time>
      </trkpt>
      <trkpt lat="45.90903" lon="4.75535">
        <ele>186</ele>
        <time>2017-10-23T10:11:16Z</time>
      </trkpt>
      <trkpt lat="45.90904" lon="4.75525">
        <ele>186</ele>
        <time>2017-10-23T10:11:18Z</time>
      </trkpt>
      <trkpt lat="45.90905" lon="4.7552">
        <ele>186</ele>
        <time>2017-10-23T10:11:19Z</time>
      </trkpt>
      <trkpt lat="45.90906" lon="4.7551">
        <ele>186</ele>
        <time>2017-10-23T10:11:21Z</time>
      </trkpt>
      <trkpt lat="45.90907" lon="4.75505">
        <ele>186</ele>
        <time>2017-10-23T10:11:22Z</time>
      </trkpt>
      <trkpt lat="45.90908" lon="4.75493">
        <ele>186</ele>
        <time>2017-10-23T10:11:25Z</time>
      </trkpt>
      <trkpt lat="45.90908" lon="4.75489">
        <ele>186</ele>
        <time>2017-10-23T10:11:26Z</time>
      </trkpt>
      <trkpt lat="45.90909" lon="4.75478">
        <ele>186</ele>
        <time>2017-10-23T10:11:29Z</time>
      </trkpt>
      <trkpt lat="45.9091" lon="4.75473">
        <ele>186</ele>
        <time>2017-10-23T10:11:30Z</time>
      </trkpt>
      <trkpt lat="45.90911" lon="4.75463">
        <ele>186</ele>
        <time>2017-10-23T10:11:32Z</time>
      </trkpt>
      <trkpt lat="45.90912" lon="4.75458">
        <ele>186</ele>
        <time>2017-10-23T10:11:33Z</time>
      </trkpt>
      <trkpt lat="45.90913" lon="4.75448">
        <ele>186</ele>
        <time>2017-10-23T10:11:35Z</time>
      </trkpt>
      <trkpt lat="45.90913" lon="4.75443">
        <ele>186</ele>
        <time>2017-10-23T10:11:36Z</time>
      </trkpt>
      <trkpt lat="45.90915" lon="4.75431">
        <ele>185</ele>
        <time>2017-10-23T10:11:39Z</time>
      </trkpt>
      <trkpt lat="45.90915" lon="4.75427">
        <ele>185</ele>
        <time>2017-10-23T10:11:40Z</time>
      </trkpt>
      <trkpt lat="45.90916" lon="4.75417">
        <ele>185</ele>
        <time>2017-10-23T10:11:43Z</time>
      </trkpt>
      <trkpt lat="45.90916" lon="4.75413">
        <ele>185</ele>
        <time>2017-10-23T10:11:44Z</time>
      </trkpt>
      <trkpt lat="45.90918" lon="4.75403">
        <ele>185</ele>
        <time>2017-10-23T10:11:46Z</time>
      </trkpt>
      <trkpt lat="45.90918" lon="4.75398">
        <ele>185</ele>
        <time>2017-10-23T10:11:47Z</time>
      </trkpt>
      <trkpt lat="45.9092" lon="4.75389">
        <ele>185</ele>
        <time>2017-10-23T10:11:49Z</time>
      </trkpt>
      <trkpt lat="45.9092" lon="4.75385">
        <ele>185</ele>
        <time>2017-10-23T10:11:50Z</time>
      </trkpt>
      <trkpt lat="45.90921" lon="4.75376">
        <ele>185</ele>
        <time>2017-10-23T10:11:52Z</time>
      </trkpt>
      <trkpt lat="45.90922" lon="4.75371">
        <ele>185</ele>
        <time>2017-10-23T10:11:53Z</time>
      </trkpt>
      <trkpt lat="45.90923" lon="4.7536">
        <ele>185</ele>
        <time>2017-10-23T10:11:55Z</time>
      </trkpt>
      <trkpt lat="45.90923" lon="4.75354">
        <ele>185</ele>
        <time>2017-10-23T10:11:56Z</time>
      </trkpt>
      <trkpt lat="45.90925" lon="4.75345">
        <ele>186</ele>
        <time>2017-10-23T10:11:58Z</time>
      </trkpt>
      <trkpt lat="45.90925" lon="4.7534">
        <ele>186</ele>
        <time>2017-10-23T10:11:59Z</time>
      </trkpt>
      <trkpt lat="45.90926" lon="4.75331">
        <ele>186</ele>
        <time>2017-10-23T10:12:01Z</time>
      </trkpt>
      <trkpt lat="45.90927" lon="4.75327">
        <ele>185</ele>
        <time>2017-10-23T10:12:02Z</time>
      </trkpt>
      <trkpt lat="45.90929" lon="4.75315">
        <ele>185</ele>
        <time>2017-10-23T10:12:05Z</time>
      </trkpt>
      <trkpt lat="45.90929" lon="4.75311">
        <ele>185</ele>
        <time>2017-10-23T10:12:06Z</time>
      </trkpt>
      <trkpt lat="45.9093" lon="4.753">
        <ele>185</ele>
        <time>2017-10-23T10:12:08Z</time>
      </trkpt>
      <trkpt lat="45.90931" lon="4.75294">
        <ele>185</ele>
        <time>2017-10-23T10:12:09Z</time>
      </trkpt>
      <trkpt lat="45.90932" lon="4.75284">
        <ele>185</ele>
        <time>2017-10-23T10:12:11Z</time>
      </trkpt>
      <trkpt lat="45.90932" lon="4.75279">
        <ele>185</ele>
        <time>2017-10-23T10:12:12Z</time>
      </trkpt>
      <trkpt lat="45.90933" lon="4.75269">
        <ele>185</ele>
        <time>2017-10-23T10:12:14Z</time>
      </trkpt>
      <trkpt lat="45.90933" lon="4.75264">
        <ele>185</ele>
        <time>2017-10-23T10:12:15Z</time>
      </trkpt>
      <trkpt lat="45.90934" lon="4.75254">
        <ele>185</ele>
        <time>2017-10-23T10:12:17Z</time>
      </trkpt>
      <trkpt lat="45.90935" lon="4.7525">
        <ele>184</ele>
        <time>2017-10-23T10:12:18Z</time>
      </trkpt>
      <trkpt lat="45.90936" lon="4.75241">
        <ele>184</ele>
        <time>2017-10-23T10:12:20Z</time>
      </trkpt>
      <trkpt lat="45.90936" lon="4.75236">
        <ele>184</ele>
        <time>2017-10-23T10:12:21Z</time>
      </trkpt>
      <trkpt lat="45.90936" lon="4.75227">
        <ele>184</ele>
        <time>2017-10-23T10:12:23Z</time>
      </trkpt>
      <trkpt lat="45.90937" lon="4.75223">
        <ele>184</ele>
        <time>2017-10-23T10:12:24Z</time>
      </trkpt>
      <trkpt lat="45.90938" lon="4.7521">
        <ele>184</ele>
        <time>2017-10-23T10:12:27Z</time>
      </trkpt>
      <trkpt lat="45.90939" lon="4.75206">
        <ele>184</ele>
        <time>2017-10-23T10:12:28Z</time>
      </trkpt>
      <trkpt lat="45.9094" lon="4.75197">
        <ele>183</ele>
        <time>2017-10-23T10:12:30Z</time>
      </trkpt>
      <trkpt lat="45.9094" lon="4.75193">
        <ele>183</ele>
        <time>2017-10-23T10:12:31Z</time>
      </trkpt>
      <trkpt lat="45.90941" lon="4.75182">
        <ele>183</ele>
        <time>2017-10-23T10:12:33Z</time>
      </trkpt>
      <trkpt lat="45.90942" lon="4.75176">
        <ele>183</ele>
        <time>2017-10-23T10:12:34Z</time>
      </trkpt>
      <trkpt lat="45.90943" lon="4.75166">
        <ele>182</ele>
        <time>2017-10-23T10:12:36Z</time>
      </trkpt>
      <trkpt lat="45.90944" lon="4.7516">
        <ele>182</ele>
        <time>2017-10-23T10:12:37Z</time>
      </trkpt>
      <trkpt lat="45.90945" lon="4.7515">
        <ele>182</ele>
        <time>2017-10-23T10:12:39Z</time>
      </trkpt>
      <trkpt lat="45.90946" lon="4.75144">
        <ele>182</ele>
        <time>2017-10-23T10:12:40Z</time>
      </trkpt>
      <trkpt lat="45.90947" lon="4.75134">
        <ele>181</ele>
        <time>2017-10-23T10:12:42Z</time>
      </trkpt>
      <trkpt lat="45.90947" lon="4.75129">
        <ele>181</ele>
        <time>2017-10-23T10:12:43Z</time>
      </trkpt>
      <trkpt lat="45.90949" lon="4.75119">
        <ele>181</ele>
        <time>2017-10-23T10:12:45Z</time>
      </trkpt>
      <trkpt lat="45.90949" lon="4.75114">
        <ele>181</ele>
        <time>2017-10-23T10:12:46Z</time>
      </trkpt>
      <trkpt lat="45.9095" lon="4.75104">
        <ele>181</ele>
        <time>2017-10-23T10:12:48Z</time>
      </trkpt>
      <trkpt lat="45.9095" lon="4.75099">
        <ele>181</ele>
        <time>2017-10-23T10:12:49Z</time>
      </trkpt>
      <trkpt lat="45.90951" lon="4.7509">
        <ele>181</ele>
        <time>2017-10-23T10:12:51Z</time>
      </trkpt>
      <trkpt lat="45.90952" lon="4.75086">
        <ele>181</ele>
        <time>2017-10-23T10:12:52Z</time>
      </trkpt>
      <trkpt lat="45.90952" lon="4.75076">
        <ele>179</ele>
        <time>2017-10-23T10:12:54Z</time>
      </trkpt>
      <trkpt lat="45.90953" lon="4.75072">
        <ele>179</ele>
        <time>2017-10-23T10:12:55Z</time>
      </trkpt>
      <trkpt lat="45.90954" lon="4.75063">
        <ele>179</ele>
        <time>2017-10-23T10:12:57Z</time>
      </trkpt>
      <trkpt lat="45.90955" lon="4.75058">
        <ele>179</ele>
        <time>2017-10-23T10:12:58Z</time>
      </trkpt>
      <trkpt lat="45.90955" lon="4.75049">
        <ele>179</ele>
        <time>2017-10-23T10:13:00Z</time>
      </trkpt>
      <trkpt lat="45.90956" lon="4.75045">
        <ele>179</ele>
        <time>2017-10-23T10:13:01Z</time>
      </trkpt>
      <trkpt lat="45.90958" lon="4.75033">
        <ele>179</ele>
        <time>2017-10-23T10:13:04Z</time>
      </trkpt>
      <trkpt lat="45.9096" lon="4.7503">
        <ele>179</ele>
        <time>2017-10-23T10:13:05Z</time>
      </trkpt>
      <trkpt lat="45.90966" lon="4.75029">
        <ele>178</ele>
        <time>2017-10-23T10:13:07Z</time>
      </trkpt>
      <trkpt lat="45.90969" lon="4.7503">
        <ele>178</ele>
        <time>2017-10-23T10:13:08Z</time>
      </trkpt>
      <trkpt lat="45.90977" lon="4.75034">
        <ele>178</ele>
        <time>2017-10-23T10:13:10Z</time>
      </trkpt>
      <trkpt lat="45.90981" lon="4.75037">
        <ele>178</ele>
        <time>2017-10-23T10:13:11Z</time>
      </trkpt>
      <trkpt lat="45.90987" lon="4.75042">
        <ele>179</ele>
        <time>2017-10-23T10:13:12Z</time>
      </trkpt>
      <trkpt lat="45.90992" lon="4.75043">
        <ele>179</ele>
        <time>2017-10-23T10:13:13Z</time>
      </trkpt>
      <trkpt lat="45.90996" lon="4.75045">
        <ele>179</ele>
        <time>2017-10-23T10:13:14Z</time>
      </trkpt>
      <trkpt lat="45.91" lon="4.75046">
        <ele>178</ele>
        <time>2017-10-23T10:13:15Z</time>
      </trkpt>
      <trkpt lat="45.91008" lon="4.7505">
        <ele>178</ele>
        <time>2017-10-23T10:13:17Z</time>
      </trkpt>
      <trkpt lat="45.91012" lon="4.75051">
        <ele>178</ele>
        <time>2017-10-23T10:13:18Z</time>
      </trkpt>
      <trkpt lat="45.9102" lon="4.75055">
        <ele>179</ele>
        <time>2017-10-23T10:13:20Z</time>
      </trkpt>
      <trkpt lat="45.91024" lon="4.75057">
        <ele>179</ele>
        <time>2017-10-23T10:13:21Z</time>
      </trkpt>
      <trkpt lat="45.91031" lon="4.7506">
        <ele>179</ele>
        <time>2017-10-23T10:13:23Z</time>
      </trkpt>
      <trkpt lat="45.91035" lon="4.75062">
        <ele>179</ele>
        <time>2017-10-23T10:13:24Z</time>
      </trkpt>
      <trkpt lat="45.9104" lon="4.75063">
        <ele>179</ele>
        <time>2017-10-23T10:13:25Z</time>
      </trkpt>
      <trkpt lat="45.91044" lon="4.75065">
        <ele>179</ele>
        <time>2017-10-23T10:13:26Z</time>
      </trkpt>
      <trkpt lat="45.91049" lon="4.75067">
        <ele>179</ele>
        <time>2017-10-23T10:13:27Z</time>
      </trkpt>
      <trkpt lat="45.91054" lon="4.75068">
        <ele>179</ele>
        <time>2017-10-23T10:13:28Z</time>
      </trkpt>
      <trkpt lat="45.91059" lon="4.7507">
        <ele>179</ele>
        <time>2017-10-23T10:13:29Z</time>
      </trkpt>
      <trkpt lat="45.91064" lon="4.75072">
        <ele>179</ele>
        <time>2017-10-23T10:13:30Z</time>
      </trkpt>
      <trkpt lat="45.91069" lon="4.75074">
        <ele>179</ele>
        <time>2017-10-23T10:13:31Z</time>
      </trkpt>
      <trkpt lat="45.91074" lon="4.75076">
        <ele>179</ele>
        <time>2017-10-23T10:13:32Z</time>
      </trkpt>
      <trkpt lat="45.91079" lon="4.75078">
        <ele>180</ele>
        <time>2017-10-23T10:13:33Z</time>
      </trkpt>
      <trkpt lat="45.91084" lon="4.75079">
        <ele>180</ele>
        <time>2017-10-23T10:13:34Z</time>
      </trkpt>
      <trkpt lat="45.91088" lon="4.75081">
        <ele>180</ele>
        <time>2017-10-23T10:13:35Z</time>
      </trkpt>
      <trkpt lat="45.91093" lon="4.75083">
        <ele>179</ele>
        <time>2017-10-23T10:13:36Z</time>
      </trkpt>
      <trkpt lat="45.91097" lon="4.75084">
        <ele>180</ele>
        <time>2017-10-23T10:13:37Z</time>
      </trkpt>
      <trkpt lat="45.91101" lon="4.75087">
        <ele>180</ele>
        <time>2017-10-23T10:13:38Z</time>
      </trkpt>
      <trkpt lat="45.9111" lon="4.7509">
        <ele>180</ele>
        <time>2017-10-23T10:13:40Z</time>
      </trkpt>
      <trkpt lat="45.91114" lon="4.75092">
        <ele>179</ele>
        <time>2017-10-23T10:13:41Z</time>
      </trkpt>
      <trkpt lat="45.91121" lon="4.75095">
        <ele>179</ele>
        <time>2017-10-23T10:13:43Z</time>
      </trkpt>
      <trkpt lat="45.91125" lon="4.75096">
        <ele>179</ele>
        <time>2017-10-23T10:13:44Z</time>
      </trkpt>
      <trkpt lat="45.91132" lon="4.751">
        <ele>179</ele>
        <time>2017-10-23T10:13:46Z</time>
      </trkpt>
      <trkpt lat="45.91136" lon="4.751">
        <ele>179</ele>
        <time>2017-10-23T10:13:47Z</time>
      </trkpt>
      <trkpt lat="45.91143" lon="4.75103">
        <ele>179</ele>
        <time>2017-10-23T10:13:49Z</time>
      </trkpt>
      <trkpt lat="45.91147" lon="4.75104">
        <ele>179</ele>
        <time>2017-10-23T10:13:50Z</time>
      </trkpt>
      <trkpt lat="45.91155" lon="4.75106">
        <ele>179</ele>
        <time>2017-10-23T10:13:52Z</time>
      </trkpt>
      <trkpt lat="45.91159" lon="4.75107">
        <ele>179</ele>
        <time>2017-10-23T10:13:53Z</time>
      </trkpt>
      <trkpt lat="45.91164" lon="4.75109">
        <ele>179</ele>
        <time>2017-10-23T10:13:54Z</time>
      </trkpt>
      <trkpt lat="45.91168" lon="4.75111">
        <ele>178</ele>
        <time>2017-10-23T10:13:55Z</time>
      </trkpt>
      <trkpt lat="45.91174" lon="4.75111">
        <ele>178</ele>
        <time>2017-10-23T10:13:56Z</time>
      </trkpt>
      <trkpt lat="45.91178" lon="4.75113">
        <ele>178</ele>
        <time>2017-10-23T10:13:57Z</time>
      </trkpt>
      <trkpt lat="45.91187" lon="4.75115">
        <ele>178</ele>
        <time>2017-10-23T10:13:59Z</time>
      </trkpt>
      <trkpt lat="45.91191" lon="4.75116">
        <ele>178</ele>
        <time>2017-10-23T10:14:00Z</time>
      </trkpt>
      <trkpt lat="45.912" lon="4.75118">
        <ele>178</ele>
        <time>2017-10-23T10:14:02Z</time>
      </trkpt>
      <trkpt lat="45.91204" lon="4.75119">
        <ele>178</ele>
        <time>2017-10-23T10:14:03Z</time>
      </trkpt>
      <trkpt lat="45.91212" lon="4.75121">
        <ele>177</ele>
        <time>2017-10-23T10:14:05Z</time>
      </trkpt>
      <trkpt lat="45.91216" lon="4.75122">
        <ele>177</ele>
        <time>2017-10-23T10:14:06Z</time>
      </trkpt>
      <trkpt lat="45.91223" lon="4.75125">
        <ele>177</ele>
        <time>2017-10-23T10:14:08Z</time>
      </trkpt>
      <trkpt lat="45.91227" lon="4.75127">
        <ele>177</ele>
        <time>2017-10-23T10:14:09Z</time>
      </trkpt>
      <trkpt lat="45.91235" lon="4.7513">
        <ele>177</ele>
        <time>2017-10-23T10:14:11Z</time>
      </trkpt>
      <trkpt lat="45.91239" lon="4.75132">
        <ele>177</ele>
        <time>2017-10-23T10:14:12Z</time>
      </trkpt>
      <trkpt lat="45.91247" lon="4.75135">
        <ele>177</ele>
        <time>2017-10-23T10:14:14Z</time>
      </trkpt>
      <trkpt lat="45.91251" lon="4.75137">
        <ele>177</ele>
        <time>2017-10-23T10:14:15Z</time>
      </trkpt>
      <trkpt lat="45.91259" lon="4.7514">
        <ele>177</ele>
        <time>2017-10-23T10:14:17Z</time>
      </trkpt>
      <trkpt lat="45.91263" lon="4.75143">
        <ele>177</ele>
        <time>2017-10-23T10:14:18Z</time>
      </trkpt>
      <trkpt lat="45.91267" lon="4.75145">
        <ele>177</ele>
        <time>2017-10-23T10:14:19Z</time>
      </trkpt>
      <trkpt lat="45.91271" lon="4.75146">
        <ele>177</ele>
        <time>2017-10-23T10:14:20Z</time>
      </trkpt>
      <trkpt lat="45.9128" lon="4.7515">
        <ele>177</ele>
        <time>2017-10-23T10:14:22Z</time>
      </trkpt>
      <trkpt lat="45.91283" lon="4.75151">
        <ele>177</ele>
        <time>2017-10-23T10:14:23Z</time>
      </trkpt>
      <trkpt lat="45.9129" lon="4.75153">
        <ele>177</ele>
        <time>2017-10-23T10:14:25Z</time>
      </trkpt>
      <trkpt lat="45.91293" lon="4.75154">
        <ele>177</ele>
        <time>2017-10-23T10:14:26Z</time>
      </trkpt>
      <trkpt lat="45.91299" lon="4.75157">
        <ele>177</ele>
        <time>2017-10-23T10:14:28Z</time>
      </trkpt>
      <trkpt lat="45.91302" lon="4.75158">
        <ele>177</ele>
        <time>2017-10-23T10:14:29Z</time>
      </trkpt>
      <trkpt lat="45.91308" lon="4.75155">
        <ele>177</ele>
        <time>2017-10-23T10:14:32Z</time>
      </trkpt>
      <trkpt lat="45.91309" lon="4.75151">
        <ele>177</ele>
        <time>2017-10-23T10:14:33Z</time>
      </trkpt>
      <trkpt lat="45.91309" lon="4.75141">
        <ele>177</ele>
        <time>2017-10-23T10:14:35Z</time>
      </trkpt>
      <trkpt lat="45.91308" lon="4.75135">
        <ele>177</ele>
        <time>2017-10-23T10:14:36Z</time>
      </trkpt>
      <trkpt lat="45.91306" lon="4.75123">
        <ele>177</ele>
        <time>2017-10-23T10:14:38Z</time>
      </trkpt>
      <trkpt lat="45.91305" lon="4.75118">
        <ele>177</ele>
        <time>2017-10-23T10:14:39Z</time>
      </trkpt>
      <trkpt lat="45.91304" lon="4.75108">
        <ele>177</ele>
        <time>2017-10-23T10:14:41Z</time>
      </trkpt>
      <trkpt lat="45.91303" lon="4.75104">
        <ele>177</ele>
        <time>2017-10-23T10:14:42Z</time>
      </trkpt>
      <trkpt lat="45.91302" lon="4.75094">
        <ele>177</ele>
        <time>2017-10-23T10:14:44Z</time>
      </trkpt>
      <trkpt lat="45.91302" lon="4.75088">
        <ele>177</ele>
        <time>2017-10-23T10:14:45Z</time>
      </trkpt>
      <trkpt lat="45.91301" lon="4.75076">
        <ele>177</ele>
        <time>2017-10-23T10:14:47Z</time>
      </trkpt>
      <trkpt lat="45.913" lon="4.75069">
        <ele>177</ele>
        <time>2017-10-23T10:14:48Z</time>
      </trkpt>
      <trkpt lat="45.913" lon="4.75061">
        <ele>177</ele>
        <time>2017-10-23T10:14:49Z</time>
      </trkpt>
      <trkpt lat="45.913" lon="4.75053">
        <ele>177</ele>
        <time>2017-10-23T10:14:50Z</time>
      </trkpt>
      <trkpt lat="45.913" lon="4.75045">
        <ele>177</ele>
        <time>2017-10-23T10:14:51Z</time>
      </trkpt>
      <trkpt lat="45.913" lon="4.75038">
        <ele>177</ele>
        <time>2017-10-23T10:14:52Z</time>
      </trkpt>
      <trkpt lat="45.913" lon="4.75031">
        <ele>177</ele>
        <time>2017-10-23T10:14:53Z</time>
      </trkpt>
      <trkpt lat="45.913" lon="4.75024">
        <ele>177</ele>
        <time>2017-10-23T10:14:54Z</time>
      </trkpt>
      <trkpt lat="45.913" lon="4.75017">
        <ele>177</ele>
        <time>2017-10-23T10:14:55Z</time>
      </trkpt>
      <trkpt lat="45.91301" lon="4.75009">
        <ele>177</ele>
        <time>2017-10-23T10:14:56Z</time>
      </trkpt>
      <trkpt lat="45.91301" lon="4.74998">
        <ele>177</ele>
        <time>2017-10-23T10:14:58Z</time>
      </trkpt>
      <trkpt lat="45.91301" lon="4.74992">
        <ele>177</ele>
        <time>2017-10-23T10:14:59Z</time>
      </trkpt>
      <trkpt lat="45.91303" lon="4.74984">
        <ele>177</ele>
        <time>2017-10-23T10:15:01Z</time>
      </trkpt>
      <trkpt lat="45.91303" lon="4.74977">
        <ele>177</ele>
        <time>2017-10-23T10:15:02Z</time>
      </trkpt>
      <trkpt lat="45.91304" lon="4.74964">
        <ele>177</ele>
        <time>2017-10-23T10:15:04Z</time>
      </trkpt>
      <trkpt lat="45.91304" lon="4.74958">
        <ele>177</ele>
        <time>2017-10-23T10:15:05Z</time>
      </trkpt>
      <trkpt lat="45.91306" lon="4.74949">
        <ele>177</ele>
        <time>2017-10-23T10:15:06Z</time>
      </trkpt>
      <trkpt lat="45.91307" lon="4.74942">
        <ele>177</ele>
        <time>2017-10-23T10:15:07Z</time>
      </trkpt>
      <trkpt lat="45.91308" lon="4.74934">
        <ele>177</ele>
        <time>2017-10-23T10:15:08Z</time>
      </trkpt>
      <trkpt lat="45.91308" lon="4.74925">
        <ele>177</ele>
        <time>2017-10-23T10:15:09Z</time>
      </trkpt>
      <trkpt lat="45.91309" lon="4.74913">
        <ele>176</ele>
        <time>2017-10-23T10:15:11Z</time>
      </trkpt>
      <trkpt lat="45.91309" lon="4.74907">
        <ele>176</ele>
        <time>2017-10-23T10:15:12Z</time>
      </trkpt>
      <trkpt lat="45.91312" lon="4.74896">
        <ele>176</ele>
        <time>2017-10-23T10:15:14Z</time>
      </trkpt>
      <trkpt lat="45.91313" lon="4.74891">
        <ele>176</ele>
        <time>2017-10-23T10:15:15Z</time>
      </trkpt>
      <trkpt lat="45.91314" lon="4.74881">
        <ele>176</ele>
        <time>2017-10-23T10:15:17Z</time>
      </trkpt>
      <trkpt lat="45.91314" lon="4.74876">
        <ele>176</ele>
        <time>2017-10-23T10:15:18Z</time>
      </trkpt>
      <trkpt lat="45.91315" lon="4.74864">
        <ele>176</ele>
        <time>2017-10-23T10:15:20Z</time>
      </trkpt>
      <trkpt lat="45.91315" lon="4.74858">
        <ele>176</ele>
        <time>2017-10-23T10:15:21Z</time>
      </trkpt>
      <trkpt lat="45.91315" lon="4.74851">
        <ele>176</ele>
        <time>2017-10-23T10:15:22Z</time>
      </trkpt>
      <trkpt lat="45.91315" lon="4.74845">
        <ele>176</ele>
        <time>2017-10-23T10:15:23Z</time>
      </trkpt>
      <trkpt lat="45.91315" lon="4.74838">
        <ele>176</ele>
        <time>2017-10-23T10:15:24Z</time>
      </trkpt>
      <trkpt lat="45.91314" lon="4.74832">
        <ele>175</ele>
        <time>2017-10-23T10:15:25Z</time>
      </trkpt>
      <trkpt lat="45.91314" lon="4.74821">
        <ele>175</ele>
        <time>2017-10-23T10:15:27Z</time>
      </trkpt>
      <trkpt lat="45.91314" lon="4.74815">
        <ele>175</ele>
        <time>2017-10-23T10:15:28Z</time>
      </trkpt>
      <trkpt lat="45.91316" lon="4.74803">
        <ele>175</ele>
        <time>2017-10-23T10:15:30Z</time>
      </trkpt>
      <trkpt lat="45.91317" lon="4.74796">
        <ele>174</ele>
        <time>2017-10-23T10:15:31Z</time>
      </trkpt>
      <trkpt lat="45.91318" lon="4.74785">
        <ele>174</ele>
        <time>2017-10-23T10:15:33Z</time>
      </trkpt>
      <trkpt lat="45.91318" lon="4.7478">
        <ele>174</ele>
        <time>2017-10-23T10:15:34Z</time>
      </trkpt>
      <trkpt lat="45.91321" lon="4.74768">
        <ele>174</ele>
        <time>2017-10-23T10:15:36Z</time>
      </trkpt>
      <trkpt lat="45.91323" lon="4.74761">
        <ele>174</ele>
        <time>2017-10-23T10:15:37Z</time>
      </trkpt>
      <trkpt lat="45.91324" lon="4.74753">
        <ele>173</ele>
        <time>2017-10-23T10:15:38Z</time>
      </trkpt>
      <trkpt lat="45.91326" lon="4.74746">
        <ele>173</ele>
        <time>2017-10-23T10:15:39Z</time>
      </trkpt>
      <trkpt lat="45.91327" lon="4.74738">
        <ele>173</ele>
        <time>2017-10-23T10:15:40Z</time>
      </trkpt>
      <trkpt lat="45.91329" lon="4.74731">
        <ele>173</ele>
        <time>2017-10-23T10:15:41Z</time>
      </trkpt>
      <trkpt lat="45.9133" lon="4.74724">
        <ele>173</ele>
        <time>2017-10-23T10:15:42Z</time>
      </trkpt>
      <trkpt lat="45.9133" lon="4.74718">
        <ele>173</ele>
        <time>2017-10-23T10:15:43Z</time>
      </trkpt>
      <trkpt lat="45.91331" lon="4.74705">
        <ele>173</ele>
        <time>2017-10-23T10:15:45Z</time>
      </trkpt>
      <trkpt lat="45.91331" lon="4.747">
        <ele>173</ele>
        <time>2017-10-23T10:15:46Z</time>
      </trkpt>
      <trkpt lat="45.91328" lon="4.7469">
        <ele>173</ele>
        <time>2017-10-23T10:15:48Z</time>
      </trkpt>
      <trkpt lat="45.91328" lon="4.74685">
        <ele>173</ele>
        <time>2017-10-23T10:15:49Z</time>
      </trkpt>
      <trkpt lat="45.91325" lon="4.74676">
        <ele>173</ele>
        <time>2017-10-23T10:15:51Z</time>
      </trkpt>
      <trkpt lat="45.91323" lon="4.74672">
        <ele>173</ele>
        <time>2017-10-23T10:15:52Z</time>
      </trkpt>
      <trkpt lat="45.9132" lon="4.74664">
        <ele>173</ele>
        <time>2017-10-23T10:15:54Z</time>
      </trkpt>
      <trkpt lat="45.91318" lon="4.74659">
        <ele>173</ele>
        <time>2017-10-23T10:15:55Z</time>
      </trkpt>
      <trkpt lat="45.91313" lon="4.74648">
        <ele>173</ele>
        <time>2017-10-23T10:15:57Z</time>
      </trkpt>
      <trkpt lat="45.9131" lon="4.74642">
        <ele>173</ele>
        <time>2017-10-23T10:15:58Z</time>
      </trkpt>
      <trkpt lat="45.91306" lon="4.74631">
        <ele>173</ele>
        <time>2017-10-23T10:16:00Z</time>
      </trkpt>
      <trkpt lat="45.91305" lon="4.74626">
        <ele>173</ele>
        <time>2017-10-23T10:16:01Z</time>
      </trkpt>
      <trkpt lat="45.91301" lon="4.74615">
        <ele>173</ele>
        <time>2017-10-23T10:16:03Z</time>
      </trkpt>
      <trkpt lat="45.91299" lon="4.74608">
        <ele>173</ele>
        <time>2017-10-23T10:16:04Z</time>
      </trkpt>
      <trkpt lat="45.91296" lon="4.74601">
        <ele>173</ele>
        <time>2017-10-23T10:16:05Z</time>
      </trkpt>
      <trkpt lat="45.91293" lon="4.74594">
        <ele>173</ele>
        <time>2017-10-23T10:16:06Z</time>
      </trkpt>
      <trkpt lat="45.91291" lon="4.74587">
        <ele>173</ele>
        <time>2017-10-23T10:16:07Z</time>
      </trkpt>
      <trkpt lat="45.91288" lon="4.74581">
        <ele>173</ele>
        <time>2017-10-23T10:16:08Z</time>
      </trkpt>
      <trkpt lat="45.91285" lon="4.74576">
        <ele>173</ele>
        <time>2017-10-23T10:16:09Z</time>
      </trkpt>
      <trkpt lat="45.91282" lon="4.74571">
        <ele>173</ele>
        <time>2017-10-23T10:16:10Z</time>
      </trkpt>
      <trkpt lat="45.9128" lon="4.74566">
        <ele>173</ele>
        <time>2017-10-23T10:16:11Z</time>
      </trkpt>
      <trkpt lat="45.91277" lon="4.7456">
        <ele>173</ele>
        <time>2017-10-23T10:16:12Z</time>
      </trkpt>
      <trkpt lat="45.91273" lon="4.7455">
        <ele>173</ele>
        <time>2017-10-23T10:16:14Z</time>
      </trkpt>
      <trkpt lat="45.9127" lon="4.74545">
        <ele>173</ele>
        <time>2017-10-23T10:16:15Z</time>
      </trkpt>
      <trkpt lat="45.91267" lon="4.74535">
        <ele>173</ele>
        <time>2017-10-23T10:16:17Z</time>
      </trkpt>
      <trkpt lat="45.91265" lon="4.7453">
        <ele>173</ele>
        <time>2017-10-23T10:16:18Z</time>
      </trkpt>
      <trkpt lat="45.91262" lon="4.74522">
        <ele>174</ele>
        <time>2017-10-23T10:16:20Z</time>
      </trkpt>
      <trkpt lat="45.9126" lon="4.74517">
        <ele>174</ele>
        <time>2017-10-23T10:16:21Z</time>
      </trkpt>
      <trkpt lat="45.91257" lon="4.74506">
        <ele>174</ele>
        <time>2017-10-23T10:16:23Z</time>
      </trkpt>
      <trkpt lat="45.91255" lon="4.745">
        <ele>174</ele>
        <time>2017-10-23T10:16:24Z</time>
      </trkpt>
      <trkpt lat="45.91253" lon="4.74493">
        <ele>174</ele>
        <time>2017-10-23T10:16:25Z</time>
      </trkpt>
      <trkpt lat="45.91251" lon="4.74486">
        <ele>174</ele>
        <time>2017-10-23T10:16:26Z</time>
      </trkpt>
      <trkpt lat="45.91249" lon="4.7448">
        <ele>174</ele>
        <time>2017-10-23T10:16:27Z</time>
      </trkpt>
      <trkpt lat="45.91247" lon="4.74474">
        <ele>174</ele>
        <time>2017-10-23T10:16:28Z</time>
      </trkpt>
      <trkpt lat="45.91244" lon="4.74463">
        <ele>174</ele>
        <time>2017-10-23T10:16:30Z</time>
      </trkpt>
      <trkpt lat="45.91243" lon="4.74458">
        <ele>174</ele>
        <time>2017-10-23T10:16:31Z</time>
      </trkpt>
      <trkpt lat="45.9124" lon="4.74447">
        <ele>174</ele>
        <time>2017-10-23T10:16:33Z</time>
      </trkpt>
      <trkpt lat="45.91239" lon="4.74441">
        <ele>174</ele>
        <time>2017-10-23T10:16:34Z</time>
      </trkpt>
      <trkpt lat="45.91237" lon="4.74435">
        <ele>174</ele>
        <time>2017-10-23T10:16:35Z</time>
      </trkpt>
      <trkpt lat="45.91235" lon="4.74427">
        <ele>174</ele>
        <time>2017-10-23T10:16:36Z</time>
      </trkpt>
      <trkpt lat="45.91233" lon="4.74419">
        <ele>174</ele>
        <time>2017-10-23T10:16:37Z</time>
      </trkpt>
      <trkpt lat="45.91232" lon="4.74412">
        <ele>174</ele>
        <time>2017-10-23T10:16:38Z</time>
      </trkpt>
      <trkpt lat="45.9123" lon="4.74405">
        <ele>174</ele>
        <time>2017-10-23T10:16:39Z</time>
      </trkpt>
      <trkpt lat="45.91228" lon="4.74398">
        <ele>174</ele>
        <time>2017-10-23T10:16:40Z</time>
      </trkpt>
      <trkpt lat="45.91225" lon="4.74386">
        <ele>174</ele>
        <time>2017-10-23T10:16:42Z</time>
      </trkpt>
      <trkpt lat="45.91223" lon="4.74381">
        <ele>174</ele>
        <time>2017-10-23T10:16:43Z</time>
      </trkpt>
      <trkpt lat="45.9122" lon="4.74371">
        <ele>174</ele>
        <time>2017-10-23T10:16:45Z</time>
      </trkpt>
      <trkpt lat="45.91219" lon="4.74365">
        <ele>174</ele>
        <time>2017-10-23T10:16:46Z</time>
      </trkpt>
      <trkpt lat="45.91216" lon="4.74354">
        <ele>175</ele>
        <time>2017-10-23T10:16:48Z</time>
      </trkpt>
      <trkpt lat="45.91215" lon="4.74349">
        <ele>175</ele>
        <time>2017-10-23T10:16:49Z</time>
      </trkpt>
      <trkpt lat="45.91211" lon="4.74339">
        <ele>175</ele>
        <time>2017-10-23T10:16:51Z</time>
      </trkpt>
      <trkpt lat="45.9121" lon="4.74335">
        <ele>175</ele>
        <time>2017-10-23T10:16:52Z</time>
      </trkpt>
      <trkpt lat="45.91208" lon="4.74325">
        <ele>175</ele>
        <time>2017-10-23T10:16:54Z</time>
      </trkpt>
      <trkpt lat="45.91206" lon="4.74319">
        <ele>175</ele>
        <time>2017-10-23T10:16:55Z</time>
      </trkpt>
      <trkpt lat="45.91204" lon="4.74308">
        <ele>175</ele>
        <time>2017-10-23T10:16:57Z</time>
      </trkpt>
      <trkpt lat="45.91202" lon="4.74303">
        <ele>175</ele>
        <time>2017-10-23T10:16:58Z</time>
      </trkpt>
      <trkpt lat="45.912" lon="4.74292">
        <ele>175</ele>
        <time>2017-10-23T10:17:00Z</time>
      </trkpt>
      <trkpt lat="45.91199" lon="4.74286">
        <ele>175</ele>
        <time>2017-10-23T10:17:01Z</time>
      </trkpt>
      <trkpt lat="45.91196" lon="4.74274">
        <ele>175</ele>
        <time>2017-10-23T10:17:03Z</time>
      </trkpt>
      <trkpt lat="45.91194" lon="4.74268">
        <ele>175</ele>
        <time>2017-10-23T10:17:04Z</time>
      </trkpt>
      <trkpt lat="45.91191" lon="4.74256">
        <ele>175</ele>
        <time>2017-10-23T10:17:06Z</time>
      </trkpt>
      <trkpt lat="45.9119" lon="4.74251">
        <ele>175</ele>
        <time>2017-10-23T10:17:07Z</time>
      </trkpt>
      <trkpt lat="45.91187" lon="4.74239">
        <ele>175</ele>
        <time>2017-10-23T10:17:09Z</time>
      </trkpt>
      <trkpt lat="45.91187" lon="4.74233">
        <ele>175</ele>
        <time>2017-10-23T10:17:10Z</time>
      </trkpt>
      <trkpt lat="45.91186" lon="4.74221">
        <ele>175</ele>
        <time>2017-10-23T10:17:12Z</time>
      </trkpt>
      <trkpt lat="45.91186" lon="4.74215">
        <ele>175</ele>
        <time>2017-10-23T10:17:13Z</time>
      </trkpt>
      <trkpt lat="45.91186" lon="4.74203">
        <ele>175</ele>
        <time>2017-10-23T10:17:15Z</time>
      </trkpt>
      <trkpt lat="45.91186" lon="4.74198">
        <ele>175</ele>
        <time>2017-10-23T10:17:16Z</time>
      </trkpt>
      <trkpt lat="45.91186" lon="4.74186">
        <ele>174</ele>
        <time>2017-10-23T10:17:18Z</time>
      </trkpt>
      <trkpt lat="45.91186" lon="4.74181">
        <ele>174</ele>
        <time>2017-10-23T10:17:19Z</time>
      </trkpt>
      <trkpt lat="45.91187" lon="4.7417">
        <ele>174</ele>
        <time>2017-10-23T10:17:21Z</time>
      </trkpt>
      <trkpt lat="45.91188" lon="4.74164">
        <ele>174</ele>
        <time>2017-10-23T10:17:22Z</time>
      </trkpt>
      <trkpt lat="45.9119" lon="4.74154">
        <ele>174</ele>
        <time>2017-10-23T10:17:24Z</time>
      </trkpt>
      <trkpt lat="45.91191" lon="4.74149">
        <ele>174</ele>
        <time>2017-10-23T10:17:25Z</time>
      </trkpt>
      <trkpt lat="45.91193" lon="4.74138">
        <ele>174</ele>
        <time>2017-10-23T10:17:27Z</time>
      </trkpt>
      <trkpt lat="45.91194" lon="4.74132">
        <ele>174</ele>
        <time>2017-10-23T10:17:28Z</time>
      </trkpt>
      <trkpt lat="45.91197" lon="4.74122">
        <ele>174</ele>
        <time>2017-10-23T10:17:30Z</time>
      </trkpt>
      <trkpt lat="45.91197" lon="4.74117">
        <ele>174</ele>
        <time>2017-10-23T10:17:31Z</time>
      </trkpt>
      <trkpt lat="45.91199" lon="4.74107">
        <ele>173</ele>
        <time>2017-10-23T10:17:33Z</time>
      </trkpt>
      <trkpt lat="45.912" lon="4.74102">
        <ele>173</ele>
        <time>2017-10-23T10:17:34Z</time>
      </trkpt>
      <trkpt lat="45.91203" lon="4.74093">
        <ele>173</ele>
        <time>2017-10-23T10:17:36Z</time>
      </trkpt>
      <trkpt lat="45.91204" lon="4.74089">
        <ele>173</ele>
        <time>2017-10-23T10:17:37Z</time>
      </trkpt>
      <trkpt lat="45.91206" lon="4.74079">
        <ele>173</ele>
        <time>2017-10-23T10:17:39Z</time>
      </trkpt>
      <trkpt lat="45.91207" lon="4.74075">
        <ele>173</ele>
        <time>2017-10-23T10:17:40Z</time>
      </trkpt>
      <trkpt lat="45.91209" lon="4.74065">
        <ele>173</ele>
        <time>2017-10-23T10:17:42Z</time>
      </trkpt>
      <trkpt lat="45.9121" lon="4.7406">
        <ele>173</ele>
        <time>2017-10-23T10:17:43Z</time>
      </trkpt>
      <trkpt lat="45.91212" lon="4.74051">
        <ele>173</ele>
        <time>2017-10-23T10:17:45Z</time>
      </trkpt>
      <trkpt lat="45.91213" lon="4.74047">
        <ele>173</ele>
        <time>2017-10-23T10:17:46Z</time>
      </trkpt>
      <trkpt lat="45.91216" lon="4.74035">
        <ele>173</ele>
        <time>2017-10-23T10:17:49Z</time>
      </trkpt>
      <trkpt lat="45.91216" lon="4.74032">
        <ele>173</ele>
        <time>2017-10-23T10:17:50Z</time>
      </trkpt>
      <trkpt lat="45.9122" lon="4.74021">
        <ele>173</ele>
        <time>2017-10-23T10:17:53Z</time>
      </trkpt>
      <trkpt lat="45.91221" lon="4.74017">
        <ele>173</ele>
        <time>2017-10-23T10:17:54Z</time>
      </trkpt>
      <trkpt lat="45.91222" lon="4.74009">
        <ele>173</ele>
        <time>2017-10-23T10:17:56Z</time>
      </trkpt>
      <trkpt lat="45.91223" lon="4.74004">
        <ele>173</ele>
        <time>2017-10-23T10:17:57Z</time>
      </trkpt>
      <trkpt lat="45.91225" lon="4.73993">
        <ele>173</ele>
        <time>2017-10-23T10:17:59Z</time>
      </trkpt>
      <trkpt lat="45.91225" lon="4.73987">
        <ele>173</ele>
        <time>2017-10-23T10:18:00Z</time>
      </trkpt>
      <trkpt lat="45.91226" lon="4.73976">
        <ele>173</ele>
        <time>2017-10-23T10:18:02Z</time>
      </trkpt>
      <trkpt lat="45.91227" lon="4.7397">
        <ele>173</ele>
        <time>2017-10-23T10:18:03Z</time>
      </trkpt>
      <trkpt lat="45.91228" lon="4.73958">
        <ele>173</ele>
        <time>2017-10-23T10:18:05Z</time>
      </trkpt>
      <trkpt lat="45.91228" lon="4.73952">
        <ele>173</ele>
        <time>2017-10-23T10:18:06Z</time>
      </trkpt>
      <trkpt lat="45.91228" lon="4.73945">
        <ele>173</ele>
        <time>2017-10-23T10:18:07Z</time>
      </trkpt>
      <trkpt lat="45.91228" lon="4.73939">
        <ele>173</ele>
        <time>2017-10-23T10:18:08Z</time>
      </trkpt>
      <trkpt lat="45.91227" lon="4.73932">
        <ele>173</ele>
        <time>2017-10-23T10:18:09Z</time>
      </trkpt>
      <trkpt lat="45.91227" lon="4.73925">
        <ele>173</ele>
        <time>2017-10-23T10:18:10Z</time>
      </trkpt>
      <trkpt lat="45.91226" lon="4.73918">
        <ele>173</ele>
        <time>2017-10-23T10:18:11Z</time>
      </trkpt>
      <trkpt lat="45.91224" lon="4.73912">
        <ele>174</ele>
        <time>2017-10-23T10:18:12Z</time>
      </trkpt>
      <trkpt lat="45.91223" lon="4.73905">
        <ele>174</ele>
        <time>2017-10-23T10:18:13Z</time>
      </trkpt>
      <trkpt lat="45.91222" lon="4.73898">
        <ele>174</ele>
        <time>2017-10-23T10:18:14Z</time>
      </trkpt>
      <trkpt lat="45.9122" lon="4.73891">
        <ele>174</ele>
        <time>2017-10-23T10:18:15Z</time>
      </trkpt>
      <trkpt lat="45.91218" lon="4.73883">
        <ele>174</ele>
        <time>2017-10-23T10:18:16Z</time>
      </trkpt>
      <trkpt lat="45.91215" lon="4.73875">
        <ele>174</ele>
        <time>2017-10-23T10:18:17Z</time>
      </trkpt>
      <trkpt lat="45.91213" lon="4.73868">
        <ele>174</ele>
        <time>2017-10-23T10:18:18Z</time>
      </trkpt>
      <trkpt lat="45.9121" lon="4.73861">
        <ele>174</ele>
        <time>2017-10-23T10:18:19Z</time>
      </trkpt>
      <trkpt lat="45.91207" lon="4.73854">
        <ele>174</ele>
        <time>2017-10-23T10:18:20Z</time>
      </trkpt>
      <trkpt lat="45.91204" lon="4.73846">
        <ele>174</ele>
        <time>2017-10-23T10:18:21Z</time>
      </trkpt>
      <trkpt lat="45.91201" lon="4.73839">
        <ele>174</ele>
        <time>2017-10-23T10:18:22Z</time>
      </trkpt>
      <trkpt lat="45.91198" lon="4.73831">
        <ele>175</ele>
        <time>2017-10-23T10:18:23Z</time>
      </trkpt>
      <trkpt lat="45.91194" lon="4.73823">
        <ele>175</ele>
        <time>2017-10-23T10:18:24Z</time>
      </trkpt>
      <trkpt lat="45.91191" lon="4.73814">
        <ele>175</ele>
        <time>2017-10-23T10:18:25Z</time>
      </trkpt>
      <trkpt lat="45.91187" lon="4.73806">
        <ele>175</ele>
        <time>2017-10-23T10:18:26Z</time>
      </trkpt>
      <trkpt lat="45.91184" lon="4.73799">
        <ele>175</ele>
        <time>2017-10-23T10:18:27Z</time>
      </trkpt>
      <trkpt lat="45.91181" lon="4.7379">
        <ele>175</ele>
        <time>2017-10-23T10:18:28Z</time>
      </trkpt>
      <trkpt lat="45.91177" lon="4.73782">
        <ele>175</ele>
        <time>2017-10-23T10:18:29Z</time>
      </trkpt>
      <trkpt lat="45.91174" lon="4.73774">
        <ele>175</ele>
        <time>2017-10-23T10:18:30Z</time>
      </trkpt>
      <trkpt lat="45.9117" lon="4.73766">
        <ele>175</ele>
        <time>2017-10-23T10:18:31Z</time>
      </trkpt>
      <trkpt lat="45.91167" lon="4.7376">
        <ele>175</ele>
        <time>2017-10-23T10:18:32Z</time>
      </trkpt>
      <trkpt lat="45.91163" lon="4.73748">
        <ele>175</ele>
        <time>2017-10-23T10:18:34Z</time>
      </trkpt>
      <trkpt lat="45.91164" lon="4.73742">
        <ele>175</ele>
        <time>2017-10-23T10:18:35Z</time>
      </trkpt>
      <trkpt lat="45.91171" lon="4.73736">
        <ele>175</ele>
        <time>2017-10-23T10:18:37Z</time>
      </trkpt>
      <trkpt lat="45.91175" lon="4.73735">
        <ele>175</ele>
        <time>2017-10-23T10:18:38Z</time>
      </trkpt>
      <trkpt lat="45.91182" lon="4.73737">
        <ele>175</ele>
        <time>2017-10-23T10:18:40Z</time>
      </trkpt>
      <trkpt lat="45.91186" lon="4.73739">
        <ele>175</ele>
        <time>2017-10-23T10:18:41Z</time>
      </trkpt>
      <trkpt lat="45.91194" lon="4.73741">
        <ele>175</ele>
        <time>2017-10-23T10:18:43Z</time>
      </trkpt>
      <trkpt lat="45.91198" lon="4.73742">
        <ele>175</ele>
        <time>2017-10-23T10:18:44Z</time>
      </trkpt>
      <trkpt lat="45.91207" lon="4.73743">
        <ele>175</ele>
        <time>2017-10-23T10:18:46Z</time>
      </trkpt>
      <trkpt lat="45.91211" lon="4.73743">
        <ele>175</ele>
        <time>2017-10-23T10:18:47Z</time>
      </trkpt>
      <trkpt lat="45.9122" lon="4.73743">
        <ele>175</ele>
        <time>2017-10-23T10:18:49Z</time>
      </trkpt>
      <trkpt lat="45.91224" lon="4.73743">
        <ele>175</ele>
        <time>2017-10-23T10:18:50Z</time>
      </trkpt>
      <trkpt lat="45.91231" lon="4.73743">
        <ele>175</ele>
        <time>2017-10-23T10:18:52Z</time>
      </trkpt>
      <trkpt lat="45.91234" lon="4.73742">
        <ele>175</ele>
        <time>2017-10-23T10:18:53Z</time>
      </trkpt>
      <trkpt lat="45.91242" lon="4.73742">
        <ele>175</ele>
        <time>2017-10-23T10:18:55Z</time>
      </trkpt>
      <trkpt lat="45.91246" lon="4.73742">
        <ele>175</ele>
        <time>2017-10-23T10:18:56Z</time>
      </trkpt>
      <trkpt lat="45.91254" lon="4.73742">
        <ele>175</ele>
        <time>2017-10-23T10:18:58Z</time>
      </trkpt>
      <trkpt lat="45.91258" lon="4.73743">
        <ele>175</ele>
        <time>2017-10-23T10:18:59Z</time>
      </trkpt>
      <trkpt lat="45.91267" lon="4.73742">
        <ele>174</ele>
        <time>2017-10-23T10:19:01Z</time>
      </trkpt>
      <trkpt lat="45.91272" lon="4.73742">
        <ele>174</ele>
        <time>2017-10-23T10:19:02Z</time>
      </trkpt>
      <trkpt lat="45.91277" lon="4.73742">
        <ele>174</ele>
        <time>2017-10-23T10:19:03Z</time>
      </trkpt>
      <trkpt lat="45.91282" lon="4.73741">
        <ele>174</ele>
        <time>2017-10-23T10:19:04Z</time>
      </trkpt>
      <trkpt lat="45.9129" lon="4.7374">
        <ele>174</ele>
        <time>2017-10-23T10:19:06Z</time>
      </trkpt>
      <trkpt lat="45.91294" lon="4.73741">
        <ele>174</ele>
        <time>2017-10-23T10:19:07Z</time>
      </trkpt>
      <trkpt lat="45.91301" lon="4.73741">
        <ele>174</ele>
        <time>2017-10-23T10:19:09Z</time>
      </trkpt>
      <trkpt lat="45.91305" lon="4.73741">
        <ele>174</ele>
        <time>2017-10-23T10:19:10Z</time>
      </trkpt>
      <trkpt lat="45.91313" lon="4.73741">
        <ele>174</ele>
        <time>2017-10-23T10:19:12Z</time>
      </trkpt>
      <trkpt lat="45.91316" lon="4.73741">
        <ele>174</ele>
        <time>2017-10-23T10:19:13Z</time>
      </trkpt>
      <trkpt lat="45.91324" lon="4.7374">
        <ele>173</ele>
        <time>2017-10-23T10:19:15Z</time>
      </trkpt>
      <trkpt lat="45.91329" lon="4.7374">
        <ele>173</ele>
        <time>2017-10-23T10:19:16Z</time>
      </trkpt>
      <trkpt lat="45.91337" lon="4.7374">
        <ele>173</ele>
        <time>2017-10-23T10:19:18Z</time>
      </trkpt>
      <trkpt lat="45.91342" lon="4.73741">
        <ele>173</ele>
        <time>2017-10-23T10:19:19Z</time>
      </trkpt>
      <trkpt lat="45.91347" lon="4.73741">
        <ele>173</ele>
        <time>2017-10-23T10:19:20Z</time>
      </trkpt>
      <trkpt lat="45.91352" lon="4.73741">
        <ele>173</ele>
        <time>2017-10-23T10:19:21Z</time>
      </trkpt>
      <trkpt lat="45.91357" lon="4.73741">
        <ele>173</ele>
        <time>2017-10-23T10:19:22Z</time>
      </trkpt>
      <trkpt lat="45.91362" lon="4.7374">
        <ele>173</ele>
        <time>2017-10-23T10:19:23Z</time>
      </trkpt>
      <trkpt lat="45.91367" lon="4.73741">
        <ele>173</ele>
        <time>2017-10-23T10:19:24Z</time>
      </trkpt>
      <trkpt lat="45.91372" lon="4.73741">
        <ele>173</ele>
        <time>2017-10-23T10:19:25Z</time>
      </trkpt>
      <trkpt lat="45.91377" lon="4.73742">
        <ele>173</ele>
        <time>2017-10-23T10:19:26Z</time>
      </trkpt>
      <trkpt lat="45.91382" lon="4.73741">
        <ele>173</ele>
        <time>2017-10-23T10:19:27Z</time>
      </trkpt>
      <trkpt lat="45.91387" lon="4.73741">
        <ele>173</ele>
        <time>2017-10-23T10:19:28Z</time>
      </trkpt>
      <trkpt lat="45.91392" lon="4.73741">
        <ele>173</ele>
        <time>2017-10-23T10:19:29Z</time>
      </trkpt>
      <trkpt lat="45.91396" lon="4.7374">
        <ele>173</ele>
        <time>2017-10-23T10:19:30Z</time>
      </trkpt>
      <trkpt lat="45.91401" lon="4.7374">
        <ele>173</ele>
        <time>2017-10-23T10:19:31Z</time>
      </trkpt>
      <trkpt lat="45.91409" lon="4.7374">
        <ele>173</ele>
        <time>2017-10-23T10:19:33Z</time>
      </trkpt>
      <trkpt lat="45.91413" lon="4.7374">
        <ele>172</ele>
        <time>2017-10-23T10:19:34Z</time>
      </trkpt>
      <trkpt lat="45.91421" lon="4.7374">
        <ele>173</ele>
        <time>2017-10-23T10:19:36Z</time>
      </trkpt>
      <trkpt lat="45.91425" lon="4.7374">
        <ele>173</ele>
        <time>2017-10-23T10:19:37Z</time>
      </trkpt>
      <trkpt lat="45.91434" lon="4.7374">
        <ele>173</ele>
        <time>2017-10-23T10:19:39Z</time>
      </trkpt>
      <trkpt lat="45.91438" lon="4.7374">
        <ele>173</ele>
        <time>2017-10-23T10:19:40Z</time>
      </trkpt>
      <trkpt lat="45.91446" lon="4.73741">
        <ele>173</ele>
        <time>2017-10-23T10:19:42Z</time>
      </trkpt>
      <trkpt lat="45.91449" lon="4.73741">
        <ele>173</ele>
        <time>2017-10-23T10:19:43Z</time>
      </trkpt>
      <trkpt lat="45.91457" lon="4.73741">
        <ele>173</ele>
        <time>2017-10-23T10:19:45Z</time>
      </trkpt>
      <trkpt lat="45.91461" lon="4.73739">
        <ele>174</ele>
        <time>2017-10-23T10:19:46Z</time>
      </trkpt>
      <trkpt lat="45.91467" lon="4.73734">
        <ele>174</ele>
        <time>2017-10-23T10:19:48Z</time>
      </trkpt>
      <trkpt lat="45.91469" lon="4.73729">
        <ele>174</ele>
        <time>2017-10-23T10:19:49Z</time>
      </trkpt>
      <trkpt lat="45.9147" lon="4.73718">
        <ele>174</ele>
        <time>2017-10-23T10:19:51Z</time>
      </trkpt>
      <trkpt lat="45.9147" lon="4.73712">
        <ele>174</ele>
        <time>2017-10-23T10:19:52Z</time>
      </trkpt>
      <trkpt lat="45.91467" lon="4.73703">
        <ele>174</ele>
        <time>2017-10-23T10:19:54Z</time>
      </trkpt>
      <trkpt lat="45.91466" lon="4.73698">
        <ele>174</ele>
        <time>2017-10-23T10:19:55Z</time>
      </trkpt>
      <trkpt lat="45.91462" lon="4.73689">
        <ele>174</ele>
        <time>2017-10-23T10:19:57Z</time>
      </trkpt>
      <trkpt lat="45.9146" lon="4.73684">
        <ele>174</ele>
        <time>2017-10-23T10:19:58Z</time>
      </trkpt>
      <trkpt lat="45.91456" lon="4.73676">
        <ele>174</ele>
        <time>2017-10-23T10:20:00Z</time>
      </trkpt>
      <trkpt lat="45.91454" lon="4.73672">
        <ele>174</ele>
        <time>2017-10-23T10:20:01Z</time>
      </trkpt>
      <trkpt lat="45.91449" lon="4.73663">
        <ele>174</ele>
        <time>2017-10-23T10:20:03Z</time>
      </trkpt>
      <trkpt lat="45.91447" lon="4.73658">
        <ele>174</ele>
        <time>2017-10-23T10:20:04Z</time>
      </trkpt>
      <trkpt lat="45.91444" lon="4.73649">
        <ele>174</ele>
        <time>2017-10-23T10:20:06Z</time>
      </trkpt>
      <trkpt lat="45.91442" lon="4.73645">
        <ele>174</ele>
        <time>2017-10-23T10:20:07Z</time>
      </trkpt>
      <trkpt lat="45.91439" lon="4.73636">
        <ele>174</ele>
        <time>2017-10-23T10:20:09Z</time>
      </trkpt>
      <trkpt lat="45.91438" lon="4.73631">
        <ele>174</ele>
        <time>2017-10-23T10:20:10Z</time>
      </trkpt>
      <trkpt lat="45.91436" lon="4.73621">
        <ele>175</ele>
        <time>2017-10-23T10:20:12Z</time>
      </trkpt>
      <trkpt lat="45.91435" lon="4.73616">
        <ele>175</ele>
        <time>2017-10-23T10:20:13Z</time>
      </trkpt>
      <trkpt lat="45.91434" lon="4.73605">
        <ele>175</ele>
        <time>2017-10-23T10:20:15Z</time>
      </trkpt>
      <trkpt lat="45.91433" lon="4.73599">
        <ele>175</ele>
        <time>2017-10-23T10:20:16Z</time>
      </trkpt>
      <trkpt lat="45.9143" lon="4.73589">
        <ele>175</ele>
        <time>2017-10-23T10:20:18Z</time>
      </trkpt>
      <trkpt lat="45.91429" lon="4.73584">
        <ele>175</ele>
        <time>2017-10-23T10:20:19Z</time>
      </trkpt>
      <trkpt lat="45.91428" lon="4.73575">
        <ele>175</ele>
        <time>2017-10-23T10:20:21Z</time>
      </trkpt>
      <trkpt lat="45.91427" lon="4.73571">
        <ele>175</ele>
        <time>2017-10-23T10:20:22Z</time>
      </trkpt>
      <trkpt lat="45.91427" lon="4.73561">
        <ele>175</ele>
        <time>2017-10-23T10:20:24Z</time>
      </trkpt>
      <trkpt lat="45.91427" lon="4.73556">
        <ele>174</ele>
        <time>2017-10-23T10:20:25Z</time>
      </trkpt>
      <trkpt lat="45.91428" lon="4.73544">
        <ele>174</ele>
        <time>2017-10-23T10:20:27Z</time>
      </trkpt>
      <trkpt lat="45.91428" lon="4.73539">
        <ele>174</ele>
        <time>2017-10-23T10:20:28Z</time>
      </trkpt>
      <trkpt lat="45.91429" lon="4.73527">
        <ele>174</ele>
        <time>2017-10-23T10:20:30Z</time>
      </trkpt>
      <trkpt lat="45.91428" lon="4.73522">
        <ele>174</ele>
        <time>2017-10-23T10:20:31Z</time>
      </trkpt>
      <trkpt lat="45.91428" lon="4.73512">
        <ele>174</ele>
        <time>2017-10-23T10:20:33Z</time>
      </trkpt>
      <trkpt lat="45.91428" lon="4.73508">
        <ele>174</ele>
        <time>2017-10-23T10:20:34Z</time>
      </trkpt>
      <trkpt lat="45.91427" lon="4.73496">
        <ele>174</ele>
        <time>2017-10-23T10:20:37Z</time>
      </trkpt>
      <trkpt lat="45.91427" lon="4.73492">
        <ele>174</ele>
        <time>2017-10-23T10:20:38Z</time>
      </trkpt>
      <trkpt lat="45.91427" lon="4.7348">
        <ele>174</ele>
        <time>2017-10-23T10:20:41Z</time>
      </trkpt>
      <trkpt lat="45.91426" lon="4.73476">
        <ele>174</ele>
        <time>2017-10-23T10:20:42Z</time>
      </trkpt>
      <trkpt lat="45.91426" lon="4.73466">
        <ele>174</ele>
        <time>2017-10-23T10:20:44Z</time>
      </trkpt>
      <trkpt lat="45.91426" lon="4.73461">
        <ele>174</ele>
        <time>2017-10-23T10:20:45Z</time>
      </trkpt>
      <trkpt lat="45.91426" lon="4.73452">
        <ele>174</ele>
        <time>2017-10-23T10:20:47Z</time>
      </trkpt>
      <trkpt lat="45.91426" lon="4.73447">
        <ele>174</ele>
        <time>2017-10-23T10:20:48Z</time>
      </trkpt>
      <trkpt lat="45.91425" lon="4.73438">
        <ele>174</ele>
        <time>2017-10-23T10:20:50Z</time>
      </trkpt>
      <trkpt lat="45.91424" lon="4.73433">
        <ele>174</ele>
        <time>2017-10-23T10:20:51Z</time>
      </trkpt>
      <trkpt lat="45.91424" lon="4.73424">
        <ele>174</ele>
        <time>2017-10-23T10:20:53Z</time>
      </trkpt>
      <trkpt lat="45.91423" lon="4.73419">
        <ele>174</ele>
        <time>2017-10-23T10:20:54Z</time>
      </trkpt>
      <trkpt lat="45.91423" lon="4.7341">
        <ele>174</ele>
        <time>2017-10-23T10:20:56Z</time>
      </trkpt>
      <trkpt lat="45.91423" lon="4.73405">
        <ele>174</ele>
        <time>2017-10-23T10:20:57Z</time>
      </trkpt>
      <trkpt lat="45.91423" lon="4.73396">
        <ele>174</ele>
        <time>2017-10-23T10:20:59Z</time>
      </trkpt>
      <trkpt lat="45.91423" lon="4.73392">
        <ele>174</ele>
        <time>2017-10-23T10:21:00Z</time>
      </trkpt>
      <trkpt lat="45.91425" lon="4.73383">
        <ele>174</ele>
        <time>2017-10-23T10:21:02Z</time>
      </trkpt>
      <trkpt lat="45.91428" lon="4.73379">
        <ele>174</ele>
        <time>2017-10-23T10:21:03Z</time>
      </trkpt>
      <trkpt lat="45.91435" lon="4.73376">
        <ele>174</ele>
        <time>2017-10-23T10:21:05Z</time>
      </trkpt>
      <trkpt lat="45.91439" lon="4.73375">
        <ele>174</ele>
        <time>2017-10-23T10:21:06Z</time>
      </trkpt>
      <trkpt lat="45.91446" lon="4.73374">
        <ele>174</ele>
        <time>2017-10-23T10:21:08Z</time>
      </trkpt>
      <trkpt lat="45.91448" lon="4.73373">
        <ele>174</ele>
        <time>2017-10-23T10:21:09Z</time>
      </trkpt>
      <trkpt lat="45.91455" lon="4.73373">
        <ele>174</ele>
        <time>2017-10-23T10:21:11Z</time>
      </trkpt>
      <trkpt lat="45.91459" lon="4.73372">
        <ele>174</ele>
        <time>2017-10-23T10:21:12Z</time>
      </trkpt>
      <trkpt lat="45.91465" lon="4.73372">
        <ele>174</ele>
        <time>2017-10-23T10:21:14Z</time>
      </trkpt>
      <trkpt lat="45.91469" lon="4.73371">
        <ele>174</ele>
        <time>2017-10-23T10:21:15Z</time>
      </trkpt>
      <trkpt lat="45.91475" lon="4.7337">
        <ele>174</ele>
        <time>2017-10-23T10:21:17Z</time>
      </trkpt>
      <trkpt lat="45.91478" lon="4.73369">
        <ele>174</ele>
        <time>2017-10-23T10:21:18Z</time>
      </trkpt>
      <trkpt lat="45.91484" lon="4.73368">
        <ele>174</ele>
        <time>2017-10-23T10:21:20Z</time>
      </trkpt>
      <trkpt lat="45.91487" lon="4.73367">
        <ele>174</ele>
        <time>2017-10-23T10:21:21Z</time>
      </trkpt>
      <trkpt lat="45.91493" lon="4.73366">
        <ele>174</ele>
        <time>2017-10-23T10:21:23Z</time>
      </trkpt>
      <trkpt lat="45.91497" lon="4.73365">
        <ele>174</ele>
        <time>2017-10-23T10:21:24Z</time>
      </trkpt>
      <trkpt lat="45.91504" lon="4.73364">
        <ele>174</ele>
        <time>2017-10-23T10:21:26Z</time>
      </trkpt>
      <trkpt lat="45.91508" lon="4.73364">
        <ele>174</ele>
        <time>2017-10-23T10:21:27Z</time>
      </trkpt>
      <trkpt lat="45.91514" lon="4.73366">
        <ele>174</ele>
        <time>2017-10-23T10:21:29Z</time>
      </trkpt>
      <trkpt lat="45.91517" lon="4.73368">
        <ele>174</ele>
        <time>2017-10-23T10:21:30Z</time>
      </trkpt>
      <trkpt lat="45.91522" lon="4.73377">
        <ele>174</ele>
        <time>2017-10-23T10:21:33Z</time>
      </trkpt>
      <trkpt lat="45.91523" lon="4.7338">
        <ele>174</ele>
        <time>2017-10-23T10:21:34Z</time>
      </trkpt>
      <trkpt lat="45.91529" lon="4.73389">
        <ele>174</ele>
        <time>2017-10-23T10:21:38Z</time>
      </trkpt>
      <trkpt lat="45.91531" lon="4.7339">
        <ele>174</ele>
        <time>2017-10-23T10:21:39Z</time>
      </trkpt>
      <trkpt lat="45.91539" lon="4.73391">
        <ele>174</ele>
        <time>2017-10-23T10:21:42Z</time>
      </trkpt>
      <trkpt lat="45.91542" lon="4.73391">
        <ele>174</ele>
        <time>2017-10-23T10:21:43Z</time>
      </trkpt>
      <trkpt lat="45.91548" lon="4.73389">
        <ele>174</ele>
        <time>2017-10-23T10:21:45Z</time>
      </trkpt>
      <trkpt lat="45.91552" lon="4.73388">
        <ele>174</ele>
        <time>2017-10-23T10:21:46Z</time>
      </trkpt>
      <trkpt lat="45.91558" lon="4.73387">
        <ele>174</ele>
        <time>2017-10-23T10:21:48Z</time>
      </trkpt>
      <trkpt lat="45.91561" lon="4.73386">
        <ele>174</ele>
        <time>2017-10-23T10:21:49Z</time>
      </trkpt>
      <trkpt lat="45.91568" lon="4.73385">
        <ele>174</ele>
        <time>2017-10-23T10:21:52Z</time>
      </trkpt>
      <trkpt lat="45.91571" lon="4.73385">
        <ele>174</ele>
        <time>2017-10-23T10:21:53Z</time>
      </trkpt>
      <trkpt lat="45.91577" lon="4.73384">
        <ele>174</ele>
        <time>2017-10-23T10:21:55Z</time>
      </trkpt>
      <trkpt lat="45.91581" lon="4.73384">
        <ele>174</ele>
        <time>2017-10-23T10:21:56Z</time>
      </trkpt>
      <trkpt lat="45.91588" lon="4.73383">
        <ele>173</ele>
        <time>2017-10-23T10:21:58Z</time>
      </trkpt>
      <trkpt lat="45.91591" lon="4.73382">
        <ele>173</ele>
        <time>2017-10-23T10:21:59Z</time>
      </trkpt>
      <trkpt lat="45.91599" lon="4.73381">
        <ele>173</ele>
        <time>2017-10-23T10:22:02Z</time>
      </trkpt>
      <trkpt lat="45.91602" lon="4.73381">
        <ele>173</ele>
        <time>2017-10-23T10:22:03Z</time>
      </trkpt>
      <trkpt lat="45.91608" lon="4.7338">
        <ele>173</ele>
        <time>2017-10-23T10:22:05Z</time>
      </trkpt>
      <trkpt lat="45.91611" lon="4.73379">
        <ele>173</ele>
        <time>2017-10-23T10:22:06Z</time>
      </trkpt>
      <trkpt lat="45.91618" lon="4.73379">
        <ele>173</ele>
        <time>2017-10-23T10:22:08Z</time>
      </trkpt>
      <trkpt lat="45.91621" lon="4.73378">
        <ele>173</ele>
        <time>2017-10-23T10:22:09Z</time>
      </trkpt>
      <trkpt lat="45.91629" lon="4.73377">
        <ele>173</ele>
        <time>2017-10-23T10:22:12Z</time>
      </trkpt>
      <trkpt lat="45.91631" lon="4.73376">
        <ele>173</ele>
        <time>2017-10-23T10:22:13Z</time>
      </trkpt>
      <trkpt lat="45.91639" lon="4.73376">
        <ele>173</ele>
        <time>2017-10-23T10:22:17Z</time>
      </trkpt>
      <trkpt lat="45.91641" lon="4.73376">
        <ele>173</ele>
        <time>2017-10-23T10:22:18Z</time>
      </trkpt>
      <trkpt lat="45.91646" lon="4.73383">
        <ele>173</ele>
        <time>2017-10-23T10:22:22Z</time>
      </trkpt>
      <trkpt lat="45.91647" lon="4.73385">
        <ele>173</ele>
        <time>2017-10-23T10:22:23Z</time>
      </trkpt>
      <trkpt lat="45.91653" lon="4.73394">
        <ele>173</ele>
        <time>2017-10-23T10:22:28Z</time>
      </trkpt>
      <trkpt lat="45.91655" lon="4.73395">
        <ele>173</ele>
        <time>2017-10-23T10:22:29Z</time>
      </trkpt>
      <trkpt lat="45.91659" lon="4.73401">
        <ele>173</ele>
        <time>2017-10-23T10:22:32Z</time>
      </trkpt>
      <trkpt lat="45.91661" lon="4.73404">
        <ele>173</ele>
        <time>2017-10-23T10:22:33Z</time>
      </trkpt>
      <trkpt lat="45.91666" lon="4.73411">
        <ele>173</ele>
        <time>2017-10-23T10:22:36Z</time>
      </trkpt>
      <trkpt lat="45.91668" lon="4.73414">
        <ele>173</ele>
        <time>2017-10-23T10:22:37Z</time>
      </trkpt>
      <trkpt lat="45.91674" lon="4.73422">
        <ele>173</ele>
        <time>2017-10-23T10:22:40Z</time>
      </trkpt>
      <trkpt lat="45.91675" lon="4.73424">
        <ele>173</ele>
        <time>2017-10-23T10:22:41Z</time>
      </trkpt>
      <trkpt lat="45.91681" lon="4.7343">
        <ele>173</ele>
        <time>2017-10-23T10:22:45Z</time>
      </trkpt>
      <trkpt lat="45.91683" lon="4.73432">
        <ele>173</ele>
        <time>2017-10-23T10:22:46Z</time>
      </trkpt>
      <trkpt lat="45.91685" lon="4.73441">
        <ele>173</ele>
        <time>2017-10-23T10:22:49Z</time>
      </trkpt>
      <trkpt lat="45.91685" lon="4.73445">
        <ele>173</ele>
        <time>2017-10-23T10:22:50Z</time>
      </trkpt>
      <trkpt lat="45.91687" lon="4.73456">
        <ele>173</ele>
        <time>2017-10-23T10:22:53Z</time>
      </trkpt>
      <trkpt lat="45.91688" lon="4.73459">
        <ele>173</ele>
        <time>2017-10-23T10:22:54Z</time>
      </trkpt>
      <trkpt lat="45.91694" lon="4.73465">
        <ele>173</ele>
        <time>2017-10-23T10:22:57Z</time>
      </trkpt>
      <trkpt lat="45.91696" lon="4.73466">
        <ele>173</ele>
        <time>2017-10-23T10:22:58Z</time>
      </trkpt>
      <trkpt lat="45.91702" lon="4.73463">
        <ele>173</ele>
        <time>2017-10-23T10:23:00Z</time>
      </trkpt>
      <trkpt lat="45.91704" lon="4.7346">
        <ele>173</ele>
        <time>2017-10-23T10:23:01Z</time>
      </trkpt>
      <trkpt lat="45.91711" lon="4.73454">
        <ele>174</ele>
        <time>2017-10-23T10:23:04Z</time>
      </trkpt>
      <trkpt lat="45.91713" lon="4.73452">
        <ele>174</ele>
        <time>2017-10-23T10:23:05Z</time>
      </trkpt>
      <trkpt lat="45.91718" lon="4.73448">
        <ele>174</ele>
        <time>2017-10-23T10:23:08Z</time>
      </trkpt>
      <trkpt lat="45.91721" lon="4.73446">
        <ele>174</ele>
        <time>2017-10-23T10:23:09Z</time>
      </trkpt>
      <trkpt lat="45.91729" lon="4.73442">
        <ele>174</ele>
        <time>2017-10-23T10:23:12Z</time>
      </trkpt>
      <trkpt lat="45.91731" lon="4.73441">
        <ele>174</ele>
        <time>2017-10-23T10:23:13Z</time>
      </trkpt>
      <trkpt lat="45.91738" lon="4.73438">
        <ele>174</ele>
        <time>2017-10-23T10:23:16Z</time>
      </trkpt>
      <trkpt lat="45.91741" lon="4.73438">
        <ele>174</ele>
        <time>2017-10-23T10:23:17Z</time>
      </trkpt>
      <trkpt lat="45.91749" lon="4.73437">
        <ele>174</ele>
        <time>2017-10-23T10:23:20Z</time>
      </trkpt>
      <trkpt lat="45.91752" lon="4.73437">
        <ele>174</ele>
        <time>2017-10-23T10:23:21Z</time>
      </trkpt>
      <trkpt lat="45.91759" lon="4.73436">
        <ele>174</ele>
        <time>2017-10-23T10:23:23Z</time>
      </trkpt>
      <trkpt lat="45.91762" lon="4.73436">
        <ele>174</ele>
        <time>2017-10-23T10:23:24Z</time>
      </trkpt>
      <trkpt lat="45.91769" lon="4.73431">
        <ele>174</ele>
        <time>2017-10-23T10:23:28Z</time>
      </trkpt>
      <trkpt lat="45.91771" lon="4.7343">
        <ele>174</ele>
        <time>2017-10-23T10:23:29Z</time>
      </trkpt>
      <trkpt lat="45.91778" lon="4.73427">
        <ele>174</ele>
        <time>2017-10-23T10:23:32Z</time>
      </trkpt>
      <trkpt lat="45.9178" lon="4.73426">
        <ele>174</ele>
        <time>2017-10-23T10:23:33Z</time>
      </trkpt>
      <trkpt lat="45.91787" lon="4.73424">
        <ele>174</ele>
        <time>2017-10-23T10:23:36Z</time>
      </trkpt>
      <trkpt lat="45.91789" lon="4.73423">
        <ele>174</ele>
        <time>2017-10-23T10:23:37Z</time>
      </trkpt>
      <trkpt lat="45.91794" lon="4.73415">
        <ele>173</ele>
        <time>2017-10-23T10:23:40Z</time>
      </trkpt>
      <trkpt lat="45.91794" lon="4.73411">
        <ele>173</ele>
        <time>2017-10-23T10:23:41Z</time>
      </trkpt>
      <trkpt lat="45.91793" lon="4.73399">
        <ele>173</ele>
        <time>2017-10-23T10:23:44Z</time>
      </trkpt>
      <trkpt lat="45.91792" lon="4.73395">
        <ele>173</ele>
        <time>2017-10-23T10:23:45Z</time>
      </trkpt>
      <trkpt lat="45.91791" lon="4.73384">
        <ele>173</ele>
        <time>2017-10-23T10:23:48Z</time>
      </trkpt>
      <trkpt lat="45.91791" lon="4.7338">
        <ele>173</ele>
        <time>2017-10-23T10:23:49Z</time>
      </trkpt>
      <trkpt lat="45.91791" lon="4.73367">
        <ele>172</ele>
        <time>2017-10-23T10:23:52Z</time>
      </trkpt>
      <trkpt lat="45.9179" lon="4.73364">
        <ele>172</ele>
        <time>2017-10-23T10:23:53Z</time>
      </trkpt>
      <trkpt lat="45.9179" lon="4.73352">
        <ele>172</ele>
        <time>2017-10-23T10:23:57Z</time>
      </trkpt>
      <trkpt lat="45.9179" lon="4.7335">
        <ele>172</ele>
        <time>2017-10-23T10:23:58Z</time>
      </trkpt>
      <trkpt lat="45.91799" lon="4.73345">
        <ele>172</ele>
        <time>2017-10-23T10:24:02Z</time>
      </trkpt>
      <trkpt lat="45.91801" lon="4.73345">
        <ele>172</ele>
        <time>2017-10-23T10:24:03Z</time>
      </trkpt>
      <trkpt lat="45.91807" lon="4.73343">
        <ele>172</ele>
        <time>2017-10-23T10:24:05Z</time>
      </trkpt>
      <trkpt lat="45.9181" lon="4.73342">
        <ele>172</ele>
        <time>2017-10-23T10:24:06Z</time>
      </trkpt>
      <trkpt lat="45.91817" lon="4.73339">
        <ele>172</ele>
        <time>2017-10-23T10:24:09Z</time>
      </trkpt>
      <trkpt lat="45.9182" lon="4.73338">
        <ele>172</ele>
        <time>2017-10-23T10:24:10Z</time>
      </trkpt>
      <trkpt lat="45.91826" lon="4.73335">
        <ele>172</ele>
        <time>2017-10-23T10:24:12Z</time>
      </trkpt>
      <trkpt lat="45.91829" lon="4.73334">
        <ele>172</ele>
        <time>2017-10-23T10:24:13Z</time>
      </trkpt>
      <trkpt lat="45.91835" lon="4.73332">
        <ele>172</ele>
        <time>2017-10-23T10:24:16Z</time>
      </trkpt>
      <trkpt lat="45.91838" lon="4.73331">
        <ele>172</ele>
        <time>2017-10-23T10:24:17Z</time>
      </trkpt>
      <trkpt lat="45.91844" lon="4.73328">
        <ele>172</ele>
        <time>2017-10-23T10:24:19Z</time>
      </trkpt>
      <trkpt lat="45.91847" lon="4.73327">
        <ele>172</ele>
        <time>2017-10-23T10:24:20Z</time>
      </trkpt>
      <trkpt lat="45.91854" lon="4.73326">
        <ele>171</ele>
        <time>2017-10-23T10:24:22Z</time>
      </trkpt>
      <trkpt lat="45.91856" lon="4.73325">
        <ele>171</ele>
        <time>2017-10-23T10:24:23Z</time>
      </trkpt>
      <trkpt lat="45.91864" lon="4.73324">
        <ele>171</ele>
        <time>2017-10-23T10:24:26Z</time>
      </trkpt>
      <trkpt lat="45.91866" lon="4.73323">
        <ele>171</ele>
        <time>2017-10-23T10:24:27Z</time>
      </trkpt>
      <trkpt lat="45.91874" lon="4.73321">
        <ele>171</ele>
        <time>2017-10-23T10:24:30Z</time>
      </trkpt>
      <trkpt lat="45.91877" lon="4.7332">
        <ele>171</ele>
        <time>2017-10-23T10:24:31Z</time>
      </trkpt>
      <trkpt lat="45.91884" lon="4.73317">
        <ele>171</ele>
        <time>2017-10-23T10:24:34Z</time>
      </trkpt>
      <trkpt lat="45.91886" lon="4.73316">
        <ele>171</ele>
        <time>2017-10-23T10:24:35Z</time>
      </trkpt>
      <trkpt lat="45.91894" lon="4.73314">
        <ele>171</ele>
        <time>2017-10-23T10:24:38Z</time>
      </trkpt>
      <trkpt lat="45.91897" lon="4.73313">
        <ele>171</ele>
        <time>2017-10-23T10:24:39Z</time>
      </trkpt>
      <trkpt lat="45.91904" lon="4.73312">
        <ele>171</ele>
        <time>2017-10-23T10:24:42Z</time>
      </trkpt>
      <trkpt lat="45.91906" lon="4.73311">
        <ele>171</ele>
        <time>2017-10-23T10:24:43Z</time>
      </trkpt>
      <trkpt lat="45.91914" lon="4.73306">
        <ele>171</ele>
        <time>2017-10-23T10:24:46Z</time>
      </trkpt>
      <trkpt lat="45.91917" lon="4.73305">
        <ele>171</ele>
        <time>2017-10-23T10:24:47Z</time>
      </trkpt>
      <trkpt lat="45.91924" lon="4.73303">
        <ele>171</ele>
        <time>2017-10-23T10:24:49Z</time>
      </trkpt>
      <trkpt lat="45.91927" lon="4.73302">
        <ele>171</ele>
        <time>2017-10-23T10:24:50Z</time>
      </trkpt>
      <trkpt lat="45.91935" lon="4.733">
        <ele>171</ele>
        <time>2017-10-23T10:24:53Z</time>
      </trkpt>
      <trkpt lat="45.91938" lon="4.73299">
        <ele>171</ele>
        <time>2017-10-23T10:24:54Z</time>
      </trkpt>
      <trkpt lat="45.91943" lon="4.73297">
        <ele>171</ele>
        <time>2017-10-23T10:24:55Z</time>
      </trkpt>
      <trkpt lat="45.91947" lon="4.73296">
        <ele>171</ele>
        <time>2017-10-23T10:24:56Z</time>
      </trkpt>
      <trkpt lat="45.91955" lon="4.73293">
        <ele>171</ele>
        <time>2017-10-23T10:24:58Z</time>
      </trkpt>
      <trkpt lat="45.91958" lon="4.73292">
        <ele>171</ele>
        <time>2017-10-23T10:24:59Z</time>
      </trkpt>
      <trkpt lat="45.91965" lon="4.73289">
        <ele>171</ele>
        <time>2017-10-23T10:25:02Z</time>
      </trkpt>
      <trkpt lat="45.91968" lon="4.73288">
        <ele>171</ele>
        <time>2017-10-23T10:25:03Z</time>
      </trkpt>
      <trkpt lat="45.91975" lon="4.73286">
        <ele>171</ele>
        <time>2017-10-23T10:25:06Z</time>
      </trkpt>
      <trkpt lat="45.91978" lon="4.73284">
        <ele>171</ele>
        <time>2017-10-23T10:25:07Z</time>
      </trkpt>
      <trkpt lat="45.91986" lon="4.73282">
        <ele>171</ele>
        <time>2017-10-23T10:25:09Z</time>
      </trkpt>
      <trkpt lat="45.9199" lon="4.7328">
        <ele>171</ele>
        <time>2017-10-23T10:25:10Z</time>
      </trkpt>
      <trkpt lat="45.91997" lon="4.73278">
        <ele>171</ele>
        <time>2017-10-23T10:25:12Z</time>
      </trkpt>
      <trkpt lat="45.92" lon="4.73277">
        <ele>171</ele>
        <time>2017-10-23T10:25:13Z</time>
      </trkpt>
      <trkpt lat="45.92007" lon="4.73274">
        <ele>171</ele>
        <time>2017-10-23T10:25:15Z</time>
      </trkpt>
      <trkpt lat="45.92011" lon="4.73273">
        <ele>171</ele>
        <time>2017-10-23T10:25:16Z</time>
      </trkpt>
      <trkpt lat="45.92019" lon="4.7327">
        <ele>171</ele>
        <time>2017-10-23T10:25:18Z</time>
      </trkpt>
      <trkpt lat="45.92023" lon="4.73269">
        <ele>171</ele>
        <time>2017-10-23T10:25:19Z</time>
      </trkpt>
      <trkpt lat="45.92029" lon="4.73267">
        <ele>171</ele>
        <time>2017-10-23T10:25:21Z</time>
      </trkpt>
      <trkpt lat="45.92033" lon="4.73266">
        <ele>171</ele>
        <time>2017-10-23T10:25:22Z</time>
      </trkpt>
      <trkpt lat="45.92038" lon="4.73263">
        <ele>171</ele>
        <time>2017-10-23T10:25:24Z</time>
      </trkpt>
      <trkpt lat="45.92042" lon="4.73262">
        <ele>171</ele>
        <time>2017-10-23T10:25:25Z</time>
      </trkpt>
      <trkpt lat="45.9205" lon="4.73259">
        <ele>171</ele>
        <time>2017-10-23T10:25:27Z</time>
      </trkpt>
      <trkpt lat="45.92054" lon="4.73257">
        <ele>171</ele>
        <time>2017-10-23T10:25:28Z</time>
      </trkpt>
      <trkpt lat="45.9206" lon="4.73255">
        <ele>171</ele>
        <time>2017-10-23T10:25:30Z</time>
      </trkpt>
      <trkpt lat="45.92063" lon="4.73254">
        <ele>171</ele>
        <time>2017-10-23T10:25:31Z</time>
      </trkpt>
      <trkpt lat="45.92069" lon="4.73252">
        <ele>171</ele>
        <time>2017-10-23T10:25:33Z</time>
      </trkpt>
      <trkpt lat="45.92073" lon="4.73251">
        <ele>171</ele>
        <time>2017-10-23T10:25:34Z</time>
      </trkpt>
      <trkpt lat="45.92081" lon="4.73248">
        <ele>171</ele>
        <time>2017-10-23T10:25:36Z</time>
      </trkpt>
      <trkpt lat="45.92085" lon="4.73246">
        <ele>171</ele>
        <time>2017-10-23T10:25:37Z</time>
      </trkpt>
      <trkpt lat="45.92094" lon="4.73244">
        <ele>171</ele>
        <time>2017-10-23T10:25:39Z</time>
      </trkpt>
      <trkpt lat="45.92098" lon="4.73242">
        <ele>171</ele>
        <time>2017-10-23T10:25:40Z</time>
      </trkpt>
      <trkpt lat="45.92106" lon="4.7324">
        <ele>171</ele>
        <time>2017-10-23T10:25:42Z</time>
      </trkpt>
      <trkpt lat="45.9211" lon="4.73238">
        <ele>171</ele>
        <time>2017-10-23T10:25:43Z</time>
      </trkpt>
      <trkpt lat="45.92118" lon="4.73235">
        <ele>171</ele>
        <time>2017-10-23T10:25:45Z</time>
      </trkpt>
      <trkpt lat="45.92123" lon="4.73234">
        <ele>171</ele>
        <time>2017-10-23T10:25:46Z</time>
      </trkpt>
      <trkpt lat="45.92128" lon="4.73233">
        <ele>171</ele>
        <time>2017-10-23T10:25:47Z</time>
      </trkpt>
      <trkpt lat="45.92132" lon="4.73231">
        <ele>171</ele>
        <time>2017-10-23T10:25:48Z</time>
      </trkpt>
      <trkpt lat="45.9214" lon="4.73228">
        <ele>171</ele>
        <time>2017-10-23T10:25:50Z</time>
      </trkpt>
      <trkpt lat="45.92143" lon="4.73227">
        <ele>171</ele>
        <time>2017-10-23T10:25:51Z</time>
      </trkpt>
      <trkpt lat="45.92151" lon="4.73225">
        <ele>171</ele>
        <time>2017-10-23T10:25:53Z</time>
      </trkpt>
      <trkpt lat="45.92154" lon="4.73224">
        <ele>171</ele>
        <time>2017-10-23T10:25:54Z</time>
      </trkpt>
      <trkpt lat="45.9216" lon="4.73221">
        <ele>171</ele>
        <time>2017-10-23T10:25:56Z</time>
      </trkpt>
      <trkpt lat="45.92164" lon="4.7322">
        <ele>171</ele>
        <time>2017-10-23T10:25:57Z</time>
      </trkpt>
      <trkpt lat="45.92171" lon="4.73217">
        <ele>171</ele>
        <time>2017-10-23T10:25:59Z</time>
      </trkpt>
      <trkpt lat="45.92175" lon="4.73216">
        <ele>171</ele>
        <time>2017-10-23T10:26:00Z</time>
      </trkpt>
      <trkpt lat="45.92182" lon="4.73214">
        <ele>171</ele>
        <time>2017-10-23T10:26:02Z</time>
      </trkpt>
      <trkpt lat="45.92185" lon="4.73213">
        <ele>171</ele>
        <time>2017-10-23T10:26:03Z</time>
      </trkpt>
      <trkpt lat="45.9219" lon="4.73211">
        <ele>171</ele>
        <time>2017-10-23T10:26:05Z</time>
      </trkpt>
      <trkpt lat="45.92194" lon="4.7321">
        <ele>171</ele>
        <time>2017-10-23T10:26:06Z</time>
      </trkpt>
      <trkpt lat="45.92202" lon="4.73206">
        <ele>171</ele>
        <time>2017-10-23T10:26:08Z</time>
      </trkpt>
      <trkpt lat="45.92206" lon="4.73205">
        <ele>171</ele>
        <time>2017-10-23T10:26:09Z</time>
      </trkpt>
      <trkpt lat="45.92214" lon="4.73202">
        <ele>171</ele>
        <time>2017-10-23T10:26:11Z</time>
      </trkpt>
      <trkpt lat="45.92218" lon="4.73201">
        <ele>171</ele>
        <time>2017-10-23T10:26:12Z</time>
      </trkpt>
      <trkpt lat="45.92224" lon="4.73199">
        <ele>171</ele>
        <time>2017-10-23T10:26:14Z</time>
      </trkpt>
      <trkpt lat="45.92226" lon="4.73197">
        <ele>171</ele>
        <time>2017-10-23T10:26:15Z</time>
      </trkpt>
      <trkpt lat="45.92233" lon="4.73194">
        <ele>171</ele>
        <time>2017-10-23T10:26:18Z</time>
      </trkpt>
      <trkpt lat="45.92235" lon="4.73194">
        <ele>171</ele>
        <time>2017-10-23T10:26:19Z</time>
      </trkpt>
      <trkpt lat="45.92241" lon="4.73191">
        <ele>171</ele>
        <time>2017-10-23T10:26:21Z</time>
      </trkpt>
      <trkpt lat="45.92244" lon="4.7319">
        <ele>171</ele>
        <time>2017-10-23T10:26:22Z</time>
      </trkpt>
      <trkpt lat="45.92251" lon="4.73188">
        <ele>171</ele>
        <time>2017-10-23T10:26:24Z</time>
      </trkpt>
      <trkpt lat="45.92254" lon="4.73187">
        <ele>171</ele>
        <time>2017-10-23T10:26:25Z</time>
      </trkpt>
      <trkpt lat="45.92262" lon="4.73183">
        <ele>171</ele>
        <time>2017-10-23T10:26:27Z</time>
      </trkpt>
      <trkpt lat="45.92266" lon="4.73182">
        <ele>171</ele>
        <time>2017-10-23T10:26:28Z</time>
      </trkpt>
      <trkpt lat="45.92274" lon="4.73179">
        <ele>172</ele>
        <time>2017-10-23T10:26:30Z</time>
      </trkpt>
      <trkpt lat="45.92278" lon="4.73177">
        <ele>172</ele>
        <time>2017-10-23T10:26:31Z</time>
      </trkpt>
      <trkpt lat="45.92284" lon="4.73174">
        <ele>172</ele>
        <time>2017-10-23T10:26:33Z</time>
      </trkpt>
      <trkpt lat="45.92287" lon="4.73173">
        <ele>172</ele>
        <time>2017-10-23T10:26:34Z</time>
      </trkpt>
      <trkpt lat="45.92295" lon="4.7317">
        <ele>172</ele>
        <time>2017-10-23T10:26:37Z</time>
      </trkpt>
      <trkpt lat="45.92298" lon="4.73169">
        <ele>172</ele>
        <time>2017-10-23T10:26:38Z</time>
      </trkpt>
      <trkpt lat="45.92304" lon="4.73166">
        <ele>171</ele>
        <time>2017-10-23T10:26:41Z</time>
      </trkpt>
      <trkpt lat="45.92307" lon="4.73165">
        <ele>171</ele>
        <time>2017-10-23T10:26:42Z</time>
      </trkpt>
      <trkpt lat="45.92313" lon="4.73162">
        <ele>172</ele>
        <time>2017-10-23T10:26:44Z</time>
      </trkpt>
      <trkpt lat="45.92317" lon="4.73161">
        <ele>172</ele>
        <time>2017-10-23T10:26:45Z</time>
      </trkpt>
      <trkpt lat="45.92325" lon="4.73158">
        <ele>172</ele>
        <time>2017-10-23T10:26:47Z</time>
      </trkpt>
      <trkpt lat="45.92329" lon="4.73157">
        <ele>172</ele>
        <time>2017-10-23T10:26:48Z</time>
      </trkpt>
      <trkpt lat="45.92336" lon="4.73154">
        <ele>172</ele>
        <time>2017-10-23T10:26:50Z</time>
      </trkpt>
      <trkpt lat="45.92339" lon="4.73153">
        <ele>172</ele>
        <time>2017-10-23T10:26:51Z</time>
      </trkpt>
      <trkpt lat="45.92347" lon="4.7315">
        <ele>171</ele>
        <time>2017-10-23T10:26:53Z</time>
      </trkpt>
      <trkpt lat="45.9235" lon="4.73149">
        <ele>171</ele>
        <time>2017-10-23T10:26:54Z</time>
      </trkpt>
      <trkpt lat="45.92356" lon="4.73146">
        <ele>171</ele>
        <time>2017-10-23T10:26:56Z</time>
      </trkpt>
      <trkpt lat="45.92359" lon="4.73145">
        <ele>171</ele>
        <time>2017-10-23T10:26:57Z</time>
      </trkpt>
      <trkpt lat="45.92365" lon="4.73142">
        <ele>171</ele>
        <time>2017-10-23T10:26:59Z</time>
      </trkpt>
      <trkpt lat="45.92368" lon="4.7314">
        <ele>171</ele>
        <time>2017-10-23T10:27:00Z</time>
      </trkpt>
      <trkpt lat="45.92375" lon="4.73137">
        <ele>171</ele>
        <time>2017-10-23T10:27:02Z</time>
      </trkpt>
      <trkpt lat="45.92378" lon="4.73135">
        <ele>171</ele>
        <time>2017-10-23T10:27:03Z</time>
      </trkpt>
      <trkpt lat="45.92386" lon="4.73131">
        <ele>171</ele>
        <time>2017-10-23T10:27:06Z</time>
      </trkpt>
      <trkpt lat="45.92389" lon="4.7313">
        <ele>171</ele>
        <time>2017-10-23T10:27:07Z</time>
      </trkpt>
      <trkpt lat="45.92396" lon="4.73126">
        <ele>171</ele>
        <time>2017-10-23T10:27:10Z</time>
      </trkpt>
      <trkpt lat="45.92398" lon="4.73125">
        <ele>171</ele>
        <time>2017-10-23T10:27:11Z</time>
      </trkpt>
      <trkpt lat="45.92405" lon="4.73128">
        <ele>171</ele>
        <time>2017-10-23T10:27:14Z</time>
      </trkpt>
      <trkpt lat="45.92407" lon="4.73132">
        <ele>171</ele>
        <time>2017-10-23T10:27:15Z</time>
      </trkpt>
      <trkpt lat="45.92409" lon="4.73142">
        <ele>171</ele>
        <time>2017-10-23T10:27:17Z</time>
      </trkpt>
      <trkpt lat="45.92408" lon="4.73148">
        <ele>171</ele>
        <time>2017-10-23T10:27:18Z</time>
      </trkpt>
      <trkpt lat="45.92408" lon="4.73159">
        <ele>170</ele>
        <time>2017-10-23T10:27:20Z</time>
      </trkpt>
      <trkpt lat="45.92408" lon="4.73164">
        <ele>170</ele>
        <time>2017-10-23T10:27:21Z</time>
      </trkpt>
      <trkpt lat="45.92408" lon="4.73177">
        <ele>171</ele>
        <time>2017-10-23T10:27:23Z</time>
      </trkpt>
      <trkpt lat="45.92408" lon="4.73183">
        <ele>171</ele>
        <time>2017-10-23T10:27:24Z</time>
      </trkpt>
      <trkpt lat="45.92409" lon="4.73194">
        <ele>171</ele>
        <time>2017-10-23T10:27:26Z</time>
      </trkpt>
      <trkpt lat="45.92409" lon="4.73199">
        <ele>171</ele>
        <time>2017-10-23T10:27:27Z</time>
      </trkpt>
      <trkpt lat="45.9241" lon="4.73208">
        <ele>171</ele>
        <time>2017-10-23T10:27:29Z</time>
      </trkpt>
      <trkpt lat="45.9241" lon="4.73212">
        <ele>171</ele>
        <time>2017-10-23T10:27:30Z</time>
      </trkpt>
      <trkpt lat="45.92411" lon="4.73222">
        <ele>171</ele>
        <time>2017-10-23T10:27:32Z</time>
      </trkpt>
      <trkpt lat="45.92412" lon="4.73227">
        <ele>171</ele>
        <time>2017-10-23T10:27:33Z</time>
      </trkpt>
      <trkpt lat="45.92413" lon="4.73238">
        <ele>171</ele>
        <time>2017-10-23T10:27:35Z</time>
      </trkpt>
      <trkpt lat="45.92413" lon="4.73244">
        <ele>171</ele>
        <time>2017-10-23T10:27:36Z</time>
      </trkpt>
      <trkpt lat="45.92414" lon="4.73255">
        <ele>171</ele>
        <time>2017-10-23T10:27:38Z</time>
      </trkpt>
      <trkpt lat="45.92414" lon="4.7326">
        <ele>171</ele>
        <time>2017-10-23T10:27:39Z</time>
      </trkpt>
      <trkpt lat="45.92414" lon="4.73273">
        <ele>171</ele>
        <time>2017-10-23T10:27:42Z</time>
      </trkpt>
      <trkpt lat="45.92415" lon="4.73277">
        <ele>171</ele>
        <time>2017-10-23T10:27:43Z</time>
      </trkpt>
      <trkpt lat="45.92416" lon="4.73288">
        <ele>171</ele>
        <time>2017-10-23T10:27:45Z</time>
      </trkpt>
      <trkpt lat="45.92416" lon="4.73293">
        <ele>171</ele>
        <time>2017-10-23T10:27:46Z</time>
      </trkpt>
      <trkpt lat="45.92416" lon="4.73304">
        <ele>171</ele>
        <time>2017-10-23T10:27:48Z</time>
      </trkpt>
      <trkpt lat="45.92417" lon="4.73311">
        <ele>171</ele>
        <time>2017-10-23T10:27:49Z</time>
      </trkpt>
      <trkpt lat="45.92418" lon="4.73318">
        <ele>171</ele>
        <time>2017-10-23T10:27:50Z</time>
      </trkpt>
      <trkpt lat="45.92418" lon="4.73324">
        <ele>171</ele>
        <time>2017-10-23T10:27:51Z</time>
      </trkpt>
      <trkpt lat="45.92419" lon="4.73336">
        <ele>171</ele>
        <time>2017-10-23T10:27:53Z</time>
      </trkpt>
      <trkpt lat="45.92419" lon="4.73342">
        <ele>171</ele>
        <time>2017-10-23T10:27:54Z</time>
      </trkpt>
      <trkpt lat="45.92422" lon="4.73353">
        <ele>171</ele>
        <time>2017-10-23T10:27:56Z</time>
      </trkpt>
      <trkpt lat="45.92422" lon="4.73358">
        <ele>171</ele>
        <time>2017-10-23T10:27:57Z</time>
      </trkpt>
      <trkpt lat="45.92424" lon="4.73368">
        <ele>172</ele>
        <time>2017-10-23T10:27:59Z</time>
      </trkpt>
      <trkpt lat="45.92425" lon="4.73372">
        <ele>172</ele>
        <time>2017-10-23T10:28:00Z</time>
      </trkpt>
      <trkpt lat="45.92427" lon="4.73383">
        <ele>172</ele>
        <time>2017-10-23T10:28:02Z</time>
      </trkpt>
      <trkpt lat="45.92428" lon="4.73388">
        <ele>172</ele>
        <time>2017-10-23T10:28:03Z</time>
      </trkpt>
      <trkpt lat="45.9243" lon="4.73399">
        <ele>172</ele>
        <time>2017-10-23T10:28:05Z</time>
      </trkpt>
      <trkpt lat="45.92433" lon="4.73405">
        <ele>172</ele>
        <time>2017-10-23T10:28:06Z</time>
      </trkpt>
      <trkpt lat="45.92436" lon="4.7341">
        <ele>172</ele>
        <time>2017-10-23T10:28:07Z</time>
      </trkpt>
      <trkpt lat="45.92439" lon="4.73414">
        <ele>172</ele>
        <time>2017-10-23T10:28:08Z</time>
      </trkpt>
      <trkpt lat="45.92446" lon="4.73421">
        <ele>173</ele>
        <time>2017-10-23T10:28:10Z</time>
      </trkpt>
      <trkpt lat="45.92449" lon="4.73423">
        <ele>173</ele>
        <time>2017-10-23T10:28:11Z</time>
      </trkpt>
      <trkpt lat="45.92454" lon="4.73427">
        <ele>173</ele>
        <time>2017-10-23T10:28:13Z</time>
      </trkpt>
      <trkpt lat="45.92456" lon="4.7343">
        <ele>173</ele>
        <time>2017-10-23T10:28:14Z</time>
      </trkpt>
      <trkpt lat="45.92462" lon="4.73436">
        <ele>173</ele>
        <time>2017-10-23T10:28:16Z</time>
      </trkpt>
      <trkpt lat="45.92465" lon="4.73442">
        <ele>173</ele>
        <time>2017-10-23T10:28:17Z</time>
      </trkpt>
      <trkpt lat="45.92469" lon="4.73452">
        <ele>173</ele>
        <time>2017-10-23T10:28:19Z</time>
      </trkpt>
      <trkpt lat="45.9247" lon="4.73458">
        <ele>173</ele>
        <time>2017-10-23T10:28:20Z</time>
      </trkpt>
      <trkpt lat="45.92471" lon="4.7347">
        <ele>173</ele>
        <time>2017-10-23T10:28:22Z</time>
      </trkpt>
      <trkpt lat="45.92472" lon="4.73475">
        <ele>173</ele>
        <time>2017-10-23T10:28:23Z</time>
      </trkpt>
      <trkpt lat="45.92471" lon="4.73485">
        <ele>173</ele>
        <time>2017-10-23T10:28:25Z</time>
      </trkpt>
      <trkpt lat="45.92471" lon="4.7349">
        <ele>173</ele>
        <time>2017-10-23T10:28:26Z</time>
      </trkpt>
      <trkpt lat="45.9247" lon="4.735">
        <ele>173</ele>
        <time>2017-10-23T10:28:28Z</time>
      </trkpt>
      <trkpt lat="45.9247" lon="4.73505">
        <ele>174</ele>
        <time>2017-10-23T10:28:29Z</time>
      </trkpt>
      <trkpt lat="45.9247" lon="4.73516">
        <ele>174</ele>
        <time>2017-10-23T10:28:31Z</time>
      </trkpt>
      <trkpt lat="45.9247" lon="4.73522">
        <ele>174</ele>
        <time>2017-10-23T10:28:32Z</time>
      </trkpt>
      <trkpt lat="45.9247" lon="4.73533">
        <ele>174</ele>
        <time>2017-10-23T10:28:34Z</time>
      </trkpt>
      <trkpt lat="45.9247" lon="4.73539">
        <ele>174</ele>
        <time>2017-10-23T10:28:35Z</time>
      </trkpt>
      <trkpt lat="45.92469" lon="4.73549">
        <ele>173</ele>
        <time>2017-10-23T10:28:37Z</time>
      </trkpt>
      <trkpt lat="45.92469" lon="4.73554">
        <ele>173</ele>
        <time>2017-10-23T10:28:38Z</time>
      </trkpt>
      <trkpt lat="45.92468" lon="4.73565">
        <ele>173</ele>
        <time>2017-10-23T10:28:40Z</time>
      </trkpt>
      <trkpt lat="45.92468" lon="4.73571">
        <ele>173</ele>
        <time>2017-10-23T10:28:41Z</time>
      </trkpt>
      <trkpt lat="45.92469" lon="4.73584">
        <ele>174</ele>
        <time>2017-10-23T10:28:43Z</time>
      </trkpt>
      <trkpt lat="45.92469" lon="4.73591">
        <ele>174</ele>
        <time>2017-10-23T10:28:44Z</time>
      </trkpt>
      <trkpt lat="45.92469" lon="4.73597">
        <ele>174</ele>
        <time>2017-10-23T10:28:45Z</time>
      </trkpt>
      <trkpt lat="45.92469" lon="4.73604">
        <ele>174</ele>
        <time>2017-10-23T10:28:46Z</time>
      </trkpt>
      <trkpt lat="45.9247" lon="4.73617">
        <ele>174</ele>
        <time>2017-10-23T10:28:48Z</time>
      </trkpt>
      <trkpt lat="45.9247" lon="4.73623">
        <ele>174</ele>
        <time>2017-10-23T10:28:49Z</time>
      </trkpt>
      <trkpt lat="45.92471" lon="4.73634">
        <ele>174</ele>
        <time>2017-10-23T10:28:51Z</time>
      </trkpt>
      <trkpt lat="45.92471" lon="4.73639">
        <ele>174</ele>
        <time>2017-10-23T10:28:52Z</time>
      </trkpt>
      <trkpt lat="45.92471" lon="4.73649">
        <ele>174</ele>
        <time>2017-10-23T10:28:54Z</time>
      </trkpt>
      <trkpt lat="45.92471" lon="4.73654">
        <ele>174</ele>
        <time>2017-10-23T10:28:55Z</time>
      </trkpt>
      <trkpt lat="45.92471" lon="4.73663">
        <ele>174</ele>
        <time>2017-10-23T10:28:57Z</time>
      </trkpt>
      <trkpt lat="45.9247" lon="4.73668">
        <ele>174</ele>
        <time>2017-10-23T10:28:58Z</time>
      </trkpt>
      <trkpt lat="45.92469" lon="4.7368">
        <ele>174</ele>
        <time>2017-10-23T10:29:00Z</time>
      </trkpt>
      <trkpt lat="45.92469" lon="4.73686">
        <ele>174</ele>
        <time>2017-10-23T10:29:01Z</time>
      </trkpt>
      <trkpt lat="45.92469" lon="4.73696">
        <ele>174</ele>
        <time>2017-10-23T10:29:03Z</time>
      </trkpt>
      <trkpt lat="45.92468" lon="4.73701">
        <ele>174</ele>
        <time>2017-10-23T10:29:04Z</time>
      </trkpt>
      <trkpt lat="45.92467" lon="4.73713">
        <ele>174</ele>
        <time>2017-10-23T10:29:08Z</time>
      </trkpt>
      <trkpt lat="45.92466" lon="4.73714">
        <ele>174</ele>
        <time>2017-10-23T10:29:09Z</time>
      </trkpt>
      <trkpt lat="45.92463" lon="4.73715">
        <ele>174</ele>
        <time>2017-10-23T10:29:44.587Z</time>
      </trkpt>
    </trkseg>
  </trk>
</gpx>